GFSSW_prec_precacc24_009.txt.gz
Total_Precipitation_Accumulation
0.03 0.02 0.01 0.00 0.00 0.00 0.00 0.00 0.00 0.00 0.00 0.01 0.04 0.11 0.11 0.08 0.04 0.01 0.00 0.00 0.00 0.00 0.00 0.00 0.00 0.00 0.00 0.00 0.00 0.00 0.00 0.00 0.00 0.00 0.00 0.00 0.00 0.00 0.00 0.00 0.00 0.00 0.00 0.00 0.00
0.04 0.02 0.03 0.01 0.00 0.00 0.00 0.00 0.00 0.00 0.00 0.00 0.01 0.06 0.10 0.10 0.04 0.02 0.00 0.00 0.00 0.00 0.00 0.00 0.00 0.00 0.00 0.00 0.00 0.00 0.00 0.00 0.00 0.00 0.00 0.00 0.00 0.00 0.00 0.00 0.00 0.00 0.00 0.00 0.00
0.04 0.03 0.04 0.02 0.00 0.00 0.00 0.00 0.00 0.00 0.00 0.00 0.00 0.01 0.06 0.10 0.07 0.02 0.00 0.00 0.01 0.04 0.00 0.00 0.00 0.00 0.00 0.00 0.00 0.00 0.00 0.00 0.00 0.00 0.00 0.00 0.00 0.00 0.00 0.00 0.00 0.00 0.00 0.00 0.00
0.06 0.04 0.03 0.03 0.01 0.00 0.00 0.00 0.00 0.01 0.01 0.00 0.00 0.00 0.03 0.07 0.02 0.00 0.00 0.00 0.01 0.10 0.00 0.00 0.00 0.00 0.00 0.00 0.00 0.00 0.00 0.00 0.00 0.00 0.00 0.00 0.00 0.00 0.00 0.00 0.00 0.00 0.00 0.00 0.00
0.09 0.08 0.06 0.05 0.03 0.00 0.00 0.00 0.00 0.01 0.00 0.00 0.01 0.00 0.01 0.02 0.00 0.00 0.00 0.00 0.00 0.03 0.01 0.00 0.00 0.00 0.00 0.00 0.00 0.00 0.00 0.00 0.00 0.00 0.00 0.00 0.00 0.00 0.00 0.00 0.00 0.00 0.00 0.00 0.00
0.11 0.09 0.08 0.08 0.07 0.02 0.00 0.00 0.00 0.00 0.02 0.00 0.01 0.01 0.00 0.00 0.00 0.00 0.00 0.00 0.00 0.00 0.00 0.00 0.00 0.00 0.00 0.00 0.00 0.00 0.00 0.00 0.00 0.00 0.00 0.00 0.00 0.00 0.00 0.00 0.00 0.00 0.00 0.00 0.00
0.12 0.12 0.09 0.09 0.08 0.04 0.00 0.00 0.01 0.01 0.00 0.00 0.01 0.00 0.00 0.00 0.00 0.00 0.00 0.00 0.00 0.00 0.00 0.01 0.00 0.01 0.01 0.00 0.00 0.00 0.00 0.00 0.00 0.00 0.00 0.00 0.00 0.00 0.00 0.00 0.00 0.00 0.00 0.00 0.00
0.11 0.14 0.12 0.11 0.10 0.05 0.01 0.01 0.03 0.04 0.06 0.03 0.01 0.00 0.00 0.00 0.00 0.00 0.00 0.00 0.00 0.00 0.00 0.00 0.00 0.00 0.01 0.01 0.00 0.00 0.00 0.00 0.00 0.00 0.00 0.00 0.00 0.00 0.00 0.00 0.00 0.00 0.00 0.00 0.00
0.12 0.12 0.16 0.16 0.12 0.08 0.07 0.02 0.02 0.01 0.04 0.06 0.01 0.00 0.00 0.00 0.00 0.00 0.00 0.00 0.00 0.00 0.00 0.00 0.00 0.00 0.00 0.01 0.01 0.00 0.00 0.00 0.00 0.00 0.00 0.00 0.00 0.00 0.00 0.00 0.00 0.00 0.00 0.00 0.00
0.10 0.12 0.15 0.17 0.14 0.10 0.11 0.08 0.05 0.03 0.02 0.00 0.00 0.00 0.00 0.00 0.00 0.00 0.00 0.00 0.00 0.00 0.00 0.00 0.00 0.00 0.00 0.01 0.00 0.00 0.00 0.00 0.00 0.00 0.00 0.00 0.00 0.00 0.00 0.00 0.00 0.00 0.00 0.00 0.00
0.10 0.12 0.16 0.21 0.17 0.20 0.21 0.07 0.01 0.00 0.01 0.00 0.00 0.00 0.00 0.00 0.00 0.00 0.00 0.00 0.00 0.00 0.00 0.00 0.00 0.00 0.00 0.00 0.00 0.00 0.00 0.00 0.00 0.00 0.00 0.00 0.00 0.00 0.00 0.00 0.00 0.00 0.00 0.00 0.00
0.08 0.15 0.17 0.17 0.23 0.37 0.13 0.01 0.00 0.00 0.00 0.00 0.00 0.00 0.00 0.00 0.00 0.00 0.00 0.00 0.00 0.00 0.00 0.00 0.00 0.00 0.00 0.00 0.00 0.00 0.00 0.00 0.00 0.00 0.00 0.00 0.00 0.00 0.00 0.00 0.00 0.00 0.00 0.00 0.00
0.11 0.16 0.22 0.22 0.42 0.57 0.11 0.02 0.00 0.00 0.00 0.00 0.00 0.00 0.00 0.00 0.00 0.00 0.00 0.00 0.00 0.00 0.00 0.00 0.00 0.00 0.00 0.00 0.00 0.00 0.00 0.00 0.00 0.00 0.00 0.00 0.00 0.00 0.00 0.00 0.00 0.00 0.00 0.00 0.00
0.18 0.17 0.24 0.45 0.93 0.49 0.16 0.02 0.00 0.00 0.00 0.00 0.00 0.00 0.00 0.00 0.00 0.00 0.00 0.00 0.00 0.00 0.00 0.00 0.00 0.00 0.00 0.00 0.00 0.00 0.00 0.00 0.00 0.00 0.00 0.01 0.01 0.00 0.00 0.00 0.00 0.00 0.00 0.00 0.00
0.27 0.21 0.27 0.65 0.82 0.57 0.24 0.03 0.00 0.00 0.00 0.00 0.00 0.00 0.00 0.00 0.00 0.00 0.00 0.00 0.00 0.00 0.00 0.00 0.00 0.00 0.00 0.00 0.00 0.00 0.00 0.00 0.01 0.02 0.03 0.00 0.01 0.00 0.00 0.00 0.00 0.00 0.00 0.00 0.00
0.38 0.40 0.50 0.64 0.62 0.46 0.30 0.11 0.01 0.00 0.00 0.00 0.00 0.01 0.02 0.01 0.01 0.00 0.00 0.01 0.01 0.01 0.01 0.00 0.00 0.00 0.00 0.00 0.00 0.00 0.01 0.01 0.01 0.04 0.06 0.00 0.01 0.00 0.00 0.00 0.00 0.00 0.00 0.00 0.00
0.42 0.67 0.86 0.73 0.64 0.42 0.44 0.17 0.03 0.00 0.00 0.00 0.00 0.01 0.01 0.01 0.01 0.01 0.01 0.03 0.05 0.08 0.08 0.06 0.01 0.00 0.00 0.00 0.00 0.00 0.06 0.16 0.15 0.12 0.03 0.00 0.00 0.00 0.00 0.00 0.00 0.00 0.00 0.00 0.00
0.37 0.73 0.80 0.69 0.56 0.79 0.33 0.11 0.02 0.00 0.00 0.00 0.00 0.00 0.00 0.00 0.00 0.01 0.02 0.02 0.02 0.10 0.14 0.06 0.02 0.00 0.00 0.00 0.00 0.00 0.02 0.09 0.07 0.03 0.01 0.00 0.00 0.00 0.00 0.00 0.00 0.00 0.00 0.00 0.00
0.42 0.89 1.01 0.84 0.69 0.92 0.29 0.14 0.00 0.00 0.00 0.00 0.00 0.00 0.00 0.00 0.00 0.01 0.02 0.01 0.00 0.01 0.05 0.04 0.01 0.00 0.00 0.00 0.03 0.11 0.16 0.05 0.11 0.09 0.15 0.01 0.00 0.00 0.00 0.00 0.00 0.00 0.00 0.00 0.00
0.45 1.19 0.79 0.71 0.83 0.74 0.34 0.03 0.00 0.00 0.00 0.00 0.00 0.00 0.00 0.00 0.00 0.01 0.00 0.00 0.00 0.00 0.00 0.00 0.02 0.00 0.00 0.00 0.00 0.04 0.04 0.14 0.35 0.20 0.09 0.01 0.00 0.00 0.00 0.00 0.00 0.00 0.00 0.00 0.00
0.52 0.94 0.77 0.66 0.92 0.73 0.33 0.01 0.00 0.00 0.00 0.00 0.00 0.00 0.00 0.00 0.00 0.00 0.00 0.00 0.00 0.00 0.00 0.00 0.04 0.01 0.02 0.01 0.00 0.01 0.11 0.10 0.10 0.07 0.03 0.01 0.00 0.00 0.00 0.00 0.00 0.00 0.00 0.00 0.00
0.79 0.59 0.89 0.81 0.97 0.62 0.11 0.00 0.00 0.00 0.00 0.00 0.00 0.00 0.00 0.00 0.00 0.00 0.00 0.00 0.00 0.00 0.00 0.00 0.07 0.05 0.01 0.00 0.00 0.00 0.00 0.01 0.03 0.00 0.00 0.03 0.01 0.01 0.03 0.01 0.00 0.01 0.01 0.01 0.00
0.63 0.69 0.92 0.42 0.33 0.19 0.03 0.00 0.00 0.00 0.01 0.00 0.00 0.00 0.00 0.00 0.00 0.00 0.00 0.00 0.00 0.00 0.00 0.01 0.12 0.13 0.09 0.11 0.08 0.11 0.02 0.01 0.01 0.05 0.03 0.03 0.00 0.01 0.02 0.01 0.00 0.00 0.00 0.00 0.00
0.63 0.95 1.48 0.79 0.15 0.01 0.00 0.00 0.00 0.00 0.00 0.01 0.02 0.02 0.01 0.00 0.00 0.00 0.00 0.00 0.00 0.00 0.01 0.11 0.17 0.11 0.10 0.29 0.35 0.21 0.04 0.02 0.04 0.07 0.02 0.01 0.02 0.01 0.03 0.02 0.02 0.01 0.00 0.00 0.00
0.43 0.28 0.41 0.49 0.13 0.00 0.00 0.00 0.00 0.01 0.01 0.03 0.04 0.04 0.02 0.01 0.00 0.00 0.00 0.00 0.00 0.02 0.13 0.33 0.23 0.11 0.12 0.22 0.56 0.31 0.09 0.03 0.08 0.03 0.01 0.01 0.04 0.04 0.03 0.02 0.02 0.02 0.01 0.00 0.00
0.56 0.15 0.00 0.01 0.01 0.00 0.00 0.00 0.00 0.01 0.03 0.04 0.01 0.01 0.03 0.03 0.00 0.00 0.00 0.00 0.01 0.03 0.13 0.30 0.36 0.32 0.33 0.25 0.34 0.21 0.05 0.05 0.06 0.02 0.02 0.01 0.04 0.05 0.04 0.02 0.06 0.03 0.01 0.00 0.00
0.64 0.21 0.00 0.01 0.01 0.00 0.00 0.00 0.00 0.02 0.02 0.00 0.01 0.02 0.02 0.00 0.01 0.01 0.01 0.01 0.01 0.06 0.26 0.40 0.45 0.59 0.46 0.18 0.15 0.18 0.03 0.03 0.08 0.06 0.02 0.02 0.04 0.02 0.07 0.10 0.07 0.01 0.00 0.00 0.00

GFSSW_prec_precacc24_015.txt.gz
Total_Precipitation_Accumulation
0.05 0.06 0.07 0.07 0.07 0.04 0.00 0.00 0.00 0.00 0.00 0.01 0.04 0.11 0.13 0.11 0.07 0.03 0.00 0.00 0.00 0.00 0.00 0.00 0.00 0.00 0.00 0.00 0.00 0.00 0.00 0.00 0.00 0.00 0.00 0.00 0.00 0.00 0.00 0.00 0.00 0.00 0.00 0.00 0.00
0.05 0.05 0.05 0.08 0.07 0.05 0.02 0.00 0.00 0.00 0.00 0.00 0.01 0.06 0.13 0.16 0.06 0.03 0.00 0.00 0.00 0.00 0.00 0.00 0.00 0.00 0.00 0.00 0.00 0.00 0.00 0.00 0.00 0.00 0.00 0.00 0.00 0.00 0.00 0.00 0.00 0.00 0.00 0.00 0.00
0.05 0.05 0.05 0.08 0.10 0.07 0.05 0.01 0.00 0.00 0.00 0.00 0.00 0.01 0.08 0.19 0.14 0.03 0.00 0.01 0.05 0.07 0.00 0.00 0.00 0.00 0.00 0.00 0.00 0.00 0.00 0.00 0.00 0.00 0.00 0.00 0.00 0.00 0.00 0.00 0.00 0.00 0.00 0.00 0.00
0.07 0.06 0.06 0.07 0.09 0.09 0.07 0.04 0.01 0.01 0.01 0.00 0.00 0.00 0.04 0.17 0.06 0.00 0.00 0.00 0.07 0.22 0.00 0.00 0.00 0.00 0.00 0.00 0.00 0.00 0.00 0.00 0.00 0.00 0.00 0.00 0.00 0.00 0.00 0.00 0.00 0.00 0.00 0.00 0.00
0.10 0.10 0.09 0.07 0.09 0.11 0.09 0.06 0.01 0.01 0.00 0.00 0.01 0.00 0.03 0.07 0.02 0.00 0.00 0.00 0.03 0.20 0.02 0.00 0.00 0.00 0.00 0.00 0.00 0.00 0.00 0.00 0.00 0.00 0.00 0.00 0.00 0.00 0.00 0.00 0.00 0.00 0.00 0.00 0.00
0.11 0.10 0.10 0.10 0.10 0.10 0.09 0.06 0.05 0.01 0.02 0.00 0.01 0.01 0.00 0.02 0.00 0.00 0.00 0.00 0.00 0.11 0.06 0.01 0.00 0.00 0.00 0.00 0.00 0.00 0.00 0.00 0.00 0.00 0.00 0.00 0.00 0.00 0.00 0.00 0.00 0.00 0.00 0.00 0.00
0.12 0.13 0.11 0.11 0.11 0.10 0.09 0.07 0.09 0.02 0.00 0.00 0.01 0.00 0.00 0.00 0.00 0.00 0.00 0.00 0.00 0.07 0.10 0.02 0.00 0.01 0.01 0.00 0.00 0.00 0.00 0.00 0.00 0.00 0.00 0.00 0.00 0.00 0.00 0.00 0.00 0.00 0.00 0.00 0.00
0.11 0.15 0.14 0.14 0.14 0.11 0.10 0.08 0.12 0.08 0.06 0.04 0.01 0.00 0.00 0.00 0.00 0.00 0.00 0.00 0.00 0.01 0.05 0.05 0.01 0.01 0.01 0.01 0.00 0.00 0.00 0.00 0.00 0.00 0.00 0.00 0.00 0.00 0.00 0.00 0.00 0.00 0.00 0.00 0.00
0.13 0.12 0.16 0.19 0.19 0.18 0.23 0.23 0.24 0.11 0.05 0.10 0.01 0.00 0.00 0.00 0.00 0.00 0.00 0.00 0.00 0.00 0.00 0.01 0.01 0.00 0.00 0.01 0.01 0.00 0.00 0.00 0.00 0.00 0.00 0.00 0.00 0.00 0.00 0.00 0.00 0.00 0.00 0.00 0.00
0.11 0.13 0.15 0.20 0.22 0.24 0.38 0.52 0.52 0.27 0.08 0.03 0.00 0.00 0.00 0.00 0.00 0.00 0.00 0.00 0.00 0.00 0.00 0.00 0.00 0.00 0.00 0.01 0.00 0.00 0.00 0.00 0.00 0.00 0.00 0.00 0.00 0.00 0.00 0.00 0.00 0.00 0.00 0.00 0.00
0.11 0.14 0.19 0.23 0.27 0.40 0.62 0.95 0.71 0.39 0.12 0.00 0.00 0.00 0.00 0.00 0.00 0.00 0.00 0.00 0.00 0.00 0.00 0.00 0.01 0.01 0.00 0.00 0.00 0.00 0.00 0.00 0.00 0.00 0.00 0.00 0.00 0.00 0.00 0.00 0.00 0.00 0.00 0.00 0.00
0.12 0.20 0.23 0.21 0.28 0.63 0.74 0.85 0.29 0.08 0.03 0.00 0.00 0.00 0.00 0.00 0.00 0.00 0.00 0.00 0.00 0.00 0.00 0.00 0.00 0.00 0.00 0.00 0.00 0.00 0.00 0.00 0.00 0.00 0.00 0.00 0.00 0.00 0.00 0.00 0.00 0.00 0.00 0.00 0.00
0.17 0.21 0.27 0.26 0.45 0.78 0.53 0.48 0.21 0.09 0.02 0.00 0.00 0.00 0.00 0.00 0.00 0.00 0.00 0.00 0.00 0.00 0.00 0.00 0.00 0.00 0.00 0.00 0.00 0.00 0.00 0.00 0.00 0.00 0.00 0.00 0.00 0.00 0.00 0.00 0.00 0.00 0.00 0.00 0.00
0.25 0.21 0.28 0.50 0.96 0.60 0.55 0.26 0.27 0.22 0.09 0.01 0.00 0.00 0.00 0.00 0.00 0.00 0.00 0.00 0.00 0.00 0.00 0.00 0.00 0.00 0.00 0.00 0.00 0.00 0.00 0.00 0.00 0.00 0.00 0.01 0.01 0.00 0.00 0.00 0.00 0.00 0.00 0.00 0.00
0.30 0.25 0.31 0.75 0.91 0.66 0.63 0.61 0.43 0.35 0.34 0.03 0.00 0.00 0.01 0.00 0.00 0.00 0.00 0.00 0.00 0.00 0.00 0.00 0.00 0.00 0.00 0.00 0.00 0.00 0.00 0.00 0.01 0.02 0.03 0.00 0.03 0.00 0.00 0.00 0.00 0.00 0.00 0.00 0.00
0.41 0.49 0.62 0.74 0.68 0.55 0.60 0.89 0.74 0.35 0.20 0.01 0.01 0.03 0.03 0.01 0.01 0.00 0.01 0.01 0.01 0.01 0.01 0.00 0.00 0.00 0.00 0.00 0.00 0.00 0.02 0.01 0.02 0.05 0.09 0.00 0.01 0.00 0.00 0.00 0.00 0.00 0.00 0.00 0.00
0.70 0.97 1.05 0.87 0.69 0.54 0.95 1.14 0.87 0.18 0.01 0.01 0.01 0.03 0.01 0.01 0.02 0.01 0.02 0.04 0.05 0.08 0.09 0.06 0.01 0.00 0.00 0.00 0.00 0.01 0.07 0.17 0.17 0.16 0.05 0.00 0.00 0.00 0.00 0.00 0.00 0.00 0.00 0.00 0.00
0.83 0.86 0.84 0.71 0.60 1.08 1.04 0.74 0.47 0.04 0.00 0.00 0.01 0.01 0.01 0.00 0.02 0.01 0.03 0.04 0.03 0.10 0.14 0.06 0.02 0.00 0.00 0.00 0.00 0.00 0.03 0.10 0.08 0.03 0.01 0.00 0.00 0.00 0.00 0.00 0.00 0.00 0.00 0.00 0.00
0.66 0.96 1.08 0.88 0.76 1.28 0.93 0.51 0.16 0.00 0.00 0.00 0.01 0.02 0.02 0.01 0.01 0.02 0.03 0.01 0.00 0.01 0.05 0.04 0.01 0.00 0.00 0.00 0.03 0.12 0.17 0.05 0.15 0.11 0.22 0.02 0.00 0.00 0.00 0.00 0.00 0.00 0.00 0.00 0.00
0.67 1.31 0.97 0.80 0.90 1.07 0.75 0.27 0.03 0.00 0.00 0.00 0.00 0.00 0.00 0.00 0.01 0.01 0.01 0.00 0.00 0.00 0.00 0.00 0.02 0.00 0.00 0.01 0.01 0.04 0.05 0.16 0.43 0.23 0.12 0.01 0.00 0.00 0.00 0.00 0.00 0.00 0.00 0.00 0.00
0.74 1.17 1.00 0.72 1.04 1.03 0.64 0.19 0.01 0.00 0.00 0.00 0.00 0.00 0.00 0.00 0.00 0.00 0.00 0.00 0.00 0.00 0.00 0.01 0.04 0.01 0.02 0.01 0.00 0.02 0.13 0.12 0.16 0.11 0.08 0.03 0.00 0.00 0.00 0.00 0.00 0.00 0.00 0.00 0.00
1.00 0.96 0.99 0.89 1.16 0.82 0.30 0.04 0.00 0.00 0.00 0.00 0.00 0.00 0.00 0.00 0.00 0.00 0.00 0.00 0.00 0.00 0.00 0.00 0.08 0.06 0.01 0.00 0.00 0.00 0.00 0.03 0.18 0.06 0.11 0.09 0.03 0.01 0.03 0.01 0.00 0.01 0.01 0.01 0.00
0.88 0.92 1.08 0.52 0.41 0.27 0.13 0.01 0.00 0.01 0.01 0.00 0.00 0.00 0.00 0.00 0.00 0.00 0.00 0.00 0.00 0.00 0.00 0.01 0.13 0.13 0.09 0.11 0.09 0.12 0.02 0.08 0.15 0.26 0.18 0.11 0.02 0.01 0.02 0.01 0.00 0.00 0.00 0.00 0.00
0.81 1.19 1.61 0.88 0.17 0.02 0.04 0.02 0.01 0.01 0.00 0.01 0.02 0.02 0.01 0.00 0.00 0.00 0.00 0.00 0.00 0.00 0.01 0.11 0.17 0.11 0.10 0.29 0.41 0.32 0.07 0.08 0.28 0.32 0.05 0.04 0.02 0.01 0.03 0.02 0.02 0.01 0.00 0.00 0.00
0.51 0.31 0.43 0.53 0.15 0.02 0.01 0.01 0.00 0.01 0.01 0.03 0.04 0.04 0.02 0.01 0.00 0.00 0.00 0.00 0.00 0.02 0.13 0.33 0.24 0.11 0.12 0.22 0.58 0.38 0.14 0.10 0.30 0.12 0.10 0.04 0.04 0.04 0.03 0.03 0.02 0.02 0.01 0.00 0.00
0.61 0.16 0.01 0.01 0.02 0.00 0.00 0.01 0.00 0.01 0.03 0.04 0.01 0.01 0.03 0.03 0.00 0.00 0.00 0.00 0.01 0.03 0.13 0.31 0.38 0.33 0.34 0.25 0.35 0.27 0.07 0.11 0.11 0.03 0.04 0.01 0.04 0.05 0.04 0.02 0.07 0.06 0.02 0.00 0.00
0.69 0.22 0.01 0.01 0.01 0.00 0.00 0.00 0.00 0.02 0.02 0.00 0.01 0.02 0.02 0.01 0.01 0.01 0.01 0.01 0.01 0.06 0.26 0.41 0.47 0.63 0.48 0.18 0.19 0.26 0.07 0.05 0.09 0.06 0.02 0.02 0.04 0.05 0.22 0.43 0.37 0.09 0.03 0.01 0.01

GFSSW_prec_precacc24_018.txt.gz
Total_Precipitation_Accumulation
0.05 0.06 0.07 0.08 0.08 0.08 0.07 0.04 0.01 0.00 0.00 0.01 0.04 0.11 0.13 0.11 0.07 0.04 0.01 0.00 0.00 0.00 0.00 0.00 0.00 0.00 0.00 0.00 0.00 0.00 0.00 0.00 0.00 0.00 0.00 0.00 0.00 0.00 0.00 0.00 0.00 0.00 0.00 0.00 0.00
0.05 0.05 0.05 0.08 0.08 0.06 0.05 0.04 0.02 0.00 0.00 0.00 0.01 0.06 0.13 0.16 0.06 0.03 0.00 0.00 0.00 0.00 0.00 0.00 0.00 0.00 0.00 0.00 0.00 0.00 0.00 0.00 0.00 0.00 0.00 0.00 0.00 0.00 0.00 0.00 0.00 0.00 0.00 0.00 0.00
0.05 0.05 0.05 0.08 0.10 0.07 0.06 0.05 0.03 0.01 0.00 0.00 0.00 0.01 0.08 0.20 0.15 0.03 0.00 0.01 0.05 0.07 0.00 0.00 0.00 0.00 0.00 0.00 0.00 0.00 0.00 0.00 0.00 0.00 0.00 0.00 0.00 0.00 0.00 0.00 0.00 0.00 0.00 0.00 0.00
0.07 0.06 0.06 0.07 0.09 0.09 0.08 0.08 0.08 0.05 0.01 0.00 0.00 0.00 0.04 0.21 0.09 0.02 0.00 0.01 0.08 0.23 0.00 0.00 0.00 0.00 0.00 0.00 0.00 0.00 0.00 0.00 0.00 0.00 0.00 0.00 0.00 0.00 0.00 0.00 0.00 0.00 0.00 0.00 0.00
0.10 0.10 0.09 0.07 0.09 0.11 0.09 0.07 0.08 0.13 0.03 0.00 0.01 0.00 0.03 0.10 0.05 0.00 0.00 0.00 0.08 0.24 0.02 0.00 0.00 0.00 0.00 0.00 0.00 0.00 0.00 0.00 0.00 0.00 0.00 0.00 0.00 0.00 0.00 0.00 0.00 0.00 0.00 0.00 0.00
0.11 0.10 0.10 0.11 0.10 0.10 0.09 0.07 0.09 0.11 0.06 0.00 0.01 0.01 0.00 0.04 0.01 0.00 0.00 0.00 0.02 0.17 0.08 0.01 0.00 0.00 0.00 0.00 0.00 0.00 0.00 0.00 0.00 0.00 0.00 0.00 0.00 0.00 0.00 0.00 0.00 0.00 0.00 0.00 0.00
0.12 0.13 0.11 0.11 0.11 0.10 0.09 0.07 0.12 0.14 0.07 0.01 0.01 0.00 0.00 0.00 0.00 0.00 0.00 0.00 0.00 0.14 0.14 0.03 0.00 0.01 0.02 0.01 0.00 0.00 0.00 0.00 0.00 0.00 0.00 0.00 0.00 0.00 0.00 0.00 0.00 0.00 0.00 0.00 0.00
0.12 0.15 0.14 0.14 0.14 0.11 0.10 0.09 0.13 0.19 0.17 0.08 0.02 0.00 0.00 0.00 0.00 0.00 0.00 0.00 0.00 0.05 0.18 0.09 0.01 0.01 0.01 0.01 0.00 0.00 0.00 0.00 0.00 0.00 0.00 0.00 0.00 0.00 0.00 0.00 0.00 0.00 0.00 0.00 0.00
0.14 0.13 0.16 0.19 0.19 0.19 0.23 0.24 0.24 0.19 0.27 0.18 0.02 0.00 0.00 0.00 0.00 0.00 0.00 0.00 0.01 0.02 0.08 0.03 0.02 0.00 0.00 0.01 0.01 0.00 0.00 0.00 0.00 0.00 0.00 0.00 0.00 0.00 0.00 0.00 0.00 0.00 0.00 0.00 0.00
0.12 0.14 0.16 0.21 0.23 0.26 0.40 0.52 0.52 0.42 0.34 0.17 0.02 0.00 0.00 0.00 0.00 0.00 0.00 0.00 0.00 0.04 0.03 0.01 0.00 0.00 0.00 0.01 0.00 0.00 0.00 0.00 0.00 0.00 0.00 0.00 0.00 0.00 0.00 0.00 0.00 0.00 0.00 0.00 0.00
0.14 0.16 0.22 0.26 0.29 0.46 0.66 0.96 0.83 0.72 0.45 0.09 0.01 0.00 0.00 0.00 0.00 0.00 0.00 0.00 0.00 0.01 0.01 0.00 0.01 0.01 0.00 0.00 0.00 0.00 0.00 0.00 0.00 0.00 0.00 0.00 0.00 0.00 0.00 0.00 0.00 0.00 0.00 0.00 0.00
0.15 0.22 0.27 0.24 0.30 0.63 0.76 0.89 0.54 0.38 0.20 0.06 0.00 0.00 0.00 0.00 0.00 0.00 0.00 0.00 0.00 0.00 0.00 0.00 0.00 0.00 0.00 0.00 0.00 0.00 0.00 0.00 0.00 0.00 0.00 0.00 0.00 0.00 0.00 0.00 0.00 0.00 0.00 0.00 0.00
0.19 0.22 0.31 0.30 0.45 0.79 0.53 0.50 0.48 0.33 0.20 0.11 0.01 0.00 0.00 0.00 0.00 0.00 0.00 0.00 0.00 0.00 0.00 0.00 0.00 0.00 0.00 0.00 0.00 0.00 0.00 0.00 0.00 0.00 0.00 0.00 0.00 0.00 0.00 0.00 0.00 0.00 0.00 0.00 0.00
0.27 0.21 0.31 0.53 0.99 0.64 0.57 0.31 0.56 0.48 0.24 0.11 0.06 0.00 0.00 0.00 0.00 0.00 0.00 0.00 0.00 0.00 0.00 0.00 0.00 0.00 0.00 0.00 0.00 0.00 0.00 0.00 0.00 0.00 0.00 0.01 0.01 0.00 0.00 0.00 0.00 0.00 0.00 0.00 0.00
0.31 0.28 0.33 0.80 0.94 0.66 0.65 0.76 0.73 0.65 0.50 0.09 0.02 0.00 0.01 0.00 0.00 0.00 0.00 0.00 0.00 0.00 0.00 0.01 0.00 0.00 0.00 0.00 0.00 0.00 0.00 0.00 0.01 0.02 0.03 0.00 0.03 0.00 0.00 0.00 0.00 0.00 0.00 0.00 0.00
0.41 0.52 0.72 0.85 0.72 0.55 0.62 1.10 1.23 0.71 0.32 0.07 0.02 0.03 0.03 0.01 0.01 0.00 0.01 0.02 0.01 0.01 0.01 0.00 0.00 0.00 0.00 0.00 0.00 0.00 0.02 0.01 0.02 0.05 0.09 0.00 0.01 0.00 0.00 0.00 0.00 0.00 0.00 0.00 0.00
0.72 1.05 1.12 0.94 0.74 0.54 1.00 1.33 1.31 0.42 0.04 0.01 0.02 0.04 0.02 0.01 0.02 0.01 0.02 0.04 0.05 0.08 0.09 0.06 0.01 0.00 0.00 0.00 0.00 0.01 0.07 0.17 0.17 0.17 0.05 0.00 0.00 0.00 0.00 0.00 0.00 0.00 0.00 0.00 0.00
0.88 0.92 0.89 0.74 0.62 1.11 1.08 0.81 0.67 0.14 0.00 0.00 0.01 0.02 0.01 0.01 0.02 0.02 0.03 0.04 0.03 0.10 0.14 0.06 0.02 0.00 0.00 0.00 0.00 0.00 0.03 0.10 0.08 0.03 0.01 0.00 0.00 0.00 0.00 0.00 0.00 0.00 0.00 0.00 0.00
0.71 0.98 1.11 0.92 0.80 1.29 0.94 0.53 0.38 0.10 0.00 0.01 0.01 0.03 0.03 0.01 0.01 0.02 0.03 0.01 0.00 0.01 0.05 0.04 0.01 0.00 0.00 0.00 0.03 0.12 0.17 0.05 0.16 0.12 0.22 0.02 0.00 0.00 0.00 0.00 0.00 0.00 0.00 0.00 0.00
0.70 1.33 1.03 0.87 0.92 1.08 0.76 0.31 0.14 0.01 0.00 0.00 0.01 0.00 0.00 0.00 0.01 0.01 0.01 0.00 0.00 0.00 0.00 0.00 0.02 0.00 0.00 0.01 0.01 0.04 0.05 0.16 0.43 0.23 0.12 0.01 0.00 0.00 0.00 0.00 0.00 0.00 0.00 0.00 0.00
0.74 1.22 1.08 0.76 1.05 1.04 0.66 0.31 0.06 0.00 0.00 0.00 0.00 0.00 0.00 0.00 0.00 0.00 0.00 0.00 0.00 0.00 0.00 0.01 0.04 0.01 0.02 0.01 0.00 0.02 0.13 0.12 0.16 0.12 0.08 0.04 0.00 0.00 0.00 0.00 0.00 0.00 0.00 0.00 0.01
1.01 0.99 1.02 0.90 1.18 0.84 0.37 0.13 0.03 0.00 0.00 0.00 0.00 0.00 0.00 0.00 0.00 0.00 0.00 0.00 0.00 0.00 0.00 0.00 0.08 0.06 0.01 0.00 0.00 0.00 0.00 0.03 0.19 0.06 0.12 0.10 0.04 0.01 0.03 0.01 0.00 0.01 0.01 0.01 0.01
0.88 0.94 1.09 0.56 0.43 0.28 0.18 0.03 0.01 0.02 0.02 0.00 0.00 0.00 0.00 0.00 0.00 0.00 0.00 0.00 0.00 0.00 0.00 0.01 0.13 0.13 0.09 0.12 0.10 0.12 0.02 0.08 0.16 0.33 0.23 0.13 0.03 0.01 0.02 0.01 0.00 0.00 0.00 0.00 0.00
0.82 1.21 1.62 0.89 0.17 0.04 0.10 0.05 0.02 0.03 0.01 0.01 0.02 0.02 0.01 0.00 0.00 0.00 0.00 0.00 0.00 0.00 0.01 0.11 0.17 0.11 0.10 0.29 0.41 0.32 0.07 0.09 0.34 0.45 0.08 0.05 0.02 0.01 0.03 0.03 0.03 0.01 0.00 0.00 0.01
0.52 0.32 0.43 0.54 0.15 0.03 0.03 0.03 0.01 0.01 0.01 0.03 0.04 0.04 0.02 0.01 0.00 0.00 0.00 0.00 0.00 0.02 0.13 0.33 0.25 0.11 0.12 0.22 0.58 0.38 0.14 0.10 0.36 0.16 0.16 0.06 0.04 0.04 0.04 0.04 0.04 0.02 0.02 0.01 0.00
0.61 0.17 0.01 0.01 0.02 0.01 0.01 0.01 0.01 0.01 0.03 0.04 0.01 0.01 0.03 0.03 0.01 0.00 0.00 0.00 0.01 0.03 0.13 0.31 0.38 0.33 0.34 0.25 0.35 0.27 0.07 0.11 0.12 0.04 0.04 0.01 0.04 0.05 0.05 0.02 0.07 0.06 0.02 0.00 0.00
0.69 0.22 0.02 0.02 0.01 0.00 0.00 0.00 0.00 0.02 0.02 0.00 0.01 0.02 0.03 0.01 0.01 0.01 0.01 0.01 0.01 0.06 0.26 0.41 0.47 0.64 0.48 0.18 0.19 0.26 0.08 0.06 0.09 0.07 0.03 0.04 0.05 0.05 0.23 0.44 0.37 0.10 0.03 0.02 0.01

GFSSW_prec_precacc24_024.txt.gz
Total_Precipitation_Accumulation
0.05 0.06 0.07 0.08 0.08 0.09 0.08 0.07 0.06 0.07 0.08 0.05 0.04 0.11 0.13 0.12 0.09 0.07 0.02 0.00 0.00 0.00 0.00 0.00 0.00 0.00 0.00 0.00 0.00 0.00 0.00 0.00 0.00 0.00 0.00 0.00 0.00 0.00 0.00 0.00 0.00 0.00 0.00 0.00 0.00
0.05 0.05 0.05 0.08 0.08 0.07 0.06 0.05 0.04 0.05 0.06 0.08 0.05 0.06 0.13 0.17 0.08 0.04 0.00 0.00 0.00 0.00 0.00 0.00 0.00 0.00 0.00 0.00 0.00 0.00 0.00 0.00 0.00 0.00 0.00 0.00 0.00 0.00 0.00 0.00 0.00 0.00 0.00 0.00 0.00
0.06 0.06 0.06 0.09 0.10 0.08 0.07 0.06 0.05 0.05 0.07 0.09 0.07 0.02 0.08 0.21 0.17 0.03 0.00 0.01 0.05 0.07 0.00 0.00 0.00 0.00 0.00 0.00 0.00 0.00 0.00 0.00 0.00 0.00 0.00 0.00 0.00 0.00 0.00 0.00 0.00 0.00 0.00 0.00 0.00
0.10 0.08 0.07 0.09 0.10 0.09 0.08 0.08 0.09 0.08 0.09 0.10 0.14 0.02 0.05 0.23 0.10 0.03 0.00 0.01 0.08 0.23 0.00 0.00 0.00 0.00 0.00 0.00 0.00 0.00 0.00 0.00 0.00 0.00 0.00 0.00 0.00 0.00 0.00 0.00 0.00 0.00 0.00 0.00 0.00
0.16 0.12 0.10 0.09 0.10 0.11 0.10 0.07 0.09 0.16 0.13 0.08 0.19 0.10 0.04 0.13 0.06 0.01 0.01 0.04 0.13 0.26 0.02 0.00 0.00 0.00 0.00 0.00 0.00 0.00 0.00 0.00 0.00 0.00 0.00 0.00 0.00 0.00 0.00 0.00 0.00 0.00 0.00 0.00 0.00
0.14 0.12 0.11 0.11 0.12 0.11 0.09 0.07 0.09 0.13 0.14 0.16 0.22 0.16 0.01 0.05 0.01 0.00 0.01 0.04 0.10 0.23 0.10 0.01 0.00 0.00 0.00 0.00 0.00 0.00 0.00 0.00 0.00 0.00 0.00 0.00 0.00 0.00 0.00 0.00 0.00 0.00 0.00 0.00 0.00
0.16 0.15 0.12 0.13 0.15 0.12 0.09 0.08 0.13 0.17 0.15 0.19 0.40 0.16 0.00 0.00 0.00 0.00 0.02 0.03 0.05 0.18 0.20 0.05 0.01 0.01 0.02 0.01 0.00 0.00 0.00 0.00 0.00 0.00 0.00 0.00 0.00 0.00 0.00 0.00 0.00 0.00 0.00 0.00 0.00
0.16 0.19 0.15 0.17 0.15 0.13 0.10 0.09 0.14 0.20 0.26 0.27 0.42 0.19 0.01 0.00 0.00 0.00 0.00 0.00 0.00 0.07 0.27 0.21 0.03 0.01 0.01 0.01 0.00 0.00 0.00 0.00 0.00 0.00 0.00 0.00 0.00 0.00 0.00 0.00 0.00 0.00 0.00 0.00 0.00
0.19 0.17 0.20 0.22 0.20 0.21 0.24 0.24 0.25 0.20 0.32 0.45 0.44 0.11 0.00 0.00 0.00 0.00 0.00 0.01 0.04 0.12 0.32 0.12 0.13 0.03 0.00 0.01 0.01 0.00 0.00 0.00 0.00 0.00 0.00 0.00 0.00 0.00 0.00 0.00 0.00 0.00 0.00 0.00 0.00
0.15 0.19 0.21 0.25 0.25 0.27 0.43 0.52 0.52 0.43 0.47 0.64 0.50 0.14 0.00 0.00 0.00 0.00 0.01 0.01 0.06 0.16 0.21 0.14 0.27 0.13 0.03 0.01 0.00 0.00 0.00 0.00 0.00 0.00 0.00 0.00 0.00 0.00 0.00 0.00 0.00 0.00 0.00 0.00 0.00
0.17 0.19 0.24 0.29 0.30 0.48 0.71 0.97 0.84 0.76 0.73 0.59 0.29 0.04 0.00 0.00 0.00 0.00 0.00 0.02 0.09 0.09 0.05 0.08 0.12 0.13 0.05 0.01 0.00 0.00 0.00 0.00 0.00 0.00 0.00 0.00 0.00 0.00 0.00 0.00 0.00 0.00 0.00 0.00 0.00
0.18 0.24 0.28 0.26 0.30 0.65 0.78 0.89 0.57 0.47 0.62 0.33 0.12 0.01 0.00 0.00 0.00 0.00 0.00 0.01 0.04 0.02 0.00 0.02 0.04 0.01 0.02 0.00 0.00 0.00 0.00 0.00 0.00 0.00 0.00 0.00 0.00 0.00 0.00 0.00 0.00 0.00 0.00 0.00 0.00
0.20 0.23 0.31 0.31 0.46 0.82 0.54 0.53 0.56 0.44 0.62 0.44 0.21 0.02 0.00 0.00 0.00 0.00 0.00 0.00 0.01 0.01 0.00 0.00 0.00 0.00 0.00 0.00 0.00 0.00 0.00 0.00 0.00 0.00 0.00 0.00 0.00 0.00 0.00 0.00 0.00 0.00 0.00 0.00 0.00
0.28 0.23 0.35 0.60 1.03 0.69 0.60 0.39 0.71 0.65 0.69 0.54 0.32 0.05 0.00 0.00 0.00 0.00 0.00 0.00 0.00 0.01 0.00 0.00 0.00 0.00 0.00 0.00 0.00 0.00 0.00 0.00 0.00 0.00 0.00 0.01 0.01 0.00 0.00 0.00 0.00 0.00 0.00 0.00 0.00
0.33 0.33 0.45 1.01 1.18 0.83 0.72 0.90 1.00 0.91 0.90 0.42 0.23 0.04 0.01 0.00 0.00 0.01 0.00 0.00 0.00 0.00 0.00 0.01 0.00 0.00 0.00 0.00 0.00 0.00 0.00 0.00 0.01 0.02 0.03 0.00 0.03 0.00 0.00 0.00 0.00 0.00 0.00 0.00 0.00
0.49 0.62 0.89 1.06 0.99 0.74 0.64 1.26 1.45 1.02 0.80 0.45 0.10 0.04 0.04 0.02 0.01 0.01 0.01 0.02 0.01 0.02 0.01 0.00 0.00 0.00 0.00 0.00 0.00 0.00 0.02 0.01 0.02 0.05 0.09 0.00 0.01 0.00 0.00 0.00 0.00 0.00 0.00 0.00 0.00
0.80 1.19 1.26 0.99 0.77 0.55 1.03 1.39 1.43 0.73 0.32 0.13 0.03 0.05 0.02 0.02 0.03 0.02 0.03 0.04 0.05 0.09 0.12 0.06 0.01 0.00 0.00 0.00 0.00 0.01 0.07 0.17 0.17 0.17 0.05 0.00 0.00 0.00 0.00 0.00 0.00 0.00 0.00 0.00 0.00
0.95 1.01 0.94 0.77 0.62 1.11 1.10 0.85 0.94 0.43 0.10 0.03 0.01 0.03 0.02 0.01 0.03 0.02 0.03 0.04 0.03 0.10 0.14 0.06 0.02 0.00 0.00 0.00 0.00 0.00 0.03 0.10 0.08 0.03 0.01 0.00 0.00 0.00 0.00 0.00 0.00 0.00 0.00 0.00 0.00
0.75 0.99 1.14 0.99 0.81 1.30 0.98 0.67 0.76 0.31 0.03 0.02 0.05 0.03 0.04 0.01 0.02 0.03 0.04 0.01 0.00 0.01 0.05 0.04 0.01 0.00 0.00 0.00 0.03 0.12 0.17 0.05 0.16 0.12 0.22 0.02 0.00 0.00 0.00 0.00 0.00 0.00 0.00 0.00 0.00
0.71 1.33 1.06 0.92 0.93 1.11 0.86 0.57 0.46 0.05 0.00 0.00 0.04 0.01 0.01 0.01 0.02 0.02 0.01 0.00 0.00 0.00 0.00 0.00 0.02 0.00 0.00 0.01 0.01 0.04 0.05 0.16 0.43 0.23 0.12 0.01 0.00 0.00 0.00 0.00 0.00 0.00 0.00 0.00 0.00
0.74 1.23 1.09 0.78 1.06 1.05 0.79 0.74 0.30 0.01 0.00 0.00 0.00 0.00 0.00 0.00 0.00 0.00 0.00 0.00 0.00 0.00 0.00 0.01 0.04 0.01 0.02 0.01 0.00 0.02 0.13 0.12 0.16 0.12 0.08 0.04 0.00 0.00 0.00 0.00 0.00 0.00 0.00 0.00 0.01
1.01 0.99 1.02 0.91 1.18 0.86 0.55 0.43 0.14 0.02 0.01 0.00 0.00 0.00 0.00 0.00 0.00 0.00 0.00 0.00 0.00 0.00 0.00 0.00 0.08 0.06 0.01 0.00 0.00 0.00 0.00 0.03 0.19 0.06 0.12 0.10 0.04 0.01 0.03 0.01 0.00 0.01 0.01 0.01 0.01
0.89 0.94 1.09 0.56 0.44 0.32 0.26 0.04 0.01 0.03 0.02 0.00 0.00 0.00 0.00 0.00 0.00 0.00 0.00 0.00 0.00 0.00 0.00 0.01 0.13 0.13 0.09 0.12 0.10 0.12 0.02 0.08 0.16 0.35 0.24 0.14 0.03 0.01 0.02 0.01 0.00 0.00 0.00 0.01 0.00
0.82 1.21 1.62 0.89 0.18 0.06 0.13 0.06 0.02 0.03 0.01 0.01 0.02 0.02 0.01 0.00 0.00 0.00 0.00 0.00 0.00 0.00 0.01 0.11 0.17 0.11 0.10 0.29 0.41 0.32 0.07 0.09 0.35 0.51 0.09 0.05 0.02 0.01 0.03 0.03 0.04 0.03 0.01 0.01 0.01
0.52 0.32 0.43 0.54 0.15 0.03 0.04 0.04 0.01 0.01 0.01 0.03 0.04 0.04 0.02 0.01 0.00 0.00 0.00 0.00 0.00 0.02 0.13 0.33 0.25 0.11 0.12 0.22 0.58 0.38 0.14 0.10 0.37 0.18 0.23 0.08 0.04 0.04 0.04 0.05 0.05 0.04 0.03 0.03 0.03
0.61 0.17 0.01 0.01 0.02 0.01 0.01 0.01 0.01 0.01 0.03 0.04 0.01 0.01 0.03 0.03 0.01 0.00 0.00 0.00 0.01 0.03 0.13 0.31 0.38 0.33 0.34 0.25 0.35 0.27 0.07 0.11 0.12 0.04 0.04 0.02 0.04 0.05 0.05 0.03 0.08 0.06 0.02 0.01 0.00
0.70 0.22 0.02 0.02 0.01 0.00 0.00 0.00 0.00 0.02 0.02 0.00 0.01 0.02 0.03 0.01 0.01 0.01 0.01 0.01 0.01 0.06 0.26 0.41 0.47 0.64 0.48 0.18 0.19 0.26 0.08 0.06 0.09 0.07 0.03 0.04 0.05 0.07 0.25 0.45 0.39 0.10 0.04 0.02 0.02

GFSSW_prec_precacc24_027.txt.gz
Total_Precipitation_Accumulation
0.05 0.07 0.08 0.08 0.09 0.09 0.08 0.07 0.06 0.07 0.09 0.11 0.26 0.18 0.09 0.09 0.09 0.08 0.03 0.00 0.00 0.00 0.00 0.00 0.00 0.00 0.00 0.00 0.00 0.00 0.00 0.00 0.00 0.00 0.00 0.00 0.00 0.00 0.00 0.00 0.00 0.00 0.00 0.00 0.00
0.08 0.07 0.07 0.09 0.09 0.08 0.06 0.05 0.04 0.05 0.06 0.08 0.11 0.27 0.14 0.17 0.07 0.04 0.00 0.00 0.00 0.00 0.00 0.00 0.00 0.00 0.00 0.00 0.00 0.00 0.00 0.00 0.00 0.00 0.00 0.00 0.00 0.00 0.00 0.00 0.00 0.00 0.00 0.00 0.00
0.09 0.08 0.08 0.11 0.12 0.10 0.08 0.06 0.05 0.05 0.07 0.08 0.12 0.24 0.18 0.20 0.18 0.02 0.00 0.01 0.05 0.07 0.00 0.00 0.00 0.00 0.00 0.00 0.00 0.00 0.00 0.00 0.00 0.00 0.00 0.00 0.00 0.00 0.00 0.00 0.00 0.00 0.00 0.00 0.00
0.11 0.12 0.09 0.10 0.12 0.12 0.10 0.09 0.09 0.08 0.09 0.10 0.15 0.17 0.20 0.23 0.10 0.03 0.00 0.01 0.09 0.23 0.00 0.00 0.00 0.00 0.00 0.00 0.00 0.00 0.00 0.00 0.00 0.00 0.00 0.00 0.00 0.00 0.00 0.00 0.00 0.00 0.00 0.00 0.00
0.16 0.15 0.13 0.11 0.13 0.12 0.10 0.07 0.09 0.16 0.13 0.08 0.20 0.31 0.25 0.14 0.06 0.01 0.02 0.05 0.15 0.28 0.03 0.00 0.00 0.00 0.00 0.00 0.00 0.00 0.00 0.00 0.00 0.00 0.00 0.00 0.00 0.00 0.00 0.00 0.00 0.00 0.00 0.00 0.00
0.14 0.14 0.12 0.12 0.14 0.12 0.09 0.07 0.09 0.13 0.14 0.16 0.22 0.56 0.31 0.07 0.01 0.00 0.03 0.13 0.13 0.24 0.10 0.01 0.00 0.00 0.00 0.00 0.00 0.00 0.00 0.00 0.00 0.00 0.00 0.00 0.00 0.00 0.00 0.00 0.00 0.00 0.00 0.00 0.00
0.15 0.15 0.12 0.14 0.17 0.13 0.09 0.08 0.12 0.16 0.15 0.19 0.41 0.39 0.32 0.03 0.00 0.00 0.06 0.14 0.14 0.20 0.20 0.05 0.01 0.00 0.00 0.00 0.00 0.00 0.00 0.00 0.00 0.00 0.00 0.00 0.00 0.00 0.00 0.00 0.00 0.00 0.00 0.00 0.00
0.16 0.16 0.14 0.18 0.17 0.14 0.10 0.09 0.13 0.19 0.25 0.26 0.45 0.42 0.15 0.02 0.00 0.00 0.04 0.11 0.12 0.16 0.28 0.21 0.04 0.01 0.00 0.00 0.00 0.00 0.00 0.00 0.00 0.00 0.00 0.00 0.00 0.00 0.00 0.00 0.00 0.00 0.00 0.00 0.00
0.16 0.14 0.17 0.21 0.21 0.23 0.23 0.24 0.24 0.20 0.32 0.44 0.50 0.31 0.04 0.00 0.00 0.00 0.00 0.07 0.11 0.22 0.39 0.13 0.16 0.04 0.00 0.00 0.00 0.00 0.00 0.00 0.00 0.00 0.00 0.00 0.00 0.00 0.00 0.00 0.00 0.00 0.00 0.00 0.00
0.12 0.14 0.16 0.23 0.27 0.28 0.41 0.50 0.51 0.42 0.46 0.64 0.67 0.39 0.09 0.00 0.00 0.01 0.01 0.03 0.10 0.29 0.34 0.22 0.33 0.15 0.03 0.00 0.00 0.00 0.00 0.00 0.00 0.00 0.00 0.00 0.00 0.00 0.00 0.00 0.00 0.00 0.00 0.00 0.00
0.13 0.12 0.15 0.25 0.31 0.48 0.71 0.96 0.85 0.76 0.73 0.61 0.43 0.14 0.03 0.00 0.00 0.02 0.01 0.05 0.17 0.20 0.15 0.17 0.20 0.16 0.06 0.01 0.00 0.00 0.00 0.00 0.00 0.00 0.00 0.00 0.00 0.00 0.00 0.00 0.00 0.00 0.00 0.00 0.00
0.14 0.17 0.19 0.21 0.31 0.65 0.78 0.89 0.57 0.47 0.62 0.37 0.19 0.05 0.00 0.00 0.00 0.01 0.01 0.05 0.13 0.08 0.04 0.08 0.18 0.10 0.06 0.02 0.00 0.00 0.00 0.00 0.00 0.00 0.00 0.00 0.00 0.00 0.00 0.00 0.00 0.00 0.00 0.00 0.00
0.16 0.16 0.23 0.31 0.46 0.80 0.54 0.53 0.56 0.44 0.63 0.48 0.31 0.07 0.00 0.00 0.00 0.00 0.00 0.01 0.11 0.05 0.02 0.02 0.03 0.06 0.05 0.03 0.00 0.00 0.00 0.00 0.00 0.00 0.00 0.00 0.00 0.00 0.00 0.00 0.00 0.00 0.00 0.00 0.00
0.24 0.22 0.32 0.60 1.01 0.70 0.65 0.39 0.71 0.65 0.74 0.67 0.48 0.08 0.00 0.00 0.00 0.00 0.00 0.00 0.03 0.03 0.01 0.00 0.00 0.03 0.02 0.01 0.00 0.00 0.00 0.00 0.00 0.00 0.00 0.00 0.00 0.00 0.00 0.00 0.00 0.00 0.00 0.00 0.00
0.19 0.37 0.46 1.02 1.22 0.88 0.80 0.90 1.00 0.92 1.05 0.57 0.37 0.11 0.01 0.00 0.00 0.02 0.01 0.00 0.00 0.01 0.00 0.01 0.00 0.00 0.00 0.00 0.00 0.00 0.00 0.00 0.00 0.01 0.02 0.00 0.02 0.00 0.00 0.00 0.00 0.00 0.00 0.00 0.00
0.19 0.40 0.65 0.97 0.98 0.80 0.67 1.26 1.45 1.08 1.05 0.67 0.22 0.08 0.04 0.02 0.01 0.01 0.01 0.01 0.01 0.01 0.01 0.00 0.00 0.00 0.00 0.00 0.00 0.00 0.01 0.01 0.01 0.03 0.07 0.00 0.01 0.00 0.00 0.00 0.00 0.00 0.00 0.00 0.00
0.47 0.64 0.81 0.91 0.76 0.55 1.03 1.39 1.45 0.85 0.50 0.25 0.10 0.06 0.02 0.02 0.03 0.02 0.03 0.03 0.01 0.03 0.06 0.02 0.00 0.00 0.00 0.00 0.00 0.01 0.06 0.10 0.12 0.15 0.04 0.00 0.00 0.00 0.00 0.00 0.00 0.00 0.00 0.00 0.00
0.69 0.40 0.40 0.65 0.61 1.11 1.09 0.86 1.04 0.59 0.21 0.07 0.02 0.03 0.02 0.02 0.03 0.02 0.02 0.03 0.02 0.01 0.04 0.03 0.01 0.00 0.00 0.00 0.00 0.00 0.02 0.07 0.04 0.02 0.01 0.00 0.00 0.00 0.00 0.00 0.00 0.00 0.00 0.00 0.00
0.48 0.25 0.41 0.85 0.81 1.30 0.98 0.69 0.87 0.42 0.07 0.03 0.05 0.03 0.04 0.01 0.02 0.04 0.03 0.01 0.00 0.00 0.02 0.02 0.00 0.00 0.00 0.00 0.02 0.09 0.12 0.04 0.12 0.08 0.18 0.02 0.00 0.00 0.00 0.00 0.00 0.00 0.00 0.00 0.00
0.41 0.26 0.49 0.82 0.93 1.10 0.85 0.60 0.47 0.05 0.00 0.00 0.05 0.01 0.01 0.01 0.01 0.02 0.01 0.00 0.00 0.00 0.00 0.00 0.01 0.00 0.00 0.00 0.00 0.03 0.04 0.14 0.33 0.15 0.09 0.01 0.00 0.00 0.00 0.00 0.00 0.00 0.00 0.00 0.00
0.38 0.42 0.57 0.69 1.04 1.02 0.78 0.77 0.32 0.01 0.00 0.00 0.00 0.00 0.00 0.00 0.00 0.00 0.00 0.00 0.00 0.00 0.00 0.01 0.03 0.01 0.01 0.01 0.00 0.01 0.10 0.10 0.16 0.11 0.07 0.03 0.00 0.00 0.00 0.00 0.00 0.00 0.00 0.00 0.01
0.51 0.52 0.52 0.82 1.06 0.79 0.54 0.44 0.14 0.02 0.01 0.00 0.00 0.00 0.00 0.00 0.00 0.00 0.00 0.00 0.00 0.00 0.00 0.00 0.06 0.03 0.00 0.00 0.00 0.00 0.00 0.03 0.18 0.06 0.12 0.07 0.03 0.01 0.03 0.01 0.00 0.00 0.00 0.00 0.01
0.52 0.50 0.72 0.52 0.39 0.30 0.25 0.04 0.01 0.03 0.01 0.00 0.00 0.00 0.00 0.00 0.00 0.00 0.00 0.00 0.00 0.00 0.00 0.00 0.08 0.06 0.02 0.07 0.07 0.08 0.02 0.08 0.16 0.35 0.24 0.11 0.03 0.00 0.01 0.01 0.00 0.00 0.00 0.00 0.01
0.50 0.78 1.06 0.63 0.16 0.06 0.13 0.06 0.02 0.03 0.00 0.00 0.00 0.01 0.00 0.00 0.00 0.00 0.00 0.00 0.00 0.00 0.00 0.04 0.09 0.06 0.05 0.14 0.36 0.30 0.06 0.09 0.35 0.51 0.09 0.04 0.00 0.01 0.03 0.03 0.04 0.03 0.01 0.01 0.01
0.21 0.16 0.26 0.31 0.10 0.03 0.04 0.04 0.01 0.00 0.00 0.01 0.02 0.02 0.01 0.01 0.00 0.00 0.00 0.00 0.00 0.00 0.02 0.15 0.14 0.05 0.07 0.12 0.42 0.33 0.14 0.10 0.36 0.17 0.23 0.07 0.01 0.01 0.03 0.04 0.05 0.04 0.03 0.03 0.03
0.31 0.11 0.01 0.01 0.01 0.00 0.00 0.01 0.01 0.00 0.01 0.01 0.01 0.01 0.01 0.02 0.01 0.00 0.00 0.00 0.00 0.01 0.03 0.15 0.22 0.17 0.18 0.17 0.25 0.24 0.07 0.09 0.07 0.02 0.02 0.01 0.03 0.04 0.05 0.03 0.08 0.06 0.02 0.01 0.00
0.40 0.15 0.02 0.01 0.01 0.00 0.00 0.00 0.00 0.00 0.00 0.00 0.01 0.02 0.02 0.01 0.01 0.01 0.00 0.00 0.00 0.04 0.15 0.24 0.25 0.31 0.15 0.10 0.18 0.22 0.07 0.04 0.03 0.01 0.01 0.03 0.04 0.07 0.25 0.45 0.39 0.10 0.04 0.02 0.02

GFSSW_prec_precacc24_030.txt.gz
Total_Precipitation_Accumulation
0.08 0.10 0.12 0.11 0.12 0.11 0.09 0.08 0.06 0.07 0.08 0.10 0.24 0.25 0.19 0.12 0.08 0.08 0.03 0.00 0.00 0.00 0.00 0.00 0.00 0.00 0.00 0.00 0.00 0.00 0.00 0.00 0.00 0.00 0.00 0.00 0.00 0.00 0.00 0.00 0.00 0.00 0.00 0.00 0.00
0.07 0.09 0.09 0.12 0.11 0.10 0.10 0.08 0.06 0.05 0.06 0.08 0.11 0.32 0.34 0.25 0.07 0.03 0.00 0.00 0.00 0.00 0.01 0.00 0.00 0.00 0.00 0.00 0.00 0.00 0.00 0.00 0.00 0.00 0.00 0.00 0.00 0.00 0.00 0.00 0.00 0.00 0.00 0.00 0.00
0.06 0.09 0.10 0.13 0.15 0.15 0.14 0.09 0.06 0.05 0.06 0.08 0.11 0.24 0.45 0.46 0.19 0.02 0.00 0.01 0.05 0.07 0.01 0.00 0.00 0.00 0.00 0.00 0.00 0.00 0.00 0.00 0.00 0.00 0.00 0.00 0.00 0.00 0.00 0.00 0.00 0.00 0.00 0.00 0.00
0.10 0.12 0.11 0.12 0.15 0.16 0.11 0.10 0.09 0.08 0.09 0.09 0.15 0.16 0.31 0.62 0.17 0.04 0.00 0.01 0.08 0.20 0.01 0.01 0.00 0.00 0.00 0.00 0.00 0.00 0.00 0.00 0.00 0.00 0.00 0.00 0.00 0.00 0.00 0.00 0.00 0.00 0.00 0.00 0.00
0.16 0.13 0.13 0.12 0.16 0.15 0.10 0.07 0.09 0.16 0.13 0.08 0.19 0.31 0.34 0.37 0.09 0.03 0.03 0.05 0.15 0.29 0.03 0.01 0.00 0.00 0.00 0.00 0.00 0.00 0.00 0.00 0.00 0.00 0.00 0.00 0.00 0.00 0.00 0.00 0.00 0.00 0.00 0.00 0.00
0.14 0.13 0.10 0.12 0.16 0.14 0.09 0.07 0.10 0.13 0.13 0.16 0.21 0.56 0.35 0.15 0.02 0.00 0.04 0.15 0.13 0.25 0.11 0.01 0.00 0.00 0.00 0.00 0.00 0.00 0.00 0.00 0.00 0.00 0.00 0.00 0.00 0.00 0.00 0.00 0.00 0.00 0.00 0.00 0.00
0.14 0.12 0.09 0.10 0.18 0.15 0.09 0.09 0.14 0.17 0.15 0.19 0.40 0.40 0.38 0.06 0.01 0.00 0.07 0.21 0.18 0.21 0.20 0.05 0.01 0.00 0.00 0.00 0.00 0.00 0.00 0.00 0.00 0.00 0.00 0.00 0.00 0.00 0.00 0.00 0.00 0.00 0.00 0.00 0.00
0.14 0.13 0.09 0.12 0.16 0.16 0.11 0.09 0.12 0.18 0.23 0.26 0.45 0.47 0.22 0.07 0.02 0.00 0.09 0.22 0.30 0.29 0.31 0.21 0.04 0.01 0.00 0.00 0.00 0.00 0.00 0.00 0.00 0.00 0.00 0.00 0.00 0.00 0.00 0.00 0.00 0.00 0.00 0.00 0.00
0.12 0.14 0.13 0.11 0.16 0.25 0.23 0.23 0.23 0.20 0.31 0.43 0.51 0.41 0.12 0.09 0.05 0.02 0.06 0.19 0.26 0.35 0.45 0.16 0.17 0.05 0.00 0.00 0.00 0.00 0.00 0.00 0.00 0.00 0.00 0.00 0.00 0.00 0.00 0.00 0.00 0.00 0.00 0.00 0.00
0.11 0.12 0.13 0.14 0.19 0.27 0.41 0.47 0.48 0.41 0.45 0.64 0.67 0.48 0.17 0.02 0.05 0.04 0.07 0.13 0.21 0.45 0.43 0.25 0.35 0.16 0.03 0.00 0.00 0.00 0.00 0.00 0.00 0.00 0.00 0.00 0.00 0.00 0.00 0.00 0.00 0.00 0.00 0.00 0.00
0.13 0.09 0.11 0.16 0.21 0.47 0.70 0.95 0.84 0.76 0.73 0.61 0.44 0.18 0.06 0.02 0.01 0.06 0.05 0.13 0.34 0.67 0.23 0.18 0.23 0.16 0.06 0.01 0.00 0.00 0.00 0.00 0.00 0.00 0.00 0.00 0.00 0.00 0.00 0.00 0.00 0.00 0.00 0.00 0.00
0.15 0.14 0.16 0.17 0.27 0.62 0.78 0.89 0.57 0.47 0.62 0.39 0.24 0.16 0.04 0.02 0.01 0.06 0.03 0.12 0.21 0.30 0.19 0.11 0.20 0.10 0.06 0.02 0.00 0.00 0.00 0.00 0.00 0.00 0.00 0.00 0.00 0.00 0.00 0.00 0.00 0.00 0.00 0.00 0.00
0.20 0.22 0.21 0.24 0.28 0.70 0.54 0.53 0.56 0.44 0.63 0.56 0.41 0.23 0.04 0.03 0.01 0.03 0.04 0.05 0.17 0.11 0.10 0.14 0.13 0.14 0.08 0.04 0.01 0.00 0.00 0.00 0.00 0.00 0.00 0.00 0.00 0.00 0.00 0.00 0.00 0.00 0.00 0.00 0.00
0.28 0.25 0.34 0.40 0.46 0.60 0.65 0.39 0.71 0.65 0.75 0.81 0.70 0.25 0.04 0.01 0.00 0.01 0.05 0.06 0.14 0.17 0.07 0.11 0.08 0.10 0.11 0.07 0.01 0.00 0.00 0.00 0.00 0.00 0.00 0.00 0.00 0.00 0.00 0.00 0.00 0.00 0.00 0.00 0.00
0.20 0.33 0.40 0.60 0.81 0.78 0.81 0.90 1.00 0.92 1.09 0.70 0.50 0.17 0.02 0.00 0.00 0.03 0.04 0.03 0.06 0.10 0.05 0.02 0.04 0.06 0.09 0.07 0.01 0.00 0.00 0.00 0.00 0.01 0.01 0.00 0.02 0.00 0.00 0.00 0.00 0.00 0.00 0.00 0.00
0.20 0.30 0.45 0.50 0.70 0.75 0.64 1.26 1.45 1.09 1.17 0.74 0.28 0.10 0.04 0.02 0.01 0.02 0.03 0.02 0.03 0.04 0.03 0.00 0.00 0.00 0.02 0.02 0.00 0.00 0.00 0.00 0.01 0.03 0.06 0.00 0.00 0.00 0.00 0.00 0.00 0.00 0.00 0.00 0.00
0.44 0.54 0.42 0.37 0.46 0.49 0.98 1.39 1.46 0.90 0.59 0.30 0.16 0.06 0.02 0.02 0.04 0.02 0.03 0.02 0.02 0.04 0.07 0.01 0.00 0.00 0.00 0.00 0.00 0.00 0.04 0.06 0.07 0.11 0.03 0.00 0.00 0.00 0.00 0.00 0.00 0.00 0.00 0.00 0.00
0.65 0.29 0.17 0.16 0.31 1.03 1.08 0.86 1.10 0.65 0.29 0.11 0.03 0.03 0.02 0.02 0.04 0.03 0.01 0.03 0.01 0.00 0.00 0.01 0.00 0.00 0.00 0.00 0.00 0.00 0.02 0.06 0.02 0.00 0.00 0.00 0.00 0.00 0.00 0.00 0.00 0.00 0.00 0.00 0.00
0.44 0.14 0.18 0.18 0.36 1.18 0.97 0.70 0.93 0.53 0.14 0.06 0.05 0.03 0.04 0.01 0.02 0.04 0.02 0.01 0.00 0.00 0.00 0.00 0.00 0.00 0.00 0.00 0.01 0.05 0.08 0.03 0.11 0.06 0.11 0.01 0.00 0.00 0.00 0.00 0.00 0.00 0.00 0.00 0.00
0.38 0.19 0.29 0.27 0.36 0.96 0.82 0.61 0.48 0.06 0.00 0.00 0.05 0.02 0.01 0.01 0.01 0.02 0.01 0.00 0.00 0.00 0.00 0.00 0.00 0.00 0.00 0.00 0.00 0.00 0.01 0.07 0.19 0.10 0.05 0.00 0.00 0.00 0.00 0.00 0.00 0.00 0.00 0.00 0.00
0.32 0.34 0.38 0.27 0.56 0.80 0.71 0.77 0.32 0.01 0.00 0.00 0.00 0.00 0.00 0.00 0.00 0.00 0.00 0.00 0.00 0.00 0.00 0.00 0.01 0.00 0.01 0.00 0.00 0.01 0.05 0.09 0.14 0.11 0.07 0.03 0.00 0.00 0.00 0.00 0.00 0.00 0.00 0.00 0.01
0.43 0.47 0.20 0.33 0.62 0.62 0.53 0.44 0.14 0.02 0.01 0.00 0.00 0.00 0.00 0.00 0.00 0.00 0.00 0.00 0.00 0.00 0.00 0.00 0.03 0.02 0.00 0.00 0.00 0.00 0.00 0.02 0.17 0.06 0.12 0.07 0.03 0.00 0.00 0.00 0.00 0.00 0.00 0.00 0.01
0.37 0.37 0.35 0.24 0.23 0.24 0.25 0.04 0.01 0.03 0.01 0.00 0.00 0.00 0.00 0.00 0.00 0.00 0.00 0.00 0.00 0.00 0.00 0.00 0.03 0.02 0.01 0.02 0.03 0.04 0.02 0.08 0.16 0.33 0.23 0.11 0.03 0.00 0.00 0.00 0.00 0.00 0.00 0.00 0.00
0.29 0.47 0.55 0.24 0.09 0.06 0.12 0.06 0.02 0.03 0.00 0.00 0.00 0.00 0.00 0.00 0.00 0.00 0.00 0.00 0.00 0.00 0.00 0.00 0.01 0.01 0.02 0.05 0.23 0.23 0.05 0.09 0.35 0.50 0.09 0.04 0.00 0.00 0.00 0.01 0.03 0.03 0.01 0.01 0.01
0.17 0.09 0.11 0.13 0.05 0.03 0.04 0.04 0.01 0.00 0.00 0.00 0.00 0.00 0.00 0.00 0.00 0.00 0.00 0.00 0.00 0.00 0.00 0.03 0.05 0.02 0.03 0.06 0.23 0.23 0.10 0.09 0.36 0.17 0.23 0.07 0.00 0.00 0.01 0.03 0.04 0.03 0.03 0.03 0.03
0.17 0.05 0.01 0.01 0.01 0.00 0.00 0.01 0.01 0.00 0.00 0.00 0.00 0.00 0.00 0.01 0.00 0.00 0.00 0.00 0.00 0.00 0.01 0.06 0.09 0.06 0.06 0.06 0.11 0.17 0.06 0.08 0.07 0.02 0.02 0.00 0.01 0.01 0.02 0.02 0.07 0.06 0.02 0.01 0.00
0.14 0.07 0.02 0.01 0.01 0.00 0.00 0.00 0.00 0.00 0.00 0.00 0.00 0.00 0.01 0.01 0.00 0.01 0.00 0.00 0.00 0.00 0.02 0.06 0.09 0.16 0.07 0.04 0.14 0.14 0.06 0.04 0.02 0.01 0.01 0.02 0.03 0.06 0.24 0.45 0.39 0.10 0.04 0.02 0.02

GFSSW_prec_precacc24_033.txt.gz
Total_Precipitation_Accumulation
0.06 0.08 0.12 0.13 0.14 0.15 0.14 0.12 0.10 0.10 0.08 0.10 0.24 0.23 0.20 0.22 0.21 0.10 0.04 0.00 0.00 0.00 0.00 0.00 0.00 0.00 0.00 0.00 0.00 0.00 0.00 0.00 0.00 0.00 0.00 0.00 0.00 0.00 0.00 0.00 0.00 0.00 0.00 0.00 0.00
0.06 0.08 0.09 0.13 0.13 0.12 0.13 0.12 0.10 0.07 0.07 0.08 0.11 0.31 0.31 0.35 0.21 0.04 0.00 0.00 0.00 0.00 0.01 0.00 0.00 0.00 0.00 0.00 0.00 0.00 0.00 0.00 0.00 0.00 0.00 0.00 0.00 0.00 0.00 0.00 0.00 0.00 0.00 0.00 0.00
0.07 0.09 0.09 0.14 0.17 0.19 0.16 0.14 0.11 0.09 0.07 0.08 0.11 0.23 0.42 0.46 0.30 0.03 0.00 0.00 0.03 0.04 0.02 0.00 0.00 0.00 0.00 0.00 0.00 0.00 0.00 0.00 0.00 0.00 0.00 0.00 0.00 0.00 0.00 0.00 0.00 0.00 0.00 0.00 0.00
0.08 0.12 0.11 0.12 0.16 0.18 0.13 0.10 0.10 0.09 0.09 0.10 0.15 0.16 0.30 0.66 0.28 0.08 0.02 0.01 0.07 0.13 0.03 0.02 0.00 0.00 0.00 0.00 0.00 0.00 0.00 0.00 0.00 0.00 0.00 0.00 0.00 0.00 0.00 0.00 0.00 0.00 0.00 0.00 0.00
0.13 0.14 0.12 0.09 0.14 0.17 0.11 0.08 0.10 0.16 0.14 0.09 0.19 0.31 0.34 0.49 0.22 0.08 0.05 0.07 0.15 0.26 0.03 0.02 0.00 0.00 0.00 0.00 0.00 0.00 0.00 0.00 0.00 0.00 0.00 0.00 0.00 0.00 0.00 0.00 0.00 0.00 0.00 0.00 0.00
0.12 0.12 0.10 0.08 0.11 0.13 0.09 0.08 0.11 0.14 0.14 0.16 0.22 0.57 0.37 0.21 0.07 0.06 0.06 0.17 0.14 0.26 0.11 0.03 0.01 0.00 0.00 0.00 0.00 0.00 0.00 0.00 0.00 0.00 0.00 0.00 0.00 0.00 0.00 0.00 0.00 0.00 0.00 0.00 0.00
0.15 0.12 0.09 0.08 0.13 0.12 0.10 0.09 0.14 0.19 0.17 0.22 0.44 0.43 0.40 0.08 0.02 0.07 0.08 0.27 0.20 0.22 0.20 0.05 0.01 0.00 0.00 0.00 0.00 0.00 0.00 0.00 0.00 0.00 0.00 0.00 0.00 0.00 0.00 0.00 0.00 0.00 0.00 0.00 0.00
0.15 0.13 0.12 0.14 0.12 0.11 0.10 0.09 0.12 0.18 0.22 0.26 0.46 0.50 0.23 0.07 0.02 0.04 0.10 0.31 0.37 0.33 0.31 0.22 0.04 0.01 0.00 0.00 0.00 0.00 0.00 0.00 0.00 0.00 0.00 0.00 0.00 0.00 0.00 0.00 0.00 0.00 0.00 0.00 0.00
0.15 0.15 0.13 0.12 0.12 0.17 0.18 0.23 0.22 0.19 0.31 0.45 0.52 0.43 0.14 0.09 0.05 0.02 0.06 0.28 0.36 0.48 0.56 0.25 0.20 0.06 0.00 0.00 0.00 0.00 0.00 0.00 0.00 0.00 0.00 0.00 0.00 0.00 0.00 0.00 0.00 0.00 0.00 0.00 0.00
0.15 0.16 0.12 0.10 0.14 0.19 0.32 0.45 0.47 0.40 0.46 0.65 0.68 0.50 0.18 0.02 0.06 0.04 0.11 0.25 0.31 0.59 0.57 0.36 0.38 0.16 0.03 0.00 0.00 0.00 0.00 0.00 0.00 0.00 0.00 0.00 0.00 0.00 0.00 0.00 0.00 0.00 0.00 0.00 0.00
0.17 0.15 0.13 0.12 0.17 0.31 0.50 0.90 0.84 0.76 0.74 0.61 0.44 0.21 0.09 0.03 0.05 0.08 0.14 0.27 0.54 0.85 0.26 0.20 0.24 0.17 0.06 0.01 0.00 0.00 0.00 0.00 0.00 0.00 0.00 0.00 0.00 0.00 0.00 0.00 0.00 0.00 0.00 0.00 0.00
0.18 0.18 0.19 0.15 0.21 0.34 0.65 0.87 0.57 0.47 0.62 0.39 0.25 0.21 0.09 0.04 0.05 0.11 0.27 0.45 0.62 0.81 0.28 0.13 0.22 0.10 0.06 0.02 0.00 0.00 0.00 0.00 0.00 0.00 0.00 0.00 0.00 0.00 0.00 0.00 0.00 0.00 0.00 0.00 0.00
0.19 0.22 0.21 0.19 0.14 0.26 0.43 0.51 0.56 0.44 0.63 0.57 0.42 0.28 0.06 0.05 0.03 0.09 0.44 0.57 0.52 0.47 0.27 0.15 0.14 0.15 0.08 0.05 0.01 0.00 0.00 0.00 0.00 0.00 0.00 0.00 0.00 0.00 0.00 0.00 0.00 0.00 0.00 0.00 0.00
0.24 0.25 0.34 0.34 0.18 0.22 0.51 0.37 0.71 0.65 0.77 0.85 0.89 0.38 0.08 0.03 0.04 0.05 0.28 0.26 0.31 0.40 0.30 0.21 0.09 0.16 0.13 0.08 0.01 0.00 0.00 0.00 0.00 0.00 0.00 0.00 0.00 0.00 0.00 0.00 0.00 0.00 0.00 0.00 0.00
0.19 0.34 0.41 0.53 0.43 0.31 0.58 0.86 1.00 0.93 1.16 0.96 0.78 0.28 0.07 0.01 0.05 0.06 0.09 0.06 0.09 0.25 0.16 0.11 0.12 0.16 0.17 0.10 0.02 0.00 0.00 0.00 0.00 0.00 0.00 0.00 0.01 0.00 0.00 0.00 0.00 0.00 0.00 0.00 0.00
0.19 0.29 0.43 0.44 0.38 0.34 0.37 1.15 1.45 1.09 1.30 0.86 0.38 0.13 0.05 0.02 0.03 0.05 0.10 0.08 0.09 0.11 0.11 0.04 0.03 0.08 0.14 0.11 0.04 0.00 0.00 0.00 0.00 0.01 0.03 0.00 0.00 0.00 0.00 0.00 0.00 0.00 0.00 0.00 0.00
0.38 0.52 0.40 0.26 0.13 0.13 0.59 1.22 1.44 0.92 0.63 0.36 0.18 0.06 0.02 0.03 0.05 0.03 0.09 0.08 0.04 0.13 0.18 0.04 0.00 0.00 0.04 0.07 0.02 0.00 0.01 0.01 0.02 0.05 0.01 0.00 0.00 0.00 0.00 0.00 0.00 0.00 0.00 0.00 0.00
0.58 0.28 0.15 0.08 0.06 0.32 0.76 0.75 1.10 0.69 0.32 0.14 0.03 0.03 0.02 0.03 0.04 0.02 0.01 0.02 0.01 0.00 0.01 0.01 0.01 0.00 0.00 0.00 0.00 0.00 0.01 0.01 0.00 0.00 0.00 0.00 0.00 0.00 0.00 0.00 0.00 0.00 0.00 0.00 0.00
0.33 0.11 0.13 0.15 0.13 0.38 0.70 0.56 0.94 0.56 0.16 0.06 0.05 0.03 0.04 0.01 0.02 0.04 0.02 0.00 0.00 0.00 0.00 0.00 0.00 0.00 0.00 0.00 0.00 0.01 0.01 0.00 0.05 0.02 0.07 0.01 0.00 0.00 0.00 0.00 0.00 0.00 0.00 0.00 0.00
0.26 0.14 0.26 0.22 0.10 0.37 0.52 0.58 0.48 0.06 0.00 0.00 0.05 0.02 0.01 0.01 0.01 0.02 0.01 0.00 0.00 0.00 0.00 0.00 0.00 0.00 0.00 0.00 0.00 0.00 0.00 0.03 0.08 0.04 0.03 0.00 0.00 0.00 0.00 0.00 0.00 0.00 0.00 0.00 0.00
0.22 0.29 0.33 0.12 0.14 0.32 0.47 0.76 0.32 0.01 0.00 0.00 0.00 0.00 0.00 0.00 0.00 0.00 0.00 0.00 0.00 0.00 0.00 0.00 0.00 0.00 0.00 0.00 0.00 0.00 0.02 0.03 0.05 0.04 0.05 0.02 0.00 0.00 0.00 0.00 0.00 0.00 0.00 0.00 0.01
0.21 0.40 0.13 0.09 0.21 0.24 0.44 0.44 0.14 0.02 0.01 0.00 0.00 0.00 0.00 0.00 0.00 0.00 0.00 0.00 0.00 0.00 0.00 0.00 0.01 0.01 0.00 0.00 0.00 0.00 0.00 0.02 0.16 0.05 0.11 0.07 0.03 0.00 0.00 0.00 0.00 0.00 0.00 0.00 0.01
0.26 0.25 0.16 0.15 0.11 0.13 0.22 0.04 0.01 0.03 0.01 0.00 0.00 0.00 0.00 0.00 0.00 0.00 0.00 0.00 0.00 0.00 0.00 0.00 0.01 0.00 0.00 0.01 0.02 0.01 0.00 0.07 0.15 0.31 0.21 0.11 0.03 0.00 0.00 0.00 0.00 0.00 0.00 0.00 0.00
0.19 0.25 0.14 0.10 0.03 0.05 0.12 0.06 0.02 0.03 0.00 0.00 0.00 0.00 0.00 0.00 0.00 0.00 0.00 0.00 0.00 0.00 0.00 0.00 0.00 0.00 0.00 0.00 0.06 0.11 0.02 0.06 0.31 0.45 0.08 0.04 0.00 0.00 0.00 0.01 0.03 0.02 0.01 0.01 0.01
0.09 0.04 0.02 0.04 0.01 0.03 0.03 0.04 0.01 0.00 0.00 0.00 0.00 0.00 0.00 0.00 0.00 0.00 0.00 0.00 0.00 0.00 0.00 0.00 0.02 0.00 0.00 0.00 0.02 0.06 0.05 0.07 0.30 0.15 0.22 0.07 0.00 0.00 0.00 0.03 0.03 0.02 0.02 0.03 0.03
0.05 0.02 0.01 0.00 0.00 0.00 0.00 0.01 0.01 0.00 0.00 0.00 0.00 0.00 0.00 0.00 0.00 0.00 0.00 0.00 0.00 0.00 0.00 0.01 0.02 0.01 0.01 0.00 0.01 0.06 0.02 0.06 0.05 0.02 0.02 0.00 0.00 0.00 0.01 0.01 0.01 0.03 0.01 0.00 0.00
0.05 0.01 0.02 0.01 0.00 0.00 0.00 0.00 0.00 0.00 0.00 0.00 0.00 0.00 0.01 0.00 0.00 0.00 0.00 0.00 0.00 0.00 0.00 0.01 0.02 0.05 0.03 0.00 0.04 0.08 0.05 0.03 0.02 0.00 0.01 0.02 0.01 0.05 0.17 0.35 0.31 0.10 0.03 0.02 0.01

GFSSW_prec_precacc24_036.txt.gz
Total_Precipitation_Accumulation
0.05 0.07 0.09 0.10 0.15 0.18 0.16 0.16 0.14 0.18 0.12 0.10 0.24 0.23 0.19 0.22 0.28 0.18 0.06 0.00 0.00 0.00 0.01 0.00 0.01 0.01 0.00 0.00 0.00 0.00 0.00 0.00 0.00 0.00 0.00 0.00 0.00 0.00 0.00 0.00 0.00 0.00 0.00 0.00 0.00
0.05 0.07 0.09 0.10 0.12 0.14 0.15 0.15 0.16 0.14 0.12 0.11 0.11 0.30 0.29 0.31 0.22 0.12 0.03 0.00 0.00 0.00 0.02 0.00 0.01 0.01 0.00 0.00 0.00 0.00 0.00 0.00 0.00 0.00 0.00 0.00 0.00 0.00 0.00 0.00 0.00 0.00 0.00 0.00 0.00
0.08 0.09 0.11 0.11 0.13 0.21 0.19 0.16 0.17 0.15 0.13 0.13 0.13 0.23 0.42 0.41 0.29 0.04 0.01 0.00 0.01 0.00 0.02 0.00 0.02 0.01 0.00 0.00 0.00 0.00 0.00 0.00 0.00 0.00 0.00 0.00 0.00 0.00 0.00 0.00 0.00 0.00 0.00 0.00 0.00
0.10 0.15 0.13 0.11 0.12 0.17 0.19 0.12 0.11 0.10 0.09 0.10 0.15 0.16 0.29 0.63 0.31 0.11 0.04 0.02 0.07 0.05 0.03 0.03 0.01 0.01 0.00 0.00 0.00 0.00 0.00 0.00 0.00 0.00 0.00 0.00 0.00 0.00 0.00 0.00 0.00 0.00 0.00 0.00 0.00
0.17 0.17 0.15 0.12 0.13 0.11 0.11 0.08 0.10 0.17 0.14 0.10 0.20 0.31 0.34 0.49 0.23 0.13 0.13 0.07 0.16 0.19 0.04 0.03 0.01 0.01 0.00 0.00 0.00 0.00 0.00 0.00 0.00 0.00 0.00 0.00 0.00 0.00 0.00 0.00 0.00 0.00 0.00 0.00 0.00
0.16 0.16 0.11 0.11 0.13 0.07 0.06 0.12 0.12 0.14 0.14 0.17 0.23 0.58 0.37 0.21 0.07 0.09 0.11 0.18 0.15 0.23 0.11 0.04 0.01 0.00 0.00 0.00 0.00 0.00 0.00 0.00 0.00 0.00 0.00 0.00 0.00 0.00 0.00 0.00 0.00 0.00 0.00 0.00 0.00
0.19 0.16 0.10 0.09 0.14 0.11 0.07 0.11 0.15 0.19 0.18 0.23 0.46 0.44 0.40 0.08 0.02 0.10 0.12 0.28 0.21 0.21 0.20 0.08 0.01 0.00 0.00 0.00 0.00 0.00 0.00 0.00 0.00 0.00 0.00 0.00 0.00 0.00 0.00 0.00 0.00 0.00 0.00 0.00 0.00
0.20 0.19 0.17 0.16 0.14 0.15 0.06 0.08 0.13 0.18 0.23 0.28 0.48 0.52 0.24 0.07 0.02 0.12 0.11 0.36 0.38 0.35 0.33 0.27 0.03 0.02 0.00 0.00 0.00 0.00 0.00 0.00 0.00 0.00 0.00 0.00 0.00 0.00 0.00 0.00 0.00 0.00 0.00 0.00 0.00
0.18 0.21 0.21 0.12 0.08 0.11 0.09 0.08 0.21 0.19 0.31 0.45 0.53 0.44 0.14 0.11 0.06 0.13 0.09 0.35 0.40 0.55 0.66 0.38 0.24 0.07 0.00 0.00 0.00 0.00 0.00 0.00 0.00 0.00 0.00 0.00 0.00 0.00 0.00 0.00 0.00 0.00 0.00 0.00 0.00
0.18 0.20 0.17 0.11 0.06 0.07 0.15 0.17 0.39 0.39 0.46 0.65 0.69 0.51 0.18 0.04 0.09 0.15 0.13 0.36 0.38 0.66 0.74 0.56 0.47 0.20 0.03 0.00 0.00 0.00 0.00 0.00 0.00 0.00 0.00 0.00 0.00 0.00 0.00 0.00 0.00 0.00 0.00 0.00 0.00
0.18 0.17 0.15 0.11 0.12 0.15 0.23 0.47 0.70 0.75 0.74 0.61 0.44 0.23 0.13 0.07 0.08 0.13 0.20 0.46 0.66 0.94 0.32 0.29 0.27 0.18 0.07 0.01 0.00 0.00 0.00 0.00 0.00 0.00 0.00 0.00 0.00 0.00 0.00 0.00 0.00 0.00 0.00 0.00 0.00
0.17 0.17 0.17 0.13 0.20 0.11 0.20 0.59 0.55 0.47 0.62 0.39 0.27 0.25 0.11 0.08 0.06 0.14 0.42 0.90 0.73 0.93 0.33 0.17 0.23 0.11 0.07 0.03 0.00 0.00 0.00 0.00 0.00 0.00 0.00 0.00 0.00 0.00 0.00 0.00 0.00 0.00 0.00 0.00 0.00
0.16 0.19 0.18 0.17 0.13 0.06 0.09 0.31 0.54 0.43 0.64 0.59 0.49 0.40 0.14 0.10 0.05 0.13 0.81 1.02 0.62 0.61 0.31 0.16 0.15 0.15 0.08 0.05 0.01 0.00 0.00 0.00 0.00 0.00 0.00 0.00 0.00 0.00 0.00 0.00 0.00 0.00 0.00 0.00 0.00
0.20 0.23 0.34 0.32 0.17 0.13 0.17 0.24 0.67 0.58 0.77 0.89 0.94 0.47 0.11 0.10 0.14 0.20 0.63 0.69 0.64 0.63 0.42 0.26 0.10 0.16 0.13 0.08 0.01 0.00 0.00 0.00 0.00 0.00 0.00 0.00 0.00 0.00 0.00 0.00 0.00 0.00 0.00 0.00 0.00
0.17 0.33 0.39 0.47 0.39 0.24 0.30 0.70 0.93 0.79 1.16 1.06 0.90 0.31 0.07 0.06 0.21 0.37 0.38 0.35 0.25 0.48 0.32 0.19 0.15 0.23 0.19 0.11 0.02 0.00 0.00 0.00 0.00 0.00 0.00 0.00 0.00 0.00 0.00 0.00 0.00 0.00 0.00 0.00 0.00
0.17 0.27 0.40 0.41 0.35 0.27 0.11 0.76 1.23 0.99 1.37 0.95 0.44 0.15 0.05 0.07 0.07 0.14 0.15 0.14 0.18 0.32 0.22 0.18 0.07 0.24 0.21 0.13 0.04 0.00 0.00 0.00 0.00 0.00 0.01 0.00 0.00 0.00 0.00 0.00 0.00 0.00 0.00 0.00 0.00
0.19 0.40 0.35 0.21 0.11 0.04 0.16 0.55 1.09 0.90 0.69 0.40 0.20 0.06 0.02 0.04 0.06 0.04 0.14 0.11 0.09 0.28 0.33 0.21 0.05 0.15 0.16 0.17 0.07 0.00 0.00 0.00 0.00 0.02 0.00 0.00 0.00 0.00 0.00 0.00 0.00 0.00 0.00 0.00 0.00
0.27 0.21 0.13 0.07 0.04 0.12 0.16 0.33 0.93 0.71 0.33 0.15 0.03 0.02 0.02 0.03 0.05 0.04 0.06 0.02 0.00 0.01 0.04 0.04 0.04 0.04 0.09 0.10 0.06 0.00 0.00 0.00 0.00 0.00 0.00 0.00 0.00 0.00 0.00 0.00 0.00 0.00 0.00 0.00 0.00
0.18 0.07 0.10 0.13 0.09 0.06 0.12 0.37 0.91 0.57 0.16 0.06 0.05 0.03 0.04 0.01 0.02 0.03 0.01 0.00 0.00 0.00 0.00 0.00 0.00 0.00 0.00 0.01 0.02 0.01 0.00 0.00 0.01 0.00 0.00 0.00 0.00 0.00 0.00 0.00 0.00 0.00 0.00 0.00 0.00
0.12 0.06 0.18 0.19 0.05 0.06 0.15 0.47 0.47 0.06 0.00 0.00 0.05 0.02 0.01 0.01 0.01 0.02 0.01 0.00 0.00 0.00 0.00 0.00 0.00 0.00 0.00 0.00 0.00 0.00 0.00 0.01 0.03 0.01 0.00 0.00 0.00 0.00 0.00 0.00 0.00 0.00 0.00 0.00 0.00
0.08 0.18 0.25 0.08 0.03 0.04 0.24 0.67 0.32 0.01 0.00 0.00 0.00 0.00 0.00 0.00 0.00 0.00 0.00 0.00 0.00 0.00 0.00 0.00 0.00 0.00 0.00 0.00 0.00 0.00 0.00 0.01 0.02 0.01 0.02 0.01 0.00 0.00 0.00 0.00 0.00 0.00 0.00 0.00 0.01
0.10 0.24 0.09 0.02 0.03 0.07 0.33 0.42 0.14 0.02 0.01 0.00 0.00 0.00 0.00 0.00 0.00 0.00 0.00 0.00 0.00 0.00 0.00 0.00 0.00 0.00 0.00 0.00 0.00 0.00 0.00 0.01 0.07 0.02 0.06 0.05 0.02 0.00 0.00 0.00 0.00 0.00 0.00 0.00 0.01
0.09 0.13 0.12 0.07 0.05 0.07 0.19 0.04 0.01 0.03 0.01 0.00 0.00 0.00 0.00 0.00 0.00 0.00 0.00 0.00 0.00 0.00 0.00 0.00 0.01 0.00 0.00 0.01 0.01 0.00 0.00 0.00 0.04 0.19 0.14 0.09 0.03 0.00 0.00 0.00 0.00 0.00 0.00 0.00 0.00
0.05 0.08 0.06 0.01 0.02 0.05 0.12 0.06 0.02 0.03 0.00 0.00 0.00 0.00 0.00 0.00 0.00 0.00 0.00 0.00 0.00 0.00 0.00 0.00 0.00 0.00 0.00 0.00 0.01 0.02 0.00 0.02 0.16 0.32 0.06 0.03 0.00 0.00 0.00 0.01 0.03 0.02 0.01 0.01 0.01
0.02 0.01 0.01 0.01 0.01 0.03 0.03 0.04 0.01 0.00 0.00 0.00 0.00 0.00 0.00 0.00 0.00 0.00 0.00 0.00 0.00 0.00 0.00 0.00 0.01 0.00 0.00 0.00 0.00 0.00 0.00 0.01 0.18 0.11 0.19 0.06 0.00 0.00 0.00 0.03 0.03 0.02 0.02 0.03 0.03
0.00 0.01 0.01 0.00 0.00 0.00 0.00 0.01 0.01 0.00 0.00 0.00 0.00 0.00 0.00 0.00 0.00 0.00 0.00 0.00 0.00 0.00 0.00 0.00 0.01 0.00 0.00 0.00 0.00 0.00 0.00 0.02 0.02 0.01 0.02 0.00 0.00 0.00 0.01 0.01 0.00 0.00 0.00 0.00 0.00
0.01 0.00 0.02 0.01 0.00 0.00 0.00 0.00 0.00 0.00 0.00 0.00 0.00 0.00 0.00 0.00 0.00 0.00 0.00 0.00 0.00 0.00 0.00 0.01 0.00 0.01 0.01 0.00 0.00 0.02 0.02 0.01 0.01 0.00 0.01 0.02 0.01 0.03 0.06 0.12 0.13 0.05 0.02 0.01 0.01

GFSSW_prec_precacc24_039.txt.gz
Total_Precipitation_Accumulation
0.05 0.06 0.08 0.09 0.10 0.15 0.17 0.17 0.19 0.27 0.19 0.16 0.26 0.23 0.18 0.20 0.28 0.20 0.06 0.01 0.00 0.00 0.01 0.00 0.01 0.02 0.00 0.00 0.00 0.00 0.01 0.00 0.00 0.00 0.00 0.00 0.00 0.00 0.00 0.00 0.00 0.00 0.00 0.00 0.00
0.07 0.09 0.11 0.09 0.09 0.10 0.15 0.18 0.22 0.18 0.17 0.15 0.16 0.31 0.28 0.29 0.22 0.12 0.05 0.03 0.00 0.00 0.02 0.00 0.01 0.03 0.00 0.00 0.00 0.00 0.00 0.00 0.00 0.00 0.00 0.00 0.00 0.00 0.00 0.00 0.00 0.00 0.00 0.00 0.00
0.11 0.11 0.13 0.12 0.12 0.17 0.17 0.21 0.25 0.22 0.17 0.20 0.21 0.27 0.41 0.36 0.25 0.04 0.01 0.00 0.01 0.00 0.02 0.00 0.03 0.03 0.00 0.00 0.00 0.00 0.00 0.00 0.00 0.00 0.00 0.00 0.00 0.00 0.00 0.00 0.00 0.00 0.00 0.00 0.00
0.12 0.16 0.15 0.14 0.13 0.16 0.16 0.17 0.17 0.13 0.10 0.13 0.17 0.18 0.28 0.56 0.28 0.13 0.04 0.03 0.08 0.03 0.04 0.03 0.02 0.03 0.00 0.00 0.00 0.00 0.00 0.00 0.00 0.00 0.00 0.00 0.00 0.00 0.00 0.00 0.00 0.00 0.00 0.00 0.00
0.20 0.21 0.17 0.14 0.15 0.11 0.07 0.07 0.10 0.17 0.14 0.10 0.20 0.31 0.33 0.45 0.22 0.20 0.14 0.11 0.26 0.13 0.04 0.03 0.01 0.02 0.00 0.00 0.00 0.00 0.00 0.00 0.00 0.00 0.00 0.00 0.00 0.00 0.00 0.00 0.00 0.00 0.00 0.00 0.00
0.23 0.22 0.16 0.13 0.16 0.11 0.06 0.16 0.14 0.15 0.14 0.17 0.24 0.58 0.37 0.20 0.06 0.11 0.15 0.19 0.21 0.20 0.08 0.04 0.00 0.00 0.01 0.00 0.00 0.00 0.00 0.00 0.00 0.00 0.00 0.00 0.00 0.00 0.00 0.00 0.00 0.00 0.00 0.00 0.00
0.24 0.22 0.15 0.12 0.16 0.15 0.12 0.11 0.12 0.21 0.18 0.25 0.47 0.45 0.41 0.08 0.04 0.13 0.16 0.28 0.27 0.19 0.12 0.08 0.01 0.01 0.01 0.01 0.00 0.00 0.00 0.00 0.00 0.00 0.00 0.00 0.00 0.00 0.00 0.00 0.00 0.00 0.00 0.00 0.00
0.22 0.23 0.22 0.23 0.19 0.15 0.06 0.04 0.09 0.17 0.23 0.29 0.49 0.55 0.24 0.07 0.02 0.12 0.17 0.36 0.42 0.38 0.30 0.27 0.03 0.02 0.00 0.00 0.00 0.00 0.00 0.00 0.00 0.00 0.00 0.00 0.00 0.00 0.00 0.00 0.00 0.00 0.00 0.00 0.00
0.21 0.25 0.24 0.16 0.09 0.08 0.03 0.01 0.01 0.10 0.31 0.45 0.54 0.47 0.15 0.11 0.06 0.14 0.13 0.37 0.46 0.58 0.69 0.45 0.26 0.08 0.00 0.00 0.00 0.00 0.00 0.00 0.00 0.00 0.00 0.00 0.00 0.00 0.00 0.00 0.00 0.00 0.00 0.00 0.00
0.19 0.21 0.17 0.12 0.06 0.05 0.04 0.01 0.00 0.16 0.41 0.66 0.71 0.53 0.19 0.04 0.11 0.17 0.16 0.44 0.44 0.71 0.83 0.70 0.59 0.24 0.04 0.00 0.00 0.00 0.00 0.00 0.00 0.00 0.00 0.00 0.00 0.00 0.00 0.00 0.00 0.00 0.00 0.00 0.00
0.18 0.17 0.14 0.10 0.08 0.12 0.09 0.02 0.16 0.41 0.65 0.62 0.45 0.25 0.20 0.13 0.18 0.18 0.22 0.64 0.72 1.00 0.35 0.38 0.38 0.20 0.07 0.01 0.00 0.00 0.00 0.00 0.00 0.00 0.00 0.00 0.00 0.00 0.00 0.00 0.00 0.00 0.00 0.00 0.00
0.16 0.15 0.14 0.11 0.19 0.10 0.04 0.04 0.30 0.41 0.59 0.40 0.28 0.27 0.13 0.17 0.22 0.21 0.50 1.49 0.79 0.95 0.34 0.23 0.30 0.11 0.07 0.03 0.00 0.00 0.00 0.00 0.00 0.00 0.00 0.00 0.00 0.00 0.00 0.00 0.00 0.00 0.00 0.00 0.00
0.14 0.18 0.16 0.16 0.12 0.05 0.02 0.05 0.35 0.35 0.65 0.63 0.58 0.43 0.19 0.25 0.24 0.27 1.03 1.65 0.67 0.63 0.33 0.19 0.16 0.15 0.09 0.05 0.01 0.00 0.00 0.00 0.00 0.00 0.00 0.00 0.00 0.00 0.00 0.00 0.00 0.00 0.00 0.00 0.00
0.18 0.22 0.30 0.29 0.15 0.11 0.13 0.13 0.44 0.43 0.80 1.00 1.08 0.53 0.22 0.25 0.25 0.26 0.73 1.07 0.77 0.68 0.49 0.37 0.12 0.17 0.14 0.09 0.01 0.00 0.00 0.00 0.00 0.00 0.00 0.00 0.00 0.00 0.00 0.00 0.00 0.00 0.00 0.00 0.00
0.16 0.30 0.37 0.43 0.34 0.22 0.20 0.29 0.57 0.58 0.95 1.14 0.98 0.35 0.14 0.09 0.23 0.40 0.47 0.54 0.37 0.55 0.46 0.31 0.19 0.24 0.19 0.11 0.02 0.00 0.00 0.00 0.00 0.00 0.00 0.00 0.00 0.00 0.00 0.00 0.00 0.00 0.00 0.00 0.00
0.16 0.20 0.30 0.34 0.32 0.26 0.07 0.37 0.72 0.76 1.27 0.96 0.46 0.16 0.06 0.09 0.18 0.35 0.35 0.30 0.41 0.40 0.30 0.22 0.11 0.28 0.22 0.13 0.05 0.00 0.00 0.00 0.00 0.00 0.00 0.00 0.00 0.00 0.00 0.00 0.00 0.00 0.00 0.00 0.00
0.11 0.23 0.22 0.12 0.08 0.02 0.08 0.25 0.59 0.77 0.69 0.41 0.21 0.06 0.03 0.06 0.15 0.13 0.19 0.24 0.32 0.52 0.52 0.31 0.13 0.25 0.17 0.17 0.07 0.00 0.00 0.01 0.01 0.01 0.00 0.00 0.00 0.00 0.00 0.00 0.00 0.00 0.00 0.00 0.00
0.12 0.14 0.11 0.05 0.02 0.03 0.06 0.12 0.67 0.69 0.34 0.15 0.03 0.02 0.02 0.04 0.05 0.06 0.10 0.05 0.06 0.05 0.12 0.16 0.20 0.21 0.23 0.12 0.07 0.00 0.01 0.01 0.00 0.00 0.00 0.00 0.00 0.00 0.00 0.00 0.00 0.00 0.00 0.00 0.00
0.09 0.03 0.06 0.11 0.06 0.02 0.06 0.19 0.79 0.56 0.16 0.06 0.04 0.02 0.02 0.00 0.02 0.04 0.02 0.01 0.01 0.00 0.03 0.01 0.02 0.05 0.11 0.08 0.06 0.03 0.00 0.00 0.00 0.00 0.00 0.00 0.00 0.00 0.00 0.00 0.00 0.00 0.00 0.00 0.00
0.04 0.02 0.08 0.13 0.03 0.04 0.11 0.35 0.45 0.06 0.00 0.00 0.05 0.01 0.01 0.00 0.01 0.02 0.00 0.00 0.00 0.00 0.00 0.00 0.01 0.00 0.01 0.03 0.06 0.02 0.01 0.00 0.00 0.00 0.00 0.00 0.00 0.00 0.00 0.00 0.00 0.00 0.00 0.00 0.00
0.00 0.06 0.10 0.06 0.02 0.02 0.16 0.59 0.31 0.01 0.00 0.00 0.00 0.00 0.00 0.00 0.00 0.00 0.00 0.00 0.00 0.00 0.00 0.00 0.00 0.00 0.00 0.00 0.01 0.01 0.01 0.00 0.00 0.00 0.00 0.00 0.00 0.00 0.00 0.00 0.00 0.00 0.00 0.00 0.01
0.00 0.03 0.03 0.02 0.02 0.04 0.25 0.39 0.14 0.01 0.00 0.00 0.00 0.00 0.00 0.00 0.00 0.00 0.00 0.00 0.00 0.00 0.00 0.00 0.00 0.00 0.00 0.00 0.00 0.00 0.00 0.00 0.01 0.00 0.00 0.02 0.01 0.00 0.00 0.00 0.00 0.00 0.00 0.00 0.01
0.01 0.02 0.01 0.04 0.02 0.05 0.13 0.03 0.01 0.02 0.01 0.00 0.00 0.00 0.00 0.00 0.00 0.00 0.00 0.00 0.00 0.00 0.00 0.00 0.00 0.00 0.00 0.00 0.00 0.00 0.00 0.00 0.01 0.09 0.06 0.03 0.01 0.00 0.00 0.00 0.00 0.00 0.00 0.00 0.00
0.01 0.02 0.01 0.00 0.01 0.03 0.09 0.04 0.02 0.02 0.00 0.00 0.00 0.00 0.00 0.00 0.00 0.00 0.00 0.00 0.00 0.00 0.00 0.00 0.00 0.00 0.00 0.00 0.00 0.00 0.00 0.00 0.07 0.19 0.04 0.01 0.00 0.00 0.00 0.01 0.02 0.02 0.01 0.01 0.01
0.01 0.00 0.00 0.00 0.00 0.01 0.02 0.03 0.01 0.00 0.00 0.00 0.00 0.00 0.00 0.00 0.00 0.00 0.00 0.00 0.00 0.00 0.00 0.00 0.00 0.00 0.00 0.00 0.00 0.00 0.00 0.00 0.07 0.06 0.13 0.04 0.00 0.00 0.00 0.02 0.02 0.02 0.02 0.03 0.03
0.00 0.01 0.00 0.00 0.00 0.00 0.00 0.00 0.01 0.00 0.00 0.00 0.00 0.00 0.00 0.00 0.00 0.00 0.00 0.00 0.00 0.00 0.00 0.00 0.00 0.00 0.00 0.00 0.00 0.00 0.00 0.00 0.00 0.00 0.00 0.00 0.00 0.00 0.01 0.01 0.00 0.00 0.00 0.00 0.00
0.00 0.00 0.02 0.00 0.00 0.00 0.00 0.00 0.00 0.00 0.00 0.00 0.00 0.00 0.00 0.00 0.00 0.00 0.00 0.00 0.00 0.00 0.00 0.00 0.00 0.01 0.00 0.00 0.00 0.00 0.00 0.00 0.00 0.00 0.01 0.01 0.01 0.02 0.02 0.02 0.02 0.01 0.01 0.01 0.00

GFSSW_prec_precacc24_042.txt.gz
Total_Precipitation_Accumulation
0.06 0.07 0.10 0.10 0.09 0.11 0.12 0.14 0.19 0.30 0.22 0.18 0.33 0.29 0.18 0.20 0.27 0.20 0.06 0.01 0.00 0.01 0.01 0.00 0.01 0.02 0.00 0.00 0.00 0.02 0.14 0.15 0.01 0.00 0.00 0.00 0.00 0.00 0.00 0.00 0.00 0.00 0.00 0.00 0.00
0.07 0.10 0.12 0.10 0.09 0.10 0.13 0.16 0.21 0.21 0.20 0.16 0.20 0.40 0.30 0.29 0.21 0.11 0.05 0.03 0.01 0.01 0.02 0.00 0.01 0.03 0.00 0.00 0.00 0.01 0.03 0.08 0.03 0.00 0.00 0.00 0.00 0.00 0.00 0.00 0.00 0.00 0.00 0.00 0.00
0.12 0.13 0.15 0.14 0.14 0.19 0.18 0.19 0.24 0.26 0.20 0.22 0.28 0.41 0.50 0.36 0.23 0.04 0.01 0.01 0.03 0.02 0.03 0.00 0.03 0.03 0.00 0.00 0.00 0.00 0.00 0.00 0.00 0.03 0.01 0.00 0.00 0.00 0.00 0.00 0.00 0.00 0.00 0.00 0.00
0.15 0.21 0.21 0.18 0.17 0.18 0.20 0.17 0.12 0.14 0.15 0.15 0.24 0.28 0.35 0.53 0.26 0.13 0.04 0.04 0.10 0.06 0.06 0.04 0.02 0.04 0.00 0.00 0.00 0.00 0.00 0.00 0.02 0.02 0.00 0.00 0.00 0.00 0.00 0.00 0.00 0.00 0.00 0.00 0.00
0.25 0.26 0.23 0.18 0.20 0.14 0.08 0.10 0.08 0.10 0.16 0.12 0.22 0.38 0.35 0.41 0.19 0.24 0.19 0.15 0.31 0.18 0.04 0.04 0.01 0.02 0.01 0.00 0.00 0.00 0.00 0.00 0.00 0.00 0.00 0.00 0.00 0.00 0.00 0.00 0.00 0.00 0.00 0.00 0.00
0.25 0.25 0.20 0.16 0.20 0.14 0.08 0.19 0.12 0.08 0.11 0.18 0.24 0.59 0.37 0.18 0.06 0.12 0.22 0.27 0.34 0.23 0.06 0.04 0.00 0.01 0.01 0.00 0.00 0.00 0.00 0.00 0.00 0.00 0.00 0.00 0.00 0.00 0.00 0.00 0.00 0.00 0.00 0.00 0.00
0.25 0.26 0.19 0.14 0.25 0.23 0.14 0.13 0.16 0.15 0.13 0.24 0.47 0.45 0.41 0.08 0.04 0.17 0.18 0.32 0.43 0.25 0.08 0.06 0.01 0.01 0.01 0.02 0.00 0.00 0.00 0.00 0.00 0.00 0.00 0.00 0.00 0.00 0.00 0.00 0.00 0.00 0.00 0.00 0.00
0.23 0.25 0.23 0.25 0.22 0.16 0.06 0.04 0.07 0.06 0.12 0.25 0.48 0.55 0.24 0.07 0.02 0.13 0.21 0.37 0.44 0.40 0.17 0.23 0.03 0.02 0.01 0.01 0.00 0.00 0.00 0.00 0.00 0.00 0.00 0.00 0.00 0.00 0.00 0.00 0.00 0.00 0.00 0.00 0.00
0.20 0.25 0.24 0.16 0.08 0.08 0.02 0.01 0.00 0.02 0.09 0.37 0.53 0.47 0.15 0.11 0.06 0.14 0.15 0.37 0.47 0.67 0.65 0.44 0.29 0.08 0.01 0.02 0.03 0.01 0.00 0.00 0.00 0.00 0.00 0.00 0.00 0.00 0.00 0.00 0.00 0.00 0.00 0.00 0.00
0.18 0.20 0.16 0.11 0.05 0.03 0.03 0.00 0.00 0.02 0.16 0.52 0.71 0.54 0.20 0.04 0.11 0.17 0.18 0.46 0.50 0.87 0.91 0.76 0.66 0.29 0.05 0.02 0.02 0.00 0.00 0.00 0.00 0.00 0.00 0.00 0.00 0.00 0.00 0.00 0.00 0.00 0.00 0.00 0.00
0.15 0.16 0.11 0.07 0.06 0.06 0.06 0.01 0.08 0.11 0.34 0.55 0.46 0.27 0.23 0.15 0.21 0.24 0.31 0.72 0.86 1.20 0.38 0.45 0.42 0.22 0.07 0.01 0.00 0.00 0.00 0.00 0.00 0.00 0.00 0.00 0.00 0.00 0.00 0.00 0.00 0.00 0.00 0.00 0.00
0.13 0.13 0.11 0.07 0.17 0.09 0.03 0.01 0.05 0.12 0.43 0.34 0.28 0.27 0.13 0.19 0.32 0.38 0.68 1.74 0.92 1.01 0.35 0.28 0.31 0.11 0.07 0.03 0.00 0.00 0.00 0.00 0.00 0.00 0.00 0.00 0.00 0.00 0.00 0.00 0.00 0.00 0.00 0.00 0.00
0.13 0.16 0.13 0.11 0.12 0.04 0.02 0.04 0.08 0.11 0.56 0.55 0.57 0.44 0.23 0.33 0.42 0.59 1.19 1.79 0.71 0.64 0.33 0.20 0.16 0.15 0.10 0.06 0.01 0.00 0.00 0.00 0.00 0.00 0.00 0.00 0.00 0.00 0.00 0.00 0.00 0.00 0.00 0.00 0.00
0.17 0.22 0.28 0.26 0.12 0.06 0.11 0.09 0.16 0.18 0.72 0.92 1.04 0.57 0.31 0.41 0.54 0.42 0.79 1.24 0.81 0.70 0.50 0.39 0.14 0.18 0.14 0.09 0.01 0.00 0.00 0.00 0.00 0.00 0.00 0.00 0.00 0.00 0.00 0.00 0.00 0.00 0.00 0.00 0.00
0.15 0.28 0.34 0.38 0.31 0.22 0.17 0.14 0.26 0.29 0.93 1.20 1.03 0.54 0.34 0.28 0.46 0.49 0.55 0.68 0.39 0.59 0.49 0.32 0.20 0.27 0.21 0.11 0.02 0.00 0.00 0.00 0.00 0.00 0.00 0.00 0.00 0.00 0.00 0.00 0.00 0.00 0.00 0.00 0.00
0.16 0.17 0.21 0.22 0.28 0.26 0.05 0.16 0.24 0.40 1.18 0.93 0.51 0.32 0.24 0.16 0.21 0.39 0.41 0.38 0.44 0.44 0.32 0.24 0.14 0.34 0.25 0.15 0.05 0.00 0.00 0.00 0.00 0.00 0.00 0.00 0.00 0.00 0.00 0.00 0.00 0.00 0.00 0.00 0.00
0.09 0.15 0.15 0.05 0.03 0.01 0.03 0.06 0.16 0.54 0.66 0.41 0.23 0.07 0.05 0.08 0.20 0.18 0.22 0.32 0.43 0.64 0.65 0.47 0.21 0.30 0.19 0.18 0.07 0.00 0.00 0.01 0.01 0.01 0.00 0.00 0.00 0.00 0.00 0.00 0.00 0.00 0.00 0.00 0.00
0.07 0.09 0.06 0.02 0.00 0.00 0.02 0.05 0.46 0.60 0.34 0.16 0.04 0.02 0.02 0.04 0.06 0.07 0.13 0.14 0.18 0.09 0.19 0.34 0.36 0.31 0.30 0.13 0.07 0.00 0.01 0.02 0.00 0.00 0.00 0.00 0.00 0.00 0.00 0.00 0.00 0.00 0.00 0.00 0.00
0.04 0.01 0.02 0.06 0.01 0.01 0.04 0.17 0.58 0.47 0.17 0.06 0.04 0.01 0.02 0.01 0.02 0.07 0.08 0.09 0.08 0.05 0.10 0.08 0.06 0.10 0.20 0.09 0.06 0.03 0.00 0.00 0.00 0.00 0.00 0.00 0.00 0.00 0.00 0.00 0.00 0.00 0.00 0.00 0.00
0.01 0.00 0.02 0.06 0.01 0.03 0.10 0.31 0.35 0.05 0.00 0.00 0.04 0.01 0.00 0.00 0.00 0.02 0.02 0.02 0.00 0.00 0.00 0.00 0.02 0.04 0.07 0.10 0.10 0.02 0.01 0.00 0.00 0.00 0.00 0.00 0.00 0.00 0.00 0.00 0.00 0.00 0.00 0.00 0.00
0.00 0.01 0.02 0.02 0.01 0.01 0.14 0.46 0.27 0.01 0.00 0.00 0.00 0.00 0.00 0.00 0.00 0.00 0.00 0.00 0.00 0.00 0.00 0.00 0.00 0.01 0.02 0.07 0.05 0.02 0.02 0.00 0.00 0.00 0.00 0.00 0.00 0.00 0.00 0.00 0.00 0.00 0.00 0.00 0.00
0.00 0.00 0.00 0.00 0.00 0.03 0.18 0.30 0.11 0.01 0.00 0.00 0.00 0.00 0.00 0.00 0.00 0.00 0.00 0.00 0.00 0.00 0.00 0.00 0.00 0.00 0.00 0.00 0.00 0.00 0.00 0.02 0.00 0.00 0.00 0.00 0.00 0.00 0.00 0.00 0.00 0.00 0.00 0.00 0.00
0.00 0.00 0.00 0.00 0.00 0.04 0.07 0.01 0.00 0.01 0.00 0.00 0.00 0.00 0.00 0.00 0.00 0.00 0.00 0.00 0.00 0.00 0.00 0.00 0.00 0.00 0.00 0.00 0.00 0.00 0.00 0.00 0.01 0.02 0.02 0.01 0.00 0.00 0.00 0.00 0.00 0.00 0.00 0.00 0.00
0.00 0.00 0.00 0.00 0.00 0.01 0.02 0.01 0.00 0.00 0.00 0.00 0.00 0.00 0.00 0.00 0.00 0.00 0.00 0.00 0.00 0.00 0.00 0.00 0.00 0.00 0.00 0.00 0.00 0.00 0.00 0.00 0.00 0.07 0.01 0.00 0.00 0.00 0.00 0.00 0.01 0.02 0.01 0.00 0.00
0.00 0.00 0.00 0.00 0.00 0.00 0.01 0.01 0.00 0.00 0.00 0.00 0.00 0.00 0.00 0.00 0.00 0.00 0.00 0.00 0.00 0.00 0.00 0.00 0.00 0.00 0.00 0.00 0.00 0.00 0.00 0.00 0.01 0.01 0.07 0.02 0.00 0.00 0.00 0.01 0.01 0.01 0.01 0.02 0.03
0.00 0.01 0.00 0.00 0.00 0.00 0.00 0.00 0.00 0.00 0.00 0.00 0.00 0.00 0.00 0.00 0.00 0.00 0.00 0.00 0.00 0.00 0.00 0.00 0.00 0.00 0.00 0.00 0.00 0.00 0.00 0.00 0.00 0.00 0.00 0.00 0.00 0.00 0.00 0.00 0.00 0.00 0.00 0.00 0.00
0.00 0.00 0.01 0.00 0.00 0.00 0.00 0.00 0.00 0.00 0.00 0.00 0.00 0.00 0.00 0.00 0.00 0.00 0.00 0.00 0.00 0.00 0.00 0.00 0.00 0.00 0.00 0.00 0.00 0.00 0.00 0.00 0.00 0.00 0.00 0.00 0.00 0.02 0.02 0.01 0.01 0.01 0.01 0.00 0.00

GFSSW_prec_precacc24_045.txt.gz
Total_Precipitation_Accumulation
0.06 0.09 0.12 0.12 0.12 0.12 0.13 0.14 0.17 0.28 0.22 0.18 0.33 0.33 0.24 0.20 0.26 0.18 0.05 0.01 0.02 0.01 0.01 0.00 0.01 0.02 0.01 0.04 0.03 0.10 0.29 0.22 0.02 0.01 0.00 0.00 0.00 0.00 0.00 0.00 0.00 0.00 0.00 0.00 0.00
0.09 0.13 0.17 0.15 0.13 0.13 0.15 0.17 0.22 0.18 0.18 0.16 0.21 0.43 0.46 0.38 0.21 0.11 0.05 0.03 0.02 0.06 0.02 0.00 0.01 0.03 0.01 0.04 0.05 0.08 0.15 0.12 0.03 0.00 0.01 0.00 0.00 0.00 0.00 0.00 0.00 0.00 0.00 0.00 0.00
0.14 0.16 0.19 0.18 0.18 0.26 0.24 0.22 0.24 0.22 0.16 0.21 0.29 0.44 0.62 0.51 0.25 0.04 0.01 0.01 0.04 0.08 0.03 0.00 0.03 0.05 0.01 0.01 0.03 0.03 0.00 0.00 0.01 0.05 0.03 0.02 0.00 0.00 0.00 0.00 0.00 0.00 0.00 0.00 0.00
0.17 0.23 0.23 0.18 0.22 0.24 0.23 0.21 0.15 0.11 0.10 0.13 0.24 0.30 0.48 0.70 0.31 0.12 0.04 0.04 0.11 0.17 0.11 0.04 0.03 0.05 0.01 0.00 0.00 0.00 0.00 0.00 0.04 0.06 0.09 0.04 0.00 0.00 0.00 0.00 0.00 0.00 0.00 0.00 0.00
0.25 0.27 0.24 0.19 0.23 0.17 0.12 0.11 0.10 0.12 0.09 0.09 0.25 0.41 0.43 0.51 0.22 0.23 0.18 0.12 0.30 0.36 0.08 0.05 0.01 0.02 0.01 0.00 0.00 0.00 0.00 0.00 0.01 0.00 0.03 0.04 0.01 0.00 0.00 0.00 0.00 0.00 0.00 0.00 0.00
0.25 0.25 0.21 0.17 0.20 0.18 0.12 0.20 0.12 0.09 0.04 0.07 0.22 0.60 0.39 0.19 0.07 0.14 0.28 0.29 0.35 0.31 0.07 0.05 0.00 0.01 0.01 0.00 0.00 0.00 0.00 0.00 0.00 0.00 0.00 0.00 0.00 0.00 0.00 0.00 0.00 0.00 0.00 0.00 0.00
0.25 0.26 0.19 0.13 0.24 0.24 0.15 0.13 0.16 0.14 0.05 0.11 0.43 0.44 0.42 0.09 0.05 0.19 0.23 0.39 0.55 0.38 0.07 0.05 0.00 0.02 0.01 0.02 0.00 0.00 0.00 0.00 0.00 0.00 0.00 0.00 0.00 0.00 0.00 0.00 0.00 0.00 0.00 0.00 0.00
0.21 0.24 0.23 0.24 0.22 0.16 0.06 0.03 0.07 0.05 0.04 0.12 0.39 0.53 0.24 0.07 0.02 0.13 0.21 0.39 0.62 0.64 0.16 0.15 0.01 0.02 0.02 0.02 0.00 0.00 0.00 0.00 0.00 0.00 0.00 0.00 0.00 0.00 0.00 0.00 0.00 0.00 0.00 0.00 0.00
0.18 0.22 0.23 0.16 0.08 0.07 0.02 0.01 0.00 0.01 0.05 0.19 0.41 0.44 0.14 0.11 0.06 0.14 0.15 0.38 0.61 0.91 0.65 0.40 0.24 0.08 0.01 0.03 0.05 0.02 0.00 0.00 0.00 0.00 0.00 0.00 0.00 0.00 0.00 0.00 0.00 0.00 0.00 0.00 0.00
0.16 0.17 0.14 0.08 0.04 0.02 0.01 0.00 0.00 0.03 0.03 0.20 0.59 0.52 0.19 0.04 0.11 0.17 0.20 0.47 0.65 1.06 1.05 0.79 0.58 0.25 0.05 0.03 0.03 0.00 0.00 0.00 0.00 0.00 0.00 0.00 0.00 0.00 0.00 0.00 0.00 0.00 0.00 0.00 0.00
0.14 0.13 0.10 0.05 0.05 0.05 0.02 0.01 0.09 0.09 0.11 0.23 0.38 0.26 0.23 0.15 0.21 0.26 0.39 0.75 0.92 1.44 0.65 0.51 0.37 0.19 0.07 0.01 0.00 0.00 0.00 0.00 0.00 0.00 0.00 0.00 0.00 0.00 0.00 0.00 0.00 0.00 0.00 0.00 0.00
0.12 0.12 0.10 0.07 0.17 0.07 0.02 0.01 0.02 0.04 0.13 0.19 0.23 0.26 0.13 0.19 0.34 0.43 0.84 1.83 1.00 1.38 0.52 0.33 0.30 0.11 0.07 0.03 0.00 0.00 0.00 0.00 0.00 0.00 0.00 0.00 0.00 0.00 0.00 0.00 0.00 0.00 0.00 0.00 0.00
0.12 0.16 0.13 0.10 0.11 0.02 0.02 0.03 0.00 0.01 0.28 0.38 0.51 0.44 0.25 0.37 0.45 0.63 1.35 1.95 0.82 0.88 0.40 0.21 0.17 0.15 0.10 0.06 0.01 0.00 0.00 0.00 0.00 0.00 0.00 0.00 0.00 0.00 0.00 0.00 0.00 0.00 0.00 0.00 0.00
0.16 0.22 0.28 0.25 0.10 0.05 0.09 0.03 0.00 0.01 0.46 0.73 0.97 0.57 0.37 0.52 0.87 0.63 0.93 1.39 0.97 0.81 0.52 0.40 0.15 0.18 0.15 0.09 0.01 0.00 0.00 0.00 0.00 0.00 0.00 0.00 0.00 0.00 0.00 0.00 0.00 0.00 0.00 0.00 0.00
0.15 0.27 0.31 0.30 0.20 0.19 0.14 0.00 0.01 0.06 0.79 1.14 1.05 0.58 0.45 0.64 0.74 0.57 0.61 0.75 0.45 0.62 0.49 0.32 0.22 0.27 0.21 0.12 0.02 0.00 0.00 0.00 0.00 0.00 0.00 0.00 0.00 0.00 0.00 0.00 0.00 0.00 0.00 0.00 0.00
0.14 0.13 0.11 0.06 0.10 0.22 0.04 0.00 0.01 0.18 1.04 0.89 0.68 0.50 0.41 0.28 0.27 0.41 0.42 0.40 0.45 0.45 0.32 0.24 0.14 0.37 0.27 0.16 0.05 0.01 0.00 0.00 0.00 0.00 0.00 0.00 0.00 0.00 0.00 0.00 0.00 0.00 0.00 0.00 0.00
0.07 0.07 0.06 0.01 0.02 0.01 0.00 0.01 0.05 0.34 0.58 0.41 0.25 0.08 0.06 0.09 0.21 0.18 0.24 0.34 0.44 0.66 0.66 0.47 0.21 0.31 0.22 0.22 0.08 0.01 0.00 0.02 0.01 0.00 0.00 0.00 0.00 0.00 0.00 0.00 0.00 0.00 0.00 0.00 0.00
0.04 0.02 0.03 0.01 0.00 0.00 0.01 0.02 0.28 0.47 0.32 0.16 0.04 0.02 0.02 0.04 0.06 0.08 0.15 0.16 0.18 0.09 0.20 0.41 0.41 0.32 0.34 0.14 0.09 0.01 0.01 0.02 0.00 0.00 0.00 0.00 0.00 0.00 0.00 0.00 0.00 0.00 0.00 0.00 0.00
0.00 0.00 0.01 0.01 0.00 0.01 0.02 0.10 0.34 0.38 0.16 0.05 0.03 0.01 0.02 0.01 0.03 0.13 0.16 0.12 0.09 0.06 0.11 0.13 0.16 0.14 0.23 0.10 0.06 0.06 0.02 0.00 0.00 0.00 0.00 0.00 0.00 0.00 0.00 0.00 0.00 0.00 0.00 0.00 0.00
0.00 0.00 0.01 0.02 0.00 0.02 0.06 0.24 0.17 0.03 0.00 0.00 0.03 0.01 0.00 0.00 0.00 0.02 0.07 0.05 0.02 0.01 0.00 0.00 0.05 0.08 0.11 0.16 0.12 0.02 0.01 0.00 0.00 0.00 0.00 0.00 0.00 0.00 0.00 0.00 0.00 0.00 0.00 0.00 0.00
0.00 0.00 0.00 0.00 0.00 0.01 0.11 0.26 0.13 0.01 0.00 0.00 0.00 0.00 0.00 0.00 0.00 0.00 0.00 0.00 0.00 0.00 0.00 0.00 0.00 0.03 0.07 0.17 0.08 0.02 0.03 0.00 0.00 0.00 0.00 0.00 0.00 0.00 0.00 0.00 0.00 0.00 0.00 0.00 0.00
0.00 0.00 0.00 0.00 0.00 0.02 0.09 0.09 0.03 0.00 0.00 0.00 0.00 0.00 0.00 0.00 0.00 0.00 0.00 0.00 0.00 0.00 0.00 0.00 0.00 0.01 0.01 0.00 0.00 0.00 0.01 0.02 0.00 0.00 0.00 0.00 0.00 0.00 0.00 0.00 0.00 0.00 0.00 0.00 0.00
0.00 0.00 0.00 0.00 0.00 0.00 0.00 0.00 0.00 0.00 0.00 0.00 0.00 0.00 0.00 0.00 0.00 0.00 0.00 0.00 0.00 0.00 0.00 0.00 0.00 0.00 0.01 0.00 0.00 0.00 0.00 0.00 0.01 0.00 0.00 0.00 0.00 0.00 0.00 0.00 0.00 0.00 0.00 0.00 0.00
0.00 0.00 0.00 0.00 0.00 0.00 0.00 0.00 0.00 0.00 0.00 0.00 0.00 0.00 0.00 0.00 0.00 0.00 0.00 0.00 0.00 0.00 0.00 0.00 0.00 0.00 0.00 0.00 0.00 0.00 0.00 0.00 0.00 0.02 0.00 0.00 0.00 0.00 0.00 0.00 0.00 0.00 0.00 0.00 0.00
0.00 0.00 0.00 0.00 0.00 0.00 0.00 0.00 0.00 0.00 0.00 0.00 0.00 0.00 0.00 0.00 0.00 0.00 0.00 0.00 0.00 0.00 0.00 0.00 0.00 0.00 0.00 0.00 0.00 0.00 0.00 0.00 0.00 0.00 0.02 0.00 0.00 0.00 0.00 0.00 0.00 0.00 0.00 0.00 0.00
0.00 0.01 0.00 0.00 0.00 0.00 0.00 0.00 0.00 0.00 0.00 0.00 0.00 0.00 0.00 0.00 0.00 0.00 0.00 0.00 0.00 0.00 0.00 0.00 0.00 0.00 0.00 0.00 0.00 0.00 0.00 0.00 0.00 0.00 0.00 0.00 0.00 0.00 0.00 0.00 0.00 0.00 0.00 0.00 0.00
0.00 0.00 0.01 0.00 0.00 0.00 0.00 0.00 0.00 0.00 0.00 0.00 0.00 0.00 0.00 0.00 0.00 0.00 0.00 0.00 0.00 0.00 0.00 0.00 0.00 0.00 0.00 0.00 0.00 0.00 0.00 0.00 0.00 0.00 0.00 0.00 0.00 0.00 0.00 0.00 0.01 0.00 0.00 0.00 0.00

GFSSW_prec_precacc24_048.txt.gz
Total_Precipitation_Accumulation
0.08 0.10 0.14 0.15 0.14 0.15 0.16 0.20 0.20 0.26 0.17 0.14 0.32 0.33 0.25 0.21 0.27 0.19 0.05 0.01 0.03 0.03 0.01 0.00 0.01 0.02 0.01 0.05 0.07 0.12 0.34 0.24 0.05 0.03 0.01 0.00 0.00 0.00 0.00 0.00 0.00 0.00 0.00 0.00 0.00
0.09 0.14 0.17 0.16 0.14 0.16 0.23 0.28 0.23 0.18 0.15 0.09 0.17 0.43 0.49 0.45 0.22 0.10 0.05 0.03 0.05 0.19 0.03 0.00 0.01 0.03 0.01 0.06 0.10 0.13 0.24 0.13 0.03 0.00 0.01 0.01 0.00 0.00 0.00 0.00 0.00 0.00 0.00 0.00 0.00
0.13 0.16 0.19 0.18 0.20 0.27 0.33 0.29 0.25 0.22 0.14 0.13 0.22 0.44 0.64 0.56 0.30 0.04 0.01 0.01 0.04 0.20 0.09 0.00 0.03 0.06 0.02 0.03 0.06 0.07 0.04 0.00 0.01 0.05 0.14 0.07 0.00 0.00 0.00 0.00 0.00 0.00 0.00 0.00 0.03
0.15 0.22 0.23 0.18 0.22 0.24 0.28 0.25 0.17 0.12 0.08 0.06 0.11 0.28 0.48 0.70 0.36 0.12 0.04 0.04 0.11 0.26 0.19 0.04 0.03 0.07 0.01 0.00 0.01 0.00 0.00 0.00 0.05 0.09 0.22 0.09 0.01 0.00 0.00 0.00 0.00 0.00 0.00 0.00 0.00
0.20 0.26 0.24 0.18 0.22 0.17 0.13 0.11 0.10 0.12 0.09 0.11 0.07 0.32 0.42 0.50 0.23 0.24 0.18 0.11 0.29 0.46 0.17 0.05 0.01 0.03 0.01 0.00 0.00 0.00 0.00 0.00 0.05 0.04 0.06 0.10 0.09 0.01 0.00 0.00 0.00 0.00 0.00 0.00 0.00
0.24 0.24 0.21 0.16 0.18 0.17 0.12 0.20 0.12 0.09 0.03 0.03 0.05 0.46 0.41 0.23 0.09 0.18 0.27 0.26 0.34 0.39 0.12 0.05 0.00 0.01 0.01 0.00 0.00 0.00 0.00 0.02 0.03 0.01 0.01 0.03 0.07 0.06 0.01 0.00 0.00 0.00 0.00 0.00 0.00
0.22 0.24 0.19 0.12 0.22 0.23 0.15 0.13 0.16 0.14 0.05 0.06 0.08 0.30 0.44 0.12 0.08 0.20 0.26 0.38 0.58 0.52 0.11 0.05 0.00 0.02 0.01 0.02 0.00 0.00 0.00 0.01 0.00 0.00 0.00 0.00 0.01 0.03 0.00 0.00 0.00 0.00 0.00 0.00 0.00
0.19 0.21 0.22 0.22 0.21 0.15 0.06 0.03 0.07 0.05 0.03 0.06 0.09 0.37 0.24 0.07 0.02 0.13 0.22 0.42 0.68 0.76 0.29 0.18 0.02 0.04 0.02 0.02 0.00 0.00 0.00 0.00 0.00 0.00 0.00 0.00 0.00 0.00 0.00 0.00 0.00 0.00 0.00 0.00 0.00
0.16 0.20 0.20 0.14 0.07 0.06 0.02 0.00 0.00 0.01 0.04 0.10 0.11 0.36 0.14 0.11 0.06 0.14 0.15 0.39 0.65 0.94 0.66 0.49 0.24 0.07 0.02 0.04 0.05 0.02 0.00 0.00 0.00 0.00 0.00 0.00 0.00 0.00 0.00 0.00 0.00 0.00 0.00 0.00 0.00
0.16 0.16 0.12 0.06 0.03 0.01 0.00 0.00 0.00 0.03 0.03 0.05 0.22 0.41 0.19 0.04 0.11 0.17 0.19 0.47 0.73 1.13 1.33 0.87 0.51 0.18 0.04 0.03 0.03 0.00 0.00 0.00 0.00 0.00 0.00 0.00 0.00 0.00 0.00 0.00 0.00 0.00 0.00 0.00 0.00
0.13 0.12 0.09 0.04 0.05 0.04 0.01 0.01 0.09 0.09 0.06 0.05 0.18 0.23 0.23 0.15 0.21 0.26 0.39 0.79 1.16 1.69 1.06 0.56 0.34 0.10 0.01 0.00 0.00 0.00 0.00 0.00 0.00 0.00 0.00 0.00 0.00 0.00 0.00 0.00 0.00 0.00 0.00 0.00 0.00
0.11 0.11 0.09 0.06 0.16 0.07 0.01 0.01 0.01 0.03 0.02 0.06 0.16 0.26 0.13 0.19 0.34 0.45 0.86 1.95 1.34 1.61 0.81 0.49 0.27 0.10 0.05 0.02 0.00 0.00 0.00 0.00 0.00 0.00 0.00 0.00 0.00 0.00 0.00 0.00 0.00 0.00 0.00 0.00 0.00
0.12 0.16 0.13 0.10 0.11 0.01 0.02 0.02 0.00 0.00 0.14 0.22 0.38 0.43 0.26 0.39 0.47 0.66 1.42 2.09 1.13 1.07 0.59 0.30 0.17 0.15 0.09 0.06 0.01 0.00 0.00 0.00 0.00 0.00 0.00 0.00 0.00 0.00 0.00 0.00 0.00 0.00 0.00 0.00 0.00
0.16 0.20 0.24 0.19 0.07 0.02 0.07 0.01 0.00 0.01 0.29 0.51 0.78 0.55 0.44 0.55 0.88 0.66 1.10 1.55 1.19 1.01 0.69 0.45 0.15 0.18 0.15 0.09 0.01 0.00 0.00 0.00 0.00 0.00 0.00 0.00 0.00 0.00 0.00 0.00 0.00 0.00 0.00 0.00 0.00
0.13 0.22 0.23 0.17 0.07 0.05 0.10 0.00 0.00 0.03 0.60 0.94 0.91 0.57 0.48 0.66 0.80 0.65 0.70 0.84 0.50 0.84 0.58 0.34 0.22 0.28 0.22 0.12 0.02 0.00 0.00 0.00 0.00 0.00 0.00 0.00 0.00 0.00 0.00 0.00 0.00 0.00 0.00 0.00 0.00
0.08 0.07 0.04 0.02 0.01 0.07 0.02 0.00 0.01 0.09 0.77 0.80 0.77 0.60 0.60 0.37 0.34 0.42 0.48 0.46 0.50 0.47 0.32 0.25 0.14 0.38 0.28 0.16 0.05 0.01 0.00 0.00 0.00 0.00 0.00 0.00 0.00 0.00 0.00 0.00 0.00 0.00 0.00 0.00 0.00
0.01 0.01 0.00 0.00 0.00 0.00 0.00 0.01 0.04 0.23 0.39 0.34 0.28 0.12 0.09 0.11 0.21 0.18 0.27 0.38 0.47 0.66 0.65 0.47 0.21 0.31 0.22 0.22 0.08 0.01 0.00 0.02 0.02 0.01 0.00 0.00 0.00 0.00 0.00 0.00 0.00 0.00 0.00 0.00 0.00
0.00 0.00 0.00 0.00 0.00 0.00 0.00 0.01 0.20 0.32 0.25 0.15 0.05 0.02 0.02 0.04 0.06 0.09 0.17 0.16 0.19 0.10 0.20 0.42 0.42 0.33 0.35 0.15 0.09 0.01 0.01 0.02 0.00 0.00 0.00 0.00 0.00 0.00 0.00 0.00 0.00 0.00 0.00 0.00 0.00
0.00 0.00 0.00 0.00 0.00 0.00 0.00 0.04 0.19 0.27 0.13 0.04 0.01 0.02 0.03 0.01 0.03 0.16 0.20 0.12 0.09 0.06 0.11 0.13 0.16 0.14 0.23 0.10 0.06 0.07 0.03 0.00 0.00 0.00 0.00 0.00 0.00 0.00 0.00 0.00 0.00 0.00 0.00 0.00 0.00
0.00 0.00 0.00 0.00 0.00 0.00 0.00 0.05 0.03 0.01 0.00 0.00 0.01 0.01 0.00 0.00 0.01 0.03 0.11 0.06 0.02 0.01 0.00 0.00 0.06 0.10 0.12 0.17 0.13 0.03 0.02 0.02 0.00 0.00 0.00 0.00 0.00 0.00 0.00 0.00 0.00 0.00 0.00 0.00 0.00
0.00 0.00 0.00 0.00 0.00 0.00 0.01 0.04 0.02 0.00 0.00 0.00 0.00 0.00 0.00 0.00 0.00 0.00 0.00 0.00 0.00 0.00 0.00 0.00 0.00 0.06 0.11 0.21 0.12 0.02 0.04 0.02 0.00 0.00 0.00 0.00 0.00 0.00 0.00 0.00 0.00 0.00 0.00 0.00 0.00
0.00 0.00 0.00 0.00 0.00 0.00 0.00 0.00 0.00 0.00 0.00 0.00 0.00 0.00 0.00 0.00 0.00 0.00 0.00 0.00 0.00 0.00 0.00 0.00 0.00 0.02 0.02 0.00 0.00 0.04 0.01 0.03 0.01 0.00 0.00 0.00 0.00 0.00 0.00 0.00 0.00 0.00 0.00 0.00 0.00
0.00 0.00 0.00 0.00 0.00 0.00 0.00 0.00 0.00 0.00 0.00 0.00 0.00 0.00 0.00 0.00 0.00 0.00 0.00 0.00 0.00 0.00 0.00 0.00 0.00 0.01 0.01 0.00 0.00 0.03 0.01 0.00 0.01 0.00 0.00 0.00 0.00 0.00 0.00 0.00 0.00 0.00 0.00 0.00 0.00
0.00 0.00 0.00 0.00 0.00 0.00 0.00 0.00 0.00 0.00 0.00 0.00 0.00 0.00 0.00 0.00 0.00 0.00 0.00 0.00 0.00 0.00 0.00 0.00 0.00 0.00 0.00 0.00 0.00 0.00 0.00 0.00 0.00 0.01 0.00 0.00 0.00 0.00 0.00 0.00 0.00 0.00 0.00 0.00 0.00
0.00 0.00 0.00 0.00 0.00 0.00 0.00 0.00 0.00 0.00 0.00 0.00 0.00 0.00 0.00 0.00 0.00 0.00 0.00 0.00 0.00 0.00 0.00 0.00 0.00 0.00 0.00 0.00 0.00 0.00 0.00 0.00 0.00 0.00 0.01 0.00 0.00 0.00 0.00 0.00 0.00 0.00 0.00 0.00 0.00
0.00 0.01 0.00 0.00 0.00 0.00 0.00 0.00 0.00 0.00 0.00 0.00 0.00 0.00 0.00 0.00 0.00 0.00 0.00 0.00 0.00 0.00 0.00 0.00 0.00 0.00 0.00 0.00 0.00 0.00 0.00 0.00 0.00 0.00 0.00 0.00 0.00 0.00 0.00 0.00 0.00 0.00 0.00 0.00 0.00
0.00 0.00 0.01 0.00 0.00 0.00 0.00 0.00 0.00 0.00 0.00 0.00 0.00 0.00 0.00 0.00 0.00 0.00 0.00 0.00 0.00 0.00 0.00 0.00 0.00 0.00 0.00 0.00 0.00 0.00 0.00 0.00 0.00 0.00 0.00 0.00 0.00 0.00 0.00 0.00 0.00 0.00 0.00 0.00 0.00

GFSSW_prec_precacc24_051.txt.gz
Total_Precipitation_Accumulation
0.07 0.09 0.13 0.15 0.15 0.16 0.17 0.23 0.31 0.32 0.26 0.17 0.11 0.23 0.25 0.21 0.28 0.24 0.06 0.01 0.03 0.04 0.06 0.00 0.01 0.02 0.01 0.07 0.11 0.16 0.36 0.24 0.05 0.03 0.02 0.00 0.00 0.00 0.00 0.00 0.00 0.00 0.00 0.00 0.00
0.07 0.12 0.15 0.16 0.14 0.15 0.23 0.32 0.33 0.29 0.23 0.11 0.10 0.21 0.48 0.45 0.22 0.10 0.05 0.03 0.05 0.22 0.06 0.00 0.01 0.03 0.03 0.07 0.15 0.25 0.33 0.14 0.03 0.00 0.01 0.01 0.00 0.00 0.00 0.00 0.01 0.02 0.00 0.00 0.00
0.12 0.15 0.17 0.17 0.18 0.25 0.35 0.33 0.33 0.27 0.14 0.13 0.17 0.22 0.54 0.57 0.31 0.04 0.01 0.01 0.04 0.23 0.15 0.01 0.03 0.06 0.03 0.04 0.08 0.12 0.09 0.00 0.01 0.05 0.18 0.08 0.00 0.00 0.00 0.00 0.00 0.03 0.03 0.01 0.04
0.14 0.18 0.21 0.17 0.20 0.23 0.27 0.25 0.18 0.12 0.08 0.06 0.10 0.13 0.33 0.70 0.36 0.12 0.04 0.04 0.10 0.28 0.30 0.05 0.03 0.07 0.01 0.01 0.01 0.00 0.00 0.00 0.05 0.11 0.26 0.10 0.02 0.00 0.00 0.00 0.00 0.01 0.06 0.05 0.02
0.18 0.23 0.21 0.16 0.19 0.16 0.13 0.11 0.10 0.12 0.09 0.12 0.07 0.10 0.21 0.50 0.23 0.24 0.18 0.11 0.28 0.46 0.29 0.06 0.01 0.03 0.01 0.00 0.01 0.00 0.00 0.01 0.06 0.05 0.07 0.12 0.17 0.03 0.00 0.00 0.00 0.00 0.03 0.03 0.01
0.21 0.21 0.20 0.16 0.16 0.16 0.12 0.20 0.12 0.09 0.03 0.03 0.06 0.08 0.12 0.22 0.09 0.18 0.26 0.17 0.31 0.41 0.26 0.08 0.00 0.01 0.02 0.00 0.01 0.00 0.01 0.06 0.05 0.02 0.02 0.08 0.12 0.13 0.01 0.00 0.00 0.01 0.03 0.01 0.00
0.20 0.22 0.18 0.12 0.20 0.21 0.14 0.12 0.16 0.14 0.05 0.06 0.08 0.09 0.13 0.13 0.09 0.21 0.23 0.29 0.50 0.53 0.22 0.08 0.00 0.03 0.02 0.03 0.01 0.01 0.02 0.04 0.03 0.01 0.01 0.02 0.10 0.17 0.01 0.00 0.00 0.01 0.02 0.01 0.00
0.17 0.21 0.21 0.21 0.19 0.14 0.05 0.02 0.07 0.05 0.03 0.06 0.06 0.14 0.10 0.06 0.06 0.15 0.20 0.38 0.59 0.71 0.41 0.24 0.03 0.07 0.03 0.02 0.01 0.00 0.03 0.01 0.00 0.00 0.00 0.03 0.03 0.00 0.04 0.01 0.00 0.00 0.00 0.00 0.00
0.16 0.19 0.18 0.13 0.06 0.03 0.01 0.00 0.00 0.01 0.04 0.10 0.04 0.16 0.10 0.11 0.09 0.14 0.15 0.35 0.63 0.89 0.71 0.64 0.28 0.08 0.03 0.05 0.05 0.02 0.00 0.00 0.00 0.00 0.00 0.00 0.00 0.00 0.01 0.01 0.00 0.00 0.00 0.00 0.00
0.14 0.15 0.11 0.06 0.01 0.01 0.00 0.00 0.00 0.03 0.03 0.05 0.05 0.15 0.10 0.04 0.11 0.16 0.19 0.48 0.82 1.17 1.43 0.98 0.52 0.18 0.04 0.04 0.03 0.00 0.00 0.00 0.00 0.00 0.00 0.00 0.00 0.00 0.00 0.00 0.00 0.00 0.00 0.00 0.00
0.11 0.12 0.09 0.03 0.05 0.03 0.00 0.01 0.08 0.08 0.06 0.04 0.04 0.13 0.20 0.14 0.21 0.24 0.38 0.83 1.27 1.88 1.48 0.68 0.32 0.08 0.01 0.00 0.00 0.00 0.00 0.00 0.00 0.00 0.00 0.00 0.00 0.00 0.00 0.00 0.00 0.00 0.00 0.00 0.00
0.11 0.11 0.09 0.06 0.16 0.07 0.01 0.01 0.01 0.03 0.02 0.03 0.09 0.22 0.13 0.19 0.34 0.44 0.85 1.98 1.51 1.86 1.14 0.60 0.15 0.01 0.01 0.00 0.00 0.00 0.00 0.00 0.00 0.00 0.00 0.00 0.00 0.00 0.00 0.00 0.00 0.00 0.00 0.00 0.00
0.11 0.15 0.10 0.06 0.09 0.00 0.02 0.02 0.00 0.00 0.14 0.18 0.28 0.37 0.26 0.40 0.48 0.67 1.43 2.13 1.27 1.25 0.81 0.38 0.14 0.10 0.05 0.02 0.01 0.00 0.00 0.00 0.00 0.00 0.00 0.00 0.00 0.00 0.00 0.00 0.00 0.00 0.00 0.00 0.00
0.08 0.12 0.16 0.09 0.04 0.00 0.02 0.00 0.00 0.01 0.24 0.38 0.63 0.54 0.46 0.56 0.89 0.66 1.11 1.63 1.35 1.13 0.88 0.57 0.15 0.16 0.14 0.08 0.01 0.00 0.00 0.00 0.00 0.00 0.00 0.00 0.00 0.00 0.00 0.00 0.00 0.00 0.00 0.00 0.00
0.04 0.05 0.09 0.06 0.01 0.00 0.02 0.00 0.00 0.02 0.45 0.78 0.78 0.51 0.49 0.69 0.83 0.77 0.87 0.97 0.62 0.96 0.78 0.47 0.22 0.27 0.21 0.12 0.02 0.00 0.00 0.00 0.00 0.00 0.00 0.00 0.00 0.00 0.00 0.00 0.00 0.00 0.00 0.00 0.00
0.03 0.03 0.01 0.00 0.00 0.00 0.00 0.00 0.01 0.03 0.53 0.61 0.68 0.63 0.65 0.41 0.37 0.47 0.64 0.60 0.64 0.65 0.36 0.27 0.15 0.38 0.28 0.16 0.05 0.01 0.00 0.00 0.00 0.00 0.00 0.00 0.00 0.00 0.00 0.00 0.00 0.00 0.00 0.00 0.00
0.00 0.01 0.00 0.00 0.00 0.00 0.00 0.01 0.02 0.11 0.21 0.22 0.25 0.14 0.11 0.12 0.21 0.22 0.34 0.47 0.71 0.78 0.67 0.47 0.21 0.31 0.22 0.22 0.08 0.01 0.00 0.02 0.02 0.01 0.00 0.00 0.00 0.00 0.00 0.00 0.00 0.00 0.00 0.00 0.00
0.00 0.00 0.00 0.00 0.00 0.00 0.00 0.01 0.09 0.15 0.15 0.11 0.04 0.03 0.03 0.04 0.06 0.09 0.20 0.19 0.21 0.10 0.20 0.42 0.43 0.33 0.35 0.15 0.09 0.01 0.01 0.02 0.01 0.00 0.00 0.00 0.00 0.00 0.00 0.00 0.00 0.00 0.00 0.00 0.00
0.00 0.00 0.00 0.00 0.00 0.00 0.00 0.02 0.09 0.15 0.10 0.03 0.00 0.02 0.02 0.02 0.03 0.15 0.21 0.12 0.09 0.06 0.11 0.13 0.16 0.15 0.23 0.10 0.06 0.07 0.03 0.00 0.00 0.00 0.00 0.00 0.00 0.00 0.00 0.00 0.00 0.00 0.00 0.00 0.00
0.00 0.00 0.00 0.00 0.00 0.00 0.00 0.01 0.01 0.01 0.00 0.00 0.00 0.00 0.01 0.01 0.03 0.04 0.11 0.06 0.02 0.01 0.00 0.00 0.06 0.11 0.12 0.17 0.14 0.03 0.02 0.02 0.00 0.00 0.00 0.00 0.00 0.00 0.00 0.00 0.00 0.00 0.00 0.00 0.00
0.00 0.00 0.00 0.00 0.00 0.01 0.00 0.00 0.00 0.00 0.00 0.00 0.00 0.00 0.00 0.00 0.00 0.01 0.00 0.00 0.00 0.00 0.00 0.00 0.00 0.07 0.12 0.22 0.13 0.02 0.05 0.02 0.01 0.00 0.00 0.00 0.00 0.00 0.00 0.00 0.00 0.00 0.00 0.00 0.00
0.00 0.00 0.00 0.00 0.01 0.00 0.00 0.00 0.00 0.00 0.00 0.00 0.00 0.00 0.00 0.00 0.00 0.00 0.00 0.00 0.00 0.00 0.00 0.00 0.00 0.02 0.02 0.00 0.00 0.04 0.01 0.03 0.02 0.01 0.00 0.00 0.00 0.00 0.00 0.00 0.00 0.00 0.00 0.00 0.00
0.00 0.00 0.00 0.00 0.00 0.00 0.00 0.00 0.00 0.00 0.00 0.00 0.00 0.00 0.00 0.00 0.00 0.00 0.00 0.00 0.00 0.00 0.00 0.00 0.00 0.02 0.03 0.02 0.01 0.04 0.03 0.00 0.01 0.01 0.00 0.00 0.00 0.00 0.00 0.00 0.00 0.00 0.00 0.00 0.00
0.00 0.00 0.00 0.00 0.00 0.00 0.00 0.00 0.00 0.00 0.00 0.00 0.00 0.00 0.00 0.00 0.00 0.00 0.00 0.00 0.00 0.00 0.00 0.00 0.00 0.00 0.00 0.00 0.00 0.00 0.00 0.00 0.01 0.04 0.00 0.00 0.00 0.00 0.00 0.00 0.00 0.00 0.00 0.00 0.00
0.00 0.00 0.00 0.00 0.00 0.00 0.00 0.00 0.00 0.00 0.00 0.00 0.00 0.00 0.00 0.00 0.00 0.00 0.00 0.00 0.00 0.00 0.00 0.00 0.00 0.00 0.00 0.00 0.00 0.00 0.00 0.00 0.00 0.01 0.02 0.00 0.00 0.00 0.00 0.00 0.00 0.00 0.00 0.00 0.00
0.00 0.00 0.00 0.00 0.00 0.00 0.00 0.00 0.01 0.01 0.00 0.00 0.00 0.00 0.00 0.00 0.00 0.00 0.00 0.00 0.00 0.00 0.00 0.00 0.00 0.00 0.00 0.00 0.00 0.00 0.00 0.00 0.00 0.00 0.00 0.00 0.00 0.00 0.00 0.00 0.00 0.00 0.00 0.00 0.00
0.00 0.00 0.00 0.00 0.00 0.00 0.00 0.00 0.00 0.00 0.01 0.00 0.00 0.00 0.00 0.00 0.00 0.00 0.00 0.00 0.00 0.00 0.00 0.00 0.00 0.00 0.00 0.00 0.00 0.00 0.00 0.00 0.00 0.00 0.00 0.00 0.00 0.00 0.00 0.00 0.00 0.00 0.00 0.00 0.00

GFSSW_prec_precacc24_054.txt.gz
Total_Precipitation_Accumulation
0.05 0.07 0.10 0.12 0.12 0.15 0.17 0.23 0.31 0.34 0.35 0.27 0.18 0.15 0.12 0.17 0.28 0.25 0.08 0.02 0.03 0.06 0.17 0.03 0.01 0.02 0.02 0.11 0.15 0.18 0.39 0.26 0.05 0.04 0.03 0.00 0.00 0.00 0.00 0.00 0.00 0.00 0.00 0.00 0.00
0.06 0.11 0.14 0.13 0.12 0.13 0.19 0.29 0.32 0.31 0.27 0.15 0.12 0.13 0.26 0.35 0.22 0.10 0.05 0.04 0.07 0.22 0.09 0.03 0.01 0.03 0.04 0.11 0.23 0.31 0.41 0.15 0.03 0.00 0.01 0.01 0.00 0.00 0.00 0.00 0.01 0.04 0.05 0.04 0.02
0.11 0.13 0.15 0.15 0.16 0.20 0.29 0.30 0.31 0.28 0.14 0.13 0.17 0.21 0.26 0.32 0.28 0.04 0.01 0.01 0.08 0.23 0.18 0.04 0.03 0.06 0.04 0.06 0.13 0.15 0.17 0.02 0.01 0.05 0.18 0.11 0.00 0.00 0.00 0.00 0.00 0.03 0.08 0.09 0.11
0.12 0.16 0.18 0.16 0.17 0.19 0.25 0.24 0.17 0.12 0.08 0.06 0.10 0.13 0.22 0.30 0.28 0.12 0.05 0.05 0.18 0.30 0.34 0.08 0.03 0.07 0.02 0.01 0.02 0.01 0.00 0.01 0.05 0.11 0.27 0.12 0.02 0.00 0.00 0.00 0.00 0.01 0.07 0.13 0.12
0.18 0.21 0.19 0.15 0.16 0.13 0.12 0.10 0.10 0.11 0.09 0.12 0.07 0.10 0.12 0.27 0.19 0.23 0.18 0.11 0.33 0.48 0.31 0.10 0.01 0.03 0.01 0.00 0.02 0.01 0.00 0.01 0.07 0.06 0.07 0.12 0.19 0.04 0.00 0.00 0.00 0.00 0.03 0.04 0.08
0.21 0.20 0.18 0.14 0.15 0.14 0.12 0.19 0.10 0.09 0.03 0.03 0.06 0.07 0.08 0.14 0.07 0.19 0.26 0.15 0.30 0.40 0.26 0.11 0.01 0.01 0.02 0.00 0.02 0.00 0.04 0.09 0.06 0.02 0.03 0.09 0.13 0.16 0.02 0.00 0.00 0.01 0.04 0.02 0.05
0.19 0.21 0.18 0.11 0.18 0.19 0.14 0.11 0.14 0.13 0.05 0.06 0.08 0.08 0.07 0.10 0.08 0.21 0.23 0.23 0.45 0.52 0.22 0.11 0.01 0.04 0.02 0.03 0.02 0.01 0.05 0.11 0.09 0.03 0.02 0.03 0.14 0.19 0.02 0.00 0.00 0.01 0.03 0.03 0.00
0.15 0.20 0.21 0.21 0.18 0.12 0.05 0.02 0.06 0.03 0.02 0.05 0.05 0.08 0.03 0.01 0.05 0.16 0.15 0.32 0.45 0.59 0.41 0.28 0.06 0.10 0.04 0.03 0.03 0.04 0.06 0.04 0.05 0.04 0.03 0.06 0.06 0.00 0.06 0.06 0.00 0.00 0.00 0.00 0.00
0.14 0.16 0.17 0.14 0.05 0.01 0.01 0.00 0.00 0.00 0.03 0.09 0.03 0.06 0.03 0.03 0.07 0.14 0.09 0.27 0.60 0.78 0.72 0.80 0.34 0.10 0.05 0.05 0.07 0.02 0.01 0.00 0.00 0.01 0.00 0.00 0.00 0.00 0.04 0.07 0.00 0.00 0.00 0.00 0.00
0.11 0.13 0.11 0.06 0.01 0.00 0.00 0.00 0.00 0.03 0.03 0.05 0.05 0.07 0.02 0.02 0.06 0.15 0.13 0.42 0.80 1.06 1.46 1.28 0.63 0.20 0.05 0.05 0.03 0.00 0.00 0.00 0.00 0.00 0.00 0.00 0.00 0.00 0.00 0.00 0.00 0.00 0.00 0.00 0.00
0.10 0.12 0.09 0.03 0.05 0.03 0.00 0.01 0.08 0.08 0.05 0.03 0.03 0.09 0.16 0.13 0.20 0.20 0.34 0.78 1.17 1.46 1.61 1.10 0.47 0.10 0.01 0.00 0.00 0.00 0.00 0.00 0.00 0.00 0.00 0.00 0.00 0.00 0.00 0.00 0.00 0.00 0.00 0.00 0.00
0.09 0.10 0.06 0.02 0.10 0.05 0.01 0.01 0.01 0.03 0.02 0.00 0.03 0.10 0.09 0.16 0.34 0.39 0.83 1.94 1.46 1.69 1.27 0.72 0.18 0.01 0.01 0.00 0.00 0.00 0.00 0.00 0.00 0.00 0.00 0.00 0.00 0.00 0.00 0.00 0.00 0.00 0.00 0.00 0.00
0.06 0.05 0.03 0.00 0.02 0.00 0.02 0.02 0.00 0.00 0.14 0.11 0.18 0.21 0.22 0.37 0.48 0.65 1.40 2.13 1.25 1.24 1.02 0.35 0.05 0.02 0.02 0.02 0.00 0.00 0.00 0.00 0.00 0.00 0.00 0.00 0.00 0.00 0.00 0.00 0.00 0.00 0.00 0.00 0.00
0.04 0.03 0.03 0.01 0.01 0.00 0.00 0.00 0.00 0.01 0.22 0.25 0.43 0.38 0.43 0.56 0.89 0.67 1.07 1.59 1.37 1.11 1.07 0.55 0.07 0.09 0.06 0.03 0.00 0.00 0.00 0.00 0.00 0.00 0.00 0.00 0.00 0.00 0.00 0.00 0.00 0.00 0.00 0.00 0.00
0.02 0.03 0.04 0.02 0.00 0.00 0.00 0.00 0.00 0.02 0.42 0.66 0.67 0.44 0.48 0.70 0.83 0.77 0.83 0.98 0.69 1.02 1.00 0.59 0.18 0.22 0.13 0.05 0.01 0.00 0.00 0.00 0.00 0.00 0.00 0.00 0.00 0.00 0.00 0.00 0.00 0.00 0.00 0.00 0.00
0.01 0.01 0.01 0.00 0.00 0.00 0.00 0.00 0.00 0.02 0.42 0.56 0.63 0.61 0.67 0.44 0.40 0.50 0.68 0.65 0.72 0.77 0.49 0.29 0.15 0.38 0.26 0.15 0.05 0.01 0.00 0.00 0.00 0.00 0.00 0.00 0.00 0.00 0.00 0.00 0.00 0.00 0.00 0.00 0.00
0.00 0.00 0.00 0.00 0.00 0.00 0.00 0.01 0.00 0.06 0.12 0.18 0.19 0.13 0.11 0.12 0.22 0.28 0.46 0.54 0.80 0.95 0.81 0.55 0.25 0.31 0.23 0.23 0.09 0.01 0.00 0.03 0.03 0.01 0.00 0.00 0.00 0.00 0.00 0.00 0.00 0.00 0.00 0.00 0.00
0.00 0.00 0.00 0.00 0.00 0.00 0.00 0.00 0.03 0.09 0.07 0.07 0.04 0.04 0.04 0.04 0.07 0.13 0.26 0.25 0.24 0.15 0.23 0.48 0.51 0.34 0.35 0.15 0.09 0.01 0.01 0.02 0.01 0.00 0.00 0.00 0.00 0.00 0.00 0.00 0.00 0.00 0.00 0.00 0.00
0.00 0.00 0.00 0.00 0.00 0.00 0.00 0.00 0.03 0.04 0.03 0.02 0.01 0.02 0.03 0.02 0.03 0.15 0.23 0.16 0.10 0.06 0.11 0.13 0.19 0.16 0.23 0.10 0.06 0.07 0.03 0.00 0.00 0.00 0.00 0.00 0.00 0.00 0.00 0.00 0.00 0.00 0.00 0.00 0.00
0.00 0.00 0.00 0.00 0.00 0.00 0.00 0.01 0.01 0.00 0.00 0.00 0.00 0.01 0.03 0.02 0.03 0.03 0.11 0.06 0.02 0.01 0.00 0.00 0.06 0.11 0.12 0.17 0.14 0.03 0.02 0.02 0.00 0.00 0.00 0.00 0.00 0.00 0.00 0.00 0.00 0.00 0.00 0.00 0.00
0.00 0.00 0.00 0.00 0.00 0.01 0.00 0.00 0.00 0.00 0.00 0.00 0.00 0.00 0.01 0.02 0.01 0.01 0.00 0.00 0.00 0.00 0.00 0.00 0.00 0.08 0.12 0.22 0.13 0.02 0.05 0.02 0.01 0.00 0.00 0.00 0.00 0.00 0.00 0.00 0.00 0.00 0.00 0.00 0.00
0.00 0.00 0.00 0.00 0.01 0.01 0.00 0.00 0.00 0.00 0.00 0.00 0.00 0.00 0.00 0.00 0.00 0.00 0.00 0.00 0.00 0.00 0.00 0.00 0.00 0.03 0.03 0.00 0.00 0.04 0.01 0.03 0.02 0.01 0.00 0.00 0.00 0.00 0.00 0.00 0.00 0.00 0.00 0.00 0.00
0.00 0.00 0.00 0.00 0.01 0.00 0.00 0.00 0.00 0.00 0.00 0.00 0.00 0.00 0.00 0.00 0.00 0.00 0.00 0.00 0.00 0.00 0.00 0.00 0.00 0.02 0.04 0.02 0.01 0.04 0.03 0.00 0.02 0.02 0.00 0.00 0.00 0.00 0.00 0.00 0.00 0.00 0.00 0.00 0.00
0.00 0.00 0.00 0.00 0.00 0.00 0.00 0.00 0.00 0.00 0.00 0.00 0.00 0.00 0.00 0.00 0.00 0.00 0.00 0.00 0.00 0.00 0.00 0.00 0.00 0.00 0.00 0.00 0.00 0.00 0.00 0.00 0.02 0.07 0.01 0.00 0.00 0.00 0.00 0.00 0.00 0.00 0.00 0.00 0.00
0.00 0.00 0.00 0.00 0.00 0.00 0.00 0.00 0.00 0.00 0.00 0.00 0.00 0.00 0.00 0.00 0.00 0.00 0.00 0.00 0.00 0.00 0.00 0.00 0.00 0.00 0.00 0.00 0.00 0.00 0.00 0.00 0.01 0.01 0.02 0.00 0.00 0.00 0.00 0.00 0.00 0.00 0.00 0.00 0.00
0.00 0.00 0.00 0.00 0.00 0.00 0.00 0.00 0.01 0.01 0.00 0.00 0.00 0.00 0.00 0.00 0.00 0.00 0.00 0.00 0.00 0.00 0.00 0.00 0.00 0.00 0.00 0.00 0.00 0.00 0.00 0.00 0.00 0.00 0.00 0.00 0.00 0.00 0.00 0.00 0.00 0.00 0.00 0.00 0.00
0.00 0.00 0.00 0.00 0.00 0.00 0.00 0.00 0.00 0.00 0.01 0.00 0.00 0.00 0.00 0.00 0.00 0.00 0.00 0.00 0.00 0.00 0.00 0.00 0.00 0.00 0.00 0.00 0.00 0.00 0.00 0.00 0.00 0.00 0.00 0.00 0.00 0.00 0.00 0.00 0.00 0.00 0.00 0.00 0.00

GFSSW_prec_precacc24_057.txt.gz
Total_Precipitation_Accumulation
0.04 0.06 0.09 0.11 0.10 0.11 0.13 0.19 0.26 0.32 0.36 0.28 0.20 0.19 0.14 0.06 0.16 0.25 0.09 0.03 0.04 0.08 0.22 0.08 0.02 0.02 0.07 0.16 0.20 0.22 0.44 0.27 0.05 0.04 0.03 0.00 0.00 0.00 0.00 0.00 0.00 0.00 0.00 0.01 0.02
0.06 0.09 0.12 0.12 0.11 0.12 0.17 0.25 0.28 0.29 0.27 0.18 0.18 0.17 0.27 0.21 0.08 0.08 0.05 0.05 0.12 0.26 0.09 0.05 0.02 0.03 0.06 0.16 0.31 0.40 0.49 0.17 0.03 0.00 0.01 0.01 0.00 0.00 0.00 0.00 0.01 0.04 0.05 0.04 0.06
0.10 0.11 0.14 0.13 0.14 0.16 0.27 0.25 0.26 0.24 0.13 0.13 0.18 0.21 0.28 0.26 0.13 0.02 0.02 0.01 0.21 0.37 0.20 0.06 0.05 0.06 0.04 0.08 0.18 0.25 0.25 0.02 0.01 0.05 0.18 0.11 0.00 0.00 0.00 0.00 0.00 0.03 0.08 0.09 0.13
0.13 0.16 0.16 0.13 0.16 0.17 0.24 0.24 0.16 0.11 0.08 0.06 0.10 0.14 0.23 0.22 0.17 0.09 0.05 0.08 0.30 0.53 0.38 0.12 0.06 0.08 0.02 0.01 0.03 0.05 0.03 0.03 0.05 0.11 0.27 0.13 0.02 0.00 0.00 0.00 0.00 0.01 0.07 0.13 0.13
0.17 0.18 0.18 0.13 0.15 0.12 0.12 0.10 0.09 0.10 0.08 0.12 0.06 0.10 0.11 0.14 0.06 0.18 0.15 0.10 0.37 0.71 0.37 0.13 0.02 0.03 0.01 0.00 0.02 0.01 0.01 0.03 0.09 0.07 0.07 0.12 0.19 0.04 0.00 0.00 0.00 0.00 0.03 0.04 0.08
0.17 0.16 0.16 0.13 0.14 0.14 0.12 0.19 0.10 0.08 0.02 0.02 0.05 0.06 0.06 0.08 0.03 0.13 0.24 0.12 0.31 0.47 0.28 0.15 0.02 0.02 0.02 0.01 0.02 0.01 0.04 0.11 0.08 0.03 0.03 0.10 0.13 0.16 0.02 0.00 0.00 0.01 0.04 0.02 0.05
0.14 0.17 0.15 0.10 0.16 0.18 0.13 0.11 0.14 0.11 0.03 0.03 0.04 0.06 0.05 0.09 0.07 0.14 0.22 0.17 0.44 0.53 0.22 0.16 0.04 0.05 0.02 0.04 0.02 0.02 0.06 0.15 0.13 0.05 0.04 0.04 0.16 0.19 0.02 0.00 0.00 0.01 0.03 0.03 0.00
0.12 0.16 0.15 0.16 0.16 0.12 0.05 0.02 0.06 0.02 0.01 0.04 0.04 0.05 0.01 0.01 0.04 0.12 0.14 0.23 0.38 0.55 0.40 0.37 0.15 0.12 0.05 0.03 0.03 0.04 0.07 0.05 0.06 0.07 0.05 0.08 0.06 0.00 0.06 0.08 0.00 0.00 0.00 0.00 0.00
0.11 0.13 0.13 0.10 0.04 0.01 0.01 0.00 0.00 0.00 0.02 0.03 0.02 0.04 0.01 0.03 0.07 0.14 0.09 0.19 0.54 0.66 0.61 0.86 0.63 0.13 0.07 0.06 0.07 0.03 0.01 0.00 0.00 0.02 0.01 0.00 0.00 0.00 0.04 0.08 0.00 0.00 0.00 0.00 0.00
0.07 0.09 0.08 0.05 0.01 0.01 0.00 0.00 0.00 0.03 0.01 0.04 0.04 0.04 0.01 0.02 0.06 0.14 0.10 0.31 0.80 0.99 1.34 1.39 1.07 0.24 0.07 0.05 0.03 0.00 0.00 0.00 0.00 0.00 0.00 0.00 0.00 0.00 0.00 0.00 0.00 0.00 0.00 0.00 0.00
0.05 0.06 0.05 0.01 0.02 0.01 0.01 0.01 0.08 0.08 0.04 0.03 0.02 0.06 0.13 0.12 0.18 0.19 0.25 0.72 1.09 1.34 1.60 1.42 0.81 0.15 0.01 0.00 0.00 0.00 0.00 0.00 0.00 0.00 0.01 0.00 0.00 0.00 0.00 0.00 0.00 0.00 0.00 0.00 0.00
0.05 0.05 0.03 0.01 0.03 0.02 0.01 0.01 0.01 0.03 0.02 0.00 0.03 0.06 0.04 0.15 0.31 0.35 0.61 1.79 1.12 1.21 1.31 1.11 0.31 0.02 0.01 0.00 0.00 0.00 0.00 0.00 0.00 0.00 0.01 0.00 0.00 0.00 0.00 0.00 0.00 0.00 0.00 0.00 0.00
0.05 0.03 0.02 0.00 0.00 0.00 0.02 0.02 0.00 0.00 0.13 0.10 0.17 0.17 0.20 0.35 0.48 0.60 1.01 1.71 0.92 0.91 1.04 0.49 0.09 0.01 0.02 0.02 0.00 0.00 0.00 0.00 0.00 0.00 0.00 0.00 0.00 0.00 0.00 0.00 0.00 0.00 0.00 0.00 0.00
0.04 0.03 0.01 0.01 0.00 0.00 0.00 0.00 0.00 0.01 0.21 0.24 0.29 0.26 0.43 0.57 0.87 0.65 0.86 1.41 1.20 0.91 0.96 0.50 0.06 0.03 0.04 0.03 0.00 0.00 0.00 0.00 0.00 0.00 0.00 0.00 0.00 0.00 0.00 0.00 0.00 0.00 0.00 0.00 0.00
0.02 0.02 0.02 0.01 0.00 0.00 0.00 0.00 0.00 0.02 0.35 0.40 0.40 0.35 0.45 0.70 0.79 0.75 0.79 0.95 0.65 0.89 0.93 0.53 0.12 0.12 0.05 0.03 0.00 0.00 0.00 0.00 0.00 0.00 0.00 0.00 0.00 0.00 0.00 0.00 0.00 0.00 0.00 0.00 0.00
0.01 0.01 0.01 0.01 0.00 0.00 0.00 0.00 0.00 0.01 0.29 0.45 0.54 0.63 0.74 0.50 0.41 0.47 0.62 0.58 0.66 0.70 0.47 0.29 0.12 0.32 0.15 0.07 0.02 0.00 0.00 0.00 0.00 0.00 0.00 0.00 0.00 0.00 0.00 0.00 0.00 0.00 0.00 0.00 0.00
0.01 0.00 0.01 0.00 0.00 0.00 0.00 0.01 0.00 0.04 0.08 0.12 0.18 0.15 0.15 0.14 0.23 0.29 0.42 0.48 0.83 0.95 0.89 0.65 0.31 0.31 0.19 0.18 0.07 0.01 0.00 0.03 0.03 0.01 0.00 0.00 0.00 0.00 0.00 0.00 0.00 0.00 0.00 0.00 0.00
0.00 0.00 0.00 0.00 0.00 0.00 0.00 0.00 0.02 0.06 0.04 0.05 0.05 0.04 0.05 0.06 0.11 0.17 0.36 0.29 0.28 0.23 0.39 0.61 0.62 0.35 0.35 0.15 0.09 0.01 0.01 0.02 0.01 0.00 0.00 0.00 0.00 0.00 0.00 0.00 0.00 0.00 0.00 0.00 0.00
0.00 0.00 0.00 0.00 0.00 0.00 0.00 0.00 0.01 0.01 0.01 0.02 0.02 0.03 0.04 0.03 0.04 0.19 0.27 0.17 0.11 0.15 0.17 0.16 0.25 0.17 0.23 0.10 0.06 0.07 0.03 0.00 0.00 0.00 0.00 0.00 0.00 0.00 0.00 0.00 0.00 0.00 0.00 0.00 0.00
0.00 0.00 0.00 0.00 0.00 0.00 0.01 0.00 0.01 0.00 0.00 0.00 0.01 0.02 0.04 0.02 0.03 0.06 0.16 0.07 0.03 0.04 0.01 0.00 0.10 0.11 0.12 0.18 0.14 0.03 0.02 0.02 0.00 0.00 0.00 0.00 0.00 0.00 0.00 0.00 0.00 0.00 0.00 0.00 0.00
0.00 0.00 0.00 0.00 0.00 0.01 0.00 0.00 0.00 0.00 0.00 0.00 0.00 0.00 0.04 0.04 0.01 0.01 0.01 0.01 0.00 0.00 0.00 0.00 0.01 0.08 0.12 0.23 0.13 0.02 0.05 0.02 0.01 0.00 0.00 0.00 0.00 0.00 0.00 0.00 0.00 0.00 0.00 0.00 0.00
0.00 0.00 0.00 0.00 0.01 0.01 0.00 0.00 0.00 0.00 0.00 0.00 0.00 0.00 0.00 0.00 0.01 0.00 0.00 0.00 0.00 0.00 0.00 0.00 0.00 0.03 0.03 0.00 0.00 0.04 0.01 0.03 0.02 0.01 0.00 0.00 0.00 0.00 0.00 0.00 0.00 0.00 0.00 0.00 0.00
0.00 0.00 0.00 0.00 0.01 0.00 0.00 0.00 0.00 0.00 0.00 0.00 0.00 0.00 0.00 0.00 0.00 0.00 0.00 0.00 0.00 0.00 0.00 0.00 0.00 0.02 0.04 0.03 0.01 0.04 0.03 0.00 0.02 0.02 0.00 0.00 0.00 0.00 0.00 0.00 0.00 0.00 0.00 0.00 0.00
0.00 0.00 0.00 0.00 0.00 0.00 0.00 0.00 0.00 0.00 0.00 0.00 0.00 0.00 0.00 0.00 0.00 0.00 0.00 0.00 0.00 0.00 0.00 0.00 0.00 0.00 0.00 0.00 0.00 0.00 0.00 0.00 0.02 0.07 0.01 0.00 0.00 0.00 0.00 0.00 0.00 0.00 0.00 0.00 0.00
0.00 0.00 0.00 0.00 0.00 0.00 0.00 0.00 0.00 0.00 0.00 0.00 0.00 0.00 0.00 0.00 0.00 0.00 0.00 0.00 0.00 0.00 0.00 0.00 0.00 0.00 0.00 0.00 0.00 0.00 0.00 0.00 0.01 0.01 0.02 0.00 0.00 0.00 0.00 0.00 0.00 0.00 0.00 0.00 0.00
0.00 0.00 0.00 0.00 0.00 0.00 0.00 0.00 0.01 0.01 0.00 0.00 0.00 0.00 0.00 0.00 0.00 0.00 0.00 0.00 0.00 0.00 0.00 0.00 0.00 0.00 0.00 0.00 0.00 0.00 0.00 0.00 0.00 0.00 0.00 0.00 0.00 0.00 0.00 0.00 0.00 0.00 0.00 0.00 0.00
0.00 0.00 0.00 0.00 0.00 0.00 0.00 0.00 0.00 0.00 0.01 0.00 0.00 0.00 0.00 0.00 0.00 0.00 0.00 0.00 0.00 0.00 0.00 0.00 0.00 0.00 0.00 0.00 0.00 0.00 0.00 0.00 0.00 0.00 0.00 0.00 0.00 0.00 0.00 0.00 0.00 0.00 0.00 0.00 0.00

GFSSW_prec_precacc24_060.txt.gz
Total_Precipitation_Accumulation
0.06 0.06 0.08 0.09 0.08 0.08 0.10 0.15 0.22 0.23 0.32 0.28 0.20 0.21 0.16 0.10 0.14 0.19 0.07 0.03 0.05 0.12 0.24 0.10 0.02 0.01 0.10 0.24 0.27 0.26 0.46 0.27 0.05 0.04 0.03 0.00 0.00 0.00 0.00 0.00 0.00 0.00 0.00 0.01 0.03
0.07 0.10 0.10 0.09 0.09 0.10 0.15 0.22 0.21 0.23 0.22 0.15 0.17 0.17 0.27 0.24 0.07 0.01 0.02 0.05 0.13 0.35 0.14 0.07 0.01 0.02 0.09 0.22 0.40 0.46 0.53 0.18 0.03 0.00 0.01 0.01 0.00 0.00 0.00 0.00 0.01 0.04 0.05 0.04 0.07
0.09 0.11 0.11 0.11 0.12 0.14 0.24 0.23 0.20 0.17 0.08 0.09 0.16 0.21 0.28 0.26 0.11 0.00 0.04 0.03 0.22 0.46 0.28 0.09 0.08 0.09 0.06 0.13 0.30 0.30 0.26 0.03 0.01 0.05 0.18 0.11 0.00 0.00 0.00 0.00 0.00 0.03 0.08 0.09 0.14
0.10 0.12 0.13 0.11 0.13 0.13 0.18 0.22 0.16 0.10 0.08 0.05 0.09 0.14 0.22 0.21 0.12 0.05 0.04 0.08 0.31 0.60 0.53 0.17 0.09 0.11 0.02 0.05 0.09 0.10 0.05 0.03 0.05 0.11 0.27 0.13 0.02 0.00 0.00 0.00 0.00 0.01 0.07 0.13 0.14
0.13 0.13 0.12 0.09 0.12 0.10 0.09 0.10 0.10 0.10 0.08 0.11 0.06 0.10 0.11 0.14 0.05 0.13 0.08 0.10 0.37 0.84 0.48 0.21 0.07 0.05 0.01 0.01 0.06 0.06 0.06 0.05 0.10 0.08 0.07 0.12 0.19 0.04 0.00 0.00 0.00 0.00 0.03 0.04 0.08
0.13 0.12 0.13 0.08 0.09 0.13 0.10 0.16 0.09 0.08 0.02 0.01 0.04 0.06 0.06 0.07 0.03 0.10 0.18 0.12 0.31 0.63 0.39 0.33 0.09 0.03 0.02 0.01 0.04 0.02 0.09 0.16 0.11 0.08 0.05 0.10 0.13 0.16 0.02 0.00 0.00 0.01 0.04 0.02 0.05
0.10 0.12 0.12 0.07 0.14 0.15 0.11 0.09 0.13 0.10 0.02 0.02 0.03 0.04 0.05 0.09 0.06 0.11 0.18 0.16 0.43 0.60 0.29 0.33 0.12 0.06 0.02 0.05 0.03 0.03 0.10 0.21 0.22 0.09 0.09 0.07 0.17 0.19 0.02 0.00 0.00 0.01 0.03 0.03 0.00
0.08 0.10 0.09 0.11 0.10 0.03 0.03 0.02 0.05 0.02 0.00 0.01 0.02 0.02 0.01 0.01 0.04 0.04 0.13 0.19 0.37 0.54 0.43 0.50 0.26 0.14 0.05 0.04 0.05 0.07 0.10 0.07 0.11 0.12 0.09 0.11 0.06 0.00 0.06 0.08 0.00 0.00 0.00 0.00 0.00
0.08 0.08 0.06 0.07 0.02 0.01 0.01 0.01 0.00 0.00 0.00 0.01 0.01 0.03 0.00 0.01 0.06 0.03 0.07 0.11 0.51 0.62 0.54 0.87 0.82 0.19 0.09 0.07 0.08 0.05 0.01 0.00 0.02 0.05 0.02 0.00 0.00 0.00 0.04 0.08 0.00 0.00 0.00 0.00 0.00
0.06 0.05 0.03 0.04 0.01 0.01 0.00 0.00 0.00 0.03 0.01 0.03 0.04 0.03 0.01 0.00 0.03 0.03 0.08 0.21 0.78 0.97 1.23 1.36 1.51 0.30 0.08 0.05 0.03 0.01 0.00 0.00 0.00 0.00 0.01 0.00 0.00 0.00 0.00 0.00 0.00 0.00 0.00 0.00 0.00
0.05 0.05 0.03 0.02 0.02 0.01 0.01 0.01 0.08 0.08 0.04 0.03 0.02 0.04 0.10 0.08 0.16 0.15 0.20 0.55 1.06 1.35 1.60 1.48 1.16 0.31 0.01 0.00 0.00 0.00 0.00 0.00 0.00 0.01 0.01 0.01 0.00 0.00 0.00 0.00 0.00 0.00 0.00 0.00 0.00
0.05 0.05 0.03 0.01 0.01 0.01 0.01 0.01 0.01 0.03 0.02 0.00 0.01 0.01 0.02 0.11 0.31 0.33 0.49 1.36 1.08 1.19 1.28 1.12 0.38 0.14 0.02 0.00 0.00 0.00 0.00 0.00 0.00 0.00 0.02 0.00 0.00 0.00 0.00 0.00 0.00 0.00 0.00 0.00 0.00
0.05 0.04 0.02 0.01 0.01 0.00 0.02 0.02 0.00 0.00 0.13 0.08 0.11 0.05 0.12 0.32 0.49 0.58 0.68 1.30 0.87 0.81 1.01 0.53 0.14 0.09 0.04 0.01 0.00 0.00 0.00 0.00 0.00 0.00 0.01 0.00 0.00 0.00 0.00 0.00 0.00 0.00 0.00 0.00 0.00
0.04 0.03 0.02 0.01 0.00 0.00 0.00 0.00 0.00 0.01 0.19 0.20 0.24 0.19 0.42 0.54 0.79 0.53 0.59 1.07 0.90 0.69 0.87 0.53 0.14 0.07 0.06 0.03 0.00 0.00 0.00 0.00 0.00 0.00 0.00 0.00 0.00 0.00 0.00 0.00 0.00 0.00 0.00 0.00 0.00
0.02 0.03 0.03 0.01 0.00 0.00 0.00 0.00 0.00 0.02 0.31 0.31 0.29 0.33 0.45 0.66 0.65 0.46 0.59 0.67 0.50 0.66 0.83 0.55 0.16 0.08 0.05 0.03 0.00 0.00 0.00 0.00 0.00 0.00 0.00 0.00 0.00 0.00 0.00 0.00 0.00 0.00 0.00 0.00 0.00
0.02 0.02 0.02 0.01 0.00 0.00 0.00 0.00 0.00 0.01 0.20 0.36 0.49 0.61 0.75 0.46 0.38 0.40 0.61 0.53 0.57 0.50 0.44 0.21 0.12 0.16 0.08 0.06 0.02 0.00 0.00 0.00 0.00 0.00 0.00 0.00 0.00 0.00 0.00 0.00 0.00 0.00 0.00 0.00 0.00
0.01 0.01 0.01 0.00 0.00 0.00 0.00 0.01 0.00 0.02 0.02 0.09 0.16 0.19 0.22 0.16 0.25 0.30 0.37 0.45 0.78 0.80 0.78 0.56 0.28 0.17 0.08 0.08 0.02 0.01 0.00 0.03 0.03 0.02 0.00 0.00 0.00 0.00 0.00 0.00 0.00 0.00 0.00 0.00 0.00
0.00 0.00 0.00 0.00 0.00 0.00 0.00 0.00 0.01 0.03 0.03 0.04 0.05 0.06 0.11 0.11 0.14 0.16 0.31 0.28 0.28 0.22 0.38 0.70 0.68 0.32 0.26 0.05 0.03 0.01 0.01 0.02 0.01 0.00 0.00 0.00 0.00 0.00 0.00 0.00 0.00 0.00 0.00 0.00 0.00
0.00 0.00 0.00 0.00 0.00 0.00 0.00 0.00 0.00 0.00 0.01 0.02 0.02 0.03 0.08 0.07 0.09 0.22 0.29 0.17 0.11 0.15 0.22 0.24 0.31 0.19 0.23 0.09 0.05 0.06 0.03 0.00 0.00 0.00 0.00 0.00 0.00 0.00 0.00 0.00 0.00 0.00 0.00 0.00 0.00
0.00 0.00 0.00 0.00 0.00 0.00 0.01 0.00 0.00 0.00 0.00 0.00 0.01 0.03 0.05 0.04 0.13 0.10 0.18 0.08 0.04 0.07 0.02 0.00 0.16 0.13 0.12 0.18 0.14 0.03 0.02 0.02 0.00 0.00 0.00 0.00 0.00 0.00 0.00 0.00 0.00 0.00 0.00 0.00 0.00
0.00 0.00 0.00 0.00 0.00 0.01 0.00 0.00 0.00 0.00 0.00 0.00 0.00 0.01 0.05 0.05 0.02 0.01 0.02 0.01 0.03 0.06 0.01 0.00 0.02 0.10 0.13 0.24 0.13 0.02 0.05 0.02 0.01 0.00 0.00 0.00 0.00 0.00 0.00 0.00 0.00 0.00 0.00 0.00 0.00
0.00 0.00 0.00 0.00 0.01 0.01 0.00 0.00 0.00 0.00 0.00 0.00 0.00 0.00 0.00 0.00 0.01 0.00 0.00 0.00 0.01 0.01 0.01 0.00 0.00 0.04 0.05 0.01 0.00 0.04 0.01 0.03 0.02 0.01 0.00 0.00 0.00 0.00 0.00 0.00 0.00 0.00 0.00 0.00 0.00
0.00 0.00 0.00 0.00 0.01 0.00 0.00 0.00 0.00 0.00 0.00 0.00 0.00 0.00 0.00 0.00 0.00 0.00 0.00 0.00 0.00 0.00 0.00 0.00 0.00 0.03 0.06 0.04 0.01 0.04 0.03 0.00 0.02 0.02 0.01 0.00 0.00 0.00 0.00 0.00 0.00 0.00 0.00 0.00 0.00
0.00 0.00 0.00 0.00 0.00 0.00 0.00 0.00 0.00 0.00 0.00 0.00 0.00 0.00 0.00 0.00 0.00 0.00 0.00 0.00 0.00 0.00 0.00 0.00 0.00 0.00 0.01 0.01 0.00 0.00 0.00 0.00 0.02 0.08 0.01 0.00 0.00 0.00 0.00 0.00 0.00 0.00 0.00 0.00 0.00
0.00 0.00 0.00 0.00 0.00 0.00 0.00 0.00 0.00 0.00 0.00 0.00 0.00 0.00 0.00 0.00 0.00 0.00 0.00 0.00 0.00 0.00 0.00 0.00 0.00 0.00 0.00 0.00 0.00 0.00 0.00 0.00 0.01 0.01 0.02 0.00 0.00 0.00 0.00 0.00 0.00 0.00 0.00 0.00 0.00
0.00 0.00 0.00 0.00 0.00 0.00 0.00 0.00 0.01 0.01 0.00 0.00 0.00 0.00 0.00 0.00 0.00 0.00 0.00 0.00 0.00 0.00 0.00 0.00 0.00 0.00 0.00 0.00 0.00 0.00 0.00 0.00 0.00 0.00 0.00 0.00 0.00 0.00 0.00 0.00 0.00 0.00 0.00 0.00 0.00
0.00 0.00 0.00 0.00 0.00 0.00 0.00 0.00 0.01 0.00 0.01 0.00 0.00 0.00 0.00 0.00 0.00 0.00 0.00 0.00 0.00 0.00 0.00 0.00 0.00 0.00 0.00 0.00 0.00 0.00 0.00 0.00 0.00 0.00 0.00 0.00 0.00 0.00 0.00 0.00 0.00 0.00 0.00 0.00 0.00

GFSSW_prec_precacc24_063.txt.gz
Total_Precipitation_Accumulation
0.05 0.07 0.08 0.08 0.07 0.08 0.09 0.13 0.18 0.14 0.25 0.22 0.18 0.21 0.16 0.11 0.13 0.18 0.08 0.03 0.07 0.17 0.30 0.11 0.03 0.01 0.11 0.29 0.34 0.29 0.51 0.29 0.05 0.04 0.03 0.00 0.00 0.00 0.00 0.00 0.00 0.00 0.00 0.01 0.03
0.05 0.07 0.09 0.09 0.08 0.09 0.14 0.19 0.16 0.18 0.16 0.10 0.12 0.16 0.27 0.25 0.07 0.01 0.00 0.02 0.13 0.38 0.19 0.11 0.02 0.03 0.10 0.27 0.51 0.57 0.61 0.21 0.03 0.00 0.01 0.01 0.00 0.00 0.00 0.00 0.01 0.04 0.05 0.04 0.08
0.06 0.09 0.09 0.10 0.11 0.12 0.21 0.17 0.13 0.11 0.04 0.01 0.08 0.18 0.28 0.26 0.11 0.01 0.09 0.09 0.23 0.49 0.33 0.14 0.12 0.12 0.07 0.20 0.41 0.39 0.29 0.03 0.02 0.06 0.18 0.11 0.00 0.00 0.00 0.00 0.00 0.03 0.08 0.09 0.15
0.09 0.11 0.11 0.08 0.12 0.11 0.13 0.13 0.10 0.07 0.07 0.03 0.08 0.12 0.22 0.22 0.13 0.04 0.04 0.08 0.27 0.64 0.63 0.21 0.15 0.15 0.03 0.08 0.19 0.21 0.06 0.03 0.07 0.12 0.27 0.13 0.02 0.00 0.00 0.00 0.00 0.01 0.07 0.13 0.14
0.11 0.10 0.10 0.07 0.11 0.08 0.08 0.06 0.09 0.09 0.08 0.11 0.05 0.10 0.11 0.14 0.04 0.05 0.06 0.06 0.25 0.86 0.59 0.29 0.16 0.11 0.01 0.01 0.12 0.20 0.10 0.06 0.12 0.09 0.07 0.12 0.19 0.04 0.00 0.00 0.00 0.00 0.03 0.04 0.08
0.08 0.08 0.08 0.06 0.07 0.10 0.07 0.07 0.03 0.07 0.02 0.01 0.03 0.05 0.06 0.07 0.03 0.08 0.15 0.11 0.24 0.63 0.46 0.43 0.16 0.09 0.01 0.01 0.07 0.06 0.25 0.19 0.13 0.10 0.05 0.10 0.13 0.16 0.02 0.00 0.00 0.01 0.04 0.02 0.05
0.07 0.09 0.07 0.04 0.11 0.11 0.04 0.04 0.10 0.08 0.01 0.00 0.01 0.04 0.05 0.09 0.05 0.08 0.15 0.16 0.38 0.59 0.34 0.46 0.23 0.15 0.03 0.04 0.03 0.05 0.28 0.37 0.26 0.14 0.09 0.08 0.19 0.21 0.02 0.00 0.00 0.01 0.03 0.03 0.00
0.06 0.07 0.04 0.04 0.05 0.02 0.01 0.02 0.02 0.00 0.00 0.00 0.00 0.00 0.00 0.01 0.04 0.04 0.07 0.18 0.33 0.53 0.47 0.65 0.55 0.33 0.06 0.04 0.05 0.11 0.18 0.43 0.17 0.16 0.10 0.14 0.08 0.00 0.06 0.09 0.00 0.00 0.00 0.00 0.00
0.07 0.05 0.03 0.03 0.01 0.01 0.01 0.01 0.01 0.00 0.00 0.00 0.00 0.01 0.00 0.01 0.06 0.02 0.03 0.10 0.46 0.61 0.58 1.09 1.15 0.40 0.11 0.08 0.09 0.07 0.03 0.11 0.10 0.07 0.05 0.01 0.00 0.01 0.05 0.09 0.00 0.00 0.00 0.00 0.00
0.05 0.04 0.03 0.03 0.02 0.01 0.00 0.00 0.00 0.02 0.00 0.01 0.01 0.01 0.01 0.00 0.01 0.01 0.05 0.17 0.76 1.00 1.27 1.56 1.86 0.41 0.11 0.06 0.04 0.01 0.00 0.00 0.03 0.02 0.05 0.04 0.01 0.00 0.00 0.00 0.00 0.00 0.00 0.00 0.00
0.05 0.04 0.03 0.02 0.02 0.01 0.01 0.01 0.06 0.05 0.02 0.02 0.02 0.01 0.03 0.03 0.07 0.10 0.20 0.41 1.09 1.38 1.71 1.58 1.51 0.35 0.02 0.00 0.00 0.00 0.00 0.00 0.00 0.02 0.03 0.05 0.02 0.01 0.00 0.00 0.00 0.00 0.00 0.00 0.00
0.06 0.05 0.04 0.01 0.02 0.01 0.01 0.01 0.01 0.01 0.01 0.00 0.00 0.00 0.01 0.03 0.17 0.26 0.44 0.82 1.15 1.32 1.33 1.15 0.56 0.16 0.03 0.00 0.00 0.00 0.00 0.00 0.00 0.02 0.03 0.02 0.01 0.00 0.00 0.00 0.00 0.00 0.00 0.00 0.00
0.05 0.05 0.02 0.01 0.01 0.00 0.02 0.02 0.00 0.00 0.09 0.04 0.02 0.01 0.07 0.21 0.36 0.45 0.52 0.70 0.97 0.93 1.02 0.53 0.22 0.12 0.05 0.01 0.00 0.00 0.00 0.00 0.00 0.01 0.02 0.00 0.00 0.00 0.00 0.00 0.00 0.00 0.00 0.00 0.00
0.05 0.04 0.03 0.02 0.00 0.00 0.00 0.00 0.00 0.00 0.09 0.09 0.11 0.14 0.33 0.44 0.73 0.55 0.53 0.73 0.96 0.68 0.82 0.44 0.15 0.12 0.07 0.03 0.00 0.00 0.00 0.00 0.00 0.00 0.00 0.00 0.00 0.00 0.00 0.00 0.00 0.00 0.00 0.00 0.00
0.03 0.03 0.03 0.02 0.00 0.00 0.00 0.00 0.00 0.01 0.23 0.20 0.22 0.30 0.41 0.65 0.70 0.52 0.52 0.51 0.40 0.59 0.70 0.44 0.14 0.17 0.07 0.04 0.00 0.00 0.00 0.00 0.00 0.00 0.00 0.00 0.00 0.00 0.00 0.00 0.00 0.00 0.00 0.00 0.00
0.01 0.02 0.02 0.01 0.00 0.00 0.00 0.00 0.00 0.00 0.13 0.34 0.48 0.60 0.74 0.45 0.30 0.20 0.44 0.37 0.34 0.45 0.49 0.23 0.13 0.26 0.11 0.06 0.01 0.00 0.00 0.00 0.00 0.00 0.00 0.00 0.00 0.00 0.00 0.00 0.00 0.00 0.00 0.00 0.00
0.01 0.01 0.01 0.00 0.00 0.00 0.00 0.01 0.01 0.01 0.01 0.07 0.17 0.22 0.22 0.14 0.16 0.24 0.32 0.31 0.55 0.62 0.78 0.59 0.34 0.18 0.07 0.08 0.02 0.01 0.00 0.02 0.03 0.01 0.00 0.00 0.00 0.00 0.00 0.00 0.00 0.00 0.00 0.00 0.00
0.00 0.00 0.00 0.00 0.00 0.00 0.00 0.00 0.00 0.02 0.02 0.04 0.05 0.15 0.13 0.13 0.15 0.14 0.27 0.25 0.22 0.19 0.40 0.69 0.60 0.16 0.12 0.03 0.02 0.02 0.00 0.01 0.01 0.00 0.00 0.00 0.00 0.00 0.00 0.00 0.00 0.00 0.00 0.00 0.00
0.00 0.00 0.00 0.00 0.00 0.00 0.01 0.01 0.00 0.00 0.01 0.02 0.03 0.09 0.31 0.16 0.09 0.22 0.29 0.17 0.11 0.15 0.22 0.27 0.31 0.14 0.12 0.02 0.01 0.05 0.03 0.00 0.00 0.00 0.00 0.00 0.00 0.00 0.00 0.00 0.00 0.00 0.00 0.00 0.00
0.00 0.00 0.00 0.00 0.00 0.01 0.02 0.00 0.00 0.00 0.00 0.01 0.02 0.04 0.10 0.13 0.16 0.12 0.19 0.08 0.04 0.07 0.02 0.01 0.18 0.14 0.12 0.15 0.08 0.01 0.02 0.02 0.00 0.00 0.00 0.00 0.00 0.00 0.00 0.00 0.00 0.00 0.00 0.00 0.00
0.00 0.00 0.00 0.00 0.00 0.02 0.01 0.00 0.00 0.00 0.00 0.00 0.00 0.02 0.07 0.16 0.05 0.02 0.03 0.02 0.03 0.06 0.01 0.00 0.03 0.11 0.15 0.26 0.14 0.02 0.03 0.01 0.01 0.00 0.00 0.00 0.00 0.00 0.00 0.00 0.00 0.00 0.00 0.00 0.00
0.00 0.00 0.00 0.00 0.02 0.01 0.00 0.00 0.00 0.00 0.00 0.00 0.00 0.00 0.01 0.01 0.01 0.00 0.00 0.01 0.01 0.01 0.01 0.00 0.00 0.06 0.06 0.01 0.01 0.04 0.01 0.03 0.02 0.01 0.00 0.00 0.00 0.00 0.00 0.00 0.00 0.00 0.00 0.00 0.00
0.00 0.00 0.00 0.00 0.01 0.00 0.00 0.00 0.00 0.00 0.00 0.00 0.00 0.00 0.00 0.00 0.00 0.00 0.00 0.00 0.00 0.00 0.01 0.00 0.01 0.04 0.09 0.05 0.01 0.04 0.03 0.00 0.02 0.02 0.01 0.00 0.00 0.00 0.00 0.00 0.00 0.00 0.00 0.00 0.00
0.00 0.00 0.00 0.01 0.00 0.00 0.00 0.00 0.00 0.00 0.00 0.00 0.00 0.00 0.00 0.00 0.00 0.00 0.00 0.00 0.00 0.00 0.00 0.00 0.00 0.00 0.01 0.01 0.00 0.00 0.00 0.00 0.02 0.08 0.01 0.00 0.00 0.00 0.00 0.00 0.00 0.00 0.00 0.00 0.00
0.00 0.00 0.00 0.00 0.00 0.00 0.00 0.00 0.00 0.00 0.00 0.00 0.00 0.00 0.00 0.00 0.00 0.00 0.00 0.00 0.00 0.00 0.00 0.00 0.00 0.00 0.00 0.00 0.00 0.00 0.00 0.00 0.01 0.01 0.02 0.00 0.00 0.00 0.00 0.00 0.00 0.00 0.00 0.00 0.00
0.00 0.00 0.00 0.00 0.00 0.00 0.00 0.00 0.01 0.01 0.00 0.00 0.00 0.00 0.00 0.00 0.00 0.00 0.00 0.00 0.00 0.00 0.00 0.00 0.00 0.00 0.00 0.00 0.00 0.00 0.00 0.00 0.00 0.00 0.00 0.00 0.00 0.00 0.00 0.00 0.00 0.00 0.00 0.00 0.00
0.00 0.00 0.00 0.00 0.00 0.00 0.00 0.00 0.01 0.00 0.01 0.00 0.00 0.00 0.00 0.00 0.00 0.00 0.00 0.00 0.00 0.00 0.00 0.00 0.00 0.00 0.00 0.00 0.00 0.00 0.00 0.00 0.00 0.00 0.00 0.00 0.00 0.00 0.00 0.00 0.00 0.00 0.00 0.00 0.00

GFSSW_prec_precacc24_066.txt.gz
Total_Precipitation_Accumulation
0.05 0.05 0.07 0.07 0.08 0.07 0.08 0.13 0.17 0.11 0.22 0.19 0.12 0.15 0.16 0.11 0.13 0.17 0.07 0.03 0.08 0.21 0.37 0.12 0.04 0.04 0.13 0.31 0.45 0.36 0.49 0.16 0.05 0.04 0.03 0.00 0.00 0.00 0.00 0.00 0.00 0.00 0.03 0.03 0.06
0.05 0.07 0.08 0.09 0.09 0.09 0.13 0.18 0.15 0.16 0.14 0.09 0.08 0.07 0.25 0.25 0.07 0.01 0.00 0.02 0.14 0.39 0.25 0.16 0.04 0.06 0.14 0.29 0.62 0.78 0.66 0.17 0.00 0.01 0.02 0.01 0.00 0.00 0.00 0.00 0.01 0.04 0.05 0.04 0.10
0.06 0.08 0.07 0.07 0.09 0.11 0.20 0.15 0.11 0.07 0.00 0.00 0.01 0.04 0.19 0.26 0.12 0.02 0.11 0.15 0.33 0.53 0.36 0.16 0.16 0.18 0.11 0.24 0.49 0.53 0.34 0.04 0.02 0.06 0.17 0.11 0.00 0.00 0.00 0.00 0.00 0.03 0.08 0.09 0.18
0.06 0.07 0.06 0.04 0.08 0.10 0.12 0.10 0.08 0.03 0.02 0.01 0.00 0.02 0.16 0.21 0.14 0.04 0.04 0.12 0.30 0.71 0.67 0.24 0.18 0.20 0.09 0.11 0.25 0.28 0.06 0.04 0.08 0.12 0.27 0.13 0.02 0.00 0.00 0.01 0.00 0.01 0.07 0.13 0.15
0.06 0.07 0.05 0.04 0.05 0.06 0.07 0.04 0.05 0.05 0.03 0.08 0.03 0.03 0.09 0.13 0.04 0.02 0.01 0.02 0.16 0.85 0.66 0.36 0.20 0.18 0.04 0.02 0.17 0.25 0.13 0.07 0.17 0.15 0.10 0.13 0.20 0.04 0.00 0.00 0.00 0.00 0.03 0.04 0.08
0.07 0.05 0.05 0.03 0.03 0.06 0.05 0.04 0.03 0.05 0.01 0.01 0.03 0.05 0.05 0.07 0.03 0.07 0.07 0.02 0.09 0.59 0.54 0.55 0.20 0.18 0.04 0.02 0.10 0.08 0.31 0.25 0.23 0.18 0.11 0.10 0.13 0.16 0.02 0.00 0.00 0.01 0.04 0.02 0.05
0.06 0.06 0.04 0.03 0.03 0.03 0.02 0.02 0.03 0.03 0.01 0.00 0.01 0.04 0.04 0.08 0.05 0.04 0.12 0.12 0.22 0.49 0.40 0.55 0.27 0.39 0.16 0.04 0.03 0.09 0.37 0.51 0.38 0.31 0.13 0.08 0.19 0.21 0.02 0.00 0.00 0.01 0.03 0.03 0.00
0.06 0.05 0.03 0.03 0.02 0.01 0.01 0.01 0.02 0.03 0.02 0.00 0.00 0.00 0.01 0.01 0.04 0.03 0.03 0.17 0.31 0.47 0.48 0.78 0.67 0.52 0.19 0.03 0.06 0.16 0.29 0.63 0.37 0.37 0.29 0.16 0.08 0.00 0.06 0.09 0.00 0.00 0.00 0.00 0.00
0.07 0.04 0.03 0.03 0.02 0.02 0.01 0.01 0.01 0.01 0.00 0.00 0.00 0.01 0.00 0.01 0.06 0.02 0.01 0.09 0.44 0.51 0.57 1.28 1.23 0.51 0.18 0.08 0.09 0.11 0.14 0.24 0.37 0.35 0.30 0.07 0.01 0.01 0.05 0.09 0.00 0.00 0.00 0.00 0.00
0.05 0.04 0.03 0.04 0.02 0.01 0.01 0.00 0.00 0.01 0.00 0.00 0.00 0.00 0.00 0.00 0.01 0.01 0.02 0.17 0.71 0.83 1.25 1.73 1.86 0.58 0.21 0.08 0.03 0.01 0.02 0.07 0.19 0.23 0.29 0.11 0.02 0.00 0.00 0.00 0.00 0.00 0.00 0.00 0.00
0.04 0.05 0.04 0.03 0.03 0.01 0.00 0.00 0.02 0.01 0.00 0.00 0.00 0.00 0.00 0.00 0.05 0.09 0.14 0.38 1.02 1.24 1.78 1.64 1.57 0.59 0.11 0.00 0.00 0.00 0.00 0.03 0.04 0.06 0.14 0.08 0.03 0.01 0.00 0.00 0.00 0.00 0.00 0.00 0.00
0.05 0.06 0.05 0.02 0.02 0.02 0.01 0.00 0.00 0.00 0.00 0.00 0.00 0.00 0.00 0.05 0.09 0.10 0.27 0.61 1.09 1.38 1.42 1.18 0.73 0.32 0.09 0.00 0.00 0.00 0.00 0.01 0.04 0.06 0.09 0.02 0.01 0.00 0.00 0.00 0.00 0.00 0.00 0.00 0.00
0.05 0.05 0.03 0.02 0.01 0.00 0.01 0.00 0.00 0.00 0.00 0.02 0.02 0.00 0.04 0.18 0.24 0.13 0.36 0.59 0.97 1.05 1.08 0.57 0.39 0.27 0.13 0.05 0.00 0.00 0.00 0.00 0.04 0.06 0.08 0.02 0.00 0.00 0.00 0.00 0.00 0.00 0.00 0.00 0.00
0.05 0.03 0.03 0.03 0.00 0.00 0.00 0.00 0.00 0.00 0.02 0.07 0.10 0.10 0.26 0.37 0.53 0.42 0.49 0.60 1.04 0.88 0.85 0.44 0.31 0.17 0.08 0.04 0.00 0.00 0.00 0.00 0.01 0.01 0.01 0.00 0.00 0.00 0.00 0.00 0.00 0.00 0.00 0.00 0.00
0.02 0.03 0.04 0.02 0.00 0.00 0.00 0.00 0.00 0.00 0.11 0.08 0.15 0.11 0.21 0.47 0.50 0.44 0.44 0.50 0.57 0.68 0.68 0.46 0.22 0.16 0.05 0.04 0.00 0.00 0.00 0.00 0.00 0.00 0.00 0.00 0.00 0.00 0.00 0.00 0.00 0.00 0.00 0.00 0.00
0.01 0.02 0.02 0.01 0.00 0.00 0.00 0.00 0.00 0.01 0.10 0.32 0.42 0.43 0.56 0.39 0.28 0.16 0.39 0.37 0.33 0.41 0.47 0.22 0.14 0.23 0.08 0.05 0.01 0.00 0.00 0.00 0.00 0.00 0.00 0.00 0.00 0.00 0.00 0.00 0.00 0.00 0.00 0.00 0.00
0.01 0.01 0.01 0.00 0.00 0.00 0.00 0.00 0.01 0.01 0.01 0.07 0.15 0.20 0.21 0.12 0.12 0.20 0.31 0.25 0.46 0.50 0.66 0.45 0.32 0.17 0.07 0.08 0.02 0.01 0.00 0.02 0.02 0.01 0.00 0.00 0.00 0.00 0.00 0.00 0.00 0.00 0.00 0.00 0.00
0.00 0.00 0.00 0.00 0.00 0.00 0.00 0.01 0.01 0.01 0.02 0.04 0.05 0.18 0.14 0.13 0.15 0.13 0.24 0.16 0.11 0.16 0.41 0.57 0.59 0.19 0.06 0.04 0.02 0.02 0.00 0.00 0.00 0.00 0.00 0.00 0.00 0.00 0.00 0.00 0.00 0.00 0.00 0.00 0.00
0.00 0.00 0.00 0.00 0.00 0.00 0.01 0.01 0.00 0.01 0.01 0.02 0.07 0.26 0.36 0.16 0.09 0.19 0.23 0.09 0.04 0.11 0.21 0.22 0.35 0.16 0.05 0.02 0.02 0.06 0.03 0.00 0.00 0.00 0.00 0.00 0.00 0.00 0.00 0.00 0.00 0.00 0.00 0.00 0.00
0.00 0.00 0.00 0.00 0.00 0.01 0.03 0.00 0.00 0.00 0.00 0.01 0.02 0.05 0.15 0.15 0.16 0.12 0.18 0.06 0.03 0.07 0.03 0.02 0.17 0.11 0.05 0.08 0.05 0.02 0.02 0.02 0.00 0.00 0.00 0.00 0.00 0.00 0.00 0.00 0.00 0.00 0.00 0.00 0.00
0.00 0.00 0.00 0.00 0.00 0.02 0.02 0.00 0.00 0.00 0.00 0.00 0.00 0.02 0.11 0.20 0.05 0.03 0.03 0.02 0.03 0.06 0.01 0.00 0.03 0.11 0.13 0.21 0.10 0.01 0.02 0.02 0.01 0.00 0.00 0.00 0.00 0.00 0.00 0.00 0.00 0.00 0.00 0.00 0.00
0.00 0.00 0.00 0.00 0.02 0.01 0.01 0.00 0.00 0.00 0.00 0.00 0.00 0.00 0.01 0.01 0.01 0.00 0.01 0.01 0.02 0.01 0.01 0.00 0.00 0.07 0.07 0.01 0.02 0.05 0.01 0.01 0.02 0.02 0.00 0.00 0.00 0.00 0.00 0.00 0.00 0.00 0.00 0.00 0.00
0.00 0.00 0.00 0.00 0.01 0.01 0.00 0.00 0.00 0.00 0.00 0.00 0.00 0.00 0.00 0.00 0.00 0.00 0.00 0.00 0.00 0.00 0.01 0.00 0.01 0.06 0.12 0.06 0.01 0.04 0.03 0.00 0.01 0.02 0.01 0.00 0.00 0.00 0.00 0.00 0.00 0.00 0.00 0.00 0.00
0.00 0.00 0.00 0.01 0.00 0.00 0.00 0.00 0.00 0.00 0.00 0.00 0.00 0.00 0.00 0.00 0.00 0.00 0.00 0.00 0.00 0.00 0.00 0.00 0.00 0.01 0.02 0.02 0.00 0.00 0.00 0.00 0.03 0.09 0.02 0.00 0.00 0.00 0.00 0.00 0.00 0.00 0.00 0.00 0.00
0.00 0.00 0.00 0.00 0.00 0.00 0.00 0.01 0.00 0.00 0.00 0.00 0.00 0.00 0.00 0.00 0.00 0.00 0.00 0.00 0.00 0.00 0.00 0.00 0.00 0.00 0.00 0.00 0.00 0.00 0.00 0.00 0.01 0.01 0.02 0.00 0.00 0.00 0.00 0.00 0.00 0.00 0.00 0.00 0.00
0.00 0.00 0.00 0.00 0.00 0.00 0.00 0.01 0.01 0.01 0.00 0.00 0.00 0.00 0.00 0.00 0.00 0.00 0.00 0.00 0.01 0.00 0.00 0.00 0.00 0.00 0.00 0.00 0.00 0.00 0.00 0.00 0.00 0.00 0.00 0.00 0.00 0.00 0.00 0.00 0.00 0.00 0.00 0.00 0.00
0.00 0.00 0.00 0.00 0.00 0.00 0.00 0.00 0.01 0.00 0.01 0.00 0.00 0.00 0.00 0.00 0.00 0.00 0.00 0.00 0.00 0.00 0.00 0.00 0.00 0.00 0.00 0.00 0.00 0.00 0.00 0.00 0.00 0.00 0.00 0.00 0.00 0.00 0.00 0.00 0.00 0.00 0.00 0.00 0.00

GFSSW_prec_precacc24_069.txt.gz
Total_Precipitation_Accumulation
0.04 0.04 0.05 0.05 0.05 0.07 0.08 0.11 0.15 0.10 0.22 0.19 0.12 0.10 0.10 0.10 0.13 0.17 0.07 0.03 0.06 0.20 0.39 0.13 0.05 0.05 0.13 0.27 0.46 0.39 0.44 0.09 0.03 0.03 0.04 0.00 0.00 0.00 0.00 0.00 0.00 0.00 0.05 0.03 0.06
0.04 0.04 0.04 0.04 0.05 0.05 0.11 0.16 0.13 0.15 0.14 0.09 0.07 0.04 0.09 0.15 0.06 0.01 0.00 0.02 0.16 0.37 0.31 0.19 0.07 0.08 0.15 0.25 0.63 0.82 0.61 0.15 0.00 0.05 0.06 0.01 0.00 0.00 0.00 0.00 0.01 0.04 0.05 0.04 0.10
0.04 0.05 0.05 0.05 0.04 0.04 0.14 0.13 0.10 0.07 0.01 0.00 0.00 0.00 0.07 0.10 0.10 0.02 0.11 0.15 0.37 0.58 0.42 0.20 0.22 0.22 0.13 0.25 0.52 0.58 0.36 0.04 0.02 0.10 0.17 0.10 0.00 0.00 0.00 0.00 0.00 0.03 0.08 0.09 0.18
0.05 0.05 0.05 0.05 0.04 0.04 0.08 0.07 0.05 0.02 0.01 0.00 0.00 0.00 0.03 0.03 0.08 0.04 0.04 0.12 0.28 0.63 0.69 0.29 0.24 0.24 0.12 0.13 0.27 0.35 0.08 0.05 0.09 0.11 0.20 0.09 0.02 0.01 0.02 0.01 0.00 0.01 0.07 0.14 0.16
0.06 0.06 0.04 0.04 0.03 0.03 0.03 0.02 0.03 0.03 0.02 0.07 0.00 0.00 0.01 0.02 0.01 0.02 0.01 0.02 0.13 0.67 0.73 0.42 0.26 0.25 0.08 0.02 0.18 0.28 0.15 0.11 0.18 0.18 0.10 0.10 0.20 0.04 0.00 0.00 0.00 0.00 0.03 0.05 0.09
0.07 0.05 0.04 0.03 0.03 0.02 0.01 0.03 0.03 0.04 0.03 0.02 0.02 0.02 0.03 0.05 0.01 0.04 0.02 0.00 0.05 0.48 0.69 0.69 0.25 0.26 0.06 0.04 0.12 0.09 0.34 0.32 0.33 0.24 0.30 0.18 0.16 0.16 0.02 0.00 0.00 0.01 0.04 0.02 0.05
0.05 0.06 0.04 0.04 0.03 0.02 0.02 0.02 0.03 0.02 0.03 0.02 0.01 0.03 0.03 0.07 0.04 0.02 0.07 0.05 0.09 0.33 0.43 0.64 0.31 0.48 0.22 0.04 0.03 0.12 0.45 0.62 0.50 0.41 0.26 0.33 0.25 0.21 0.02 0.00 0.00 0.01 0.03 0.03 0.00
0.06 0.05 0.03 0.03 0.03 0.02 0.01 0.02 0.02 0.03 0.03 0.02 0.00 0.00 0.01 0.01 0.04 0.03 0.03 0.16 0.13 0.22 0.44 0.79 0.71 0.59 0.32 0.04 0.06 0.19 0.39 0.73 0.45 0.51 0.46 0.35 0.22 0.02 0.07 0.09 0.00 0.00 0.00 0.00 0.00
0.07 0.05 0.03 0.03 0.03 0.02 0.01 0.01 0.01 0.01 0.01 0.01 0.01 0.01 0.00 0.01 0.06 0.02 0.01 0.08 0.27 0.27 0.48 1.30 1.33 0.62 0.35 0.10 0.11 0.16 0.19 0.31 0.43 0.40 0.47 0.31 0.11 0.02 0.05 0.09 0.00 0.00 0.00 0.00 0.00
0.05 0.04 0.04 0.04 0.03 0.02 0.01 0.00 0.00 0.00 0.00 0.00 0.00 0.01 0.00 0.00 0.01 0.01 0.01 0.16 0.58 0.67 1.06 1.71 1.91 0.62 0.44 0.14 0.11 0.02 0.04 0.12 0.22 0.25 0.34 0.36 0.15 0.01 0.00 0.00 0.00 0.00 0.00 0.00 0.00
0.04 0.05 0.04 0.03 0.03 0.02 0.01 0.00 0.00 0.00 0.00 0.00 0.00 0.00 0.00 0.01 0.05 0.08 0.07 0.38 1.00 1.01 1.51 1.62 1.61 0.62 0.23 0.03 0.00 0.00 0.00 0.05 0.05 0.07 0.26 0.28 0.13 0.02 0.00 0.00 0.00 0.00 0.00 0.00 0.00
0.05 0.06 0.05 0.02 0.02 0.03 0.01 0.00 0.00 0.00 0.00 0.00 0.00 0.00 0.00 0.07 0.09 0.06 0.17 0.55 1.03 1.02 1.28 1.20 0.74 0.33 0.13 0.02 0.00 0.01 0.00 0.01 0.07 0.08 0.14 0.23 0.18 0.02 0.00 0.00 0.00 0.00 0.00 0.00 0.00
0.05 0.04 0.02 0.02 0.02 0.00 0.00 0.00 0.00 0.00 0.00 0.01 0.01 0.00 0.03 0.15 0.22 0.12 0.24 0.47 0.87 0.83 1.09 0.64 0.41 0.29 0.20 0.07 0.01 0.01 0.00 0.00 0.06 0.10 0.16 0.11 0.14 0.04 0.00 0.00 0.00 0.00 0.00 0.00 0.00
0.05 0.03 0.03 0.03 0.00 0.00 0.00 0.00 0.00 0.00 0.01 0.07 0.09 0.09 0.20 0.29 0.22 0.22 0.38 0.47 0.88 0.80 1.04 0.51 0.33 0.28 0.14 0.06 0.00 0.00 0.00 0.00 0.02 0.11 0.08 0.09 0.06 0.00 0.00 0.00 0.00 0.00 0.00 0.00 0.00
0.02 0.03 0.04 0.03 0.00 0.00 0.00 0.00 0.00 0.00 0.08 0.04 0.09 0.06 0.11 0.13 0.23 0.36 0.41 0.67 0.71 0.68 0.74 0.47 0.34 0.32 0.10 0.04 0.01 0.01 0.01 0.01 0.01 0.06 0.01 0.00 0.00 0.00 0.00 0.00 0.00 0.00 0.00 0.00 0.00
0.01 0.02 0.02 0.01 0.00 0.00 0.00 0.00 0.00 0.01 0.07 0.22 0.20 0.24 0.38 0.27 0.22 0.15 0.45 0.50 0.47 0.42 0.48 0.30 0.33 0.30 0.12 0.06 0.01 0.00 0.01 0.02 0.02 0.01 0.00 0.00 0.00 0.00 0.00 0.00 0.00 0.00 0.00 0.00 0.00
0.01 0.01 0.00 0.00 0.00 0.00 0.00 0.00 0.01 0.01 0.01 0.05 0.13 0.18 0.20 0.12 0.12 0.20 0.31 0.24 0.45 0.49 0.67 0.53 0.34 0.17 0.04 0.05 0.01 0.01 0.01 0.03 0.02 0.01 0.00 0.00 0.00 0.00 0.00 0.00 0.00 0.00 0.00 0.00 0.00
0.00 0.00 0.00 0.00 0.00 0.00 0.00 0.01 0.01 0.01 0.02 0.04 0.05 0.18 0.14 0.14 0.14 0.12 0.22 0.14 0.10 0.16 0.40 0.55 0.58 0.18 0.02 0.02 0.01 0.02 0.00 0.00 0.00 0.00 0.00 0.00 0.00 0.00 0.00 0.00 0.00 0.00 0.00 0.00 0.00
0.00 0.00 0.00 0.00 0.00 0.00 0.01 0.01 0.01 0.01 0.02 0.03 0.12 0.27 0.36 0.16 0.08 0.13 0.14 0.07 0.03 0.11 0.22 0.20 0.28 0.15 0.01 0.00 0.01 0.05 0.01 0.00 0.00 0.00 0.00 0.00 0.00 0.00 0.00 0.00 0.00 0.00 0.00 0.00 0.00
0.00 0.00 0.00 0.00 0.00 0.01 0.03 0.01 0.00 0.00 0.00 0.01 0.03 0.06 0.16 0.15 0.16 0.11 0.13 0.03 0.02 0.07 0.03 0.02 0.21 0.10 0.01 0.02 0.02 0.02 0.02 0.02 0.00 0.00 0.00 0.00 0.00 0.00 0.00 0.00 0.00 0.00 0.00 0.00 0.00
0.00 0.01 0.00 0.00 0.00 0.03 0.02 0.01 0.00 0.00 0.00 0.00 0.01 0.02 0.11 0.20 0.05 0.02 0.03 0.02 0.03 0.06 0.01 0.00 0.04 0.10 0.08 0.10 0.06 0.01 0.02 0.02 0.01 0.00 0.00 0.00 0.00 0.00 0.00 0.00 0.00 0.00 0.00 0.00 0.00
0.00 0.00 0.00 0.00 0.02 0.01 0.01 0.00 0.00 0.00 0.00 0.00 0.00 0.01 0.01 0.02 0.01 0.01 0.01 0.01 0.02 0.01 0.01 0.00 0.00 0.06 0.06 0.01 0.02 0.05 0.01 0.01 0.02 0.02 0.00 0.00 0.00 0.00 0.00 0.00 0.00 0.00 0.00 0.00 0.00
0.00 0.00 0.00 0.00 0.01 0.01 0.00 0.00 0.00 0.00 0.00 0.00 0.00 0.00 0.00 0.01 0.01 0.01 0.00 0.00 0.00 0.00 0.01 0.00 0.01 0.05 0.11 0.06 0.01 0.04 0.03 0.00 0.01 0.02 0.01 0.00 0.00 0.00 0.00 0.00 0.00 0.00 0.00 0.00 0.00
0.00 0.00 0.01 0.01 0.00 0.00 0.00 0.00 0.00 0.00 0.00 0.00 0.00 0.00 0.00 0.00 0.00 0.00 0.00 0.00 0.00 0.00 0.00 0.00 0.00 0.01 0.03 0.02 0.00 0.00 0.00 0.00 0.03 0.08 0.02 0.00 0.00 0.00 0.00 0.00 0.00 0.00 0.00 0.00 0.00
0.00 0.00 0.00 0.00 0.00 0.00 0.00 0.01 0.00 0.00 0.00 0.00 0.00 0.00 0.00 0.00 0.00 0.00 0.00 0.00 0.00 0.00 0.00 0.00 0.00 0.00 0.00 0.00 0.00 0.00 0.00 0.00 0.01 0.01 0.02 0.00 0.00 0.00 0.00 0.00 0.00 0.00 0.00 0.00 0.00
0.00 0.00 0.00 0.00 0.00 0.00 0.00 0.01 0.01 0.00 0.00 0.00 0.00 0.00 0.00 0.00 0.00 0.00 0.00 0.00 0.01 0.00 0.00 0.00 0.00 0.00 0.00 0.00 0.00 0.00 0.00 0.00 0.00 0.00 0.00 0.00 0.00 0.00 0.00 0.00 0.00 0.00 0.00 0.00 0.00
0.00 0.00 0.00 0.00 0.00 0.00 0.00 0.00 0.01 0.00 0.01 0.00 0.00 0.00 0.00 0.00 0.00 0.00 0.00 0.00 0.00 0.00 0.00 0.00 0.00 0.00 0.00 0.00 0.00 0.00 0.00 0.00 0.00 0.00 0.00 0.00 0.00 0.00 0.00 0.00 0.00 0.00 0.00 0.00 0.00

GFSSW_prec_precacc24_072.txt.gz
Total_Precipitation_Accumulation
0.03 0.04 0.04 0.03 0.04 0.04 0.04 0.05 0.12 0.09 0.20 0.19 0.12 0.10 0.10 0.09 0.11 0.14 0.07 0.03 0.04 0.18 0.39 0.13 0.05 0.06 0.15 0.27 0.45 0.48 0.48 0.08 0.00 0.01 0.03 0.00 0.00 0.00 0.00 0.00 0.00 0.01 0.05 0.03 0.06
0.03 0.04 0.04 0.04 0.04 0.03 0.03 0.06 0.12 0.15 0.14 0.09 0.07 0.04 0.05 0.08 0.04 0.01 0.00 0.02 0.13 0.25 0.33 0.21 0.09 0.10 0.16 0.25 0.61 0.86 0.60 0.14 0.00 0.06 0.06 0.00 0.00 0.00 0.00 0.00 0.01 0.04 0.05 0.04 0.10
0.03 0.04 0.04 0.05 0.04 0.04 0.06 0.07 0.10 0.07 0.01 0.00 0.00 0.00 0.04 0.05 0.03 0.02 0.11 0.15 0.36 0.47 0.37 0.22 0.26 0.28 0.14 0.27 0.53 0.64 0.39 0.04 0.02 0.12 0.09 0.06 0.00 0.00 0.00 0.00 0.00 0.03 0.08 0.09 0.15
0.04 0.05 0.04 0.05 0.04 0.04 0.03 0.02 0.02 0.02 0.02 0.01 0.00 0.00 0.02 0.02 0.02 0.04 0.04 0.12 0.28 0.54 0.62 0.31 0.28 0.29 0.16 0.15 0.27 0.40 0.11 0.06 0.08 0.08 0.08 0.08 0.03 0.01 0.02 0.01 0.00 0.01 0.07 0.17 0.17
0.06 0.07 0.04 0.04 0.03 0.02 0.02 0.02 0.03 0.03 0.03 0.04 0.01 0.00 0.01 0.01 0.00 0.01 0.01 0.02 0.13 0.57 0.65 0.47 0.31 0.32 0.15 0.04 0.21 0.29 0.19 0.16 0.16 0.16 0.08 0.06 0.15 0.05 0.01 0.00 0.00 0.00 0.03 0.12 0.14
0.06 0.05 0.05 0.03 0.03 0.02 0.02 0.03 0.04 0.03 0.03 0.04 0.02 0.01 0.01 0.01 0.00 0.00 0.01 0.00 0.02 0.40 0.64 0.78 0.36 0.39 0.15 0.08 0.15 0.09 0.35 0.37 0.39 0.26 0.33 0.22 0.12 0.12 0.02 0.00 0.00 0.01 0.04 0.04 0.08
0.05 0.06 0.04 0.04 0.03 0.02 0.02 0.03 0.04 0.02 0.03 0.04 0.04 0.03 0.01 0.04 0.01 0.01 0.03 0.02 0.01 0.18 0.40 0.77 0.41 0.72 0.31 0.08 0.04 0.14 0.47 0.68 0.60 0.47 0.35 0.43 0.34 0.20 0.03 0.00 0.00 0.01 0.03 0.03 0.09
0.06 0.06 0.04 0.04 0.03 0.02 0.02 0.02 0.02 0.03 0.03 0.03 0.02 0.00 0.01 0.01 0.04 0.03 0.01 0.12 0.07 0.10 0.34 0.82 0.77 0.70 0.44 0.05 0.08 0.22 0.42 0.82 0.54 0.64 0.52 0.56 0.36 0.04 0.08 0.09 0.00 0.00 0.00 0.00 0.00
0.07 0.05 0.04 0.04 0.03 0.02 0.02 0.01 0.01 0.01 0.01 0.01 0.01 0.01 0.00 0.01 0.06 0.02 0.00 0.07 0.23 0.20 0.42 1.23 1.36 0.71 0.48 0.10 0.14 0.20 0.22 0.43 0.55 0.57 0.70 0.52 0.27 0.06 0.06 0.10 0.00 0.00 0.00 0.00 0.00
0.07 0.06 0.04 0.04 0.03 0.02 0.01 0.00 0.00 0.00 0.00 0.00 0.00 0.01 0.00 0.00 0.01 0.01 0.01 0.17 0.53 0.54 0.72 1.57 1.95 0.71 0.57 0.15 0.14 0.04 0.05 0.16 0.41 0.33 0.58 0.45 0.36 0.16 0.01 0.00 0.00 0.00 0.00 0.00 0.00
0.07 0.05 0.04 0.03 0.03 0.02 0.01 0.00 0.00 0.00 0.00 0.00 0.00 0.00 0.00 0.01 0.05 0.08 0.08 0.36 0.75 0.73 1.08 1.54 1.65 0.66 0.31 0.05 0.00 0.00 0.00 0.05 0.14 0.11 0.38 0.40 0.22 0.14 0.02 0.00 0.00 0.00 0.00 0.00 0.00
0.07 0.06 0.05 0.02 0.02 0.03 0.01 0.00 0.00 0.00 0.00 0.00 0.00 0.00 0.00 0.07 0.09 0.05 0.17 0.44 0.65 0.78 0.99 1.04 0.75 0.33 0.15 0.05 0.01 0.01 0.01 0.05 0.12 0.14 0.20 0.31 0.23 0.10 0.07 0.00 0.00 0.00 0.00 0.00 0.00
0.06 0.05 0.02 0.02 0.02 0.00 0.00 0.00 0.00 0.00 0.00 0.01 0.01 0.00 0.01 0.15 0.22 0.10 0.18 0.36 0.56 0.64 0.92 0.57 0.41 0.29 0.21 0.13 0.05 0.02 0.01 0.03 0.16 0.12 0.18 0.11 0.16 0.06 0.01 0.00 0.00 0.00 0.00 0.00 0.00
0.06 0.03 0.03 0.03 0.00 0.00 0.00 0.00 0.00 0.00 0.01 0.06 0.09 0.07 0.13 0.27 0.22 0.20 0.21 0.33 0.67 0.62 0.96 0.56 0.37 0.29 0.17 0.14 0.03 0.01 0.01 0.01 0.10 0.17 0.15 0.10 0.09 0.00 0.00 0.00 0.00 0.00 0.00 0.00 0.00
0.03 0.03 0.03 0.02 0.00 0.00 0.00 0.00 0.00 0.00 0.05 0.02 0.07 0.05 0.08 0.12 0.17 0.29 0.35 0.65 0.74 0.63 0.77 0.55 0.37 0.32 0.13 0.09 0.01 0.01 0.01 0.02 0.02 0.19 0.10 0.03 0.01 0.00 0.00 0.00 0.00 0.00 0.00 0.00 0.00
0.02 0.02 0.02 0.01 0.00 0.00 0.00 0.00 0.00 0.01 0.03 0.07 0.08 0.15 0.19 0.18 0.16 0.14 0.50 0.60 0.49 0.45 0.50 0.35 0.39 0.34 0.15 0.07 0.01 0.01 0.03 0.09 0.04 0.04 0.09 0.02 0.00 0.00 0.00 0.00 0.00 0.00 0.00 0.00 0.00
0.01 0.01 0.00 0.00 0.00 0.00 0.00 0.00 0.01 0.01 0.01 0.03 0.09 0.14 0.16 0.10 0.11 0.20 0.28 0.21 0.43 0.50 0.72 0.71 0.51 0.26 0.08 0.05 0.03 0.03 0.01 0.11 0.15 0.07 0.01 0.00 0.00 0.00 0.00 0.00 0.00 0.00 0.00 0.00 0.00
0.00 0.00 0.00 0.00 0.00 0.00 0.00 0.01 0.01 0.00 0.02 0.03 0.04 0.18 0.13 0.13 0.14 0.11 0.19 0.13 0.11 0.16 0.49 0.68 0.73 0.34 0.04 0.02 0.03 0.03 0.01 0.01 0.04 0.03 0.00 0.00 0.00 0.00 0.00 0.00 0.00 0.00 0.00 0.00 0.00
0.00 0.00 0.00 0.00 0.00 0.00 0.01 0.01 0.01 0.01 0.02 0.04 0.15 0.26 0.35 0.15 0.08 0.10 0.10 0.06 0.03 0.11 0.23 0.21 0.31 0.15 0.01 0.00 0.02 0.04 0.01 0.00 0.00 0.00 0.00 0.00 0.00 0.00 0.00 0.00 0.00 0.00 0.00 0.00 0.00
0.00 0.00 0.00 0.00 0.00 0.01 0.03 0.01 0.00 0.00 0.00 0.02 0.05 0.07 0.15 0.15 0.15 0.10 0.09 0.03 0.02 0.07 0.03 0.02 0.21 0.09 0.01 0.01 0.01 0.01 0.00 0.00 0.00 0.00 0.00 0.00 0.00 0.00 0.00 0.00 0.00 0.00 0.00 0.00 0.00
0.01 0.01 0.00 0.00 0.00 0.03 0.02 0.01 0.00 0.00 0.00 0.00 0.01 0.02 0.11 0.20 0.05 0.02 0.03 0.02 0.03 0.06 0.01 0.00 0.04 0.07 0.05 0.06 0.03 0.00 0.00 0.00 0.01 0.00 0.00 0.00 0.00 0.00 0.00 0.00 0.00 0.00 0.00 0.00 0.00
0.01 0.01 0.00 0.00 0.02 0.02 0.01 0.00 0.00 0.00 0.00 0.00 0.00 0.01 0.01 0.02 0.01 0.01 0.01 0.01 0.02 0.01 0.01 0.00 0.00 0.05 0.06 0.00 0.01 0.01 0.01 0.00 0.01 0.01 0.00 0.00 0.00 0.00 0.00 0.00 0.00 0.00 0.00 0.00 0.00
0.01 0.01 0.01 0.01 0.01 0.01 0.01 0.00 0.00 0.00 0.00 0.00 0.00 0.00 0.01 0.01 0.01 0.01 0.00 0.00 0.00 0.00 0.01 0.00 0.01 0.05 0.11 0.06 0.01 0.01 0.01 0.00 0.00 0.02 0.01 0.00 0.00 0.00 0.00 0.00 0.00 0.00 0.00 0.00 0.00
0.01 0.01 0.03 0.03 0.00 0.00 0.00 0.00 0.00 0.00 0.00 0.00 0.00 0.00 0.00 0.00 0.00 0.00 0.00 0.00 0.00 0.00 0.00 0.00 0.00 0.01 0.03 0.02 0.00 0.00 0.00 0.00 0.02 0.07 0.01 0.00 0.00 0.00 0.00 0.00 0.00 0.00 0.00 0.00 0.00
0.01 0.00 0.00 0.01 0.00 0.00 0.00 0.00 0.01 0.00 0.00 0.00 0.00 0.00 0.00 0.00 0.00 0.00 0.00 0.00 0.00 0.00 0.00 0.00 0.00 0.00 0.00 0.00 0.00 0.00 0.00 0.00 0.01 0.01 0.02 0.00 0.00 0.00 0.00 0.00 0.00 0.00 0.00 0.00 0.00
0.01 0.00 0.00 0.00 0.00 0.00 0.00 0.01 0.01 0.00 0.00 0.00 0.00 0.00 0.00 0.00 0.00 0.00 0.00 0.00 0.01 0.00 0.00 0.00 0.00 0.00 0.00 0.00 0.00 0.00 0.00 0.00 0.00 0.00 0.00 0.00 0.00 0.00 0.00 0.00 0.00 0.00 0.00 0.00 0.00
0.00 0.00 0.00 0.00 0.00 0.00 0.00 0.00 0.01 0.00 0.00 0.00 0.00 0.00 0.00 0.00 0.00 0.00 0.00 0.00 0.00 0.00 0.00 0.00 0.00 0.00 0.00 0.00 0.00 0.00 0.00 0.00 0.00 0.00 0.00 0.00 0.00 0.00 0.00 0.00 0.00 0.00 0.00 0.00 0.00

GFSSW_prec_precacc24_075.txt.gz
Total_Precipitation_Accumulation
0.03 0.03 0.04 0.03 0.04 0.03 0.03 0.02 0.02 0.05 0.11 0.11 0.10 0.10 0.09 0.09 0.10 0.09 0.05 0.03 0.04 0.17 0.35 0.13 0.05 0.06 0.15 0.26 0.43 0.49 0.52 0.19 0.05 0.00 0.01 0.00 0.00 0.00 0.00 0.00 0.01 0.01 0.05 0.03 0.06
0.03 0.03 0.04 0.04 0.04 0.03 0.03 0.02 0.02 0.04 0.06 0.08 0.08 0.04 0.04 0.07 0.04 0.00 0.00 0.02 0.13 0.22 0.30 0.21 0.09 0.11 0.15 0.25 0.59 0.79 0.56 0.16 0.04 0.06 0.06 0.01 0.00 0.00 0.00 0.00 0.02 0.05 0.07 0.04 0.10
0.03 0.04 0.04 0.05 0.04 0.03 0.04 0.03 0.02 0.02 0.01 0.02 0.01 0.00 0.02 0.03 0.01 0.02 0.11 0.15 0.36 0.45 0.31 0.22 0.26 0.29 0.14 0.28 0.53 0.64 0.36 0.05 0.03 0.12 0.06 0.05 0.01 0.00 0.00 0.01 0.00 0.03 0.06 0.08 0.14
0.05 0.05 0.05 0.05 0.03 0.02 0.03 0.03 0.02 0.02 0.02 0.03 0.03 0.01 0.01 0.01 0.02 0.04 0.04 0.12 0.28 0.51 0.52 0.31 0.28 0.30 0.18 0.15 0.29 0.44 0.12 0.09 0.09 0.07 0.05 0.08 0.05 0.01 0.02 0.01 0.00 0.00 0.01 0.13 0.15
0.09 0.08 0.05 0.04 0.03 0.02 0.02 0.03 0.04 0.04 0.03 0.03 0.04 0.01 0.00 0.00 0.00 0.01 0.01 0.01 0.12 0.55 0.52 0.46 0.31 0.32 0.19 0.06 0.22 0.31 0.19 0.18 0.21 0.19 0.09 0.06 0.12 0.07 0.03 0.00 0.00 0.01 0.01 0.11 0.13
0.13 0.09 0.06 0.04 0.03 0.02 0.02 0.04 0.04 0.04 0.04 0.04 0.06 0.01 0.00 0.00 0.00 0.00 0.00 0.00 0.02 0.37 0.50 0.76 0.37 0.40 0.16 0.12 0.15 0.10 0.34 0.36 0.47 0.37 0.40 0.21 0.13 0.11 0.04 0.01 0.05 0.03 0.10 0.10 0.09
0.15 0.12 0.06 0.05 0.03 0.02 0.03 0.04 0.05 0.03 0.03 0.04 0.07 0.01 0.00 0.00 0.00 0.00 0.00 0.00 0.01 0.15 0.29 0.73 0.42 0.78 0.37 0.14 0.04 0.17 0.48 0.67 0.63 0.54 0.47 0.46 0.32 0.09 0.06 0.05 0.05 0.04 0.11 0.14 0.17
0.18 0.11 0.07 0.05 0.03 0.02 0.02 0.03 0.03 0.03 0.03 0.03 0.05 0.01 0.01 0.00 0.00 0.00 0.00 0.05 0.04 0.05 0.22 0.77 0.77 0.79 0.56 0.14 0.14 0.24 0.44 0.83 0.57 0.72 0.62 0.59 0.40 0.10 0.07 0.13 0.05 0.01 0.02 0.05 0.09
0.15 0.11 0.09 0.04 0.03 0.02 0.02 0.01 0.01 0.01 0.01 0.02 0.02 0.01 0.00 0.01 0.03 0.01 0.00 0.05 0.18 0.15 0.33 1.09 1.34 0.83 0.66 0.23 0.23 0.26 0.25 0.43 0.60 0.64 0.79 0.58 0.35 0.27 0.10 0.11 0.03 0.02 0.01 0.00 0.05
0.14 0.10 0.06 0.04 0.03 0.02 0.01 0.00 0.00 0.00 0.00 0.00 0.01 0.01 0.00 0.00 0.01 0.01 0.01 0.14 0.43 0.40 0.53 1.41 1.93 0.87 0.78 0.26 0.20 0.05 0.07 0.17 0.47 0.42 0.81 0.51 0.38 0.34 0.18 0.01 0.01 0.00 0.01 0.00 0.00
0.15 0.09 0.08 0.05 0.03 0.02 0.01 0.00 0.00 0.00 0.00 0.00 0.00 0.00 0.00 0.01 0.05 0.08 0.08 0.31 0.59 0.46 0.57 1.34 1.60 0.73 0.47 0.13 0.03 0.01 0.01 0.06 0.19 0.19 0.50 0.55 0.22 0.30 0.21 0.03 0.00 0.01 0.00 0.00 0.00
0.14 0.14 0.10 0.03 0.02 0.03 0.01 0.00 0.00 0.00 0.00 0.00 0.00 0.00 0.00 0.07 0.10 0.05 0.17 0.37 0.41 0.47 0.63 0.87 0.75 0.34 0.21 0.12 0.07 0.03 0.02 0.07 0.15 0.37 0.33 0.51 0.30 0.14 0.31 0.05 0.00 0.00 0.00 0.00 0.00
0.17 0.14 0.05 0.02 0.02 0.00 0.00 0.00 0.00 0.00 0.00 0.01 0.01 0.00 0.01 0.14 0.23 0.09 0.18 0.32 0.33 0.43 0.68 0.48 0.41 0.29 0.22 0.14 0.08 0.03 0.01 0.04 0.18 0.30 0.32 0.32 0.29 0.10 0.11 0.11 0.00 0.00 0.00 0.00 0.00
0.16 0.11 0.05 0.03 0.00 0.00 0.00 0.00 0.00 0.00 0.01 0.05 0.08 0.05 0.11 0.26 0.22 0.19 0.20 0.26 0.51 0.49 0.78 0.52 0.42 0.29 0.16 0.14 0.03 0.01 0.01 0.02 0.13 0.27 0.22 0.18 0.17 0.01 0.00 0.05 0.02 0.00 0.00 0.00 0.00
0.12 0.09 0.05 0.02 0.00 0.00 0.00 0.00 0.00 0.00 0.04 0.01 0.06 0.04 0.07 0.10 0.15 0.18 0.20 0.55 0.68 0.53 0.65 0.57 0.40 0.33 0.13 0.11 0.02 0.01 0.02 0.02 0.06 0.33 0.18 0.06 0.01 0.00 0.00 0.00 0.01 0.00 0.00 0.00 0.00
0.19 0.09 0.04 0.01 0.00 0.00 0.00 0.00 0.00 0.01 0.02 0.05 0.04 0.08 0.13 0.15 0.13 0.13 0.41 0.54 0.47 0.35 0.62 0.41 0.40 0.35 0.16 0.14 0.03 0.03 0.08 0.13 0.07 0.15 0.25 0.08 0.00 0.00 0.00 0.00 0.00 0.00 0.00 0.00 0.00
0.19 0.07 0.04 0.00 0.00 0.00 0.00 0.00 0.01 0.01 0.01 0.03 0.05 0.11 0.14 0.09 0.11 0.16 0.22 0.13 0.20 0.48 0.83 0.74 0.52 0.29 0.18 0.12 0.04 0.04 0.03 0.28 0.25 0.18 0.07 0.01 0.00 0.00 0.00 0.00 0.00 0.00 0.00 0.00 0.00
0.13 0.07 0.02 0.00 0.00 0.00 0.00 0.01 0.01 0.00 0.02 0.02 0.04 0.17 0.12 0.13 0.13 0.10 0.17 0.13 0.10 0.20 0.55 0.73 0.87 0.37 0.06 0.02 0.03 0.04 0.01 0.04 0.08 0.05 0.00 0.00 0.00 0.00 0.00 0.00 0.00 0.00 0.00 0.00 0.00
0.12 0.08 0.03 0.00 0.00 0.00 0.01 0.01 0.01 0.01 0.02 0.04 0.15 0.26 0.34 0.15 0.07 0.10 0.09 0.06 0.03 0.12 0.28 0.45 0.52 0.15 0.01 0.01 0.03 0.05 0.01 0.00 0.00 0.00 0.00 0.00 0.00 0.00 0.00 0.00 0.00 0.00 0.00 0.00 0.00
0.09 0.04 0.02 0.00 0.00 0.01 0.03 0.01 0.00 0.00 0.00 0.02 0.06 0.07 0.15 0.14 0.13 0.10 0.09 0.03 0.02 0.07 0.04 0.03 0.22 0.08 0.00 0.01 0.00 0.01 0.00 0.00 0.00 0.00 0.00 0.00 0.00 0.00 0.00 0.00 0.00 0.00 0.00 0.00 0.00
0.11 0.09 0.02 0.00 0.00 0.03 0.02 0.01 0.00 0.00 0.00 0.00 0.01 0.02 0.11 0.19 0.05 0.02 0.03 0.02 0.03 0.06 0.01 0.00 0.04 0.06 0.04 0.06 0.02 0.00 0.00 0.00 0.00 0.00 0.00 0.00 0.00 0.00 0.00 0.00 0.00 0.00 0.00 0.00 0.00
0.17 0.13 0.02 0.00 0.01 0.02 0.01 0.00 0.00 0.00 0.00 0.00 0.00 0.01 0.01 0.02 0.01 0.01 0.01 0.01 0.02 0.01 0.01 0.00 0.00 0.05 0.05 0.00 0.01 0.01 0.01 0.00 0.00 0.01 0.00 0.00 0.00 0.00 0.00 0.00 0.00 0.00 0.00 0.00 0.00
0.23 0.18 0.05 0.01 0.01 0.01 0.01 0.00 0.00 0.00 0.00 0.00 0.00 0.00 0.01 0.01 0.01 0.01 0.00 0.00 0.00 0.00 0.01 0.00 0.01 0.04 0.09 0.05 0.01 0.00 0.00 0.00 0.00 0.01 0.01 0.00 0.00 0.00 0.00 0.00 0.00 0.00 0.00 0.00 0.00
0.19 0.14 0.10 0.04 0.00 0.00 0.01 0.00 0.01 0.00 0.00 0.00 0.00 0.00 0.00 0.00 0.00 0.00 0.00 0.00 0.00 0.00 0.00 0.00 0.00 0.01 0.02 0.01 0.00 0.00 0.00 0.00 0.02 0.04 0.01 0.00 0.00 0.00 0.00 0.00 0.00 0.00 0.00 0.00 0.00
0.12 0.04 0.01 0.01 0.00 0.00 0.00 0.00 0.01 0.00 0.00 0.00 0.00 0.00 0.00 0.00 0.00 0.00 0.00 0.00 0.00 0.00 0.00 0.00 0.00 0.00 0.00 0.00 0.00 0.00 0.00 0.00 0.01 0.00 0.01 0.00 0.00 0.00 0.00 0.00 0.00 0.00 0.00 0.00 0.00
0.15 0.01 0.00 0.00 0.00 0.00 0.00 0.00 0.01 0.00 0.00 0.00 0.00 0.00 0.00 0.00 0.00 0.00 0.00 0.00 0.01 0.00 0.00 0.00 0.00 0.00 0.00 0.00 0.00 0.00 0.00 0.00 0.00 0.00 0.00 0.00 0.00 0.00 0.00 0.00 0.00 0.00 0.00 0.00 0.00
0.12 0.03 0.00 0.00 0.00 0.00 0.00 0.00 0.01 0.00 0.00 0.00 0.00 0.00 0.00 0.00 0.00 0.00 0.00 0.00 0.00 0.00 0.00 0.00 0.00 0.00 0.00 0.00 0.00 0.00 0.00 0.00 0.00 0.00 0.00 0.00 0.00 0.00 0.00 0.00 0.00 0.00 0.00 0.00 0.00

GFSSW_prec_precacc24_078.txt.gz
Total_Precipitation_Accumulation
0.04 0.04 0.04 0.03 0.03 0.03 0.03 0.02 0.02 0.02 0.03 0.02 0.03 0.07 0.07 0.08 0.10 0.07 0.03 0.02 0.04 0.16 0.23 0.10 0.05 0.06 0.14 0.22 0.39 0.48 0.51 0.18 0.05 0.00 0.01 0.00 0.00 0.00 0.00 0.00 0.01 0.01 0.05 0.03 0.06
0.05 0.05 0.04 0.04 0.04 0.04 0.03 0.03 0.03 0.02 0.02 0.04 0.07 0.04 0.03 0.05 0.03 0.00 0.00 0.01 0.12 0.22 0.27 0.18 0.09 0.11 0.14 0.21 0.51 0.75 0.50 0.15 0.04 0.06 0.06 0.01 0.00 0.00 0.00 0.01 0.03 0.04 0.03 0.01 0.07
0.06 0.06 0.07 0.05 0.05 0.04 0.04 0.04 0.03 0.02 0.01 0.02 0.04 0.04 0.02 0.01 0.01 0.02 0.11 0.14 0.33 0.44 0.28 0.19 0.26 0.29 0.13 0.26 0.49 0.62 0.29 0.03 0.03 0.12 0.07 0.04 0.01 0.01 0.01 0.04 0.01 0.03 0.01 0.01 0.07
0.08 0.13 0.10 0.06 0.05 0.03 0.03 0.03 0.03 0.02 0.02 0.03 0.04 0.05 0.01 0.00 0.02 0.03 0.03 0.11 0.21 0.49 0.47 0.26 0.28 0.30 0.18 0.15 0.28 0.44 0.12 0.09 0.10 0.08 0.05 0.09 0.09 0.06 0.04 0.02 0.00 0.00 0.00 0.05 0.05
0.18 0.20 0.13 0.08 0.04 0.04 0.03 0.03 0.04 0.04 0.04 0.03 0.04 0.04 0.00 0.00 0.00 0.00 0.00 0.00 0.07 0.51 0.50 0.41 0.31 0.32 0.19 0.06 0.21 0.30 0.19 0.18 0.20 0.21 0.13 0.10 0.16 0.08 0.05 0.01 0.01 0.06 0.05 0.10 0.07
0.21 0.20 0.16 0.09 0.08 0.04 0.02 0.04 0.05 0.05 0.04 0.04 0.06 0.04 0.00 0.00 0.00 0.00 0.00 0.00 0.02 0.37 0.49 0.73 0.36 0.40 0.17 0.12 0.16 0.10 0.32 0.34 0.48 0.41 0.47 0.29 0.19 0.12 0.06 0.06 0.15 0.17 0.16 0.12 0.07
0.19 0.22 0.16 0.12 0.07 0.04 0.03 0.04 0.05 0.04 0.03 0.04 0.07 0.03 0.00 0.00 0.00 0.00 0.00 0.00 0.01 0.15 0.29 0.70 0.41 0.78 0.38 0.13 0.04 0.16 0.48 0.62 0.59 0.57 0.54 0.57 0.36 0.15 0.11 0.10 0.13 0.18 0.23 0.28 0.22
0.23 0.19 0.13 0.10 0.05 0.03 0.02 0.03 0.03 0.03 0.03 0.03 0.06 0.02 0.00 0.00 0.00 0.00 0.00 0.00 0.00 0.05 0.20 0.72 0.75 0.77 0.56 0.16 0.14 0.24 0.46 0.85 0.53 0.71 0.68 0.74 0.51 0.15 0.11 0.13 0.15 0.14 0.20 0.26 0.26
0.17 0.16 0.13 0.08 0.05 0.04 0.03 0.02 0.01 0.01 0.01 0.03 0.03 0.02 0.00 0.00 0.00 0.00 0.00 0.01 0.06 0.13 0.31 0.93 1.28 0.87 0.72 0.33 0.40 0.33 0.33 0.50 0.61 0.64 0.90 0.81 0.52 0.31 0.09 0.08 0.09 0.12 0.10 0.12 0.28
0.16 0.18 0.16 0.11 0.07 0.04 0.02 0.00 0.00 0.00 0.00 0.00 0.00 0.01 0.00 0.00 0.01 0.00 0.01 0.11 0.33 0.37 0.45 1.13 1.84 0.94 0.84 0.39 0.52 0.12 0.09 0.21 0.47 0.45 0.87 0.67 0.55 0.38 0.22 0.04 0.04 0.04 0.03 0.03 0.05
0.18 0.19 0.17 0.13 0.08 0.03 0.01 0.00 0.00 0.00 0.00 0.00 0.00 0.00 0.00 0.01 0.05 0.08 0.08 0.28 0.53 0.42 0.37 0.92 1.45 0.72 0.49 0.16 0.23 0.11 0.01 0.07 0.20 0.25 0.52 0.64 0.32 0.35 0.27 0.11 0.02 0.02 0.01 0.00 0.02
0.17 0.22 0.20 0.11 0.05 0.04 0.01 0.00 0.00 0.00 0.00 0.00 0.00 0.00 0.00 0.07 0.09 0.04 0.16 0.34 0.38 0.42 0.36 0.72 0.70 0.34 0.24 0.25 0.24 0.09 0.04 0.10 0.17 0.42 0.40 0.58 0.45 0.19 0.32 0.14 0.05 0.01 0.01 0.01 0.00
0.22 0.24 0.20 0.12 0.05 0.03 0.00 0.00 0.00 0.00 0.00 0.01 0.01 0.00 0.01 0.14 0.22 0.08 0.17 0.28 0.28 0.38 0.39 0.42 0.41 0.30 0.25 0.30 0.23 0.05 0.03 0.06 0.18 0.31 0.39 0.46 0.53 0.18 0.14 0.16 0.07 0.01 0.01 0.00 0.00
0.22 0.25 0.22 0.09 0.02 0.00 0.00 0.00 0.00 0.00 0.01 0.04 0.06 0.05 0.09 0.25 0.22 0.17 0.19 0.24 0.39 0.37 0.54 0.44 0.42 0.29 0.18 0.25 0.10 0.02 0.05 0.10 0.14 0.31 0.31 0.27 0.31 0.08 0.04 0.11 0.11 0.03 0.00 0.00 0.00
0.15 0.19 0.19 0.07 0.01 0.01 0.01 0.00 0.00 0.00 0.04 0.01 0.04 0.03 0.06 0.09 0.14 0.18 0.21 0.53 0.56 0.39 0.48 0.52 0.41 0.34 0.13 0.11 0.03 0.03 0.07 0.08 0.07 0.33 0.23 0.14 0.11 0.01 0.00 0.01 0.03 0.02 0.00 0.00 0.00
0.33 0.32 0.19 0.06 0.04 0.02 0.00 0.00 0.00 0.01 0.01 0.02 0.04 0.07 0.11 0.11 0.09 0.10 0.36 0.55 0.44 0.37 0.67 0.54 0.44 0.36 0.16 0.14 0.05 0.06 0.11 0.16 0.09 0.19 0.31 0.16 0.02 0.00 0.00 0.00 0.00 0.01 0.01 0.01 0.01
0.40 0.37 0.17 0.07 0.06 0.02 0.00 0.00 0.01 0.01 0.01 0.02 0.05 0.11 0.14 0.08 0.09 0.09 0.11 0.11 0.23 0.43 0.77 0.70 0.53 0.33 0.19 0.16 0.06 0.10 0.04 0.30 0.32 0.29 0.10 0.07 0.01 0.00 0.00 0.00 0.00 0.00 0.00 0.00 0.00
0.33 0.32 0.15 0.06 0.03 0.02 0.00 0.01 0.01 0.00 0.02 0.02 0.03 0.16 0.11 0.12 0.12 0.06 0.13 0.13 0.23 0.20 0.53 0.70 0.85 0.45 0.21 0.10 0.06 0.08 0.03 0.09 0.13 0.08 0.01 0.00 0.00 0.00 0.00 0.00 0.00 0.00 0.00 0.00 0.00
0.34 0.27 0.16 0.05 0.02 0.01 0.01 0.01 0.01 0.01 0.01 0.03 0.14 0.25 0.33 0.14 0.07 0.09 0.08 0.03 0.04 0.12 0.29 0.49 0.61 0.21 0.06 0.01 0.03 0.05 0.02 0.01 0.00 0.00 0.00 0.00 0.00 0.00 0.00 0.00 0.00 0.00 0.00 0.00 0.00
0.25 0.16 0.17 0.10 0.02 0.01 0.03 0.01 0.00 0.00 0.00 0.02 0.05 0.07 0.13 0.14 0.13 0.09 0.09 0.02 0.03 0.11 0.08 0.04 0.25 0.09 0.00 0.01 0.00 0.01 0.00 0.00 0.00 0.00 0.00 0.00 0.00 0.00 0.00 0.00 0.00 0.00 0.00 0.00 0.00
0.33 0.32 0.19 0.09 0.03 0.03 0.03 0.01 0.00 0.00 0.00 0.00 0.01 0.02 0.09 0.17 0.04 0.02 0.03 0.02 0.03 0.06 0.01 0.00 0.05 0.06 0.04 0.06 0.02 0.00 0.00 0.00 0.00 0.00 0.00 0.00 0.00 0.00 0.00 0.00 0.00 0.00 0.00 0.00 0.00
0.46 0.33 0.17 0.04 0.03 0.02 0.01 0.00 0.00 0.00 0.00 0.00 0.00 0.01 0.01 0.01 0.01 0.01 0.01 0.01 0.02 0.01 0.01 0.00 0.00 0.05 0.05 0.00 0.01 0.01 0.01 0.00 0.00 0.01 0.00 0.00 0.00 0.00 0.00 0.00 0.00 0.00 0.00 0.00 0.00
0.45 0.41 0.26 0.08 0.03 0.01 0.01 0.00 0.00 0.00 0.00 0.00 0.00 0.00 0.01 0.01 0.01 0.01 0.00 0.00 0.00 0.00 0.01 0.00 0.01 0.04 0.08 0.04 0.00 0.00 0.00 0.00 0.00 0.00 0.01 0.00 0.00 0.00 0.00 0.00 0.00 0.00 0.00 0.00 0.00
0.34 0.31 0.30 0.16 0.02 0.00 0.01 0.00 0.01 0.00 0.00 0.00 0.00 0.00 0.00 0.00 0.00 0.00 0.00 0.00 0.00 0.00 0.00 0.00 0.00 0.01 0.02 0.01 0.00 0.00 0.00 0.00 0.01 0.02 0.00 0.00 0.00 0.00 0.00 0.00 0.00 0.00 0.00 0.00 0.00
0.19 0.12 0.09 0.07 0.01 0.00 0.00 0.01 0.01 0.00 0.00 0.00 0.00 0.00 0.00 0.00 0.00 0.00 0.00 0.00 0.00 0.00 0.00 0.00 0.00 0.00 0.00 0.00 0.00 0.00 0.00 0.00 0.00 0.00 0.01 0.00 0.00 0.00 0.00 0.00 0.00 0.00 0.00 0.00 0.00
0.18 0.09 0.06 0.00 0.00 0.00 0.00 0.01 0.01 0.00 0.00 0.00 0.00 0.00 0.00 0.00 0.00 0.00 0.00 0.00 0.01 0.00 0.00 0.00 0.00 0.00 0.00 0.00 0.00 0.00 0.00 0.00 0.00 0.00 0.00 0.00 0.00 0.00 0.00 0.00 0.00 0.00 0.00 0.00 0.00
0.16 0.06 0.00 0.00 0.00 0.00 0.00 0.00 0.01 0.00 0.00 0.00 0.00 0.00 0.00 0.00 0.00 0.00 0.00 0.00 0.00 0.00 0.00 0.00 0.00 0.00 0.00 0.00 0.00 0.00 0.00 0.00 0.00 0.00 0.00 0.00 0.00 0.00 0.00 0.00 0.00 0.00 0.00 0.00 0.00

GFSSW_prec_precacc24_081.txt.gz
Total_Precipitation_Accumulation
0.05 0.05 0.04 0.03 0.03 0.02 0.03 0.02 0.02 0.02 0.02 0.01 0.02 0.03 0.02 0.05 0.07 0.05 0.02 0.01 0.04 0.14 0.18 0.05 0.04 0.06 0.09 0.17 0.36 0.46 0.47 0.17 0.05 0.00 0.01 0.00 0.00 0.02 0.00 0.00 0.01 0.01 0.05 0.03 0.04
0.07 0.07 0.05 0.06 0.05 0.05 0.03 0.03 0.04 0.03 0.02 0.02 0.02 0.02 0.02 0.04 0.01 0.00 0.00 0.01 0.06 0.17 0.26 0.16 0.08 0.11 0.13 0.16 0.45 0.68 0.42 0.12 0.04 0.06 0.06 0.01 0.00 0.01 0.01 0.02 0.05 0.10 0.05 0.01 0.03
0.09 0.11 0.10 0.09 0.09 0.06 0.06 0.04 0.03 0.03 0.02 0.02 0.03 0.06 0.03 0.00 0.01 0.02 0.10 0.14 0.20 0.30 0.25 0.16 0.24 0.28 0.13 0.24 0.44 0.53 0.21 0.03 0.03 0.12 0.07 0.04 0.01 0.02 0.02 0.04 0.01 0.04 0.03 0.02 0.05
0.11 0.16 0.16 0.15 0.11 0.08 0.07 0.04 0.03 0.03 0.03 0.04 0.04 0.06 0.01 0.00 0.02 0.02 0.01 0.08 0.09 0.27 0.41 0.21 0.25 0.29 0.18 0.14 0.27 0.40 0.09 0.07 0.10 0.08 0.04 0.09 0.09 0.10 0.08 0.02 0.01 0.03 0.09 0.07 0.04
0.19 0.21 0.17 0.16 0.12 0.10 0.08 0.04 0.04 0.04 0.05 0.04 0.04 0.05 0.00 0.00 0.00 0.00 0.00 0.00 0.03 0.28 0.43 0.36 0.30 0.32 0.19 0.06 0.21 0.30 0.18 0.17 0.19 0.20 0.13 0.10 0.16 0.10 0.05 0.03 0.03 0.09 0.18 0.12 0.09
0.22 0.21 0.18 0.14 0.15 0.11 0.05 0.04 0.05 0.05 0.05 0.04 0.06 0.05 0.00 0.00 0.00 0.00 0.00 0.00 0.01 0.29 0.47 0.67 0.35 0.40 0.17 0.11 0.16 0.10 0.31 0.32 0.47 0.40 0.47 0.29 0.19 0.14 0.06 0.07 0.17 0.24 0.28 0.18 0.10
0.19 0.22 0.17 0.15 0.11 0.07 0.05 0.04 0.05 0.04 0.03 0.04 0.07 0.04 0.00 0.00 0.00 0.00 0.00 0.00 0.01 0.13 0.28 0.65 0.38 0.78 0.38 0.13 0.04 0.16 0.47 0.57 0.55 0.55 0.52 0.58 0.36 0.16 0.13 0.12 0.19 0.27 0.39 0.49 0.26
0.22 0.18 0.14 0.14 0.09 0.08 0.05 0.04 0.03 0.04 0.03 0.03 0.07 0.02 0.01 0.00 0.00 0.00 0.00 0.00 0.00 0.05 0.20 0.63 0.67 0.76 0.56 0.16 0.14 0.24 0.46 0.84 0.51 0.68 0.66 0.81 0.51 0.16 0.17 0.14 0.20 0.21 0.33 0.56 0.43
0.16 0.15 0.16 0.17 0.14 0.08 0.04 0.02 0.02 0.01 0.01 0.03 0.03 0.02 0.00 0.00 0.00 0.00 0.00 0.00 0.02 0.12 0.31 0.82 1.00 0.84 0.72 0.35 0.44 0.36 0.35 0.50 0.61 0.63 0.91 0.88 0.55 0.34 0.16 0.12 0.13 0.18 0.16 0.25 0.59
0.16 0.17 0.18 0.18 0.14 0.09 0.03 0.01 0.01 0.00 0.01 0.01 0.01 0.01 0.00 0.00 0.00 0.00 0.01 0.09 0.24 0.31 0.44 0.95 1.41 0.92 0.87 0.58 0.67 0.17 0.12 0.23 0.49 0.46 0.87 0.75 0.64 0.53 0.27 0.10 0.11 0.10 0.09 0.08 0.11
0.17 0.19 0.17 0.19 0.13 0.07 0.03 0.01 0.01 0.00 0.00 0.00 0.00 0.00 0.00 0.00 0.03 0.07 0.08 0.20 0.41 0.35 0.34 0.60 1.14 0.70 0.50 0.20 0.26 0.17 0.06 0.12 0.23 0.27 0.54 0.66 0.38 0.47 0.48 0.22 0.15 0.13 0.05 0.03 0.03
0.16 0.21 0.22 0.20 0.13 0.07 0.03 0.03 0.04 0.02 0.00 0.00 0.00 0.00 0.00 0.07 0.09 0.03 0.16 0.17 0.30 0.40 0.23 0.32 0.57 0.33 0.27 0.31 0.29 0.20 0.08 0.21 0.28 0.50 0.45 0.62 0.48 0.28 0.46 0.25 0.20 0.10 0.04 0.03 0.01
0.21 0.23 0.28 0.35 0.13 0.07 0.05 0.05 0.02 0.00 0.00 0.00 0.01 0.00 0.01 0.13 0.20 0.07 0.16 0.18 0.27 0.35 0.20 0.27 0.37 0.30 0.26 0.33 0.44 0.19 0.04 0.14 0.27 0.35 0.44 0.49 0.54 0.21 0.19 0.18 0.11 0.03 0.02 0.02 0.00
0.21 0.24 0.27 0.28 0.07 0.01 0.02 0.00 0.00 0.00 0.01 0.02 0.02 0.04 0.06 0.22 0.20 0.16 0.18 0.22 0.39 0.35 0.42 0.40 0.41 0.29 0.19 0.43 0.30 0.06 0.07 0.17 0.22 0.33 0.36 0.28 0.33 0.11 0.07 0.12 0.11 0.03 0.00 0.01 0.02
0.15 0.18 0.21 0.21 0.04 0.02 0.02 0.01 0.01 0.00 0.04 0.01 0.03 0.02 0.05 0.08 0.13 0.17 0.21 0.53 0.56 0.43 0.50 0.49 0.41 0.35 0.19 0.30 0.06 0.06 0.13 0.15 0.14 0.34 0.24 0.14 0.15 0.04 0.04 0.02 0.03 0.02 0.01 0.01 0.01
0.33 0.34 0.33 0.13 0.06 0.05 0.04 0.02 0.00 0.02 0.01 0.01 0.02 0.01 0.03 0.04 0.06 0.09 0.36 0.59 0.53 0.48 0.72 0.52 0.45 0.36 0.18 0.13 0.07 0.09 0.15 0.20 0.10 0.20 0.31 0.17 0.03 0.00 0.01 0.00 0.00 0.01 0.01 0.01 0.02
0.40 0.41 0.49 0.31 0.11 0.08 0.06 0.02 0.03 0.02 0.01 0.01 0.04 0.09 0.10 0.05 0.07 0.07 0.10 0.22 0.30 0.40 0.61 0.60 0.51 0.34 0.18 0.15 0.10 0.12 0.05 0.31 0.34 0.31 0.11 0.08 0.03 0.00 0.00 0.00 0.00 0.00 0.00 0.00 0.01
0.41 0.37 0.27 0.20 0.12 0.11 0.09 0.07 0.04 0.01 0.01 0.01 0.03 0.15 0.10 0.09 0.07 0.02 0.03 0.21 0.23 0.12 0.37 0.62 0.77 0.44 0.20 0.10 0.08 0.08 0.04 0.09 0.14 0.08 0.01 0.01 0.01 0.00 0.00 0.00 0.00 0.00 0.00 0.00 0.00
0.58 0.33 0.25 0.14 0.12 0.11 0.11 0.06 0.01 0.01 0.01 0.03 0.13 0.25 0.33 0.13 0.06 0.05 0.04 0.03 0.03 0.03 0.26 0.55 0.65 0.25 0.07 0.04 0.12 0.08 0.04 0.01 0.00 0.00 0.00 0.00 0.00 0.00 0.00 0.00 0.00 0.00 0.00 0.00 0.00
0.53 0.26 0.27 0.20 0.12 0.08 0.07 0.02 0.00 0.00 0.00 0.02 0.05 0.05 0.11 0.13 0.13 0.07 0.04 0.07 0.12 0.09 0.08 0.08 0.31 0.10 0.01 0.02 0.02 0.02 0.01 0.00 0.00 0.00 0.00 0.00 0.00 0.00 0.00 0.00 0.00 0.00 0.00 0.00 0.00
0.64 0.47 0.40 0.27 0.17 0.16 0.11 0.01 0.00 0.00 0.00 0.00 0.01 0.01 0.06 0.15 0.04 0.02 0.02 0.01 0.03 0.06 0.01 0.00 0.05 0.07 0.03 0.05 0.02 0.00 0.00 0.00 0.00 0.00 0.00 0.00 0.00 0.00 0.00 0.00 0.00 0.00 0.00 0.00 0.00
0.69 0.44 0.36 0.18 0.20 0.15 0.03 0.00 0.00 0.00 0.00 0.00 0.00 0.01 0.01 0.01 0.00 0.01 0.01 0.01 0.02 0.01 0.01 0.00 0.00 0.05 0.04 0.00 0.01 0.01 0.01 0.00 0.00 0.01 0.00 0.00 0.00 0.00 0.00 0.00 0.00 0.00 0.00 0.00 0.00
0.60 0.60 0.53 0.17 0.14 0.06 0.01 0.00 0.00 0.00 0.00 0.00 0.00 0.00 0.01 0.01 0.01 0.01 0.00 0.00 0.00 0.00 0.01 0.00 0.01 0.03 0.08 0.03 0.00 0.00 0.00 0.00 0.00 0.00 0.01 0.00 0.00 0.00 0.00 0.00 0.00 0.00 0.00 0.00 0.00
0.41 0.46 0.51 0.27 0.10 0.01 0.01 0.01 0.02 0.00 0.00 0.00 0.00 0.00 0.00 0.00 0.00 0.00 0.00 0.00 0.00 0.00 0.00 0.00 0.00 0.01 0.02 0.01 0.00 0.00 0.00 0.00 0.01 0.01 0.00 0.00 0.00 0.00 0.00 0.00 0.00 0.00 0.00 0.00 0.00
0.22 0.15 0.12 0.13 0.06 0.00 0.00 0.01 0.01 0.00 0.00 0.00 0.00 0.00 0.00 0.00 0.00 0.00 0.00 0.00 0.00 0.00 0.00 0.00 0.00 0.00 0.00 0.00 0.00 0.00 0.00 0.00 0.00 0.00 0.01 0.00 0.00 0.00 0.00 0.00 0.00 0.00 0.00 0.00 0.00
0.20 0.11 0.08 0.01 0.00 0.00 0.00 0.01 0.01 0.00 0.00 0.00 0.00 0.00 0.00 0.00 0.00 0.00 0.00 0.00 0.01 0.00 0.00 0.00 0.00 0.00 0.00 0.00 0.00 0.00 0.00 0.00 0.00 0.00 0.00 0.00 0.00 0.00 0.00 0.00 0.00 0.00 0.00 0.00 0.00
0.16 0.07 0.01 0.00 0.00 0.00 0.00 0.01 0.01 0.00 0.00 0.00 0.00 0.00 0.00 0.00 0.00 0.00 0.00 0.00 0.00 0.00 0.00 0.00 0.00 0.00 0.00 0.00 0.00 0.00 0.00 0.00 0.00 0.00 0.00 0.00 0.00 0.00 0.00 0.00 0.00 0.00 0.00 0.00 0.00

GFSSW_prec_precacc24_084.txt.gz
Total_Precipitation_Accumulation
0.06 0.09 0.08 0.05 0.04 0.03 0.04 0.02 0.02 0.03 0.03 0.01 0.01 0.01 0.01 0.00 0.00 0.01 0.01 0.01 0.02 0.10 0.15 0.03 0.03 0.06 0.07 0.10 0.30 0.44 0.46 0.17 0.05 0.00 0.01 0.00 0.00 0.02 0.01 0.00 0.01 0.01 0.05 0.03 0.04
0.08 0.08 0.10 0.10 0.07 0.08 0.04 0.04 0.04 0.03 0.03 0.02 0.02 0.02 0.03 0.01 0.00 0.00 0.00 0.01 0.05 0.09 0.20 0.14 0.07 0.10 0.10 0.10 0.36 0.63 0.38 0.11 0.04 0.06 0.06 0.01 0.00 0.01 0.01 0.02 0.05 0.10 0.06 0.01 0.03
0.11 0.12 0.13 0.13 0.13 0.10 0.08 0.06 0.04 0.03 0.02 0.02 0.03 0.06 0.04 0.00 0.01 0.02 0.06 0.13 0.19 0.21 0.17 0.13 0.19 0.24 0.11 0.19 0.32 0.48 0.20 0.02 0.03 0.12 0.07 0.04 0.01 0.02 0.02 0.05 0.01 0.04 0.04 0.03 0.09
0.12 0.16 0.17 0.16 0.13 0.13 0.09 0.05 0.04 0.03 0.03 0.04 0.05 0.06 0.01 0.00 0.02 0.02 0.01 0.07 0.07 0.19 0.26 0.16 0.20 0.25 0.17 0.11 0.21 0.35 0.06 0.07 0.10 0.08 0.04 0.09 0.09 0.11 0.09 0.02 0.01 0.04 0.09 0.12 0.08
0.19 0.22 0.17 0.15 0.12 0.14 0.13 0.08 0.05 0.04 0.05 0.04 0.04 0.05 0.00 0.00 0.00 0.00 0.00 0.00 0.01 0.15 0.31 0.27 0.24 0.29 0.18 0.05 0.17 0.25 0.14 0.15 0.17 0.19 0.12 0.10 0.16 0.10 0.05 0.03 0.04 0.11 0.21 0.18 0.20
0.21 0.21 0.18 0.14 0.16 0.14 0.08 0.06 0.05 0.06 0.05 0.04 0.06 0.05 0.00 0.00 0.00 0.00 0.00 0.00 0.00 0.12 0.34 0.48 0.28 0.38 0.17 0.11 0.14 0.08 0.26 0.27 0.43 0.35 0.46 0.29 0.19 0.14 0.06 0.07 0.18 0.25 0.28 0.20 0.16
0.19 0.22 0.17 0.16 0.13 0.11 0.09 0.05 0.06 0.04 0.04 0.04 0.07 0.04 0.00 0.00 0.00 0.00 0.00 0.00 0.00 0.06 0.19 0.45 0.30 0.76 0.38 0.12 0.03 0.15 0.43 0.51 0.46 0.50 0.47 0.56 0.35 0.16 0.13 0.13 0.20 0.28 0.39 0.51 0.31
0.22 0.18 0.14 0.14 0.17 0.20 0.08 0.05 0.04 0.04 0.03 0.03 0.06 0.03 0.01 0.00 0.00 0.00 0.00 0.00 0.00 0.03 0.15 0.43 0.57 0.75 0.56 0.16 0.12 0.21 0.43 0.82 0.46 0.62 0.62 0.78 0.51 0.16 0.17 0.14 0.21 0.22 0.33 0.58 0.50
0.15 0.14 0.15 0.16 0.20 0.21 0.12 0.03 0.02 0.02 0.01 0.03 0.04 0.02 0.00 0.00 0.00 0.00 0.00 0.00 0.01 0.10 0.28 0.69 0.82 0.81 0.74 0.37 0.44 0.34 0.34 0.50 0.60 0.61 0.91 0.88 0.55 0.34 0.16 0.12 0.14 0.19 0.17 0.26 0.67
0.15 0.17 0.17 0.17 0.19 0.17 0.07 0.04 0.02 0.02 0.02 0.01 0.01 0.01 0.00 0.00 0.00 0.00 0.00 0.08 0.18 0.25 0.39 0.80 0.91 0.85 0.86 0.60 0.70 0.18 0.12 0.23 0.48 0.45 0.86 0.74 0.64 0.56 0.29 0.12 0.12 0.11 0.10 0.09 0.20
0.17 0.18 0.16 0.20 0.20 0.10 0.04 0.06 0.04 0.01 0.01 0.01 0.01 0.00 0.00 0.00 0.02 0.06 0.07 0.18 0.32 0.26 0.29 0.45 0.76 0.55 0.49 0.20 0.27 0.21 0.14 0.18 0.24 0.27 0.55 0.65 0.38 0.51 0.51 0.24 0.16 0.14 0.05 0.04 0.06
0.15 0.19 0.20 0.32 0.44 0.10 0.03 0.04 0.07 0.04 0.03 0.01 0.00 0.00 0.00 0.07 0.07 0.03 0.13 0.15 0.24 0.31 0.21 0.28 0.49 0.20 0.25 0.37 0.36 0.25 0.14 0.25 0.33 0.55 0.47 0.62 0.50 0.33 0.51 0.33 0.26 0.24 0.10 0.03 0.01
0.20 0.22 0.28 0.41 0.48 0.15 0.06 0.09 0.05 0.01 0.00 0.00 0.00 0.00 0.01 0.12 0.16 0.06 0.12 0.15 0.21 0.31 0.20 0.21 0.31 0.22 0.24 0.37 0.54 0.28 0.14 0.19 0.47 0.41 0.47 0.54 0.57 0.23 0.20 0.23 0.20 0.22 0.29 0.06 0.03
0.21 0.24 0.26 0.31 0.20 0.04 0.03 0.02 0.00 0.00 0.01 0.01 0.01 0.01 0.04 0.19 0.18 0.12 0.09 0.14 0.36 0.34 0.38 0.31 0.32 0.24 0.17 0.50 0.42 0.11 0.10 0.25 0.42 0.41 0.42 0.31 0.36 0.13 0.07 0.12 0.14 0.11 0.26 0.24 0.06
0.17 0.19 0.22 0.25 0.10 0.03 0.02 0.02 0.02 0.00 0.05 0.01 0.01 0.01 0.04 0.07 0.12 0.15 0.11 0.52 0.57 0.45 0.45 0.41 0.34 0.33 0.27 0.45 0.10 0.08 0.14 0.23 0.30 0.42 0.29 0.16 0.18 0.06 0.04 0.02 0.03 0.05 0.08 0.27 0.15
0.39 0.42 0.38 0.18 0.08 0.05 0.05 0.04 0.01 0.02 0.01 0.01 0.01 0.00 0.01 0.04 0.04 0.09 0.33 0.65 0.64 0.54 0.66 0.46 0.41 0.36 0.19 0.13 0.09 0.11 0.17 0.25 0.14 0.24 0.34 0.18 0.04 0.01 0.01 0.00 0.00 0.02 0.02 0.07 0.07
0.47 0.49 0.55 0.47 0.26 0.10 0.12 0.05 0.05 0.03 0.01 0.02 0.04 0.04 0.02 0.03 0.04 0.05 0.13 0.30 0.32 0.40 0.57 0.53 0.49 0.34 0.19 0.17 0.13 0.16 0.07 0.33 0.38 0.33 0.12 0.08 0.03 0.00 0.00 0.00 0.00 0.00 0.00 0.01 0.02
0.53 0.42 0.29 0.24 0.29 0.18 0.16 0.13 0.10 0.01 0.01 0.01 0.02 0.13 0.04 0.04 0.03 0.01 0.04 0.24 0.23 0.13 0.36 0.54 0.68 0.43 0.20 0.11 0.09 0.08 0.04 0.10 0.16 0.10 0.04 0.01 0.02 0.00 0.00 0.00 0.00 0.00 0.00 0.00 0.01
0.93 0.46 0.27 0.15 0.19 0.19 0.15 0.11 0.03 0.01 0.01 0.03 0.13 0.25 0.29 0.09 0.01 0.02 0.03 0.03 0.04 0.04 0.23 0.47 0.60 0.24 0.07 0.04 0.13 0.11 0.04 0.01 0.00 0.00 0.01 0.01 0.00 0.00 0.00 0.00 0.00 0.00 0.00 0.00 0.00
0.68 0.30 0.29 0.21 0.16 0.15 0.13 0.05 0.01 0.00 0.00 0.02 0.04 0.04 0.11 0.11 0.03 0.03 0.05 0.14 0.15 0.16 0.18 0.13 0.27 0.09 0.03 0.09 0.07 0.04 0.01 0.00 0.00 0.00 0.01 0.00 0.00 0.00 0.00 0.00 0.00 0.00 0.00 0.00 0.00
0.67 0.54 0.56 0.33 0.29 0.27 0.17 0.01 0.00 0.00 0.00 0.00 0.01 0.00 0.06 0.14 0.03 0.02 0.03 0.03 0.01 0.01 0.00 0.00 0.05 0.07 0.02 0.04 0.02 0.00 0.00 0.00 0.00 0.00 0.00 0.00 0.00 0.00 0.00 0.00 0.00 0.00 0.00 0.00 0.00
0.73 0.56 0.62 0.32 0.32 0.25 0.10 0.01 0.01 0.01 0.00 0.00 0.00 0.00 0.01 0.01 0.00 0.01 0.01 0.01 0.00 0.00 0.00 0.00 0.00 0.03 0.03 0.00 0.01 0.01 0.01 0.00 0.00 0.01 0.00 0.00 0.00 0.00 0.00 0.00 0.00 0.00 0.00 0.00 0.00
0.63 0.78 0.79 0.33 0.28 0.18 0.02 0.00 0.02 0.01 0.00 0.00 0.00 0.00 0.01 0.01 0.01 0.01 0.00 0.00 0.00 0.00 0.01 0.00 0.01 0.03 0.06 0.02 0.00 0.00 0.00 0.00 0.00 0.00 0.01 0.00 0.00 0.00 0.00 0.00 0.00 0.00 0.00 0.00 0.00
0.42 0.53 0.66 0.38 0.16 0.02 0.01 0.01 0.02 0.00 0.00 0.00 0.00 0.00 0.00 0.00 0.00 0.00 0.00 0.00 0.00 0.00 0.00 0.00 0.00 0.01 0.02 0.01 0.00 0.00 0.00 0.00 0.01 0.01 0.00 0.00 0.00 0.00 0.00 0.00 0.00 0.00 0.00 0.00 0.00
0.22 0.15 0.14 0.16 0.08 0.00 0.00 0.02 0.02 0.00 0.00 0.00 0.00 0.00 0.00 0.00 0.00 0.00 0.00 0.00 0.00 0.00 0.00 0.00 0.00 0.00 0.00 0.00 0.00 0.00 0.00 0.00 0.00 0.00 0.00 0.00 0.00 0.00 0.00 0.00 0.00 0.00 0.00 0.00 0.00
0.20 0.11 0.08 0.01 0.00 0.00 0.00 0.02 0.02 0.00 0.00 0.00 0.00 0.00 0.00 0.00 0.00 0.00 0.00 0.00 0.00 0.00 0.00 0.00 0.00 0.00 0.00 0.00 0.00 0.00 0.00 0.00 0.00 0.00 0.00 0.00 0.00 0.00 0.00 0.00 0.00 0.00 0.00 0.00 0.00
0.16 0.07 0.01 0.00 0.00 0.00 0.00 0.01 0.01 0.00 0.00 0.00 0.00 0.00 0.00 0.00 0.00 0.00 0.00 0.00 0.00 0.00 0.00 0.00 0.00 0.00 0.00 0.00 0.00 0.00 0.00 0.00 0.00 0.00 0.00 0.00 0.00 0.00 0.00 0.00 0.00 0.00 0.00 0.00 0.00

GFSSW_prec_precacc24_087.txt.gz
Total_Precipitation_Accumulation
0.06 0.08 0.08 0.09 0.09 0.09 0.06 0.02 0.02 0.03 0.03 0.01 0.01 0.01 0.01 0.00 0.00 0.00 0.00 0.00 0.01 0.04 0.10 0.02 0.02 0.04 0.05 0.05 0.22 0.41 0.41 0.15 0.04 0.00 0.01 0.00 0.00 0.02 0.01 0.00 0.01 0.01 0.05 0.02 0.04
0.09 0.09 0.10 0.12 0.11 0.13 0.10 0.07 0.05 0.03 0.03 0.03 0.02 0.02 0.03 0.00 0.00 0.00 0.00 0.00 0.05 0.06 0.15 0.10 0.07 0.08 0.09 0.05 0.25 0.52 0.31 0.09 0.04 0.06 0.06 0.01 0.00 0.01 0.01 0.02 0.05 0.10 0.06 0.01 0.08
0.12 0.12 0.13 0.12 0.14 0.12 0.12 0.10 0.06 0.03 0.02 0.02 0.03 0.06 0.04 0.00 0.00 0.01 0.01 0.06 0.17 0.18 0.12 0.08 0.14 0.19 0.10 0.11 0.21 0.39 0.18 0.02 0.02 0.12 0.07 0.04 0.01 0.02 0.02 0.05 0.01 0.04 0.04 0.03 0.13
0.12 0.16 0.16 0.15 0.12 0.12 0.13 0.14 0.05 0.03 0.03 0.04 0.05 0.06 0.01 0.00 0.01 0.02 0.00 0.06 0.07 0.14 0.15 0.11 0.14 0.19 0.16 0.08 0.11 0.24 0.06 0.06 0.08 0.07 0.04 0.09 0.09 0.11 0.09 0.02 0.01 0.04 0.09 0.12 0.08
0.19 0.22 0.18 0.16 0.12 0.13 0.16 0.17 0.10 0.05 0.05 0.04 0.04 0.05 0.00 0.00 0.00 0.00 0.00 0.00 0.00 0.09 0.20 0.19 0.16 0.23 0.18 0.04 0.11 0.12 0.09 0.14 0.16 0.19 0.12 0.10 0.16 0.10 0.05 0.03 0.04 0.11 0.21 0.18 0.20
0.21 0.21 0.19 0.15 0.16 0.15 0.10 0.10 0.07 0.06 0.05 0.04 0.06 0.05 0.00 0.00 0.00 0.00 0.00 0.00 0.00 0.09 0.26 0.37 0.20 0.31 0.16 0.11 0.11 0.04 0.10 0.23 0.41 0.33 0.45 0.29 0.19 0.14 0.06 0.07 0.18 0.25 0.28 0.20 0.16
0.19 0.22 0.18 0.16 0.13 0.14 0.20 0.13 0.07 0.05 0.04 0.04 0.07 0.04 0.00 0.00 0.00 0.00 0.00 0.00 0.00 0.02 0.14 0.31 0.19 0.66 0.37 0.12 0.03 0.13 0.25 0.35 0.42 0.46 0.46 0.55 0.33 0.15 0.13 0.13 0.20 0.28 0.39 0.51 0.31
0.21 0.17 0.14 0.14 0.16 0.22 0.19 0.11 0.04 0.06 0.05 0.04 0.06 0.02 0.01 0.00 0.00 0.00 0.00 0.00 0.00 0.01 0.11 0.26 0.28 0.56 0.55 0.16 0.12 0.18 0.35 0.46 0.40 0.59 0.61 0.75 0.50 0.16 0.17 0.14 0.21 0.22 0.33 0.58 0.50
0.14 0.14 0.15 0.16 0.20 0.26 0.29 0.16 0.03 0.02 0.02 0.03 0.04 0.02 0.00 0.00 0.00 0.00 0.00 0.00 0.00 0.08 0.20 0.40 0.46 0.60 0.73 0.38 0.44 0.33 0.33 0.39 0.52 0.59 0.87 0.87 0.54 0.33 0.15 0.12 0.14 0.19 0.17 0.26 0.67
0.14 0.16 0.17 0.16 0.19 0.25 0.14 0.08 0.09 0.03 0.03 0.01 0.01 0.01 0.00 0.00 0.00 0.00 0.00 0.04 0.15 0.18 0.25 0.47 0.45 0.70 0.84 0.61 0.70 0.19 0.15 0.24 0.46 0.43 0.82 0.72 0.64 0.56 0.29 0.12 0.12 0.11 0.10 0.09 0.20
0.16 0.17 0.16 0.19 0.34 0.21 0.10 0.07 0.08 0.05 0.02 0.01 0.01 0.00 0.00 0.00 0.01 0.05 0.06 0.13 0.23 0.18 0.15 0.26 0.31 0.50 0.49 0.21 0.27 0.22 0.15 0.19 0.25 0.27 0.56 0.62 0.36 0.50 0.53 0.27 0.18 0.16 0.06 0.04 0.06
0.15 0.19 0.20 0.32 0.62 0.41 0.08 0.09 0.07 0.06 0.04 0.01 0.00 0.00 0.00 0.06 0.05 0.02 0.09 0.10 0.11 0.15 0.15 0.19 0.25 0.17 0.24 0.37 0.37 0.27 0.20 0.26 0.33 0.56 0.50 0.63 0.49 0.33 0.55 0.38 0.28 0.26 0.12 0.06 0.02
0.19 0.21 0.27 0.41 0.54 0.38 0.15 0.11 0.07 0.01 0.00 0.00 0.00 0.00 0.01 0.08 0.12 0.05 0.06 0.11 0.07 0.17 0.17 0.18 0.21 0.19 0.22 0.37 0.58 0.33 0.24 0.22 0.49 0.46 0.50 0.59 0.59 0.25 0.22 0.24 0.23 0.22 0.30 0.08 0.03
0.21 0.23 0.26 0.31 0.31 0.13 0.31 0.04 0.03 0.00 0.01 0.01 0.00 0.01 0.02 0.14 0.14 0.04 0.05 0.10 0.17 0.30 0.37 0.30 0.30 0.20 0.16 0.51 0.51 0.27 0.21 0.28 0.43 0.47 0.48 0.35 0.39 0.14 0.08 0.15 0.16 0.11 0.26 0.24 0.07
0.20 0.20 0.22 0.25 0.14 0.13 0.13 0.04 0.03 0.02 0.05 0.01 0.00 0.00 0.02 0.05 0.05 0.07 0.10 0.50 0.56 0.46 0.46 0.40 0.32 0.24 0.27 0.47 0.16 0.19 0.21 0.27 0.34 0.47 0.36 0.22 0.29 0.10 0.08 0.05 0.04 0.05 0.08 0.30 0.26
0.46 0.49 0.40 0.19 0.08 0.07 0.05 0.04 0.01 0.05 0.03 0.01 0.01 0.00 0.01 0.03 0.02 0.08 0.31 0.67 0.66 0.53 0.54 0.41 0.35 0.23 0.16 0.12 0.11 0.21 0.32 0.46 0.31 0.32 0.42 0.22 0.13 0.06 0.05 0.02 0.00 0.02 0.03 0.17 0.44
0.56 0.58 0.58 0.48 0.27 0.11 0.13 0.07 0.09 0.07 0.02 0.02 0.01 0.00 0.01 0.03 0.03 0.03 0.16 0.33 0.33 0.34 0.38 0.39 0.36 0.23 0.18 0.27 0.17 0.20 0.16 0.43 0.47 0.44 0.17 0.08 0.13 0.03 0.00 0.00 0.00 0.00 0.00 0.05 0.28
0.62 0.47 0.30 0.25 0.30 0.22 0.19 0.21 0.16 0.04 0.02 0.01 0.01 0.04 0.02 0.02 0.01 0.02 0.07 0.26 0.23 0.12 0.27 0.43 0.61 0.41 0.20 0.12 0.11 0.11 0.07 0.18 0.24 0.14 0.07 0.05 0.09 0.02 0.00 0.00 0.00 0.00 0.01 0.01 0.19
1.07 0.52 0.28 0.16 0.21 0.25 0.22 0.23 0.11 0.03 0.01 0.03 0.12 0.18 0.06 0.00 0.01 0.01 0.03 0.04 0.04 0.04 0.24 0.44 0.58 0.23 0.06 0.04 0.14 0.12 0.07 0.01 0.04 0.01 0.03 0.04 0.02 0.01 0.01 0.00 0.00 0.01 0.00 0.00 0.11
0.76 0.33 0.31 0.22 0.19 0.26 0.26 0.16 0.03 0.00 0.00 0.01 0.04 0.04 0.05 0.02 0.01 0.01 0.04 0.15 0.19 0.19 0.18 0.13 0.26 0.12 0.11 0.14 0.11 0.07 0.02 0.01 0.01 0.02 0.02 0.00 0.00 0.01 0.01 0.02 0.01 0.01 0.00 0.00 0.00
0.68 0.57 0.64 0.36 0.36 0.38 0.29 0.07 0.01 0.00 0.00 0.00 0.01 0.00 0.03 0.03 0.00 0.01 0.02 0.05 0.05 0.02 0.00 0.00 0.07 0.08 0.05 0.06 0.02 0.00 0.00 0.00 0.00 0.00 0.01 0.00 0.00 0.00 0.00 0.01 0.01 0.00 0.01 0.02 0.02
0.73 0.68 0.78 0.36 0.38 0.31 0.16 0.02 0.01 0.01 0.00 0.00 0.00 0.00 0.01 0.01 0.00 0.01 0.00 0.00 0.00 0.00 0.00 0.00 0.02 0.02 0.01 0.00 0.01 0.01 0.00 0.00 0.00 0.00 0.00 0.00 0.00 0.00 0.00 0.00 0.00 0.00 0.01 0.01 0.01
0.64 0.86 0.87 0.37 0.30 0.24 0.04 0.02 0.07 0.02 0.00 0.00 0.00 0.00 0.01 0.01 0.00 0.01 0.00 0.00 0.00 0.00 0.00 0.00 0.01 0.03 0.04 0.01 0.00 0.00 0.00 0.00 0.00 0.00 0.00 0.00 0.00 0.00 0.00 0.00 0.00 0.00 0.00 0.00 0.00
0.43 0.54 0.68 0.40 0.18 0.03 0.01 0.05 0.03 0.00 0.00 0.00 0.00 0.00 0.00 0.00 0.00 0.00 0.00 0.00 0.00 0.00 0.00 0.00 0.00 0.01 0.01 0.01 0.00 0.00 0.00 0.00 0.01 0.00 0.00 0.00 0.00 0.00 0.00 0.00 0.00 0.00 0.00 0.00 0.00
0.22 0.16 0.14 0.16 0.08 0.00 0.00 0.02 0.02 0.00 0.00 0.00 0.00 0.00 0.00 0.00 0.00 0.00 0.00 0.00 0.00 0.00 0.00 0.00 0.00 0.00 0.00 0.00 0.00 0.00 0.00 0.00 0.00 0.00 0.00 0.00 0.00 0.00 0.00 0.00 0.00 0.00 0.00 0.00 0.00
0.20 0.11 0.08 0.01 0.00 0.00 0.00 0.02 0.02 0.00 0.00 0.00 0.00 0.00 0.00 0.00 0.00 0.00 0.00 0.00 0.00 0.00 0.00 0.00 0.00 0.00 0.00 0.00 0.00 0.00 0.00 0.00 0.00 0.00 0.00 0.00 0.00 0.00 0.00 0.00 0.00 0.00 0.00 0.00 0.00
0.16 0.07 0.01 0.00 0.00 0.00 0.00 0.01 0.01 0.00 0.00 0.00 0.00 0.00 0.00 0.00 0.00 0.00 0.00 0.00 0.00 0.00 0.00 0.00 0.00 0.00 0.00 0.00 0.00 0.00 0.00 0.00 0.00 0.00 0.00 0.00 0.00 0.00 0.00 0.00 0.00 0.00 0.00 0.00 0.00

GFSSW_prec_precacc24_090.txt.gz
Total_Precipitation_Accumulation
0.07 0.09 0.10 0.10 0.11 0.13 0.15 0.17 0.10 0.03 0.03 0.01 0.01 0.01 0.01 0.00 0.00 0.00 0.00 0.00 0.00 0.00 0.02 0.01 0.01 0.01 0.03 0.03 0.12 0.32 0.29 0.14 0.04 0.00 0.01 0.00 0.00 0.02 0.01 0.00 0.01 0.01 0.01 0.00 0.02
0.09 0.10 0.11 0.12 0.11 0.13 0.12 0.13 0.16 0.08 0.03 0.03 0.02 0.02 0.03 0.00 0.00 0.00 0.00 0.00 0.04 0.04 0.09 0.05 0.04 0.05 0.05 0.04 0.13 0.30 0.21 0.05 0.04 0.06 0.05 0.01 0.00 0.01 0.01 0.02 0.05 0.10 0.06 0.01 0.06
0.12 0.12 0.14 0.12 0.14 0.11 0.11 0.12 0.12 0.09 0.03 0.02 0.03 0.06 0.04 0.00 0.00 0.00 0.00 0.00 0.05 0.12 0.08 0.06 0.10 0.13 0.05 0.08 0.13 0.24 0.12 0.01 0.01 0.08 0.06 0.04 0.01 0.02 0.02 0.04 0.01 0.04 0.04 0.03 0.11
0.13 0.16 0.16 0.16 0.13 0.11 0.12 0.14 0.17 0.17 0.05 0.04 0.05 0.06 0.01 0.00 0.00 0.00 0.00 0.01 0.02 0.03 0.08 0.08 0.10 0.13 0.11 0.05 0.05 0.17 0.06 0.06 0.05 0.04 0.04 0.09 0.09 0.11 0.09 0.01 0.01 0.04 0.09 0.12 0.08
0.20 0.21 0.19 0.16 0.12 0.13 0.16 0.16 0.15 0.14 0.08 0.05 0.04 0.05 0.00 0.00 0.00 0.00 0.00 0.00 0.00 0.02 0.12 0.11 0.11 0.15 0.15 0.04 0.06 0.06 0.06 0.13 0.10 0.12 0.10 0.09 0.16 0.10 0.05 0.03 0.04 0.11 0.21 0.18 0.20
0.22 0.21 0.19 0.16 0.16 0.15 0.11 0.11 0.10 0.14 0.08 0.05 0.06 0.05 0.00 0.00 0.00 0.00 0.00 0.00 0.00 0.03 0.18 0.25 0.17 0.22 0.14 0.10 0.08 0.02 0.05 0.18 0.31 0.25 0.39 0.28 0.19 0.14 0.06 0.07 0.18 0.25 0.28 0.20 0.16
0.20 0.21 0.17 0.16 0.14 0.14 0.20 0.16 0.14 0.10 0.04 0.04 0.07 0.04 0.00 0.00 0.00 0.00 0.00 0.00 0.00 0.01 0.08 0.21 0.15 0.42 0.23 0.11 0.03 0.09 0.16 0.21 0.30 0.29 0.43 0.54 0.33 0.15 0.13 0.13 0.20 0.28 0.39 0.51 0.31
0.21 0.17 0.14 0.13 0.16 0.22 0.19 0.22 0.14 0.05 0.06 0.06 0.07 0.02 0.00 0.00 0.00 0.00 0.00 0.00 0.00 0.00 0.09 0.12 0.16 0.37 0.41 0.15 0.12 0.13 0.24 0.26 0.20 0.38 0.42 0.73 0.49 0.16 0.17 0.14 0.21 0.22 0.33 0.58 0.50
0.14 0.14 0.15 0.16 0.19 0.25 0.30 0.28 0.15 0.04 0.05 0.05 0.04 0.01 0.00 0.00 0.00 0.00 0.00 0.00 0.00 0.06 0.18 0.20 0.35 0.48 0.65 0.35 0.42 0.28 0.23 0.26 0.25 0.30 0.62 0.82 0.54 0.33 0.15 0.11 0.14 0.19 0.17 0.26 0.67
0.14 0.16 0.17 0.16 0.19 0.34 0.22 0.10 0.23 0.10 0.04 0.02 0.01 0.01 0.00 0.00 0.00 0.00 0.00 0.03 0.13 0.15 0.18 0.23 0.37 0.49 0.73 0.59 0.70 0.19 0.13 0.18 0.31 0.22 0.60 0.65 0.63 0.56 0.29 0.12 0.12 0.11 0.10 0.09 0.20
0.17 0.17 0.15 0.19 0.34 0.41 0.23 0.12 0.12 0.18 0.05 0.01 0.01 0.00 0.00 0.00 0.00 0.01 0.02 0.09 0.16 0.10 0.05 0.13 0.21 0.25 0.40 0.21 0.27 0.22 0.15 0.16 0.20 0.22 0.47 0.60 0.36 0.50 0.53 0.27 0.19 0.16 0.06 0.04 0.07
0.15 0.18 0.19 0.32 0.62 0.53 0.20 0.32 0.09 0.08 0.08 0.01 0.00 0.00 0.00 0.03 0.02 0.01 0.08 0.06 0.04 0.02 0.05 0.13 0.07 0.01 0.18 0.37 0.37 0.27 0.20 0.26 0.30 0.52 0.47 0.63 0.49 0.33 0.55 0.38 0.29 0.27 0.13 0.07 0.04
0.20 0.21 0.27 0.40 0.55 0.47 0.22 0.37 0.15 0.01 0.00 0.00 0.00 0.00 0.00 0.02 0.05 0.04 0.05 0.09 0.03 0.04 0.11 0.14 0.03 0.03 0.14 0.33 0.59 0.33 0.26 0.22 0.48 0.42 0.45 0.60 0.60 0.25 0.22 0.24 0.25 0.26 0.34 0.10 0.05
0.21 0.23 0.26 0.30 0.34 0.25 0.58 0.20 0.06 0.01 0.02 0.01 0.00 0.00 0.00 0.05 0.05 0.01 0.03 0.06 0.06 0.08 0.32 0.28 0.12 0.13 0.14 0.50 0.56 0.33 0.23 0.30 0.44 0.51 0.50 0.36 0.40 0.14 0.09 0.16 0.21 0.14 0.26 0.25 0.08
0.20 0.20 0.21 0.24 0.15 0.22 0.43 0.15 0.05 0.05 0.06 0.02 0.00 0.00 0.01 0.03 0.03 0.07 0.10 0.37 0.37 0.35 0.46 0.37 0.23 0.22 0.27 0.47 0.23 0.30 0.26 0.28 0.35 0.48 0.45 0.27 0.36 0.10 0.09 0.07 0.07 0.06 0.08 0.30 0.26
0.48 0.50 0.39 0.19 0.09 0.11 0.12 0.06 0.02 0.07 0.08 0.03 0.01 0.01 0.01 0.03 0.02 0.08 0.30 0.59 0.65 0.54 0.54 0.40 0.32 0.19 0.15 0.12 0.15 0.52 0.44 0.47 0.32 0.38 0.58 0.39 0.27 0.13 0.10 0.08 0.06 0.03 0.03 0.17 0.44
0.65 0.60 0.58 0.49 0.28 0.16 0.13 0.07 0.11 0.14 0.04 0.03 0.01 0.01 0.01 0.02 0.02 0.03 0.15 0.33 0.33 0.35 0.37 0.37 0.30 0.20 0.17 0.26 0.17 0.40 0.47 0.54 0.57 0.61 0.26 0.16 0.40 0.14 0.00 0.00 0.00 0.01 0.01 0.06 0.28
0.65 0.48 0.31 0.26 0.31 0.24 0.19 0.22 0.26 0.10 0.04 0.01 0.01 0.01 0.01 0.01 0.01 0.02 0.08 0.27 0.23 0.12 0.21 0.37 0.46 0.29 0.19 0.12 0.12 0.11 0.13 0.32 0.36 0.17 0.10 0.22 0.34 0.19 0.02 0.00 0.00 0.01 0.01 0.01 0.20
1.09 0.53 0.29 0.16 0.21 0.26 0.22 0.31 0.18 0.08 0.02 0.03 0.09 0.02 0.00 0.00 0.01 0.01 0.04 0.04 0.05 0.03 0.19 0.43 0.49 0.16 0.06 0.04 0.14 0.14 0.13 0.05 0.11 0.08 0.20 0.27 0.28 0.22 0.18 0.02 0.09 0.05 0.01 0.01 0.14
0.77 0.34 0.31 0.23 0.20 0.27 0.32 0.26 0.07 0.03 0.00 0.01 0.03 0.02 0.01 0.00 0.00 0.02 0.05 0.16 0.19 0.19 0.18 0.13 0.26 0.13 0.11 0.15 0.11 0.12 0.05 0.01 0.02 0.10 0.07 0.07 0.05 0.18 0.14 0.07 0.21 0.08 0.01 0.03 0.02
0.68 0.58 0.68 0.37 0.36 0.43 0.44 0.15 0.01 0.01 0.00 0.01 0.00 0.00 0.00 0.00 0.00 0.01 0.02 0.05 0.05 0.02 0.00 0.00 0.13 0.10 0.05 0.05 0.02 0.00 0.00 0.00 0.00 0.00 0.02 0.01 0.05 0.08 0.07 0.09 0.08 0.04 0.03 0.04 0.03
0.73 0.70 0.81 0.36 0.38 0.35 0.20 0.02 0.01 0.02 0.00 0.00 0.00 0.00 0.00 0.00 0.00 0.00 0.00 0.00 0.00 0.00 0.00 0.00 0.04 0.03 0.01 0.00 0.00 0.00 0.00 0.00 0.00 0.00 0.00 0.00 0.02 0.01 0.03 0.02 0.03 0.08 0.08 0.07 0.12
0.64 0.89 0.88 0.37 0.30 0.24 0.04 0.04 0.07 0.02 0.00 0.00 0.00 0.00 0.01 0.00 0.00 0.00 0.00 0.00 0.00 0.00 0.00 0.00 0.00 0.02 0.02 0.01 0.00 0.00 0.00 0.00 0.00 0.00 0.00 0.00 0.00 0.00 0.01 0.00 0.01 0.04 0.04 0.04 0.06
0.43 0.55 0.68 0.40 0.18 0.03 0.01 0.05 0.03 0.00 0.00 0.00 0.00 0.00 0.00 0.00 0.00 0.00 0.00 0.00 0.00 0.00 0.00 0.00 0.00 0.00 0.00 0.00 0.00 0.00 0.00 0.00 0.00 0.00 0.00 0.00 0.00 0.00 0.00 0.00 0.00 0.00 0.00 0.00 0.00
0.22 0.16 0.14 0.16 0.08 0.00 0.00 0.02 0.02 0.00 0.00 0.00 0.00 0.00 0.00 0.00 0.00 0.00 0.00 0.00 0.00 0.00 0.00 0.00 0.00 0.00 0.00 0.00 0.00 0.00 0.00 0.00 0.00 0.00 0.00 0.00 0.00 0.00 0.00 0.00 0.00 0.00 0.00 0.00 0.00
0.20 0.11 0.08 0.01 0.00 0.00 0.00 0.02 0.01 0.00 0.00 0.00 0.00 0.00 0.00 0.00 0.00 0.00 0.00 0.00 0.00 0.00 0.00 0.00 0.00 0.00 0.00 0.00 0.00 0.00 0.00 0.00 0.00 0.00 0.00 0.00 0.00 0.00 0.00 0.00 0.00 0.00 0.00 0.00 0.00
0.16 0.07 0.01 0.00 0.00 0.00 0.00 0.01 0.01 0.00 0.00 0.00 0.00 0.00 0.00 0.00 0.00 0.00 0.00 0.00 0.00 0.00 0.00 0.00 0.00 0.00 0.00 0.00 0.00 0.00 0.00 0.00 0.00 0.00 0.00 0.00 0.00 0.00 0.00 0.00 0.00 0.00 0.00 0.00 0.00

GFSSW_prec_precacc24_093.txt.gz
Total_Precipitation_Accumulation
0.07 0.10 0.10 0.10 0.10 0.12 0.15 0.19 0.31 0.26 0.05 0.01 0.01 0.01 0.01 0.00 0.00 0.00 0.00 0.00 0.00 0.00 0.00 0.00 0.00 0.01 0.02 0.02 0.07 0.21 0.19 0.13 0.04 0.00 0.00 0.00 0.00 0.02 0.01 0.00 0.01 0.01 0.00 0.00 0.02
0.10 0.10 0.11 0.12 0.11 0.12 0.11 0.13 0.17 0.27 0.20 0.06 0.02 0.02 0.03 0.00 0.00 0.00 0.00 0.00 0.00 0.00 0.03 0.02 0.01 0.02 0.03 0.03 0.08 0.20 0.15 0.03 0.04 0.02 0.00 0.00 0.00 0.01 0.01 0.02 0.05 0.10 0.06 0.02 0.06
0.12 0.12 0.13 0.12 0.14 0.11 0.11 0.10 0.12 0.16 0.19 0.04 0.03 0.06 0.04 0.00 0.00 0.00 0.00 0.00 0.00 0.01 0.01 0.02 0.04 0.08 0.03 0.06 0.08 0.17 0.10 0.01 0.01 0.03 0.04 0.04 0.01 0.02 0.02 0.04 0.01 0.04 0.04 0.03 0.11
0.13 0.16 0.16 0.15 0.13 0.12 0.12 0.14 0.16 0.23 0.29 0.15 0.05 0.06 0.01 0.00 0.00 0.00 0.00 0.01 0.01 0.00 0.01 0.02 0.05 0.08 0.07 0.03 0.03 0.10 0.04 0.05 0.02 0.02 0.02 0.09 0.09 0.11 0.07 0.01 0.01 0.04 0.09 0.11 0.07
0.19 0.21 0.18 0.16 0.12 0.14 0.16 0.17 0.15 0.13 0.12 0.11 0.07 0.05 0.00 0.00 0.00 0.00 0.00 0.00 0.00 0.00 0.01 0.04 0.05 0.08 0.11 0.03 0.05 0.03 0.05 0.09 0.08 0.09 0.07 0.08 0.15 0.10 0.05 0.03 0.04 0.11 0.21 0.17 0.18
0.21 0.21 0.19 0.15 0.16 0.15 0.12 0.11 0.11 0.16 0.15 0.08 0.08 0.05 0.00 0.00 0.00 0.00 0.00 0.00 0.00 0.00 0.00 0.11 0.12 0.15 0.11 0.08 0.06 0.02 0.01 0.10 0.21 0.19 0.21 0.20 0.17 0.13 0.06 0.07 0.18 0.25 0.28 0.20 0.16
0.21 0.22 0.17 0.15 0.13 0.14 0.20 0.16 0.15 0.15 0.17 0.12 0.11 0.04 0.00 0.00 0.00 0.00 0.00 0.00 0.00 0.00 0.01 0.12 0.11 0.32 0.17 0.10 0.03 0.06 0.08 0.10 0.17 0.19 0.30 0.30 0.27 0.15 0.12 0.13 0.20 0.28 0.39 0.51 0.31
0.23 0.18 0.14 0.13 0.16 0.21 0.18 0.22 0.16 0.09 0.11 0.08 0.09 0.02 0.00 0.00 0.00 0.00 0.00 0.00 0.00 0.00 0.05 0.09 0.11 0.29 0.28 0.14 0.11 0.10 0.14 0.16 0.13 0.24 0.25 0.54 0.36 0.15 0.16 0.14 0.21 0.22 0.33 0.58 0.50
0.15 0.14 0.15 0.16 0.19 0.25 0.31 0.32 0.28 0.09 0.09 0.08 0.06 0.03 0.00 0.00 0.00 0.00 0.00 0.00 0.00 0.03 0.14 0.15 0.23 0.37 0.48 0.33 0.38 0.23 0.17 0.19 0.19 0.25 0.46 0.58 0.43 0.32 0.15 0.11 0.14 0.19 0.17 0.26 0.67
0.16 0.16 0.16 0.16 0.19 0.40 0.41 0.16 0.44 0.31 0.08 0.04 0.03 0.02 0.00 0.00 0.00 0.00 0.00 0.02 0.09 0.10 0.14 0.16 0.27 0.45 0.49 0.51 0.62 0.17 0.10 0.13 0.28 0.21 0.54 0.40 0.50 0.55 0.29 0.12 0.12 0.11 0.10 0.09 0.20
0.19 0.17 0.16 0.18 0.34 0.56 0.58 0.17 0.15 0.47 0.21 0.02 0.02 0.00 0.00 0.00 0.00 0.00 0.01 0.05 0.11 0.07 0.04 0.06 0.16 0.22 0.27 0.17 0.27 0.22 0.15 0.15 0.20 0.21 0.34 0.40 0.26 0.49 0.52 0.27 0.19 0.16 0.06 0.04 0.07
0.16 0.19 0.19 0.32 0.62 0.63 0.39 0.52 0.12 0.24 0.34 0.09 0.00 0.00 0.00 0.00 0.01 0.00 0.02 0.03 0.02 0.01 0.02 0.05 0.05 0.01 0.14 0.36 0.36 0.27 0.20 0.26 0.28 0.50 0.42 0.43 0.32 0.31 0.54 0.38 0.29 0.27 0.14 0.07 0.05
0.21 0.22 0.28 0.40 0.55 0.50 0.31 0.55 0.23 0.04 0.18 0.11 0.01 0.00 0.00 0.02 0.04 0.01 0.02 0.05 0.01 0.01 0.03 0.06 0.02 0.01 0.07 0.31 0.57 0.33 0.28 0.23 0.47 0.39 0.39 0.52 0.47 0.21 0.22 0.24 0.25 0.27 0.38 0.16 0.09
0.21 0.23 0.26 0.30 0.34 0.29 0.69 0.35 0.21 0.01 0.04 0.04 0.01 0.00 0.00 0.02 0.02 0.00 0.01 0.03 0.06 0.05 0.11 0.20 0.09 0.02 0.09 0.48 0.57 0.34 0.23 0.32 0.47 0.47 0.44 0.28 0.35 0.14 0.09 0.16 0.21 0.14 0.33 0.32 0.15
0.20 0.20 0.21 0.24 0.15 0.24 0.49 0.26 0.11 0.05 0.07 0.04 0.00 0.00 0.01 0.02 0.02 0.07 0.06 0.14 0.16 0.31 0.40 0.35 0.09 0.06 0.23 0.47 0.23 0.30 0.26 0.30 0.37 0.43 0.45 0.27 0.38 0.10 0.09 0.08 0.07 0.06 0.11 0.36 0.33
0.52 0.51 0.39 0.19 0.09 0.13 0.21 0.11 0.04 0.08 0.12 0.05 0.01 0.01 0.01 0.02 0.02 0.08 0.24 0.44 0.50 0.52 0.53 0.32 0.12 0.10 0.09 0.09 0.16 0.65 0.59 0.51 0.31 0.39 0.64 0.41 0.28 0.13 0.10 0.08 0.07 0.07 0.08 0.21 0.47
0.72 0.61 0.58 0.49 0.28 0.16 0.14 0.09 0.11 0.16 0.07 0.04 0.01 0.01 0.01 0.01 0.02 0.02 0.14 0.32 0.33 0.34 0.35 0.29 0.27 0.19 0.16 0.26 0.17 0.45 0.59 0.70 0.65 0.68 0.36 0.24 0.52 0.25 0.00 0.00 0.02 0.10 0.03 0.08 0.29
0.66 0.48 0.31 0.26 0.31 0.24 0.19 0.23 0.30 0.19 0.05 0.01 0.00 0.00 0.01 0.01 0.01 0.02 0.08 0.27 0.23 0.12 0.21 0.33 0.43 0.29 0.19 0.12 0.12 0.11 0.22 0.49 0.51 0.35 0.26 0.42 0.58 0.28 0.03 0.01 0.03 0.09 0.03 0.02 0.20
1.09 0.53 0.29 0.16 0.21 0.26 0.22 0.31 0.25 0.12 0.02 0.01 0.03 0.00 0.00 0.00 0.01 0.01 0.04 0.04 0.05 0.03 0.17 0.40 0.46 0.14 0.06 0.04 0.14 0.14 0.16 0.11 0.23 0.22 0.37 0.42 0.46 0.49 0.27 0.03 0.11 0.09 0.01 0.01 0.15
0.77 0.34 0.32 0.23 0.20 0.27 0.32 0.29 0.14 0.04 0.00 0.01 0.03 0.01 0.00 0.00 0.00 0.02 0.06 0.16 0.19 0.19 0.17 0.13 0.19 0.08 0.11 0.15 0.11 0.13 0.05 0.01 0.05 0.18 0.19 0.14 0.10 0.43 0.38 0.38 0.37 0.19 0.05 0.05 0.10
0.68 0.58 0.69 0.37 0.36 0.43 0.45 0.17 0.01 0.01 0.00 0.01 0.00 0.00 0.00 0.00 0.00 0.01 0.02 0.05 0.05 0.02 0.00 0.00 0.20 0.11 0.05 0.05 0.02 0.00 0.00 0.00 0.00 0.00 0.04 0.02 0.13 0.28 0.31 0.37 0.28 0.14 0.13 0.09 0.07
0.73 0.70 0.82 0.36 0.38 0.35 0.20 0.02 0.01 0.02 0.00 0.00 0.00 0.00 0.00 0.00 0.00 0.00 0.00 0.00 0.00 0.00 0.00 0.00 0.04 0.03 0.01 0.00 0.00 0.00 0.00 0.00 0.00 0.00 0.00 0.00 0.08 0.15 0.14 0.14 0.16 0.16 0.19 0.16 0.19
0.64 0.89 0.88 0.37 0.31 0.24 0.04 0.04 0.07 0.02 0.00 0.00 0.00 0.00 0.00 0.00 0.00 0.00 0.00 0.00 0.00 0.00 0.00 0.00 0.00 0.02 0.01 0.01 0.00 0.00 0.00 0.00 0.00 0.00 0.00 0.00 0.00 0.01 0.05 0.05 0.09 0.15 0.14 0.15 0.17
0.43 0.55 0.67 0.39 0.18 0.03 0.01 0.05 0.03 0.00 0.00 0.00 0.00 0.00 0.00 0.00 0.00 0.00 0.00 0.00 0.00 0.00 0.00 0.00 0.00 0.00 0.00 0.00 0.00 0.00 0.00 0.00 0.00 0.00 0.00 0.00 0.00 0.00 0.00 0.00 0.00 0.00 0.00 0.00 0.00
0.22 0.16 0.14 0.16 0.08 0.00 0.00 0.02 0.02 0.00 0.00 0.00 0.00 0.00 0.00 0.00 0.00 0.00 0.00 0.00 0.00 0.00 0.00 0.00 0.00 0.00 0.00 0.00 0.00 0.00 0.00 0.00 0.00 0.00 0.00 0.00 0.00 0.00 0.00 0.00 0.00 0.00 0.00 0.00 0.00
0.20 0.11 0.08 0.01 0.00 0.00 0.00 0.02 0.01 0.00 0.00 0.00 0.00 0.00 0.00 0.00 0.00 0.00 0.00 0.00 0.00 0.00 0.00 0.00 0.00 0.00 0.00 0.00 0.00 0.00 0.00 0.00 0.00 0.00 0.00 0.00 0.00 0.00 0.00 0.00 0.00 0.00 0.00 0.00 0.00
0.16 0.07 0.01 0.00 0.00 0.00 0.00 0.01 0.01 0.00 0.00 0.00 0.00 0.00 0.00 0.00 0.00 0.00 0.00 0.00 0.00 0.00 0.00 0.00 0.00 0.00 0.00 0.00 0.00 0.00 0.00 0.00 0.00 0.00 0.00 0.00 0.00 0.00 0.00 0.00 0.00 0.00 0.00 0.00 0.00

GFSSW_prec_precacc24_096.txt.gz
Total_Precipitation_Accumulation
0.08 0.10 0.10 0.09 0.11 0.12 0.15 0.19 0.31 0.31 0.16 0.03 0.01 0.01 0.01 0.00 0.00 0.00 0.00 0.00 0.00 0.00 0.00 0.00 0.00 0.00 0.01 0.02 0.05 0.09 0.11 0.13 0.04 0.00 0.00 0.00 0.00 0.02 0.01 0.00 0.01 0.01 0.00 0.00 0.04
0.10 0.10 0.11 0.12 0.11 0.12 0.11 0.12 0.16 0.27 0.31 0.14 0.03 0.02 0.03 0.00 0.00 0.00 0.00 0.00 0.00 0.00 0.00 0.00 0.00 0.00 0.01 0.01 0.04 0.10 0.07 0.03 0.04 0.00 0.00 0.00 0.00 0.01 0.01 0.02 0.04 0.10 0.06 0.02 0.09
0.13 0.13 0.13 0.13 0.14 0.11 0.11 0.10 0.12 0.15 0.26 0.23 0.07 0.06 0.04 0.00 0.00 0.00 0.00 0.00 0.00 0.00 0.00 0.00 0.00 0.00 0.01 0.02 0.04 0.06 0.04 0.00 0.00 0.00 0.02 0.02 0.01 0.02 0.02 0.04 0.01 0.04 0.04 0.03 0.11
0.15 0.17 0.16 0.15 0.13 0.12 0.12 0.14 0.16 0.23 0.29 0.27 0.14 0.06 0.01 0.00 0.00 0.00 0.00 0.01 0.01 0.00 0.00 0.00 0.00 0.01 0.02 0.01 0.02 0.05 0.00 0.03 0.02 0.02 0.02 0.05 0.07 0.10 0.07 0.01 0.01 0.04 0.09 0.07 0.06
0.21 0.23 0.20 0.16 0.12 0.14 0.16 0.16 0.15 0.13 0.14 0.16 0.18 0.07 0.00 0.00 0.00 0.00 0.00 0.00 0.00 0.00 0.00 0.00 0.00 0.01 0.04 0.02 0.01 0.02 0.00 0.03 0.06 0.08 0.06 0.06 0.12 0.08 0.04 0.03 0.04 0.11 0.21 0.11 0.14
0.23 0.24 0.20 0.15 0.16 0.15 0.11 0.11 0.11 0.16 0.17 0.15 0.10 0.10 0.00 0.00 0.00 0.00 0.00 0.00 0.00 0.00 0.00 0.00 0.01 0.01 0.02 0.03 0.03 0.01 0.00 0.03 0.12 0.16 0.16 0.13 0.14 0.12 0.05 0.07 0.18 0.25 0.28 0.19 0.13
0.24 0.25 0.19 0.15 0.13 0.14 0.19 0.16 0.14 0.15 0.22 0.22 0.13 0.04 0.00 0.00 0.00 0.00 0.00 0.00 0.00 0.00 0.00 0.00 0.01 0.08 0.07 0.07 0.02 0.04 0.05 0.03 0.07 0.13 0.21 0.20 0.17 0.13 0.11 0.12 0.20 0.28 0.39 0.51 0.23
0.33 0.21 0.14 0.13 0.16 0.21 0.18 0.22 0.16 0.09 0.16 0.17 0.12 0.05 0.00 0.00 0.00 0.00 0.00 0.00 0.00 0.00 0.02 0.01 0.05 0.17 0.16 0.13 0.09 0.07 0.11 0.07 0.03 0.11 0.19 0.33 0.22 0.12 0.15 0.13 0.20 0.22 0.33 0.58 0.50
0.21 0.21 0.17 0.15 0.19 0.25 0.32 0.32 0.28 0.14 0.20 0.13 0.10 0.06 0.00 0.00 0.00 0.00 0.00 0.00 0.00 0.01 0.08 0.11 0.17 0.27 0.35 0.32 0.35 0.18 0.15 0.07 0.06 0.09 0.23 0.37 0.28 0.28 0.13 0.11 0.13 0.19 0.17 0.26 0.67
0.16 0.18 0.18 0.15 0.19 0.42 0.61 0.37 0.63 0.47 0.17 0.09 0.04 0.08 0.02 0.00 0.00 0.00 0.00 0.00 0.03 0.05 0.10 0.14 0.17 0.34 0.36 0.50 0.58 0.16 0.09 0.09 0.09 0.12 0.31 0.31 0.29 0.41 0.28 0.12 0.12 0.11 0.10 0.09 0.20
0.17 0.17 0.16 0.18 0.34 0.65 0.88 0.47 0.26 0.56 0.31 0.07 0.07 0.00 0.01 0.00 0.00 0.00 0.00 0.01 0.05 0.04 0.03 0.05 0.11 0.17 0.19 0.16 0.27 0.21 0.15 0.14 0.11 0.17 0.23 0.29 0.17 0.37 0.51 0.27 0.19 0.16 0.06 0.04 0.07
0.14 0.20 0.19 0.32 0.62 0.81 0.55 0.89 0.35 0.52 0.57 0.12 0.03 0.00 0.00 0.00 0.01 0.00 0.00 0.00 0.01 0.01 0.02 0.04 0.04 0.01 0.12 0.32 0.35 0.26 0.19 0.22 0.23 0.44 0.36 0.34 0.28 0.23 0.47 0.38 0.29 0.27 0.14 0.07 0.05
0.19 0.22 0.28 0.40 0.57 0.79 0.39 0.83 0.44 0.34 0.35 0.21 0.02 0.00 0.00 0.00 0.01 0.00 0.00 0.01 0.00 0.01 0.01 0.04 0.01 0.01 0.06 0.25 0.54 0.31 0.27 0.20 0.38 0.38 0.38 0.52 0.44 0.19 0.20 0.24 0.25 0.27 0.38 0.16 0.10
0.20 0.23 0.26 0.30 0.35 0.34 0.75 0.54 0.36 0.14 0.13 0.18 0.02 0.00 0.00 0.01 0.01 0.00 0.00 0.01 0.05 0.02 0.02 0.10 0.05 0.01 0.05 0.40 0.54 0.34 0.23 0.32 0.41 0.48 0.39 0.27 0.33 0.13 0.09 0.16 0.21 0.14 0.33 0.33 0.18
0.19 0.20 0.21 0.24 0.16 0.24 0.51 0.36 0.15 0.07 0.11 0.13 0.02 0.00 0.00 0.01 0.02 0.06 0.04 0.07 0.08 0.14 0.29 0.25 0.06 0.05 0.20 0.42 0.22 0.30 0.26 0.31 0.40 0.35 0.37 0.23 0.38 0.10 0.09 0.08 0.07 0.06 0.11 0.37 0.36
0.51 0.51 0.39 0.19 0.09 0.13 0.21 0.13 0.05 0.08 0.15 0.07 0.02 0.01 0.01 0.02 0.02 0.07 0.12 0.28 0.42 0.46 0.51 0.27 0.06 0.04 0.06 0.08 0.16 0.64 0.57 0.47 0.32 0.40 0.56 0.39 0.28 0.13 0.10 0.10 0.08 0.07 0.10 0.25 0.51
0.72 0.61 0.58 0.49 0.28 0.16 0.14 0.09 0.11 0.16 0.10 0.04 0.02 0.01 0.01 0.01 0.01 0.02 0.13 0.32 0.32 0.32 0.30 0.11 0.10 0.09 0.13 0.25 0.16 0.43 0.61 0.67 0.55 0.67 0.38 0.27 0.52 0.25 0.00 0.03 0.05 0.12 0.04 0.14 0.35
0.65 0.48 0.31 0.26 0.31 0.24 0.20 0.23 0.32 0.22 0.06 0.01 0.00 0.00 0.01 0.01 0.02 0.02 0.08 0.27 0.23 0.12 0.12 0.19 0.26 0.12 0.16 0.12 0.10 0.09 0.31 0.64 0.56 0.44 0.33 0.50 0.68 0.33 0.04 0.02 0.07 0.14 0.04 0.03 0.23
1.09 0.53 0.29 0.16 0.21 0.26 0.22 0.32 0.26 0.13 0.02 0.00 0.00 0.01 0.00 0.00 0.01 0.01 0.04 0.04 0.05 0.03 0.16 0.40 0.43 0.14 0.05 0.04 0.13 0.14 0.18 0.16 0.29 0.31 0.41 0.47 0.53 0.53 0.27 0.04 0.13 0.14 0.04 0.05 0.16
0.77 0.34 0.32 0.23 0.20 0.27 0.32 0.30 0.15 0.04 0.00 0.00 0.00 0.00 0.00 0.00 0.00 0.02 0.06 0.16 0.19 0.19 0.17 0.13 0.19 0.08 0.11 0.15 0.11 0.12 0.05 0.01 0.06 0.22 0.28 0.22 0.15 0.53 0.48 0.48 0.41 0.23 0.08 0.08 0.15
0.67 0.58 0.69 0.37 0.36 0.42 0.45 0.17 0.01 0.01 0.00 0.00 0.00 0.00 0.00 0.00 0.00 0.01 0.02 0.05 0.05 0.02 0.00 0.00 0.20 0.11 0.05 0.05 0.02 0.00 0.00 0.00 0.00 0.00 0.05 0.04 0.25 0.50 0.49 0.56 0.47 0.33 0.35 0.30 0.35
0.73 0.69 0.81 0.36 0.38 0.34 0.19 0.02 0.01 0.02 0.00 0.00 0.00 0.00 0.00 0.00 0.00 0.00 0.00 0.00 0.00 0.00 0.00 0.00 0.04 0.03 0.01 0.00 0.00 0.00 0.00 0.00 0.00 0.00 0.00 0.01 0.15 0.32 0.34 0.38 0.41 0.33 0.38 0.37 0.40
0.63 0.88 0.87 0.37 0.30 0.24 0.04 0.04 0.07 0.02 0.00 0.00 0.00 0.00 0.00 0.00 0.00 0.00 0.00 0.00 0.00 0.00 0.00 0.00 0.00 0.02 0.01 0.01 0.00 0.00 0.00 0.00 0.00 0.00 0.00 0.00 0.01 0.03 0.08 0.12 0.20 0.23 0.21 0.25 0.29
0.42 0.54 0.65 0.38 0.18 0.03 0.01 0.05 0.03 0.00 0.00 0.00 0.00 0.00 0.00 0.00 0.00 0.00 0.00 0.00 0.00 0.00 0.00 0.00 0.00 0.00 0.00 0.00 0.00 0.00 0.00 0.00 0.00 0.00 0.00 0.00 0.00 0.00 0.00 0.00 0.00 0.01 0.03 0.03 0.01
0.21 0.16 0.14 0.16 0.08 0.00 0.00 0.02 0.02 0.00 0.00 0.00 0.00 0.00 0.00 0.00 0.00 0.00 0.00 0.00 0.00 0.00 0.00 0.00 0.00 0.00 0.00 0.00 0.00 0.00 0.00 0.00 0.00 0.00 0.00 0.00 0.00 0.00 0.00 0.00 0.00 0.00 0.00 0.00 0.00
0.18 0.11 0.08 0.01 0.00 0.00 0.00 0.02 0.01 0.00 0.00 0.00 0.00 0.00 0.00 0.00 0.00 0.00 0.00 0.00 0.00 0.00 0.00 0.00 0.00 0.00 0.00 0.00 0.00 0.00 0.00 0.00 0.00 0.00 0.00 0.00 0.00 0.00 0.00 0.00 0.00 0.00 0.00 0.00 0.00
0.16 0.07 0.01 0.00 0.00 0.00 0.00 0.01 0.01 0.00 0.00 0.00 0.00 0.00 0.00 0.00 0.00 0.00 0.00 0.00 0.00 0.00 0.00 0.00 0.00 0.00 0.00 0.00 0.00 0.00 0.00 0.00 0.00 0.00 0.00 0.00 0.00 0.00 0.00 0.00 0.00 0.00 0.00 0.00 0.00

GFSSW_prec_precacc24_099.txt.gz
Total_Precipitation_Accumulation
0.08 0.11 0.10 0.09 0.11 0.13 0.15 0.19 0.31 0.31 0.19 0.14 0.03 0.01 0.01 0.00 0.00 0.00 0.00 0.00 0.00 0.00 0.00 0.00 0.00 0.00 0.00 0.01 0.03 0.05 0.04 0.01 0.00 0.00 0.00 0.00 0.00 0.02 0.01 0.00 0.00 0.00 0.00 0.00 0.04
0.11 0.11 0.11 0.13 0.14 0.13 0.11 0.12 0.16 0.26 0.30 0.30 0.20 0.06 0.03 0.00 0.00 0.00 0.00 0.00 0.00 0.00 0.00 0.00 0.00 0.00 0.00 0.00 0.02 0.05 0.01 0.00 0.00 0.00 0.00 0.00 0.00 0.01 0.01 0.02 0.02 0.07 0.05 0.02 0.09
0.16 0.16 0.14 0.12 0.16 0.13 0.10 0.09 0.11 0.15 0.25 0.26 0.28 0.11 0.04 0.00 0.00 0.00 0.00 0.00 0.00 0.00 0.00 0.00 0.00 0.00 0.00 0.00 0.01 0.02 0.01 0.00 0.00 0.00 0.01 0.02 0.01 0.02 0.02 0.04 0.01 0.01 0.02 0.03 0.11
0.16 0.20 0.18 0.15 0.13 0.13 0.13 0.13 0.16 0.22 0.29 0.29 0.28 0.15 0.02 0.00 0.00 0.00 0.00 0.01 0.01 0.00 0.00 0.00 0.00 0.00 0.00 0.00 0.00 0.01 0.00 0.00 0.01 0.01 0.00 0.03 0.05 0.09 0.07 0.01 0.01 0.03 0.08 0.07 0.06
0.21 0.27 0.27 0.17 0.12 0.14 0.16 0.16 0.15 0.12 0.14 0.28 0.36 0.15 0.00 0.00 0.00 0.00 0.00 0.00 0.00 0.00 0.00 0.00 0.00 0.00 0.00 0.00 0.00 0.01 0.00 0.00 0.01 0.03 0.03 0.04 0.07 0.04 0.02 0.03 0.04 0.10 0.20 0.09 0.14
0.20 0.26 0.24 0.19 0.17 0.15 0.11 0.11 0.11 0.16 0.17 0.23 0.28 0.19 0.02 0.00 0.00 0.00 0.00 0.00 0.00 0.00 0.00 0.00 0.00 0.00 0.00 0.00 0.01 0.00 0.00 0.00 0.02 0.05 0.08 0.10 0.07 0.06 0.03 0.06 0.13 0.21 0.19 0.12 0.11
0.15 0.20 0.19 0.14 0.13 0.14 0.19 0.16 0.15 0.15 0.22 0.31 0.24 0.07 0.02 0.00 0.00 0.00 0.00 0.00 0.00 0.00 0.00 0.00 0.00 0.01 0.02 0.01 0.00 0.00 0.02 0.01 0.01 0.04 0.08 0.15 0.10 0.10 0.07 0.08 0.15 0.23 0.29 0.38 0.15
0.20 0.16 0.11 0.13 0.16 0.21 0.18 0.22 0.16 0.09 0.17 0.40 0.25 0.06 0.02 0.00 0.00 0.00 0.00 0.00 0.00 0.00 0.00 0.00 0.03 0.04 0.04 0.03 0.03 0.04 0.06 0.05 0.00 0.03 0.09 0.26 0.15 0.06 0.12 0.09 0.15 0.21 0.32 0.53 0.42
0.12 0.20 0.14 0.16 0.19 0.25 0.32 0.32 0.29 0.14 0.26 0.39 0.29 0.13 0.01 0.00 0.00 0.00 0.00 0.00 0.00 0.00 0.04 0.08 0.11 0.13 0.15 0.18 0.25 0.12 0.11 0.07 0.02 0.01 0.13 0.31 0.20 0.07 0.09 0.09 0.10 0.17 0.16 0.26 0.62
0.09 0.14 0.17 0.15 0.19 0.44 0.68 0.43 0.66 0.61 0.34 0.21 0.10 0.13 0.04 0.00 0.00 0.00 0.00 0.00 0.00 0.02 0.06 0.11 0.12 0.16 0.15 0.38 0.52 0.15 0.08 0.08 0.03 0.04 0.08 0.26 0.27 0.22 0.11 0.11 0.12 0.10 0.09 0.09 0.19
0.09 0.15 0.12 0.17 0.35 0.70 1.02 0.60 0.35 0.68 0.37 0.14 0.10 0.05 0.01 0.00 0.00 0.00 0.00 0.00 0.00 0.02 0.01 0.03 0.08 0.10 0.04 0.08 0.24 0.21 0.14 0.14 0.06 0.09 0.11 0.13 0.16 0.21 0.31 0.24 0.18 0.16 0.06 0.04 0.07
0.06 0.12 0.14 0.31 0.63 0.90 0.80 1.02 0.53 0.63 0.74 0.23 0.04 0.02 0.01 0.00 0.00 0.00 0.00 0.00 0.00 0.00 0.01 0.04 0.03 0.00 0.06 0.26 0.30 0.25 0.18 0.20 0.19 0.21 0.23 0.15 0.20 0.19 0.24 0.33 0.29 0.26 0.14 0.07 0.05
0.07 0.12 0.25 0.41 0.58 0.92 0.68 1.10 0.56 0.36 0.50 0.36 0.05 0.01 0.00 0.00 0.00 0.00 0.00 0.00 0.00 0.00 0.00 0.02 0.01 0.01 0.05 0.24 0.51 0.31 0.27 0.20 0.36 0.20 0.24 0.31 0.32 0.15 0.11 0.14 0.25 0.27 0.38 0.16 0.10
0.08 0.15 0.23 0.29 0.38 0.41 0.96 0.72 0.48 0.22 0.19 0.33 0.05 0.00 0.00 0.00 0.01 0.00 0.00 0.01 0.02 0.01 0.00 0.02 0.00 0.00 0.05 0.40 0.54 0.33 0.23 0.31 0.38 0.40 0.32 0.19 0.26 0.12 0.09 0.11 0.19 0.14 0.33 0.33 0.18
0.10 0.14 0.19 0.24 0.16 0.26 0.63 0.52 0.27 0.11 0.14 0.22 0.04 0.00 0.00 0.01 0.01 0.04 0.01 0.02 0.03 0.12 0.21 0.11 0.02 0.04 0.19 0.40 0.21 0.30 0.25 0.31 0.37 0.23 0.31 0.21 0.38 0.10 0.09 0.08 0.07 0.07 0.11 0.38 0.40
0.34 0.43 0.37 0.18 0.09 0.14 0.29 0.17 0.05 0.08 0.17 0.09 0.02 0.01 0.01 0.02 0.02 0.04 0.05 0.20 0.30 0.37 0.33 0.18 0.05 0.03 0.04 0.01 0.14 0.62 0.52 0.43 0.30 0.29 0.41 0.33 0.28 0.13 0.10 0.10 0.12 0.10 0.12 0.30 0.58
0.54 0.54 0.54 0.48 0.28 0.16 0.14 0.09 0.11 0.18 0.11 0.04 0.02 0.01 0.01 0.01 0.01 0.02 0.13 0.31 0.30 0.23 0.15 0.08 0.09 0.07 0.03 0.18 0.15 0.42 0.59 0.50 0.45 0.56 0.31 0.27 0.53 0.25 0.01 0.05 0.11 0.16 0.05 0.15 0.40
0.53 0.41 0.29 0.26 0.31 0.24 0.20 0.23 0.33 0.23 0.06 0.01 0.00 0.00 0.01 0.01 0.02 0.02 0.08 0.25 0.21 0.07 0.06 0.14 0.12 0.09 0.15 0.11 0.10 0.09 0.33 0.67 0.55 0.43 0.34 0.51 0.69 0.33 0.04 0.03 0.10 0.19 0.06 0.04 0.26
0.97 0.45 0.26 0.16 0.21 0.26 0.22 0.32 0.27 0.13 0.02 0.00 0.00 0.01 0.00 0.00 0.01 0.01 0.04 0.04 0.04 0.02 0.11 0.15 0.22 0.13 0.05 0.04 0.13 0.13 0.19 0.18 0.33 0.32 0.47 0.49 0.54 0.54 0.27 0.04 0.14 0.19 0.07 0.06 0.17
0.68 0.30 0.31 0.23 0.20 0.27 0.32 0.30 0.15 0.04 0.00 0.00 0.00 0.00 0.00 0.00 0.00 0.02 0.06 0.16 0.19 0.18 0.16 0.12 0.18 0.08 0.11 0.14 0.11 0.12 0.05 0.02 0.09 0.25 0.32 0.26 0.18 0.57 0.49 0.49 0.43 0.28 0.13 0.11 0.17
0.56 0.50 0.67 0.37 0.36 0.42 0.45 0.17 0.01 0.01 0.00 0.00 0.00 0.00 0.00 0.00 0.00 0.01 0.02 0.05 0.05 0.02 0.00 0.00 0.20 0.10 0.05 0.05 0.02 0.00 0.00 0.00 0.00 0.01 0.07 0.06 0.32 0.60 0.55 0.64 0.54 0.40 0.46 0.43 0.49
0.57 0.57 0.79 0.36 0.38 0.34 0.19 0.02 0.01 0.02 0.00 0.00 0.00 0.00 0.00 0.00 0.00 0.00 0.00 0.00 0.00 0.00 0.00 0.00 0.04 0.03 0.01 0.00 0.00 0.00 0.00 0.00 0.00 0.00 0.00 0.01 0.20 0.37 0.41 0.48 0.56 0.51 0.60 0.65 0.72
0.42 0.71 0.84 0.37 0.30 0.24 0.04 0.04 0.07 0.02 0.00 0.00 0.00 0.00 0.00 0.00 0.00 0.00 0.00 0.00 0.00 0.00 0.00 0.00 0.00 0.02 0.01 0.01 0.00 0.00 0.00 0.00 0.00 0.00 0.00 0.00 0.01 0.03 0.10 0.18 0.29 0.36 0.38 0.43 0.44
0.23 0.41 0.59 0.37 0.18 0.03 0.01 0.05 0.03 0.00 0.00 0.00 0.00 0.00 0.00 0.00 0.00 0.00 0.00 0.00 0.00 0.00 0.00 0.00 0.00 0.00 0.00 0.00 0.00 0.00 0.00 0.00 0.00 0.00 0.00 0.00 0.00 0.00 0.00 0.00 0.01 0.03 0.06 0.05 0.01
0.10 0.12 0.13 0.15 0.08 0.00 0.00 0.02 0.02 0.00 0.00 0.00 0.00 0.00 0.00 0.00 0.00 0.00 0.00 0.00 0.00 0.00 0.00 0.00 0.00 0.00 0.00 0.00 0.00 0.00 0.00 0.00 0.00 0.00 0.00 0.00 0.00 0.00 0.00 0.00 0.00 0.00 0.00 0.00 0.00
0.05 0.10 0.08 0.01 0.00 0.00 0.00 0.02 0.01 0.00 0.00 0.00 0.00 0.00 0.00 0.00 0.00 0.00 0.00 0.00 0.00 0.00 0.00 0.00 0.00 0.00 0.00 0.00 0.00 0.00 0.00 0.00 0.00 0.00 0.00 0.00 0.00 0.00 0.00 0.00 0.00 0.00 0.00 0.00 0.00
0.04 0.04 0.01 0.00 0.00 0.00 0.00 0.01 0.01 0.00 0.00 0.00 0.00 0.00 0.00 0.00 0.00 0.00 0.00 0.00 0.00 0.00 0.00 0.00 0.00 0.00 0.00 0.00 0.00 0.00 0.00 0.00 0.00 0.00 0.00 0.00 0.00 0.00 0.00 0.00 0.00 0.00 0.00 0.00 0.00

GFSSW_prec_precacc24_102.txt.gz
Total_Precipitation_Accumulation
0.08 0.10 0.10 0.09 0.11 0.13 0.15 0.19 0.30 0.32 0.27 0.39 0.14 0.01 0.01 0.00 0.00 0.00 0.00 0.00 0.00 0.00 0.00 0.00 0.00 0.00 0.00 0.00 0.02 0.03 0.02 0.00 0.00 0.00 0.00 0.00 0.00 0.02 0.01 0.00 0.00 0.00 0.00 0.00 0.04
0.14 0.13 0.12 0.12 0.14 0.13 0.10 0.11 0.15 0.26 0.31 0.42 0.72 0.13 0.03 0.00 0.00 0.00 0.00 0.00 0.00 0.00 0.00 0.00 0.00 0.00 0.00 0.00 0.01 0.03 0.01 0.00 0.00 0.00 0.00 0.00 0.00 0.01 0.01 0.01 0.01 0.06 0.04 0.02 0.09
0.15 0.18 0.16 0.13 0.15 0.13 0.10 0.08 0.10 0.14 0.25 0.28 0.56 0.39 0.08 0.00 0.00 0.00 0.00 0.00 0.00 0.00 0.00 0.00 0.00 0.00 0.00 0.00 0.00 0.01 0.00 0.00 0.00 0.00 0.00 0.00 0.00 0.01 0.01 0.01 0.00 0.01 0.02 0.03 0.11
0.14 0.22 0.26 0.20 0.13 0.12 0.12 0.13 0.15 0.22 0.29 0.28 0.44 0.48 0.06 0.00 0.00 0.00 0.00 0.01 0.01 0.00 0.00 0.00 0.00 0.00 0.00 0.00 0.00 0.00 0.00 0.00 0.00 0.00 0.00 0.00 0.01 0.04 0.05 0.00 0.01 0.03 0.08 0.07 0.06
0.12 0.21 0.29 0.21 0.16 0.13 0.15 0.16 0.14 0.12 0.13 0.29 0.55 0.23 0.11 0.01 0.00 0.00 0.00 0.00 0.00 0.00 0.00 0.00 0.00 0.00 0.00 0.00 0.00 0.00 0.00 0.00 0.00 0.00 0.00 0.00 0.00 0.02 0.01 0.02 0.03 0.05 0.16 0.08 0.14
0.13 0.18 0.20 0.21 0.17 0.14 0.11 0.11 0.10 0.15 0.16 0.24 0.59 0.20 0.09 0.05 0.00 0.00 0.00 0.00 0.00 0.00 0.00 0.00 0.00 0.00 0.00 0.00 0.00 0.00 0.00 0.00 0.00 0.00 0.00 0.01 0.00 0.02 0.00 0.01 0.03 0.08 0.13 0.09 0.09
0.10 0.11 0.15 0.13 0.12 0.12 0.19 0.16 0.15 0.15 0.22 0.34 0.56 0.24 0.19 0.07 0.00 0.00 0.00 0.00 0.00 0.00 0.00 0.00 0.00 0.00 0.00 0.00 0.00 0.00 0.00 0.00 0.00 0.00 0.00 0.03 0.02 0.01 0.02 0.02 0.07 0.09 0.16 0.23 0.09
0.15 0.08 0.05 0.09 0.13 0.20 0.18 0.22 0.16 0.09 0.17 0.48 0.45 0.32 0.11 0.07 0.00 0.00 0.00 0.00 0.00 0.00 0.00 0.00 0.03 0.04 0.02 0.01 0.01 0.02 0.01 0.00 0.00 0.00 0.00 0.08 0.01 0.01 0.06 0.03 0.06 0.09 0.13 0.32 0.25
0.10 0.16 0.18 0.14 0.16 0.23 0.31 0.32 0.29 0.14 0.27 0.65 0.41 0.29 0.08 0.02 0.00 0.00 0.00 0.00 0.00 0.00 0.01 0.05 0.09 0.07 0.08 0.07 0.07 0.05 0.03 0.00 0.01 0.00 0.02 0.07 0.02 0.03 0.06 0.05 0.04 0.08 0.07 0.14 0.39
0.07 0.06 0.10 0.08 0.15 0.42 0.68 0.47 0.67 0.64 0.48 0.53 0.22 0.31 0.05 0.00 0.00 0.00 0.00 0.00 0.00 0.00 0.02 0.06 0.08 0.07 0.07 0.25 0.20 0.08 0.06 0.04 0.02 0.01 0.01 0.09 0.10 0.18 0.08 0.08 0.09 0.06 0.06 0.06 0.14
0.06 0.03 0.03 0.09 0.30 0.69 1.05 0.64 0.37 0.85 0.53 0.40 0.23 0.16 0.02 0.00 0.00 0.00 0.00 0.00 0.00 0.01 0.01 0.02 0.07 0.07 0.02 0.04 0.04 0.10 0.14 0.12 0.04 0.04 0.08 0.04 0.07 0.16 0.25 0.16 0.16 0.14 0.05 0.04 0.05
0.02 0.03 0.03 0.24 0.60 0.90 0.82 1.03 0.59 0.83 0.97 0.32 0.07 0.04 0.01 0.00 0.00 0.00 0.00 0.00 0.00 0.00 0.00 0.03 0.02 0.00 0.03 0.13 0.13 0.18 0.17 0.17 0.17 0.16 0.17 0.08 0.05 0.14 0.23 0.24 0.24 0.25 0.13 0.07 0.05
0.02 0.01 0.10 0.31 0.54 0.96 0.75 1.15 0.64 0.38 0.60 0.57 0.11 0.04 0.01 0.00 0.00 0.00 0.00 0.00 0.00 0.00 0.00 0.01 0.00 0.00 0.01 0.07 0.36 0.29 0.25 0.17 0.36 0.19 0.16 0.17 0.08 0.07 0.08 0.09 0.18 0.25 0.37 0.16 0.10
0.02 0.00 0.06 0.24 0.37 0.50 1.17 0.83 0.56 0.24 0.21 0.45 0.08 0.00 0.00 0.00 0.01 0.00 0.00 0.01 0.01 0.01 0.00 0.00 0.00 0.00 0.02 0.29 0.47 0.32 0.19 0.23 0.37 0.38 0.24 0.11 0.13 0.05 0.05 0.05 0.10 0.11 0.33 0.33 0.17
0.06 0.03 0.05 0.19 0.16 0.36 0.79 0.58 0.27 0.11 0.17 0.29 0.05 0.00 0.00 0.01 0.01 0.03 0.00 0.02 0.03 0.10 0.11 0.02 0.01 0.03 0.19 0.40 0.21 0.28 0.21 0.26 0.36 0.24 0.26 0.13 0.28 0.10 0.08 0.07 0.05 0.06 0.11 0.38 0.43
0.20 0.20 0.22 0.14 0.06 0.16 0.32 0.19 0.05 0.08 0.19 0.11 0.02 0.01 0.01 0.02 0.02 0.03 0.04 0.13 0.24 0.21 0.15 0.03 0.01 0.02 0.04 0.01 0.12 0.59 0.49 0.40 0.28 0.25 0.35 0.25 0.26 0.13 0.10 0.11 0.16 0.24 0.12 0.31 0.62
0.33 0.24 0.41 0.42 0.22 0.15 0.14 0.09 0.11 0.19 0.12 0.04 0.02 0.01 0.01 0.01 0.01 0.02 0.11 0.25 0.16 0.09 0.04 0.04 0.04 0.02 0.01 0.14 0.12 0.36 0.59 0.48 0.38 0.45 0.29 0.21 0.52 0.25 0.01 0.05 0.14 0.32 0.09 0.15 0.43
0.33 0.16 0.16 0.20 0.27 0.23 0.19 0.23 0.33 0.24 0.07 0.01 0.00 0.00 0.01 0.01 0.02 0.03 0.07 0.19 0.05 0.02 0.05 0.11 0.05 0.00 0.00 0.04 0.06 0.05 0.31 0.62 0.51 0.39 0.33 0.51 0.70 0.35 0.05 0.03 0.11 0.26 0.10 0.05 0.32
0.75 0.26 0.13 0.11 0.19 0.25 0.22 0.32 0.27 0.13 0.02 0.00 0.00 0.01 0.00 0.00 0.01 0.01 0.03 0.04 0.03 0.02 0.10 0.11 0.11 0.05 0.01 0.03 0.12 0.13 0.18 0.18 0.34 0.32 0.48 0.50 0.56 0.54 0.28 0.04 0.16 0.23 0.13 0.10 0.21
0.52 0.18 0.15 0.13 0.18 0.26 0.32 0.30 0.15 0.04 0.00 0.00 0.00 0.00 0.00 0.00 0.00 0.02 0.06 0.16 0.18 0.14 0.13 0.11 0.15 0.08 0.11 0.14 0.11 0.12 0.05 0.02 0.09 0.26 0.33 0.27 0.20 0.61 0.51 0.50 0.45 0.33 0.24 0.17 0.24
0.34 0.26 0.50 0.28 0.34 0.41 0.45 0.17 0.01 0.01 0.00 0.00 0.00 0.00 0.00 0.00 0.00 0.01 0.02 0.05 0.05 0.02 0.00 0.00 0.20 0.10 0.05 0.05 0.02 0.00 0.00 0.00 0.00 0.01 0.08 0.07 0.34 0.66 0.58 0.66 0.57 0.44 0.58 0.62 0.72
0.27 0.37 0.64 0.32 0.36 0.34 0.19 0.02 0.01 0.02 0.00 0.00 0.00 0.00 0.00 0.00 0.00 0.00 0.00 0.00 0.00 0.00 0.00 0.00 0.04 0.03 0.01 0.00 0.00 0.00 0.00 0.00 0.00 0.00 0.00 0.02 0.21 0.38 0.41 0.50 0.60 0.60 0.73 0.83 0.92
0.19 0.48 0.62 0.30 0.28 0.24 0.04 0.04 0.07 0.02 0.00 0.00 0.00 0.00 0.00 0.00 0.00 0.00 0.00 0.00 0.00 0.00 0.00 0.00 0.00 0.02 0.01 0.01 0.00 0.00 0.00 0.00 0.00 0.00 0.00 0.00 0.01 0.03 0.10 0.19 0.31 0.39 0.44 0.50 0.52
0.09 0.24 0.38 0.25 0.16 0.03 0.01 0.05 0.03 0.00 0.00 0.00 0.00 0.00 0.00 0.00 0.00 0.00 0.00 0.00 0.00 0.00 0.00 0.00 0.00 0.00 0.00 0.00 0.00 0.00 0.00 0.00 0.00 0.00 0.00 0.00 0.00 0.00 0.00 0.00 0.01 0.04 0.06 0.05 0.02
0.02 0.04 0.05 0.09 0.06 0.00 0.00 0.02 0.02 0.00 0.00 0.00 0.00 0.00 0.00 0.00 0.00 0.00 0.00 0.00 0.00 0.00 0.00 0.00 0.00 0.00 0.00 0.00 0.00 0.00 0.00 0.00 0.00 0.00 0.00 0.00 0.00 0.00 0.00 0.00 0.00 0.00 0.00 0.00 0.00
0.01 0.02 0.02 0.01 0.00 0.00 0.00 0.02 0.01 0.00 0.00 0.00 0.00 0.00 0.00 0.00 0.00 0.00 0.00 0.00 0.00 0.00 0.00 0.00 0.00 0.00 0.00 0.00 0.00 0.00 0.00 0.00 0.00 0.00 0.00 0.00 0.00 0.00 0.00 0.00 0.00 0.00 0.00 0.00 0.00
0.00 0.00 0.00 0.00 0.00 0.00 0.00 0.01 0.01 0.00 0.00 0.00 0.00 0.00 0.00 0.00 0.00 0.00 0.00 0.00 0.00 0.00 0.00 0.00 0.00 0.00 0.00 0.00 0.00 0.00 0.00 0.00 0.00 0.00 0.00 0.00 0.00 0.00 0.00 0.00 0.00 0.00 0.00 0.00 0.00

GFSSW_prec_precacc24_105.txt.gz
Total_Precipitation_Accumulation
0.15 0.17 0.12 0.10 0.10 0.13 0.15 0.19 0.30 0.32 0.33 0.48 0.57 0.04 0.01 0.00 0.00 0.00 0.00 0.00 0.00 0.00 0.00 0.00 0.00 0.00 0.00 0.00 0.00 0.01 0.01 0.00 0.00 0.00 0.00 0.00 0.00 0.00 0.00 0.00 0.00 0.00 0.00 0.00 0.04
0.20 0.22 0.24 0.17 0.13 0.11 0.10 0.11 0.15 0.25 0.33 0.48 1.30 0.35 0.01 0.00 0.00 0.00 0.00 0.00 0.00 0.00 0.00 0.00 0.00 0.00 0.00 0.00 0.00 0.01 0.00 0.00 0.00 0.00 0.00 0.00 0.00 0.00 0.00 0.00 0.00 0.00 0.01 0.01 0.09
0.13 0.18 0.26 0.20 0.15 0.11 0.08 0.08 0.10 0.14 0.25 0.33 0.79 0.80 0.07 0.00 0.00 0.00 0.00 0.00 0.00 0.00 0.00 0.00 0.00 0.00 0.00 0.00 0.00 0.00 0.00 0.00 0.00 0.00 0.00 0.00 0.00 0.00 0.00 0.00 0.00 0.00 0.00 0.01 0.11
0.13 0.21 0.26 0.18 0.12 0.08 0.08 0.12 0.15 0.22 0.29 0.29 0.64 0.85 0.20 0.00 0.00 0.00 0.00 0.01 0.01 0.00 0.00 0.00 0.00 0.00 0.00 0.00 0.00 0.00 0.00 0.00 0.00 0.00 0.00 0.00 0.00 0.01 0.01 0.00 0.00 0.00 0.00 0.04 0.06
0.12 0.24 0.27 0.16 0.18 0.12 0.10 0.15 0.14 0.11 0.12 0.30 0.79 0.53 0.27 0.08 0.00 0.00 0.00 0.00 0.00 0.00 0.00 0.00 0.00 0.00 0.00 0.00 0.00 0.00 0.00 0.00 0.00 0.00 0.00 0.00 0.00 0.00 0.00 0.00 0.01 0.02 0.03 0.06 0.11
0.13 0.21 0.20 0.18 0.23 0.15 0.08 0.10 0.10 0.15 0.16 0.26 0.69 0.36 0.22 0.17 0.00 0.00 0.00 0.00 0.00 0.00 0.00 0.00 0.00 0.00 0.00 0.00 0.00 0.00 0.00 0.00 0.00 0.00 0.00 0.00 0.00 0.00 0.00 0.00 0.00 0.00 0.00 0.02 0.06
0.10 0.12 0.18 0.14 0.19 0.14 0.17 0.16 0.15 0.18 0.22 0.41 0.62 0.34 0.23 0.19 0.00 0.00 0.00 0.00 0.00 0.00 0.00 0.00 0.00 0.00 0.00 0.00 0.00 0.00 0.00 0.00 0.00 0.00 0.00 0.00 0.00 0.00 0.00 0.00 0.01 0.00 0.00 0.02 0.06
0.16 0.08 0.06 0.10 0.12 0.15 0.15 0.20 0.15 0.12 0.17 0.54 0.51 0.38 0.15 0.11 0.00 0.00 0.00 0.00 0.00 0.00 0.00 0.00 0.01 0.02 0.01 0.01 0.00 0.01 0.00 0.00 0.00 0.00 0.00 0.00 0.00 0.00 0.00 0.00 0.01 0.01 0.00 0.02 0.08
0.10 0.19 0.16 0.06 0.07 0.18 0.29 0.32 0.29 0.14 0.28 0.79 0.43 0.37 0.20 0.07 0.00 0.00 0.00 0.00 0.00 0.00 0.00 0.01 0.05 0.04 0.05 0.04 0.03 0.01 0.01 0.00 0.00 0.00 0.00 0.00 0.00 0.00 0.00 0.00 0.00 0.01 0.00 0.01 0.08
0.08 0.10 0.10 0.01 0.07 0.39 0.72 0.51 0.73 0.69 0.63 0.71 0.25 0.46 0.18 0.03 0.00 0.00 0.00 0.00 0.00 0.00 0.01 0.02 0.03 0.03 0.02 0.05 0.05 0.02 0.03 0.01 0.00 0.00 0.01 0.02 0.00 0.03 0.03 0.02 0.01 0.01 0.00 0.01 0.08
0.06 0.04 0.03 0.02 0.24 0.68 1.12 0.67 0.42 1.03 0.80 0.60 0.33 0.20 0.06 0.00 0.00 0.00 0.00 0.00 0.00 0.01 0.01 0.01 0.02 0.04 0.00 0.01 0.01 0.05 0.09 0.07 0.02 0.01 0.06 0.02 0.01 0.04 0.04 0.05 0.04 0.03 0.01 0.01 0.03
0.02 0.03 0.03 0.14 0.53 0.87 0.80 1.02 0.70 1.01 1.28 0.54 0.13 0.06 0.01 0.00 0.00 0.00 0.00 0.00 0.00 0.00 0.00 0.02 0.01 0.00 0.00 0.06 0.08 0.07 0.13 0.06 0.06 0.07 0.11 0.04 0.02 0.05 0.08 0.13 0.08 0.17 0.10 0.05 0.04
0.02 0.02 0.01 0.08 0.46 0.95 0.74 1.24 0.76 0.42 0.74 0.76 0.14 0.05 0.01 0.00 0.00 0.00 0.00 0.00 0.00 0.00 0.00 0.01 0.00 0.00 0.00 0.04 0.15 0.14 0.23 0.10 0.27 0.15 0.12 0.14 0.07 0.03 0.03 0.07 0.15 0.24 0.35 0.15 0.09
0.02 0.01 0.02 0.05 0.32 0.52 1.25 0.92 0.59 0.25 0.24 0.56 0.08 0.00 0.00 0.00 0.00 0.00 0.00 0.00 0.01 0.00 0.00 0.00 0.00 0.00 0.01 0.10 0.27 0.29 0.17 0.16 0.29 0.36 0.20 0.10 0.11 0.03 0.02 0.04 0.10 0.11 0.32 0.32 0.16
0.06 0.03 0.02 0.05 0.14 0.37 0.80 0.58 0.27 0.11 0.17 0.34 0.06 0.00 0.00 0.01 0.01 0.03 0.00 0.02 0.03 0.05 0.05 0.01 0.00 0.03 0.13 0.19 0.17 0.25 0.15 0.19 0.29 0.24 0.27 0.13 0.24 0.06 0.05 0.06 0.05 0.08 0.11 0.38 0.42
0.19 0.18 0.08 0.07 0.03 0.13 0.28 0.17 0.05 0.08 0.20 0.11 0.02 0.01 0.01 0.02 0.02 0.03 0.03 0.10 0.14 0.09 0.04 0.00 0.00 0.01 0.02 0.01 0.09 0.56 0.45 0.36 0.27 0.25 0.34 0.24 0.26 0.13 0.09 0.10 0.16 0.28 0.14 0.31 0.63
0.33 0.21 0.08 0.18 0.18 0.08 0.07 0.07 0.09 0.18 0.12 0.04 0.02 0.01 0.01 0.01 0.01 0.02 0.10 0.14 0.05 0.03 0.01 0.00 0.00 0.01 0.01 0.13 0.09 0.33 0.58 0.47 0.35 0.43 0.28 0.21 0.50 0.25 0.01 0.05 0.14 0.34 0.10 0.16 0.51
0.25 0.12 0.04 0.06 0.19 0.14 0.11 0.17 0.30 0.25 0.07 0.01 0.00 0.00 0.01 0.01 0.02 0.03 0.06 0.06 0.01 0.02 0.04 0.05 0.01 0.00 0.00 0.03 0.04 0.04 0.31 0.63 0.50 0.39 0.33 0.51 0.69 0.35 0.05 0.03 0.12 0.27 0.12 0.09 0.36
0.51 0.20 0.04 0.01 0.09 0.15 0.13 0.27 0.27 0.13 0.02 0.00 0.00 0.01 0.00 0.00 0.01 0.01 0.03 0.03 0.03 0.02 0.08 0.02 0.01 0.00 0.00 0.00 0.03 0.10 0.16 0.19 0.34 0.33 0.48 0.50 0.56 0.54 0.28 0.05 0.19 0.25 0.22 0.17 0.25
0.24 0.08 0.05 0.03 0.08 0.20 0.27 0.29 0.15 0.04 0.00 0.00 0.00 0.00 0.00 0.00 0.00 0.02 0.06 0.10 0.09 0.13 0.12 0.06 0.05 0.06 0.11 0.13 0.09 0.12 0.04 0.02 0.09 0.26 0.33 0.26 0.20 0.62 0.51 0.50 0.46 0.36 0.32 0.26 0.38
0.04 0.11 0.29 0.10 0.19 0.29 0.36 0.16 0.01 0.01 0.00 0.00 0.00 0.00 0.00 0.00 0.00 0.01 0.02 0.05 0.05 0.02 0.00 0.00 0.19 0.08 0.05 0.05 0.02 0.00 0.00 0.00 0.00 0.01 0.08 0.07 0.34 0.66 0.59 0.67 0.58 0.46 0.65 0.73 0.83
0.04 0.26 0.46 0.18 0.19 0.21 0.17 0.02 0.01 0.02 0.00 0.00 0.00 0.00 0.00 0.00 0.00 0.00 0.00 0.00 0.00 0.00 0.00 0.00 0.04 0.03 0.01 0.00 0.00 0.00 0.00 0.00 0.00 0.00 0.00 0.03 0.21 0.38 0.41 0.50 0.60 0.61 0.76 0.86 0.98
0.04 0.29 0.36 0.20 0.18 0.18 0.04 0.04 0.07 0.02 0.00 0.00 0.00 0.00 0.00 0.00 0.00 0.00 0.00 0.00 0.00 0.00 0.00 0.00 0.00 0.02 0.01 0.01 0.00 0.00 0.00 0.00 0.00 0.00 0.00 0.00 0.01 0.03 0.10 0.19 0.31 0.39 0.45 0.50 0.53
0.01 0.08 0.17 0.14 0.08 0.02 0.01 0.05 0.02 0.00 0.00 0.00 0.00 0.00 0.00 0.00 0.00 0.00 0.00 0.00 0.00 0.00 0.00 0.00 0.00 0.00 0.00 0.00 0.00 0.00 0.00 0.00 0.00 0.00 0.00 0.00 0.00 0.00 0.00 0.00 0.01 0.04 0.06 0.05 0.02
0.00 0.01 0.02 0.03 0.01 0.00 0.00 0.02 0.01 0.00 0.00 0.00 0.00 0.00 0.00 0.00 0.00 0.00 0.00 0.00 0.00 0.00 0.00 0.00 0.00 0.00 0.00 0.00 0.00 0.00 0.00 0.00 0.00 0.00 0.00 0.00 0.00 0.00 0.00 0.00 0.00 0.00 0.00 0.00 0.00
0.00 0.00 0.00 0.00 0.00 0.00 0.00 0.01 0.01 0.00 0.00 0.00 0.00 0.00 0.00 0.00 0.00 0.00 0.00 0.00 0.00 0.00 0.00 0.00 0.00 0.00 0.00 0.00 0.00 0.00 0.00 0.00 0.00 0.00 0.00 0.00 0.00 0.00 0.00 0.00 0.00 0.00 0.00 0.00 0.00
0.00 0.00 0.00 0.00 0.00 0.00 0.00 0.00 0.00 0.00 0.00 0.00 0.00 0.00 0.00 0.00 0.00 0.00 0.00 0.00 0.00 0.00 0.00 0.00 0.00 0.00 0.00 0.00 0.00 0.00 0.00 0.00 0.00 0.00 0.00 0.00 0.00 0.00 0.00 0.00 0.00 0.00 0.00 0.00 0.00

GFSSW_prec_precacc24_108.txt.gz
Total_Precipitation_Accumulation
0.13 0.14 0.13 0.13 0.11 0.14 0.16 0.21 0.30 0.32 0.32 0.49 0.76 0.10 0.00 0.00 0.00 0.00 0.00 0.00 0.00 0.00 0.00 0.00 0.00 0.00 0.00 0.00 0.00 0.00 0.00 0.00 0.00 0.00 0.00 0.00 0.00 0.00 0.00 0.00 0.00 0.00 0.00 0.00 0.04
0.18 0.22 0.24 0.21 0.17 0.09 0.09 0.12 0.15 0.25 0.33 0.48 1.50 0.68 0.01 0.00 0.00 0.00 0.00 0.00 0.00 0.00 0.00 0.00 0.00 0.00 0.00 0.00 0.00 0.00 0.00 0.00 0.00 0.00 0.00 0.00 0.00 0.00 0.00 0.00 0.00 0.00 0.00 0.00 0.09
0.12 0.19 0.27 0.23 0.20 0.14 0.07 0.06 0.10 0.14 0.25 0.34 0.89 1.19 0.21 0.00 0.00 0.00 0.00 0.00 0.00 0.00 0.00 0.00 0.00 0.00 0.00 0.00 0.00 0.00 0.00 0.00 0.00 0.00 0.00 0.00 0.00 0.00 0.00 0.00 0.00 0.00 0.00 0.00 0.06
0.11 0.22 0.27 0.22 0.17 0.14 0.09 0.10 0.14 0.22 0.29 0.31 0.86 1.03 0.36 0.01 0.00 0.00 0.00 0.01 0.01 0.00 0.00 0.00 0.00 0.00 0.00 0.00 0.00 0.00 0.00 0.00 0.00 0.00 0.00 0.00 0.00 0.00 0.00 0.00 0.00 0.00 0.00 0.00 0.01
0.12 0.25 0.28 0.19 0.20 0.14 0.09 0.11 0.13 0.11 0.12 0.36 1.04 0.75 0.43 0.10 0.00 0.00 0.00 0.00 0.00 0.00 0.00 0.00 0.00 0.00 0.00 0.00 0.00 0.00 0.00 0.00 0.00 0.00 0.00 0.00 0.00 0.00 0.00 0.00 0.00 0.00 0.00 0.00 0.00
0.12 0.22 0.21 0.19 0.22 0.23 0.12 0.08 0.09 0.15 0.16 0.29 1.03 0.63 0.39 0.25 0.00 0.00 0.00 0.00 0.00 0.00 0.00 0.00 0.00 0.00 0.00 0.00 0.00 0.00 0.00 0.00 0.00 0.00 0.00 0.00 0.00 0.00 0.00 0.00 0.00 0.00 0.00 0.00 0.00
0.09 0.12 0.18 0.14 0.20 0.21 0.16 0.14 0.14 0.19 0.26 0.49 0.92 0.57 0.39 0.29 0.00 0.00 0.00 0.00 0.00 0.00 0.00 0.00 0.00 0.00 0.00 0.00 0.00 0.00 0.00 0.00 0.00 0.00 0.00 0.00 0.00 0.00 0.00 0.00 0.00 0.00 0.00 0.00 0.00
0.15 0.08 0.06 0.10 0.06 0.03 0.11 0.19 0.15 0.14 0.19 0.62 0.78 0.55 0.29 0.16 0.00 0.00 0.00 0.00 0.00 0.00 0.00 0.00 0.00 0.00 0.01 0.00 0.00 0.00 0.00 0.00 0.00 0.00 0.00 0.00 0.00 0.00 0.00 0.00 0.00 0.00 0.00 0.00 0.00
0.11 0.24 0.22 0.08 0.00 0.05 0.22 0.30 0.29 0.17 0.39 0.93 0.65 0.45 0.32 0.09 0.00 0.00 0.00 0.00 0.00 0.00 0.00 0.00 0.00 0.01 0.01 0.02 0.02 0.01 0.01 0.00 0.00 0.00 0.00 0.00 0.00 0.00 0.00 0.00 0.00 0.00 0.00 0.00 0.00
0.08 0.12 0.12 0.00 0.03 0.32 0.69 0.53 0.81 0.77 0.73 0.87 0.41 0.51 0.25 0.05 0.00 0.00 0.00 0.00 0.00 0.00 0.00 0.01 0.01 0.01 0.01 0.03 0.02 0.01 0.02 0.01 0.00 0.00 0.01 0.01 0.00 0.00 0.00 0.00 0.00 0.00 0.00 0.00 0.00
0.05 0.04 0.03 0.01 0.17 0.68 1.16 0.76 0.45 1.20 0.91 0.79 0.38 0.23 0.10 0.01 0.00 0.00 0.00 0.00 0.00 0.00 0.00 0.00 0.01 0.01 0.00 0.00 0.00 0.00 0.01 0.01 0.00 0.00 0.04 0.02 0.00 0.00 0.01 0.03 0.02 0.02 0.01 0.00 0.00
0.02 0.04 0.03 0.02 0.24 0.84 0.81 1.03 0.75 1.15 1.50 0.61 0.14 0.07 0.03 0.00 0.00 0.00 0.00 0.00 0.00 0.00 0.00 0.01 0.01 0.00 0.00 0.00 0.01 0.02 0.07 0.02 0.01 0.03 0.08 0.03 0.00 0.00 0.03 0.05 0.03 0.02 0.04 0.04 0.03
0.02 0.02 0.01 0.01 0.11 0.87 0.75 1.25 0.76 0.43 0.85 0.89 0.16 0.05 0.01 0.00 0.00 0.00 0.00 0.00 0.00 0.00 0.00 0.00 0.00 0.00 0.00 0.00 0.04 0.05 0.14 0.05 0.07 0.09 0.08 0.08 0.03 0.02 0.01 0.02 0.05 0.05 0.09 0.10 0.07
0.01 0.01 0.02 0.01 0.19 0.55 1.33 0.94 0.62 0.25 0.26 0.63 0.09 0.00 0.00 0.00 0.00 0.00 0.00 0.00 0.01 0.00 0.00 0.00 0.00 0.00 0.01 0.02 0.15 0.24 0.14 0.08 0.09 0.28 0.14 0.07 0.08 0.01 0.02 0.04 0.07 0.03 0.07 0.09 0.12
0.03 0.02 0.01 0.01 0.08 0.37 0.81 0.57 0.25 0.11 0.18 0.37 0.06 0.00 0.00 0.01 0.01 0.02 0.00 0.01 0.01 0.02 0.03 0.01 0.00 0.01 0.03 0.03 0.13 0.23 0.13 0.11 0.13 0.17 0.22 0.10 0.22 0.05 0.04 0.06 0.05 0.05 0.04 0.13 0.29
0.13 0.09 0.02 0.01 0.02 0.13 0.28 0.15 0.05 0.08 0.22 0.12 0.02 0.01 0.01 0.02 0.02 0.02 0.02 0.03 0.03 0.02 0.01 0.00 0.00 0.00 0.00 0.00 0.08 0.55 0.43 0.31 0.23 0.21 0.32 0.24 0.25 0.12 0.09 0.10 0.16 0.27 0.13 0.25 0.60
0.26 0.12 0.02 0.02 0.02 0.07 0.02 0.04 0.07 0.18 0.13 0.04 0.02 0.01 0.01 0.01 0.01 0.01 0.06 0.06 0.03 0.02 0.01 0.00 0.00 0.00 0.01 0.11 0.06 0.30 0.56 0.44 0.31 0.41 0.26 0.21 0.50 0.25 0.01 0.05 0.14 0.35 0.10 0.16 0.51
0.12 0.06 0.02 0.02 0.02 0.06 0.04 0.11 0.24 0.25 0.07 0.01 0.00 0.00 0.01 0.01 0.02 0.03 0.05 0.03 0.01 0.01 0.03 0.01 0.01 0.00 0.00 0.02 0.03 0.04 0.30 0.62 0.48 0.37 0.30 0.50 0.68 0.34 0.05 0.03 0.12 0.28 0.12 0.10 0.36
0.17 0.06 0.02 0.00 0.02 0.07 0.08 0.22 0.25 0.13 0.02 0.00 0.00 0.01 0.00 0.00 0.01 0.01 0.02 0.02 0.02 0.01 0.05 0.02 0.00 0.00 0.00 0.00 0.02 0.07 0.16 0.19 0.35 0.32 0.48 0.50 0.55 0.54 0.28 0.05 0.19 0.26 0.22 0.19 0.26
0.09 0.04 0.03 0.02 0.04 0.12 0.21 0.26 0.14 0.04 0.00 0.00 0.00 0.00 0.00 0.00 0.00 0.02 0.03 0.02 0.05 0.03 0.01 0.01 0.03 0.05 0.08 0.06 0.04 0.09 0.04 0.02 0.10 0.26 0.32 0.26 0.20 0.62 0.51 0.50 0.46 0.36 0.33 0.29 0.42
0.01 0.05 0.13 0.04 0.08 0.17 0.30 0.16 0.01 0.01 0.00 0.00 0.00 0.00 0.00 0.00 0.00 0.01 0.01 0.03 0.04 0.01 0.00 0.00 0.18 0.07 0.05 0.05 0.02 0.00 0.00 0.00 0.00 0.01 0.08 0.07 0.34 0.66 0.59 0.67 0.58 0.47 0.65 0.74 0.85
0.00 0.14 0.19 0.04 0.07 0.11 0.10 0.01 0.01 0.02 0.00 0.00 0.00 0.00 0.00 0.00 0.00 0.00 0.00 0.00 0.00 0.00 0.00 0.00 0.04 0.03 0.01 0.00 0.00 0.00 0.00 0.00 0.00 0.00 0.00 0.03 0.21 0.38 0.41 0.50 0.60 0.61 0.76 0.86 0.98
0.01 0.12 0.10 0.04 0.03 0.06 0.02 0.04 0.05 0.02 0.00 0.00 0.00 0.00 0.00 0.00 0.00 0.00 0.00 0.00 0.00 0.00 0.00 0.00 0.00 0.02 0.01 0.01 0.00 0.00 0.00 0.00 0.00 0.00 0.00 0.00 0.01 0.03 0.10 0.19 0.31 0.39 0.45 0.50 0.53
0.00 0.01 0.02 0.02 0.02 0.01 0.01 0.04 0.01 0.00 0.00 0.00 0.00 0.00 0.00 0.00 0.00 0.00 0.00 0.00 0.00 0.00 0.00 0.00 0.00 0.00 0.00 0.00 0.00 0.00 0.00 0.00 0.00 0.00 0.00 0.00 0.00 0.00 0.00 0.00 0.01 0.04 0.06 0.05 0.02
0.00 0.00 0.00 0.01 0.00 0.00 0.00 0.01 0.00 0.00 0.00 0.00 0.00 0.00 0.00 0.00 0.00 0.00 0.00 0.00 0.00 0.00 0.00 0.00 0.00 0.00 0.00 0.00 0.00 0.00 0.00 0.00 0.00 0.00 0.00 0.00 0.00 0.00 0.00 0.00 0.00 0.00 0.00 0.00 0.00
0.00 0.00 0.00 0.00 0.00 0.00 0.00 0.01 0.00 0.00 0.00 0.00 0.00 0.00 0.00 0.00 0.00 0.00 0.00 0.00 0.00 0.00 0.00 0.00 0.00 0.00 0.00 0.00 0.00 0.00 0.00 0.00 0.00 0.00 0.00 0.00 0.00 0.00 0.00 0.00 0.00 0.00 0.00 0.00 0.00
0.00 0.00 0.00 0.00 0.00 0.00 0.00 0.00 0.00 0.00 0.00 0.00 0.00 0.00 0.00 0.00 0.00 0.00 0.00 0.00 0.00 0.00 0.00 0.00 0.00 0.00 0.00 0.00 0.00 0.00 0.00 0.00 0.00 0.00 0.00 0.00 0.00 0.00 0.00 0.00 0.00 0.00 0.00 0.00 0.00

GFSSW_prec_precacc24_111.txt.gz
Total_Precipitation_Accumulation
0.17 0.19 0.17 0.13 0.06 0.09 0.16 0.23 0.30 0.33 0.36 0.53 1.04 0.15 0.00 0.00 0.00 0.00 0.00 0.00 0.00 0.00 0.00 0.00 0.00 0.00 0.00 0.00 0.00 0.00 0.00 0.00 0.00 0.00 0.00 0.00 0.00 0.00 0.00 0.00 0.00 0.00 0.00 0.00 0.03
0.22 0.26 0.25 0.21 0.17 0.05 0.03 0.10 0.14 0.25 0.34 0.52 1.66 0.84 0.02 0.00 0.00 0.00 0.00 0.00 0.00 0.00 0.00 0.00 0.00 0.00 0.00 0.00 0.00 0.00 0.00 0.00 0.00 0.00 0.00 0.00 0.00 0.00 0.00 0.00 0.00 0.00 0.00 0.00 0.04
0.13 0.20 0.26 0.25 0.25 0.16 0.03 0.02 0.07 0.13 0.25 0.38 1.09 1.51 0.30 0.00 0.00 0.00 0.00 0.00 0.00 0.00 0.00 0.00 0.00 0.00 0.00 0.00 0.00 0.00 0.00 0.00 0.00 0.00 0.00 0.00 0.00 0.00 0.00 0.00 0.00 0.00 0.00 0.00 0.01
0.11 0.21 0.27 0.25 0.24 0.19 0.09 0.02 0.12 0.21 0.29 0.36 1.01 1.21 0.50 0.01 0.00 0.00 0.00 0.00 0.00 0.00 0.00 0.00 0.00 0.00 0.00 0.00 0.00 0.00 0.00 0.00 0.00 0.00 0.00 0.00 0.00 0.00 0.00 0.00 0.00 0.00 0.00 0.00 0.00
0.10 0.23 0.28 0.20 0.21 0.16 0.08 0.01 0.07 0.11 0.12 0.43 1.13 0.87 0.54 0.14 0.00 0.00 0.00 0.00 0.00 0.00 0.00 0.00 0.00 0.00 0.00 0.00 0.00 0.00 0.00 0.00 0.00 0.00 0.00 0.00 0.00 0.00 0.00 0.00 0.00 0.00 0.00 0.00 0.00
0.12 0.20 0.19 0.18 0.21 0.23 0.12 0.03 0.07 0.15 0.17 0.37 1.07 0.70 0.50 0.33 0.01 0.00 0.00 0.00 0.00 0.00 0.00 0.00 0.00 0.00 0.00 0.00 0.00 0.00 0.00 0.00 0.00 0.00 0.00 0.00 0.00 0.00 0.00 0.00 0.00 0.00 0.00 0.00 0.00
0.08 0.10 0.18 0.14 0.19 0.21 0.07 0.05 0.11 0.18 0.33 0.64 0.96 0.65 0.47 0.37 0.00 0.00 0.00 0.00 0.00 0.00 0.00 0.00 0.00 0.00 0.00 0.00 0.00 0.00 0.00 0.00 0.00 0.00 0.00 0.00 0.00 0.00 0.00 0.00 0.00 0.00 0.00 0.00 0.00
0.14 0.07 0.06 0.10 0.06 0.04 0.00 0.13 0.13 0.13 0.37 0.81 0.87 0.68 0.40 0.18 0.00 0.00 0.00 0.00 0.00 0.00 0.00 0.00 0.00 0.00 0.00 0.00 0.00 0.00 0.00 0.00 0.00 0.00 0.00 0.00 0.00 0.00 0.00 0.00 0.00 0.00 0.00 0.00 0.00
0.11 0.23 0.22 0.08 0.00 0.00 0.04 0.18 0.27 0.21 0.74 1.08 0.76 0.60 0.44 0.11 0.00 0.00 0.00 0.00 0.00 0.00 0.00 0.00 0.00 0.00 0.00 0.00 0.00 0.00 0.00 0.00 0.00 0.00 0.00 0.00 0.00 0.00 0.00 0.00 0.00 0.00 0.00 0.00 0.00
0.08 0.12 0.12 0.01 0.03 0.24 0.62 0.52 0.81 0.94 1.28 0.95 0.63 0.70 0.40 0.09 0.00 0.00 0.00 0.00 0.00 0.00 0.00 0.00 0.00 0.00 0.00 0.01 0.01 0.00 0.00 0.00 0.00 0.00 0.01 0.00 0.00 0.00 0.00 0.00 0.00 0.00 0.00 0.00 0.00
0.05 0.04 0.04 0.03 0.04 0.59 1.15 0.82 0.50 1.46 1.11 0.98 0.57 0.29 0.17 0.02 0.00 0.00 0.00 0.00 0.00 0.00 0.00 0.00 0.00 0.00 0.00 0.00 0.00 0.00 0.00 0.00 0.00 0.00 0.01 0.01 0.00 0.00 0.00 0.00 0.00 0.00 0.00 0.00 0.00
0.02 0.04 0.04 0.07 0.07 0.54 0.78 1.00 0.82 1.29 1.80 0.78 0.22 0.12 0.04 0.00 0.00 0.00 0.00 0.00 0.00 0.00 0.00 0.00 0.00 0.00 0.00 0.00 0.00 0.00 0.01 0.00 0.01 0.00 0.03 0.01 0.00 0.00 0.00 0.00 0.00 0.00 0.02 0.01 0.03
0.02 0.02 0.01 0.02 0.06 0.65 0.67 1.25 0.75 0.43 0.90 0.95 0.20 0.07 0.01 0.00 0.00 0.00 0.00 0.00 0.00 0.00 0.00 0.00 0.00 0.00 0.00 0.00 0.01 0.00 0.04 0.02 0.05 0.02 0.04 0.03 0.02 0.00 0.00 0.00 0.02 0.04 0.08 0.09 0.07
0.01 0.01 0.02 0.01 0.09 0.49 1.07 0.93 0.59 0.25 0.25 0.64 0.09 0.00 0.00 0.00 0.00 0.00 0.00 0.00 0.00 0.00 0.00 0.00 0.00 0.00 0.00 0.01 0.06 0.08 0.03 0.04 0.07 0.21 0.08 0.03 0.05 0.00 0.01 0.01 0.05 0.03 0.07 0.09 0.11
0.00 0.00 0.00 0.00 0.04 0.28 0.70 0.55 0.25 0.09 0.17 0.38 0.06 0.00 0.00 0.00 0.01 0.02 0.00 0.01 0.01 0.01 0.01 0.00 0.00 0.00 0.00 0.00 0.07 0.12 0.06 0.07 0.09 0.11 0.14 0.04 0.11 0.00 0.00 0.03 0.04 0.05 0.04 0.10 0.18
0.06 0.02 0.00 0.00 0.01 0.12 0.27 0.15 0.04 0.04 0.21 0.11 0.01 0.01 0.00 0.02 0.01 0.01 0.01 0.00 0.00 0.01 0.01 0.00 0.00 0.00 0.00 0.00 0.05 0.44 0.28 0.10 0.05 0.12 0.24 0.20 0.16 0.07 0.05 0.08 0.16 0.27 0.13 0.15 0.22
0.17 0.03 0.00 0.01 0.01 0.06 0.01 0.01 0.02 0.15 0.12 0.03 0.01 0.01 0.01 0.01 0.00 0.00 0.01 0.02 0.01 0.01 0.00 0.00 0.00 0.00 0.00 0.00 0.01 0.25 0.46 0.34 0.22 0.29 0.22 0.20 0.41 0.22 0.01 0.05 0.14 0.35 0.10 0.12 0.26
0.04 0.01 0.01 0.01 0.00 0.02 0.00 0.02 0.18 0.23 0.06 0.01 0.00 0.00 0.01 0.01 0.01 0.01 0.02 0.01 0.00 0.01 0.02 0.01 0.00 0.00 0.00 0.00 0.01 0.01 0.27 0.53 0.40 0.33 0.27 0.47 0.62 0.32 0.05 0.03 0.12 0.28 0.12 0.09 0.18
0.02 0.01 0.00 0.00 0.00 0.01 0.01 0.10 0.17 0.11 0.02 0.00 0.00 0.01 0.00 0.00 0.01 0.01 0.01 0.01 0.01 0.00 0.02 0.01 0.00 0.00 0.00 0.00 0.01 0.04 0.13 0.18 0.32 0.31 0.46 0.47 0.53 0.53 0.27 0.05 0.19 0.25 0.22 0.19 0.15
0.01 0.01 0.01 0.01 0.01 0.01 0.07 0.15 0.12 0.04 0.00 0.00 0.00 0.00 0.00 0.00 0.00 0.02 0.02 0.00 0.00 0.00 0.00 0.00 0.02 0.00 0.00 0.00 0.01 0.06 0.03 0.01 0.09 0.25 0.31 0.26 0.20 0.61 0.50 0.49 0.46 0.35 0.33 0.29 0.41
0.00 0.01 0.05 0.01 0.01 0.05 0.18 0.10 0.01 0.01 0.00 0.00 0.00 0.00 0.00 0.00 0.00 0.01 0.01 0.00 0.00 0.00 0.00 0.00 0.16 0.04 0.00 0.00 0.00 0.00 0.00 0.00 0.00 0.01 0.08 0.07 0.34 0.66 0.59 0.65 0.57 0.46 0.64 0.72 0.83
0.00 0.02 0.03 0.00 0.01 0.05 0.05 0.00 0.00 0.01 0.00 0.00 0.00 0.00 0.00 0.00 0.00 0.00 0.00 0.00 0.00 0.00 0.00 0.00 0.02 0.02 0.01 0.00 0.00 0.00 0.00 0.00 0.00 0.00 0.00 0.03 0.21 0.38 0.41 0.50 0.60 0.61 0.75 0.86 0.97
0.00 0.03 0.01 0.00 0.01 0.01 0.01 0.02 0.00 0.00 0.00 0.00 0.00 0.00 0.00 0.00 0.00 0.00 0.00 0.00 0.00 0.00 0.00 0.00 0.00 0.01 0.01 0.00 0.00 0.00 0.00 0.00 0.00 0.00 0.00 0.00 0.01 0.03 0.10 0.19 0.31 0.39 0.45 0.50 0.53
0.00 0.00 0.00 0.00 0.00 0.00 0.00 0.01 0.00 0.00 0.00 0.00 0.00 0.00 0.00 0.00 0.00 0.00 0.00 0.00 0.00 0.00 0.00 0.00 0.00 0.00 0.00 0.00 0.00 0.00 0.00 0.00 0.00 0.00 0.00 0.00 0.00 0.00 0.00 0.00 0.01 0.04 0.06 0.05 0.02
0.00 0.00 0.00 0.00 0.00 0.00 0.00 0.00 0.00 0.00 0.00 0.00 0.00 0.00 0.00 0.00 0.00 0.00 0.00 0.00 0.00 0.00 0.00 0.00 0.00 0.00 0.00 0.00 0.00 0.00 0.00 0.00 0.00 0.00 0.00 0.00 0.00 0.00 0.00 0.00 0.00 0.00 0.00 0.00 0.00
0.00 0.00 0.00 0.00 0.00 0.00 0.00 0.00 0.00 0.00 0.00 0.00 0.00 0.00 0.00 0.00 0.00 0.00 0.00 0.00 0.00 0.00 0.00 0.00 0.00 0.00 0.00 0.00 0.00 0.00 0.00 0.00 0.00 0.00 0.00 0.00 0.00 0.00 0.00 0.00 0.00 0.00 0.00 0.00 0.00
0.00 0.00 0.00 0.00 0.00 0.00 0.00 0.00 0.00 0.00 0.00 0.00 0.00 0.00 0.00 0.00 0.00 0.00 0.00 0.00 0.00 0.00 0.00 0.00 0.00 0.00 0.00 0.00 0.00 0.00 0.00 0.00 0.00 0.00 0.00 0.00 0.00 0.00 0.00 0.00 0.00 0.00 0.00 0.00 0.00

GFSSW_prec_precacc24_114.txt.gz
Total_Precipitation_Accumulation
0.23 0.23 0.20 0.21 0.09 0.05 0.07 0.08 0.23 0.32 0.36 0.54 1.41 0.35 0.00 0.00 0.00 0.00 0.00 0.00 0.00 0.00 0.00 0.00 0.00 0.00 0.00 0.00 0.00 0.00 0.00 0.00 0.00 0.00 0.00 0.00 0.00 0.00 0.00 0.00 0.00 0.00 0.00 0.00 0.03
0.28 0.28 0.30 0.33 0.26 0.04 0.02 0.03 0.03 0.20 0.34 0.54 1.81 1.30 0.02 0.00 0.00 0.00 0.00 0.00 0.00 0.00 0.00 0.00 0.00 0.00 0.00 0.00 0.00 0.00 0.00 0.00 0.00 0.00 0.00 0.00 0.00 0.00 0.00 0.00 0.00 0.00 0.00 0.00 0.03
0.14 0.20 0.28 0.35 0.35 0.16 0.03 0.00 0.00 0.08 0.24 0.43 1.34 1.79 0.35 0.00 0.00 0.00 0.00 0.00 0.00 0.00 0.00 0.00 0.00 0.00 0.00 0.00 0.00 0.00 0.00 0.00 0.00 0.00 0.00 0.00 0.00 0.00 0.00 0.00 0.00 0.00 0.00 0.00 0.01
0.10 0.20 0.27 0.29 0.27 0.19 0.09 0.00 0.00 0.07 0.27 0.45 1.45 1.41 0.59 0.01 0.00 0.00 0.00 0.00 0.00 0.00 0.00 0.00 0.00 0.00 0.00 0.00 0.00 0.00 0.00 0.00 0.00 0.00 0.00 0.00 0.00 0.00 0.00 0.00 0.00 0.00 0.00 0.00 0.00
0.10 0.22 0.26 0.21 0.22 0.16 0.08 0.01 0.01 0.01 0.10 0.56 1.33 1.09 0.66 0.17 0.00 0.00 0.00 0.00 0.00 0.00 0.00 0.00 0.00 0.00 0.00 0.00 0.00 0.00 0.00 0.00 0.00 0.00 0.00 0.00 0.00 0.00 0.00 0.00 0.00 0.00 0.00 0.00 0.00
0.11 0.19 0.18 0.18 0.21 0.23 0.11 0.01 0.02 0.04 0.17 0.51 1.18 0.76 0.58 0.37 0.01 0.00 0.00 0.00 0.00 0.00 0.00 0.00 0.00 0.00 0.00 0.00 0.00 0.00 0.00 0.00 0.00 0.00 0.00 0.00 0.00 0.00 0.00 0.00 0.00 0.00 0.00 0.00 0.00
0.08 0.11 0.18 0.13 0.20 0.22 0.07 0.02 0.03 0.12 0.43 0.70 0.98 0.66 0.53 0.43 0.00 0.00 0.00 0.00 0.00 0.00 0.00 0.00 0.00 0.00 0.00 0.00 0.00 0.00 0.00 0.00 0.00 0.00 0.00 0.00 0.00 0.00 0.00 0.00 0.00 0.00 0.00 0.00 0.00
0.16 0.09 0.07 0.10 0.06 0.04 0.00 0.01 0.02 0.17 0.80 0.91 0.86 0.69 0.47 0.19 0.00 0.00 0.00 0.00 0.00 0.00 0.00 0.00 0.00 0.00 0.00 0.00 0.00 0.00 0.00 0.00 0.00 0.00 0.00 0.00 0.00 0.00 0.00 0.00 0.00 0.00 0.00 0.00 0.00
0.13 0.25 0.23 0.08 0.00 0.00 0.03 0.05 0.16 0.41 0.93 1.09 0.76 0.62 0.50 0.11 0.00 0.00 0.00 0.00 0.00 0.00 0.00 0.00 0.00 0.00 0.00 0.00 0.00 0.00 0.00 0.00 0.00 0.00 0.00 0.00 0.00 0.00 0.00 0.00 0.00 0.00 0.00 0.00 0.00
0.09 0.14 0.13 0.01 0.01 0.15 0.55 0.51 0.75 1.13 1.40 0.96 0.65 0.75 0.44 0.09 0.00 0.00 0.00 0.00 0.00 0.00 0.00 0.00 0.00 0.00 0.00 0.00 0.00 0.00 0.00 0.00 0.00 0.00 0.00 0.00 0.00 0.00 0.00 0.00 0.00 0.00 0.00 0.00 0.00
0.06 0.06 0.05 0.04 0.03 0.40 1.04 0.79 0.49 1.44 1.15 1.07 0.66 0.32 0.21 0.03 0.00 0.00 0.00 0.00 0.00 0.00 0.00 0.00 0.00 0.00 0.00 0.00 0.00 0.00 0.00 0.00 0.00 0.00 0.00 0.00 0.00 0.00 0.00 0.00 0.00 0.00 0.00 0.00 0.00
0.02 0.04 0.07 0.09 0.07 0.41 0.66 0.79 0.83 1.33 1.95 0.91 0.29 0.17 0.08 0.00 0.00 0.00 0.00 0.00 0.00 0.00 0.00 0.00 0.00 0.00 0.00 0.00 0.00 0.00 0.00 0.00 0.00 0.00 0.01 0.00 0.00 0.00 0.00 0.00 0.00 0.00 0.01 0.01 0.01
0.01 0.02 0.01 0.02 0.05 0.58 0.61 1.01 0.69 0.43 1.00 1.12 0.28 0.12 0.02 0.00 0.00 0.00 0.00 0.00 0.00 0.00 0.00 0.00 0.00 0.00 0.00 0.00 0.00 0.00 0.01 0.01 0.02 0.02 0.03 0.01 0.00 0.00 0.00 0.00 0.00 0.01 0.04 0.06 0.05
0.00 0.01 0.01 0.01 0.07 0.40 0.84 0.79 0.57 0.24 0.25 0.71 0.13 0.02 0.00 0.00 0.00 0.00 0.00 0.00 0.00 0.00 0.00 0.00 0.00 0.00 0.00 0.00 0.01 0.01 0.00 0.02 0.06 0.16 0.05 0.02 0.04 0.00 0.00 0.00 0.00 0.00 0.07 0.08 0.10
0.00 0.00 0.00 0.00 0.03 0.20 0.40 0.44 0.22 0.06 0.16 0.38 0.06 0.00 0.00 0.00 0.00 0.01 0.00 0.01 0.00 0.00 0.00 0.00 0.00 0.00 0.00 0.00 0.00 0.01 0.01 0.05 0.08 0.10 0.06 0.00 0.03 0.00 0.00 0.01 0.01 0.04 0.04 0.10 0.18
0.03 0.01 0.00 0.00 0.00 0.07 0.20 0.14 0.03 0.01 0.17 0.10 0.01 0.00 0.00 0.01 0.01 0.01 0.00 0.00 0.00 0.00 0.00 0.00 0.00 0.00 0.00 0.00 0.01 0.13 0.16 0.09 0.04 0.06 0.08 0.03 0.01 0.00 0.00 0.02 0.10 0.25 0.13 0.15 0.22
0.08 0.01 0.00 0.00 0.00 0.01 0.01 0.01 0.01 0.07 0.10 0.02 0.01 0.00 0.00 0.01 0.00 0.00 0.00 0.01 0.00 0.00 0.00 0.00 0.00 0.00 0.00 0.00 0.00 0.05 0.15 0.22 0.12 0.12 0.13 0.12 0.13 0.12 0.00 0.04 0.14 0.33 0.10 0.11 0.25
0.01 0.00 0.00 0.00 0.00 0.00 0.00 0.01 0.08 0.16 0.04 0.01 0.00 0.00 0.01 0.00 0.01 0.01 0.01 0.00 0.00 0.00 0.00 0.00 0.00 0.00 0.00 0.00 0.00 0.00 0.21 0.40 0.28 0.30 0.24 0.30 0.37 0.16 0.03 0.03 0.12 0.26 0.11 0.08 0.18
0.00 0.00 0.00 0.00 0.00 0.00 0.00 0.01 0.10 0.05 0.00 0.00 0.00 0.00 0.00 0.00 0.00 0.00 0.00 0.00 0.00 0.00 0.00 0.00 0.00 0.00 0.00 0.00 0.00 0.01 0.07 0.14 0.24 0.25 0.29 0.23 0.28 0.32 0.10 0.03 0.11 0.21 0.22 0.18 0.12
0.00 0.00 0.01 0.00 0.00 0.00 0.00 0.05 0.07 0.01 0.00 0.00 0.00 0.00 0.00 0.00 0.00 0.00 0.00 0.00 0.00 0.00 0.00 0.00 0.01 0.00 0.00 0.00 0.00 0.00 0.00 0.01 0.08 0.17 0.27 0.19 0.15 0.44 0.37 0.44 0.25 0.28 0.32 0.26 0.40
0.00 0.00 0.01 0.00 0.00 0.00 0.01 0.02 0.00 0.00 0.00 0.00 0.00 0.00 0.00 0.00 0.00 0.00 0.00 0.00 0.00 0.00 0.00 0.00 0.09 0.01 0.00 0.00 0.00 0.00 0.00 0.00 0.00 0.01 0.06 0.06 0.29 0.58 0.51 0.57 0.50 0.42 0.63 0.70 0.82
0.00 0.00 0.00 0.00 0.00 0.00 0.00 0.00 0.00 0.00 0.00 0.00 0.00 0.00 0.00 0.00 0.00 0.00 0.00 0.00 0.00 0.00 0.00 0.00 0.00 0.00 0.00 0.00 0.00 0.00 0.00 0.00 0.00 0.00 0.00 0.03 0.19 0.36 0.38 0.49 0.57 0.53 0.68 0.79 0.87
0.00 0.00 0.00 0.00 0.00 0.00 0.00 0.00 0.00 0.00 0.00 0.00 0.00 0.00 0.00 0.00 0.00 0.00 0.00 0.00 0.00 0.00 0.00 0.00 0.00 0.00 0.00 0.00 0.00 0.00 0.00 0.00 0.00 0.00 0.00 0.00 0.01 0.03 0.08 0.18 0.30 0.35 0.41 0.46 0.47
0.00 0.00 0.00 0.00 0.00 0.00 0.00 0.00 0.00 0.00 0.00 0.00 0.00 0.00 0.00 0.00 0.00 0.00 0.00 0.00 0.00 0.00 0.00 0.00 0.00 0.00 0.00 0.00 0.00 0.00 0.00 0.00 0.00 0.00 0.00 0.00 0.00 0.00 0.00 0.00 0.01 0.04 0.06 0.05 0.02
0.00 0.00 0.00 0.00 0.00 0.00 0.00 0.00 0.00 0.00 0.00 0.00 0.00 0.00 0.00 0.00 0.00 0.00 0.00 0.00 0.00 0.00 0.00 0.00 0.00 0.00 0.00 0.00 0.00 0.00 0.00 0.00 0.00 0.00 0.00 0.00 0.00 0.00 0.00 0.00 0.00 0.00 0.00 0.00 0.00
0.00 0.00 0.00 0.00 0.00 0.00 0.00 0.00 0.00 0.00 0.00 0.00 0.00 0.00 0.00 0.00 0.00 0.00 0.00 0.00 0.00 0.00 0.00 0.00 0.00 0.00 0.00 0.00 0.00 0.00 0.00 0.00 0.00 0.00 0.00 0.00 0.00 0.00 0.00 0.00 0.00 0.00 0.00 0.00 0.00
0.00 0.00 0.00 0.00 0.00 0.00 0.00 0.00 0.00 0.00 0.00 0.00 0.00 0.00 0.00 0.00 0.00 0.00 0.00 0.00 0.00 0.00 0.00 0.00 0.00 0.00 0.00 0.00 0.00 0.00 0.00 0.00 0.00 0.00 0.00 0.00 0.00 0.00 0.00 0.00 0.00 0.00 0.00 0.00 0.00

GFSSW_prec_precacc24_117.txt.gz
Total_Precipitation_Accumulation
0.33 0.34 0.42 0.35 0.21 0.09 0.08 0.05 0.01 0.09 0.35 0.55 1.74 0.41 0.00 0.00 0.00 0.00 0.00 0.00 0.00 0.00 0.00 0.00 0.00 0.00 0.00 0.00 0.00 0.00 0.00 0.00 0.00 0.00 0.00 0.00 0.00 0.00 0.00 0.00 0.00 0.00 0.00 0.00 0.02
0.42 0.39 0.53 0.45 0.46 0.12 0.02 0.03 0.01 0.00 0.16 0.52 1.95 1.53 0.03 0.00 0.00 0.00 0.00 0.00 0.00 0.00 0.00 0.00 0.00 0.00 0.00 0.00 0.00 0.00 0.00 0.00 0.00 0.00 0.00 0.00 0.00 0.00 0.00 0.00 0.00 0.00 0.00 0.00 0.03
0.16 0.21 0.30 0.38 0.46 0.20 0.03 0.00 0.00 0.00 0.08 0.41 1.41 1.94 0.36 0.00 0.00 0.00 0.00 0.00 0.00 0.00 0.00 0.00 0.00 0.00 0.00 0.00 0.00 0.00 0.00 0.00 0.00 0.00 0.00 0.00 0.00 0.00 0.00 0.00 0.00 0.00 0.00 0.00 0.00
0.11 0.24 0.31 0.34 0.30 0.20 0.09 0.00 0.00 0.00 0.02 0.36 1.48 1.51 0.63 0.01 0.00 0.00 0.00 0.00 0.00 0.00 0.00 0.00 0.00 0.00 0.00 0.00 0.00 0.00 0.00 0.00 0.00 0.00 0.00 0.00 0.00 0.00 0.00 0.00 0.00 0.00 0.00 0.00 0.00
0.10 0.25 0.33 0.27 0.22 0.16 0.08 0.00 0.00 0.00 0.05 0.50 1.32 1.25 0.74 0.17 0.00 0.00 0.00 0.00 0.00 0.00 0.00 0.00 0.00 0.00 0.00 0.00 0.00 0.00 0.00 0.00 0.00 0.00 0.00 0.00 0.00 0.00 0.00 0.00 0.00 0.00 0.00 0.00 0.00
0.10 0.19 0.18 0.18 0.21 0.23 0.10 0.01 0.01 0.02 0.11 0.49 1.21 0.85 0.67 0.37 0.01 0.00 0.00 0.00 0.00 0.00 0.00 0.00 0.00 0.00 0.00 0.00 0.00 0.00 0.00 0.00 0.00 0.00 0.00 0.00 0.00 0.00 0.00 0.00 0.00 0.00 0.00 0.00 0.00
0.06 0.10 0.18 0.13 0.21 0.22 0.06 0.02 0.03 0.09 0.34 0.66 1.03 0.70 0.66 0.46 0.00 0.00 0.00 0.00 0.00 0.00 0.00 0.00 0.00 0.00 0.00 0.00 0.00 0.00 0.00 0.00 0.00 0.00 0.00 0.00 0.00 0.00 0.00 0.00 0.00 0.00 0.00 0.00 0.00
0.14 0.07 0.07 0.10 0.06 0.04 0.01 0.03 0.02 0.17 0.90 0.92 0.89 0.71 0.51 0.20 0.00 0.00 0.00 0.00 0.00 0.00 0.00 0.00 0.00 0.00 0.00 0.00 0.00 0.00 0.00 0.00 0.00 0.00 0.00 0.00 0.00 0.00 0.00 0.00 0.00 0.00 0.00 0.00 0.00
0.12 0.25 0.23 0.09 0.00 0.00 0.04 0.03 0.08 0.50 1.01 1.07 0.74 0.61 0.53 0.12 0.00 0.00 0.00 0.00 0.00 0.00 0.00 0.00 0.00 0.00 0.00 0.00 0.00 0.00 0.00 0.00 0.00 0.00 0.00 0.00 0.00 0.00 0.00 0.00 0.00 0.00 0.00 0.00 0.00
0.10 0.17 0.16 0.01 0.02 0.12 0.38 0.49 0.63 1.02 1.40 0.94 0.64 0.76 0.48 0.10 0.00 0.00 0.00 0.00 0.00 0.00 0.00 0.00 0.00 0.00 0.00 0.00 0.00 0.00 0.00 0.00 0.00 0.00 0.00 0.00 0.00 0.00 0.00 0.00 0.00 0.00 0.00 0.00 0.00
0.06 0.07 0.06 0.04 0.04 0.26 0.71 0.76 0.49 1.19 1.01 1.08 0.64 0.32 0.22 0.03 0.00 0.00 0.00 0.00 0.00 0.00 0.00 0.00 0.00 0.00 0.00 0.00 0.00 0.00 0.00 0.00 0.00 0.00 0.00 0.00 0.00 0.00 0.00 0.00 0.00 0.00 0.00 0.00 0.00
0.02 0.04 0.07 0.09 0.07 0.31 0.48 0.59 0.80 1.18 1.73 0.83 0.28 0.17 0.08 0.00 0.00 0.00 0.00 0.00 0.00 0.00 0.00 0.00 0.00 0.00 0.00 0.00 0.00 0.00 0.00 0.00 0.00 0.00 0.00 0.00 0.00 0.00 0.00 0.00 0.00 0.00 0.00 0.00 0.00
0.00 0.02 0.01 0.02 0.04 0.56 0.53 0.82 0.62 0.40 0.85 1.04 0.29 0.12 0.02 0.00 0.00 0.00 0.00 0.00 0.00 0.00 0.00 0.00 0.00 0.00 0.00 0.00 0.00 0.00 0.00 0.00 0.00 0.01 0.01 0.01 0.00 0.00 0.00 0.00 0.00 0.00 0.00 0.00 0.00
0.00 0.01 0.01 0.01 0.08 0.39 0.75 0.66 0.44 0.24 0.24 0.73 0.15 0.02 0.00 0.00 0.00 0.00 0.00 0.00 0.00 0.00 0.00 0.00 0.00 0.00 0.00 0.00 0.00 0.00 0.00 0.00 0.02 0.11 0.04 0.01 0.02 0.00 0.00 0.00 0.00 0.00 0.00 0.01 0.03
0.00 0.00 0.00 0.00 0.03 0.19 0.34 0.33 0.17 0.05 0.17 0.40 0.06 0.00 0.00 0.00 0.00 0.00 0.00 0.00 0.00 0.00 0.00 0.00 0.00 0.00 0.00 0.00 0.00 0.00 0.00 0.02 0.05 0.09 0.05 0.00 0.01 0.00 0.00 0.00 0.01 0.04 0.01 0.03 0.10
0.00 0.00 0.00 0.00 0.00 0.05 0.12 0.09 0.01 0.01 0.15 0.08 0.00 0.00 0.00 0.01 0.00 0.01 0.00 0.00 0.00 0.00 0.00 0.00 0.00 0.00 0.00 0.00 0.00 0.00 0.00 0.02 0.03 0.05 0.02 0.00 0.00 0.00 0.00 0.02 0.09 0.21 0.08 0.11 0.20
0.00 0.00 0.00 0.00 0.00 0.00 0.00 0.00 0.00 0.06 0.07 0.01 0.00 0.00 0.00 0.01 0.00 0.00 0.00 0.00 0.00 0.00 0.00 0.00 0.00 0.00 0.00 0.00 0.00 0.00 0.03 0.06 0.03 0.06 0.02 0.05 0.01 0.00 0.00 0.04 0.12 0.25 0.08 0.09 0.25
0.00 0.00 0.00 0.00 0.00 0.00 0.00 0.00 0.04 0.08 0.03 0.00 0.00 0.00 0.00 0.00 0.00 0.00 0.00 0.00 0.00 0.00 0.00 0.00 0.00 0.00 0.00 0.00 0.00 0.00 0.12 0.22 0.13 0.12 0.09 0.09 0.13 0.07 0.02 0.02 0.09 0.19 0.09 0.08 0.18
0.00 0.00 0.00 0.00 0.00 0.00 0.00 0.00 0.03 0.01 0.00 0.00 0.00 0.00 0.00 0.00 0.00 0.00 0.00 0.00 0.00 0.00 0.00 0.00 0.00 0.00 0.00 0.00 0.00 0.00 0.04 0.08 0.12 0.11 0.12 0.08 0.09 0.05 0.01 0.02 0.08 0.17 0.21 0.18 0.12
0.00 0.00 0.00 0.00 0.00 0.00 0.00 0.01 0.00 0.00 0.00 0.00 0.00 0.00 0.00 0.00 0.00 0.00 0.00 0.00 0.00 0.00 0.00 0.00 0.00 0.00 0.00 0.00 0.00 0.00 0.00 0.01 0.05 0.09 0.14 0.12 0.10 0.19 0.13 0.12 0.09 0.17 0.28 0.24 0.32
0.00 0.00 0.00 0.00 0.00 0.00 0.00 0.00 0.00 0.00 0.00 0.00 0.00 0.00 0.00 0.00 0.00 0.00 0.00 0.00 0.00 0.00 0.00 0.00 0.01 0.00 0.00 0.00 0.00 0.00 0.00 0.00 0.00 0.00 0.04 0.05 0.21 0.38 0.27 0.29 0.30 0.32 0.53 0.64 0.78
0.00 0.00 0.00 0.00 0.00 0.00 0.00 0.00 0.00 0.00 0.00 0.00 0.00 0.00 0.00 0.00 0.00 0.00 0.00 0.00 0.00 0.00 0.00 0.00 0.00 0.00 0.00 0.00 0.00 0.00 0.00 0.00 0.00 0.00 0.00 0.02 0.13 0.23 0.27 0.37 0.45 0.44 0.58 0.70 0.79
0.00 0.00 0.00 0.00 0.00 0.00 0.00 0.00 0.00 0.00 0.00 0.00 0.00 0.00 0.00 0.00 0.00 0.00 0.00 0.00 0.00 0.00 0.00 0.00 0.00 0.00 0.00 0.00 0.00 0.00 0.00 0.00 0.00 0.00 0.00 0.00 0.01 0.02 0.05 0.14 0.21 0.24 0.31 0.35 0.36
0.00 0.00 0.00 0.00 0.00 0.00 0.00 0.00 0.00 0.00 0.00 0.00 0.00 0.00 0.00 0.00 0.00 0.00 0.00 0.00 0.00 0.00 0.00 0.00 0.00 0.00 0.00 0.00 0.00 0.00 0.00 0.00 0.00 0.00 0.00 0.00 0.00 0.00 0.00 0.00 0.01 0.04 0.06 0.04 0.01
0.00 0.00 0.00 0.00 0.00 0.00 0.00 0.00 0.00 0.00 0.00 0.00 0.00 0.00 0.00 0.00 0.00 0.00 0.00 0.00 0.00 0.00 0.00 0.00 0.00 0.00 0.00 0.00 0.00 0.00 0.00 0.00 0.00 0.00 0.00 0.00 0.00 0.00 0.00 0.00 0.00 0.00 0.00 0.00 0.00
0.00 0.00 0.00 0.00 0.00 0.00 0.00 0.00 0.00 0.00 0.00 0.00 0.00 0.00 0.00 0.00 0.00 0.00 0.00 0.00 0.00 0.00 0.00 0.00 0.00 0.00 0.00 0.00 0.00 0.00 0.00 0.00 0.00 0.00 0.00 0.00 0.00 0.00 0.00 0.00 0.00 0.00 0.00 0.00 0.00
0.00 0.00 0.00 0.00 0.00 0.00 0.00 0.00 0.00 0.00 0.00 0.00 0.00 0.00 0.00 0.00 0.00 0.00 0.00 0.00 0.00 0.00 0.00 0.00 0.00 0.00 0.00 0.00 0.00 0.00 0.00 0.00 0.00 0.00 0.00 0.00 0.00 0.00 0.00 0.00 0.00 0.00 0.00 0.00 0.00

GFSSW_prec_precacc24_120.txt.gz
Total_Precipitation_Accumulation
0.41 0.70 0.69 0.50 0.32 0.19 0.16 0.06 0.01 0.03 0.25 0.57 2.18 0.42 0.00 0.00 0.00 0.00 0.00 0.00 0.00 0.00 0.00 0.00 0.00 0.00 0.00 0.00 0.00 0.00 0.00 0.00 0.00 0.00 0.00 0.00 0.00 0.00 0.00 0.00 0.00 0.00 0.00 0.00 0.00
0.48 0.49 0.98 0.71 0.71 0.21 0.02 0.03 0.01 0.00 0.06 0.47 2.28 1.65 0.03 0.00 0.00 0.00 0.00 0.00 0.00 0.00 0.00 0.00 0.00 0.00 0.00 0.00 0.00 0.00 0.00 0.00 0.00 0.00 0.00 0.00 0.00 0.00 0.00 0.00 0.00 0.00 0.00 0.00 0.00
0.20 0.26 0.42 0.63 0.73 0.33 0.03 0.00 0.00 0.00 0.01 0.32 1.65 2.09 0.36 0.00 0.00 0.00 0.00 0.00 0.00 0.00 0.00 0.00 0.00 0.00 0.00 0.00 0.00 0.00 0.00 0.00 0.00 0.00 0.00 0.00 0.00 0.00 0.00 0.00 0.00 0.00 0.00 0.00 0.00
0.13 0.35 0.47 0.47 0.40 0.25 0.08 0.00 0.00 0.02 0.04 0.35 1.55 1.55 0.63 0.01 0.00 0.00 0.00 0.00 0.00 0.00 0.00 0.00 0.00 0.00 0.00 0.00 0.00 0.00 0.00 0.00 0.00 0.00 0.00 0.00 0.00 0.00 0.00 0.00 0.00 0.00 0.00 0.00 0.00
0.10 0.28 0.40 0.33 0.24 0.16 0.07 0.00 0.00 0.03 0.06 0.47 1.23 1.24 0.74 0.17 0.00 0.00 0.00 0.00 0.00 0.00 0.00 0.00 0.00 0.00 0.00 0.00 0.00 0.00 0.00 0.00 0.00 0.00 0.00 0.00 0.00 0.00 0.00 0.00 0.00 0.00 0.00 0.00 0.00
0.09 0.16 0.16 0.18 0.21 0.23 0.10 0.01 0.02 0.07 0.13 0.41 1.18 0.81 0.67 0.37 0.01 0.00 0.00 0.00 0.00 0.00 0.00 0.00 0.00 0.00 0.00 0.00 0.00 0.00 0.00 0.00 0.00 0.00 0.00 0.00 0.00 0.00 0.00 0.00 0.00 0.00 0.00 0.00 0.00
0.03 0.07 0.16 0.14 0.20 0.22 0.06 0.02 0.08 0.17 0.31 0.55 0.99 0.70 0.67 0.46 0.00 0.00 0.00 0.00 0.00 0.00 0.00 0.00 0.00 0.00 0.00 0.00 0.00 0.00 0.00 0.00 0.00 0.00 0.00 0.00 0.00 0.00 0.00 0.00 0.00 0.00 0.00 0.00 0.00
0.04 0.04 0.07 0.10 0.06 0.04 0.01 0.05 0.10 0.27 0.88 0.82 0.84 0.69 0.52 0.20 0.00 0.00 0.00 0.00 0.00 0.00 0.00 0.00 0.00 0.00 0.00 0.00 0.00 0.00 0.00 0.00 0.00 0.00 0.00 0.00 0.00 0.00 0.00 0.00 0.00 0.00 0.00 0.00 0.00
0.07 0.17 0.21 0.09 0.00 0.03 0.08 0.09 0.19 0.54 0.93 1.02 0.71 0.59 0.54 0.12 0.00 0.00 0.00 0.00 0.00 0.00 0.00 0.00 0.00 0.00 0.00 0.00 0.00 0.00 0.00 0.00 0.00 0.00 0.00 0.00 0.00 0.00 0.00 0.00 0.00 0.00 0.00 0.00 0.00
0.10 0.14 0.14 0.01 0.04 0.14 0.25 0.36 0.49 0.88 1.30 0.89 0.62 0.70 0.46 0.10 0.00 0.00 0.00 0.00 0.00 0.00 0.00 0.00 0.00 0.00 0.00 0.00 0.00 0.00 0.00 0.00 0.00 0.00 0.00 0.00 0.00 0.00 0.00 0.00 0.00 0.00 0.00 0.00 0.00
0.06 0.07 0.05 0.05 0.06 0.19 0.45 0.48 0.41 1.13 0.92 1.03 0.61 0.32 0.21 0.03 0.00 0.00 0.00 0.00 0.00 0.00 0.00 0.00 0.00 0.00 0.00 0.00 0.00 0.00 0.00 0.00 0.00 0.00 0.00 0.00 0.00 0.00 0.00 0.00 0.00 0.00 0.00 0.00 0.00
0.02 0.04 0.07 0.09 0.06 0.14 0.33 0.22 0.57 0.90 1.50 0.81 0.26 0.17 0.08 0.00 0.00 0.00 0.00 0.00 0.00 0.00 0.00 0.00 0.00 0.00 0.00 0.00 0.00 0.00 0.00 0.00 0.00 0.00 0.00 0.00 0.00 0.00 0.00 0.00 0.00 0.00 0.00 0.00 0.00
0.00 0.02 0.01 0.02 0.03 0.27 0.44 0.55 0.41 0.11 0.68 0.94 0.27 0.12 0.02 0.00 0.00 0.00 0.00 0.00 0.00 0.00 0.00 0.00 0.00 0.00 0.00 0.00 0.00 0.00 0.00 0.00 0.00 0.00 0.00 0.00 0.00 0.00 0.00 0.00 0.00 0.00 0.00 0.00 0.00
0.00 0.01 0.01 0.02 0.08 0.36 0.70 0.47 0.29 0.11 0.15 0.60 0.13 0.02 0.00 0.00 0.00 0.00 0.00 0.00 0.00 0.00 0.00 0.00 0.00 0.00 0.00 0.00 0.00 0.00 0.00 0.00 0.00 0.03 0.03 0.01 0.02 0.00 0.00 0.00 0.00 0.00 0.00 0.00 0.00
0.00 0.00 0.01 0.01 0.06 0.21 0.32 0.23 0.12 0.04 0.15 0.33 0.05 0.00 0.00 0.00 0.00 0.00 0.00 0.00 0.00 0.00 0.00 0.00 0.00 0.00 0.00 0.00 0.00 0.00 0.00 0.00 0.00 0.03 0.04 0.00 0.01 0.00 0.00 0.00 0.01 0.04 0.01 0.02 0.08
0.00 0.00 0.00 0.00 0.00 0.05 0.12 0.06 0.01 0.00 0.12 0.06 0.00 0.00 0.00 0.00 0.00 0.00 0.00 0.00 0.00 0.00 0.00 0.00 0.00 0.00 0.00 0.00 0.00 0.00 0.00 0.00 0.00 0.01 0.01 0.00 0.00 0.00 0.00 0.01 0.09 0.21 0.06 0.07 0.15
0.00 0.00 0.00 0.00 0.00 0.00 0.00 0.00 0.00 0.05 0.04 0.00 0.00 0.00 0.00 0.00 0.00 0.00 0.00 0.00 0.00 0.00 0.00 0.00 0.00 0.00 0.00 0.00 0.00 0.00 0.01 0.01 0.00 0.00 0.00 0.01 0.01 0.00 0.00 0.02 0.09 0.23 0.06 0.04 0.18
0.00 0.00 0.00 0.00 0.00 0.00 0.00 0.00 0.02 0.05 0.02 0.00 0.00 0.00 0.00 0.00 0.00 0.00 0.00 0.00 0.00 0.00 0.00 0.00 0.00 0.00 0.00 0.00 0.00 0.00 0.03 0.07 0.04 0.01 0.01 0.01 0.02 0.02 0.01 0.01 0.05 0.14 0.08 0.07 0.15
0.00 0.00 0.00 0.00 0.00 0.00 0.00 0.00 0.01 0.00 0.00 0.00 0.00 0.00 0.00 0.00 0.00 0.00 0.00 0.00 0.00 0.00 0.00 0.00 0.00 0.00 0.00 0.00 0.00 0.00 0.01 0.03 0.06 0.02 0.08 0.03 0.03 0.02 0.01 0.02 0.07 0.12 0.18 0.15 0.11
0.00 0.00 0.00 0.00 0.00 0.00 0.00 0.00 0.00 0.00 0.00 0.00 0.00 0.00 0.00 0.00 0.00 0.00 0.00 0.00 0.00 0.00 0.00 0.00 0.00 0.00 0.00 0.00 0.00 0.00 0.00 0.01 0.04 0.05 0.06 0.04 0.05 0.09 0.03 0.03 0.05 0.13 0.25 0.21 0.27
0.00 0.00 0.00 0.00 0.00 0.00 0.00 0.00 0.00 0.00 0.00 0.00 0.00 0.00 0.00 0.00 0.00 0.00 0.00 0.00 0.00 0.00 0.00 0.00 0.00 0.00 0.00 0.00 0.00 0.00 0.00 0.00 0.00 0.00 0.03 0.03 0.09 0.16 0.10 0.10 0.11 0.13 0.31 0.44 0.50
0.00 0.00 0.00 0.00 0.00 0.00 0.00 0.00 0.00 0.00 0.00 0.00 0.00 0.00 0.00 0.00 0.00 0.00 0.00 0.00 0.00 0.00 0.00 0.00 0.00 0.00 0.00 0.00 0.00 0.00 0.00 0.00 0.00 0.00 0.00 0.02 0.06 0.06 0.07 0.12 0.19 0.27 0.38 0.49 0.58
0.00 0.00 0.00 0.00 0.00 0.00 0.00 0.00 0.00 0.00 0.00 0.00 0.00 0.00 0.00 0.00 0.00 0.00 0.00 0.00 0.00 0.00 0.00 0.00 0.00 0.00 0.00 0.00 0.00 0.00 0.00 0.00 0.00 0.00 0.00 0.00 0.00 0.00 0.02 0.06 0.10 0.16 0.24 0.25 0.24
0.00 0.00 0.00 0.00 0.00 0.00 0.00 0.00 0.00 0.00 0.00 0.00 0.00 0.00 0.00 0.00 0.00 0.00 0.00 0.00 0.00 0.00 0.00 0.00 0.00 0.00 0.00 0.00 0.00 0.00 0.00 0.00 0.00 0.00 0.00 0.00 0.00 0.00 0.00 0.00 0.01 0.02 0.03 0.02 0.01
0.00 0.00 0.00 0.00 0.00 0.00 0.00 0.00 0.00 0.00 0.00 0.00 0.00 0.00 0.00 0.00 0.00 0.00 0.00 0.00 0.00 0.00 0.00 0.00 0.00 0.00 0.00 0.00 0.00 0.00 0.00 0.00 0.00 0.00 0.00 0.00 0.00 0.00 0.00 0.00 0.00 0.00 0.00 0.00 0.00
0.00 0.00 0.00 0.00 0.00 0.00 0.00 0.00 0.00 0.00 0.00 0.00 0.00 0.00 0.00 0.00 0.00 0.00 0.00 0.00 0.00 0.00 0.00 0.00 0.00 0.00 0.00 0.00 0.00 0.00 0.00 0.00 0.00 0.00 0.00 0.00 0.00 0.00 0.00 0.00 0.00 0.00 0.00 0.00 0.00
0.00 0.00 0.00 0.00 0.00 0.00 0.00 0.00 0.00 0.00 0.00 0.00 0.00 0.00 0.00 0.00 0.00 0.00 0.00 0.00 0.00 0.00 0.00 0.00 0.00 0.00 0.00 0.00 0.00 0.00 0.00 0.00 0.00 0.00 0.00 0.00 0.00 0.00 0.00 0.00 0.00 0.00 0.00 0.00 0.00

GFSSW_prec_precacc24_123.txt.gz
Total_Precipitation_Accumulation
0.51 1.07 0.95 0.70 0.46 0.26 0.22 0.07 0.01 0.03 0.23 0.66 2.42 0.42 0.00 0.00 0.00 0.00 0.00 0.00 0.00 0.00 0.00 0.00 0.00 0.00 0.00 0.00 0.00 0.00 0.00 0.00 0.00 0.00 0.00 0.00 0.00 0.00 0.00 0.00 0.00 0.00 0.00 0.00 0.00
0.56 0.98 1.91 0.89 0.92 0.29 0.03 0.03 0.01 0.00 0.09 0.58 2.53 1.62 0.03 0.00 0.00 0.00 0.00 0.00 0.00 0.00 0.00 0.00 0.00 0.00 0.00 0.00 0.00 0.00 0.00 0.00 0.00 0.00 0.00 0.00 0.00 0.00 0.00 0.00 0.00 0.00 0.00 0.00 0.00
0.23 0.36 0.71 0.87 0.87 0.39 0.02 0.00 0.00 0.00 0.09 0.53 1.65 2.04 0.36 0.00 0.00 0.00 0.00 0.00 0.00 0.00 0.00 0.00 0.00 0.00 0.00 0.00 0.00 0.00 0.00 0.00 0.00 0.00 0.00 0.00 0.00 0.00 0.00 0.00 0.00 0.00 0.00 0.00 0.00
0.18 0.44 0.57 0.63 0.52 0.31 0.08 0.00 0.00 0.03 0.12 0.47 1.46 1.46 0.62 0.01 0.00 0.00 0.00 0.00 0.00 0.00 0.00 0.00 0.00 0.00 0.00 0.00 0.00 0.00 0.00 0.00 0.00 0.00 0.00 0.00 0.00 0.00 0.00 0.00 0.00 0.00 0.00 0.00 0.00
0.10 0.31 0.39 0.36 0.26 0.18 0.07 0.00 0.00 0.06 0.15 0.52 1.14 1.15 0.74 0.17 0.00 0.00 0.00 0.00 0.00 0.00 0.00 0.00 0.00 0.00 0.00 0.00 0.00 0.00 0.00 0.00 0.00 0.00 0.00 0.00 0.00 0.00 0.00 0.00 0.00 0.00 0.00 0.00 0.00
0.04 0.11 0.11 0.13 0.20 0.23 0.10 0.01 0.03 0.10 0.16 0.42 1.05 0.72 0.65 0.37 0.01 0.00 0.00 0.00 0.00 0.00 0.00 0.00 0.00 0.00 0.00 0.00 0.00 0.00 0.00 0.00 0.00 0.00 0.00 0.00 0.00 0.00 0.00 0.00 0.00 0.00 0.00 0.00 0.00
0.02 0.05 0.14 0.14 0.20 0.22 0.07 0.05 0.14 0.20 0.33 0.47 0.86 0.67 0.66 0.46 0.00 0.00 0.00 0.00 0.00 0.00 0.00 0.00 0.00 0.00 0.00 0.00 0.00 0.00 0.00 0.00 0.00 0.00 0.00 0.00 0.00 0.00 0.00 0.00 0.00 0.00 0.00 0.00 0.00
0.03 0.03 0.06 0.09 0.06 0.05 0.08 0.19 0.20 0.28 0.89 0.59 0.68 0.67 0.51 0.20 0.00 0.00 0.00 0.00 0.00 0.00 0.00 0.00 0.00 0.00 0.00 0.00 0.00 0.00 0.00 0.00 0.00 0.00 0.00 0.00 0.00 0.00 0.00 0.00 0.00 0.00 0.00 0.00 0.00
0.07 0.13 0.18 0.08 0.03 0.08 0.18 0.19 0.24 0.55 0.88 0.76 0.51 0.52 0.53 0.11 0.00 0.00 0.00 0.00 0.00 0.00 0.00 0.00 0.00 0.00 0.00 0.00 0.00 0.00 0.00 0.00 0.00 0.00 0.00 0.00 0.00 0.00 0.00 0.00 0.00 0.00 0.00 0.00 0.00
0.10 0.14 0.14 0.04 0.06 0.14 0.21 0.34 0.47 0.74 1.14 0.77 0.57 0.65 0.44 0.10 0.00 0.00 0.00 0.00 0.00 0.00 0.00 0.00 0.00 0.00 0.00 0.00 0.00 0.00 0.00 0.00 0.00 0.00 0.00 0.00 0.00 0.00 0.00 0.00 0.00 0.00 0.00 0.00 0.00
0.05 0.06 0.05 0.05 0.06 0.17 0.32 0.36 0.33 1.02 0.86 0.96 0.57 0.28 0.21 0.03 0.00 0.00 0.00 0.00 0.00 0.00 0.00 0.00 0.00 0.00 0.00 0.00 0.00 0.00 0.00 0.00 0.00 0.00 0.00 0.00 0.00 0.00 0.00 0.00 0.00 0.00 0.00 0.00 0.00
0.02 0.03 0.08 0.09 0.06 0.06 0.09 0.09 0.39 0.79 1.33 0.71 0.25 0.16 0.07 0.00 0.00 0.00 0.00 0.00 0.00 0.00 0.00 0.00 0.00 0.00 0.00 0.00 0.00 0.00 0.00 0.00 0.00 0.00 0.00 0.00 0.00 0.00 0.00 0.00 0.00 0.00 0.00 0.00 0.00
0.01 0.02 0.01 0.02 0.02 0.14 0.16 0.28 0.29 0.08 0.53 0.81 0.24 0.12 0.02 0.00 0.00 0.00 0.00 0.00 0.00 0.00 0.00 0.00 0.00 0.00 0.00 0.00 0.00 0.00 0.00 0.00 0.00 0.00 0.00 0.00 0.00 0.00 0.00 0.00 0.00 0.00 0.00 0.00 0.00
0.00 0.01 0.01 0.01 0.05 0.29 0.49 0.28 0.16 0.03 0.10 0.47 0.10 0.02 0.00 0.00 0.00 0.00 0.00 0.00 0.00 0.00 0.00 0.00 0.00 0.00 0.00 0.00 0.00 0.00 0.00 0.00 0.00 0.01 0.01 0.01 0.01 0.00 0.00 0.00 0.00 0.00 0.00 0.00 0.00
0.00 0.00 0.01 0.01 0.06 0.19 0.21 0.07 0.01 0.00 0.14 0.24 0.03 0.00 0.00 0.00 0.00 0.00 0.00 0.00 0.00 0.00 0.00 0.00 0.00 0.00 0.00 0.00 0.00 0.00 0.00 0.00 0.00 0.02 0.02 0.00 0.01 0.00 0.00 0.00 0.01 0.03 0.01 0.01 0.03
0.00 0.00 0.00 0.00 0.00 0.04 0.04 0.02 0.00 0.00 0.10 0.04 0.00 0.00 0.00 0.00 0.00 0.00 0.00 0.00 0.00 0.00 0.00 0.00 0.00 0.00 0.00 0.00 0.00 0.00 0.00 0.00 0.00 0.01 0.00 0.00 0.00 0.00 0.00 0.00 0.05 0.18 0.04 0.02 0.08
0.00 0.00 0.00 0.00 0.00 0.00 0.00 0.00 0.00 0.03 0.02 0.00 0.00 0.00 0.00 0.00 0.00 0.00 0.00 0.00 0.00 0.00 0.00 0.00 0.00 0.00 0.00 0.00 0.00 0.00 0.00 0.00 0.00 0.00 0.00 0.00 0.00 0.00 0.00 0.00 0.03 0.19 0.05 0.03 0.14
0.00 0.00 0.00 0.00 0.00 0.00 0.00 0.00 0.01 0.03 0.01 0.00 0.00 0.00 0.00 0.00 0.00 0.00 0.00 0.00 0.00 0.00 0.00 0.00 0.00 0.00 0.00 0.00 0.00 0.00 0.00 0.01 0.01 0.00 0.00 0.00 0.01 0.01 0.01 0.00 0.02 0.09 0.07 0.06 0.12
0.00 0.00 0.00 0.00 0.00 0.00 0.00 0.00 0.01 0.00 0.00 0.00 0.00 0.00 0.00 0.00 0.00 0.00 0.00 0.00 0.00 0.00 0.00 0.00 0.00 0.00 0.00 0.00 0.00 0.00 0.00 0.01 0.02 0.00 0.02 0.01 0.02 0.00 0.01 0.01 0.05 0.07 0.16 0.14 0.09
0.00 0.00 0.00 0.00 0.00 0.00 0.00 0.00 0.00 0.00 0.00 0.00 0.00 0.00 0.00 0.00 0.00 0.00 0.00 0.00 0.00 0.00 0.00 0.00 0.00 0.00 0.00 0.00 0.00 0.00 0.00 0.00 0.01 0.02 0.01 0.00 0.02 0.05 0.02 0.02 0.03 0.08 0.20 0.18 0.25
0.00 0.00 0.00 0.00 0.00 0.00 0.00 0.00 0.00 0.00 0.00 0.00 0.00 0.00 0.00 0.00 0.00 0.00 0.00 0.00 0.00 0.00 0.00 0.00 0.00 0.00 0.00 0.00 0.00 0.00 0.00 0.00 0.00 0.00 0.01 0.01 0.02 0.06 0.03 0.03 0.04 0.06 0.20 0.31 0.36
0.00 0.00 0.00 0.00 0.00 0.00 0.00 0.00 0.00 0.00 0.00 0.00 0.00 0.00 0.00 0.00 0.00 0.00 0.00 0.00 0.00 0.00 0.00 0.00 0.00 0.00 0.00 0.00 0.00 0.00 0.00 0.00 0.00 0.00 0.00 0.01 0.01 0.01 0.00 0.02 0.04 0.09 0.16 0.22 0.26
0.00 0.00 0.00 0.00 0.00 0.00 0.00 0.00 0.00 0.00 0.00 0.00 0.00 0.00 0.00 0.00 0.00 0.00 0.00 0.00 0.00 0.00 0.00 0.00 0.00 0.00 0.00 0.00 0.00 0.00 0.00 0.00 0.00 0.00 0.00 0.00 0.00 0.00 0.00 0.01 0.01 0.03 0.07 0.08 0.09
0.00 0.00 0.00 0.00 0.00 0.00 0.00 0.00 0.00 0.00 0.00 0.00 0.00 0.00 0.00 0.00 0.00 0.00 0.00 0.00 0.00 0.00 0.00 0.00 0.00 0.00 0.00 0.00 0.00 0.00 0.00 0.00 0.00 0.00 0.00 0.00 0.00 0.00 0.00 0.00 0.00 0.00 0.00 0.00 0.00
0.00 0.00 0.00 0.00 0.00 0.00 0.00 0.00 0.00 0.00 0.00 0.00 0.00 0.00 0.00 0.00 0.00 0.00 0.00 0.00 0.00 0.00 0.00 0.00 0.00 0.00 0.00 0.00 0.00 0.00 0.00 0.00 0.00 0.00 0.00 0.00 0.00 0.00 0.00 0.00 0.00 0.00 0.00 0.00 0.00
0.00 0.00 0.00 0.00 0.00 0.00 0.00 0.00 0.00 0.00 0.00 0.00 0.00 0.00 0.00 0.00 0.00 0.00 0.00 0.00 0.00 0.00 0.00 0.00 0.00 0.00 0.00 0.00 0.00 0.00 0.00 0.00 0.00 0.00 0.00 0.00 0.00 0.00 0.00 0.00 0.00 0.00 0.00 0.00 0.00
0.00 0.00 0.00 0.00 0.00 0.00 0.00 0.00 0.00 0.00 0.00 0.00 0.00 0.00 0.00 0.00 0.00 0.00 0.00 0.00 0.00 0.00 0.00 0.00 0.00 0.00 0.00 0.00 0.00 0.00 0.00 0.00 0.00 0.00 0.00 0.00 0.00 0.00 0.00 0.00 0.00 0.00 0.00 0.00 0.00

GFSSW_prec_precacc24_126.txt.gz
Total_Precipitation_Accumulation
0.52 1.07 1.05 0.83 0.53 0.37 0.30 0.12 0.03 0.04 0.21 0.54 2.43 0.42 0.00 0.00 0.00 0.00 0.00 0.00 0.00 0.00 0.00 0.00 0.00 0.00 0.00 0.00 0.00 0.00 0.00 0.00 0.00 0.00 0.00 0.00 0.00 0.00 0.00 0.00 0.00 0.00 0.00 0.00 0.00
0.54 1.34 2.57 1.11 1.10 0.45 0.05 0.03 0.02 0.01 0.15 0.62 2.14 1.55 0.03 0.00 0.00 0.00 0.00 0.00 0.00 0.00 0.00 0.00 0.00 0.00 0.00 0.00 0.00 0.00 0.00 0.00 0.00 0.00 0.00 0.00 0.00 0.00 0.00 0.00 0.00 0.00 0.00 0.00 0.00
0.36 0.84 1.17 1.17 0.99 0.45 0.02 0.00 0.00 0.03 0.19 0.86 1.50 1.72 0.32 0.00 0.00 0.00 0.00 0.00 0.00 0.00 0.00 0.00 0.00 0.00 0.00 0.00 0.00 0.00 0.00 0.00 0.00 0.00 0.00 0.00 0.00 0.00 0.00 0.00 0.00 0.00 0.00 0.00 0.00
0.39 0.56 0.61 0.69 0.52 0.32 0.08 0.00 0.01 0.09 0.22 0.71 1.38 1.09 0.59 0.01 0.00 0.00 0.00 0.00 0.00 0.00 0.00 0.00 0.00 0.00 0.00 0.00 0.00 0.00 0.00 0.00 0.00 0.00 0.00 0.00 0.00 0.00 0.00 0.00 0.00 0.00 0.00 0.00 0.00
0.12 0.30 0.37 0.31 0.21 0.18 0.07 0.01 0.02 0.11 0.29 0.69 0.99 1.04 0.63 0.16 0.00 0.00 0.00 0.00 0.00 0.00 0.00 0.00 0.00 0.00 0.00 0.00 0.00 0.00 0.00 0.00 0.00 0.00 0.00 0.00 0.00 0.00 0.00 0.00 0.00 0.00 0.00 0.00 0.00
0.03 0.07 0.05 0.06 0.15 0.22 0.12 0.07 0.08 0.13 0.22 0.59 0.77 0.67 0.58 0.32 0.01 0.00 0.00 0.00 0.00 0.00 0.00 0.00 0.00 0.00 0.00 0.00 0.00 0.00 0.00 0.00 0.00 0.00 0.00 0.00 0.00 0.00 0.00 0.00 0.00 0.00 0.00 0.00 0.00
0.02 0.03 0.07 0.08 0.18 0.23 0.16 0.17 0.22 0.21 0.36 0.62 0.59 0.49 0.49 0.39 0.00 0.00 0.00 0.00 0.00 0.00 0.00 0.00 0.00 0.00 0.00 0.00 0.00 0.00 0.00 0.00 0.00 0.00 0.00 0.00 0.00 0.00 0.00 0.00 0.00 0.00 0.00 0.00 0.00
0.03 0.03 0.05 0.09 0.11 0.14 0.20 0.24 0.21 0.31 0.90 0.58 0.49 0.40 0.42 0.13 0.00 0.00 0.00 0.00 0.00 0.00 0.00 0.00 0.00 0.00 0.00 0.00 0.00 0.00 0.00 0.00 0.00 0.00 0.00 0.00 0.00 0.00 0.00 0.00 0.00 0.00 0.00 0.00 0.00
0.07 0.14 0.13 0.13 0.15 0.20 0.24 0.20 0.25 0.56 0.88 0.49 0.39 0.36 0.47 0.09 0.00 0.00 0.00 0.00 0.00 0.00 0.00 0.00 0.00 0.00 0.00 0.00 0.00 0.00 0.00 0.00 0.00 0.00 0.00 0.00 0.00 0.00 0.00 0.00 0.00 0.00 0.00 0.00 0.00
0.10 0.15 0.12 0.04 0.08 0.19 0.21 0.30 0.48 0.74 1.01 0.46 0.45 0.47 0.43 0.10 0.00 0.00 0.00 0.00 0.00 0.00 0.00 0.00 0.00 0.00 0.00 0.00 0.00 0.00 0.00 0.00 0.00 0.00 0.00 0.00 0.00 0.00 0.00 0.00 0.00 0.00 0.00 0.00 0.00
0.05 0.06 0.05 0.04 0.06 0.17 0.29 0.33 0.32 0.88 0.70 0.72 0.44 0.17 0.20 0.03 0.00 0.00 0.00 0.00 0.00 0.00 0.00 0.00 0.00 0.00 0.00 0.00 0.00 0.00 0.00 0.00 0.00 0.00 0.00 0.00 0.00 0.00 0.00 0.00 0.00 0.00 0.00 0.00 0.00
0.02 0.03 0.07 0.08 0.05 0.05 0.08 0.09 0.34 0.60 1.10 0.61 0.23 0.14 0.07 0.00 0.00 0.00 0.00 0.00 0.00 0.00 0.00 0.00 0.00 0.00 0.00 0.00 0.00 0.00 0.00 0.00 0.00 0.00 0.00 0.00 0.00 0.00 0.00 0.00 0.00 0.00 0.00 0.00 0.00
0.01 0.02 0.01 0.01 0.02 0.07 0.09 0.22 0.20 0.06 0.43 0.60 0.19 0.08 0.01 0.00 0.00 0.00 0.00 0.00 0.00 0.00 0.00 0.00 0.00 0.00 0.00 0.00 0.00 0.00 0.00 0.00 0.00 0.00 0.00 0.00 0.00 0.00 0.00 0.00 0.00 0.00 0.00 0.00 0.00
0.00 0.01 0.01 0.01 0.04 0.20 0.29 0.18 0.09 0.01 0.07 0.34 0.08 0.02 0.00 0.00 0.00 0.00 0.00 0.00 0.00 0.00 0.00 0.00 0.00 0.00 0.00 0.00 0.00 0.00 0.00 0.00 0.00 0.00 0.00 0.00 0.01 0.00 0.00 0.00 0.00 0.00 0.00 0.00 0.00
0.00 0.00 0.01 0.01 0.04 0.07 0.03 0.01 0.00 0.00 0.11 0.17 0.01 0.00 0.00 0.00 0.00 0.00 0.00 0.00 0.00 0.00 0.00 0.00 0.00 0.00 0.00 0.00 0.00 0.00 0.00 0.00 0.00 0.01 0.01 0.00 0.01 0.00 0.00 0.00 0.00 0.02 0.01 0.00 0.01
0.00 0.00 0.00 0.00 0.00 0.00 0.00 0.00 0.00 0.00 0.09 0.02 0.00 0.00 0.00 0.00 0.00 0.00 0.00 0.00 0.00 0.00 0.00 0.00 0.00 0.00 0.00 0.00 0.00 0.00 0.00 0.00 0.00 0.00 0.00 0.00 0.00 0.00 0.00 0.00 0.00 0.04 0.02 0.01 0.03
0.00 0.00 0.00 0.00 0.00 0.00 0.00 0.00 0.00 0.02 0.02 0.00 0.00 0.00 0.00 0.00 0.00 0.00 0.00 0.00 0.00 0.00 0.00 0.00 0.00 0.00 0.00 0.00 0.00 0.00 0.00 0.00 0.00 0.00 0.00 0.00 0.00 0.00 0.00 0.00 0.00 0.03 0.02 0.02 0.10
0.00 0.00 0.00 0.00 0.00 0.00 0.00 0.00 0.01 0.02 0.01 0.00 0.00 0.00 0.00 0.00 0.00 0.00 0.00 0.00 0.00 0.00 0.00 0.00 0.00 0.00 0.00 0.00 0.00 0.00 0.00 0.00 0.00 0.00 0.00 0.00 0.00 0.00 0.00 0.00 0.01 0.02 0.02 0.05 0.06
0.00 0.00 0.00 0.00 0.00 0.00 0.00 0.00 0.00 0.00 0.00 0.00 0.00 0.00 0.00 0.00 0.00 0.00 0.00 0.00 0.00 0.00 0.00 0.00 0.00 0.00 0.00 0.00 0.00 0.00 0.00 0.00 0.01 0.00 0.01 0.00 0.00 0.00 0.00 0.01 0.03 0.02 0.09 0.09 0.06
0.00 0.00 0.00 0.00 0.00 0.00 0.00 0.00 0.00 0.00 0.00 0.00 0.00 0.00 0.00 0.00 0.00 0.00 0.00 0.00 0.00 0.00 0.00 0.00 0.00 0.00 0.00 0.00 0.00 0.00 0.00 0.00 0.01 0.01 0.00 0.00 0.00 0.00 0.00 0.00 0.02 0.03 0.09 0.12 0.17
0.00 0.00 0.00 0.00 0.00 0.00 0.00 0.00 0.00 0.00 0.00 0.00 0.00 0.00 0.00 0.00 0.00 0.00 0.00 0.00 0.00 0.00 0.00 0.00 0.00 0.00 0.00 0.00 0.00 0.00 0.00 0.00 0.00 0.00 0.00 0.00 0.00 0.00 0.01 0.00 0.01 0.02 0.07 0.12 0.14
0.00 0.00 0.00 0.00 0.00 0.00 0.00 0.00 0.00 0.00 0.00 0.00 0.00 0.00 0.00 0.00 0.00 0.00 0.00 0.00 0.00 0.00 0.00 0.00 0.00 0.00 0.00 0.00 0.00 0.00 0.00 0.00 0.00 0.00 0.00 0.00 0.00 0.00 0.00 0.00 0.00 0.01 0.03 0.04 0.07
0.00 0.00 0.00 0.00 0.00 0.00 0.00 0.00 0.00 0.00 0.00 0.00 0.00 0.00 0.00 0.00 0.00 0.00 0.00 0.00 0.00 0.00 0.00 0.00 0.00 0.00 0.00 0.00 0.00 0.00 0.00 0.00 0.00 0.00 0.00 0.00 0.00 0.00 0.00 0.00 0.00 0.00 0.00 0.01 0.01
0.00 0.00 0.00 0.00 0.00 0.00 0.00 0.00 0.00 0.00 0.00 0.00 0.00 0.00 0.00 0.00 0.00 0.00 0.00 0.00 0.00 0.00 0.00 0.00 0.00 0.00 0.00 0.00 0.00 0.00 0.00 0.00 0.00 0.00 0.00 0.00 0.00 0.00 0.00 0.00 0.00 0.00 0.00 0.00 0.00
0.00 0.00 0.00 0.00 0.00 0.00 0.00 0.00 0.00 0.00 0.00 0.00 0.00 0.00 0.00 0.00 0.00 0.00 0.00 0.00 0.00 0.00 0.00 0.00 0.00 0.00 0.00 0.00 0.00 0.00 0.00 0.00 0.00 0.00 0.00 0.00 0.00 0.00 0.00 0.00 0.00 0.00 0.00 0.00 0.00
0.00 0.00 0.00 0.00 0.00 0.00 0.00 0.00 0.00 0.00 0.00 0.00 0.00 0.00 0.00 0.00 0.00 0.00 0.00 0.00 0.00 0.00 0.00 0.00 0.00 0.00 0.00 0.00 0.00 0.00 0.00 0.00 0.00 0.00 0.00 0.00 0.00 0.00 0.00 0.00 0.00 0.00 0.00 0.00 0.00
0.00 0.00 0.00 0.00 0.00 0.00 0.00 0.00 0.00 0.00 0.00 0.00 0.00 0.00 0.00 0.00 0.00 0.00 0.00 0.00 0.00 0.00 0.00 0.00 0.00 0.00 0.00 0.00 0.00 0.00 0.00 0.00 0.00 0.00 0.00 0.00 0.00 0.00 0.00 0.00 0.00 0.00 0.00 0.00 0.00

GFSSW_prec_precacc24_129.txt.gz
Total_Precipitation_Accumulation
0.47 1.00 1.03 0.88 0.58 0.38 0.39 0.17 0.04 0.04 0.15 0.50 2.23 0.53 0.00 0.00 0.00 0.00 0.00 0.00 0.00 0.00 0.00 0.00 0.00 0.00 0.00 0.00 0.00 0.00 0.00 0.00 0.00 0.00 0.00 0.00 0.00 0.00 0.00 0.00 0.00 0.00 0.00 0.00 0.00
0.72 1.54 2.50 1.21 1.26 0.56 0.19 0.10 0.03 0.03 0.16 0.69 1.68 1.40 0.03 0.00 0.00 0.00 0.00 0.00 0.00 0.00 0.00 0.00 0.00 0.00 0.00 0.00 0.00 0.00 0.00 0.00 0.00 0.00 0.00 0.00 0.00 0.00 0.00 0.00 0.00 0.00 0.00 0.00 0.00
0.64 1.60 1.47 1.25 1.10 0.54 0.03 0.01 0.00 0.06 0.26 1.11 1.34 1.31 0.30 0.00 0.00 0.00 0.00 0.00 0.00 0.00 0.00 0.00 0.00 0.00 0.00 0.00 0.00 0.00 0.00 0.00 0.00 0.00 0.00 0.00 0.00 0.00 0.00 0.00 0.00 0.00 0.00 0.00 0.00
0.42 0.74 0.81 0.70 0.58 0.34 0.12 0.06 0.06 0.17 0.26 1.02 1.27 0.71 0.43 0.01 0.00 0.00 0.00 0.00 0.00 0.00 0.00 0.00 0.00 0.00 0.00 0.00 0.00 0.00 0.00 0.00 0.00 0.00 0.00 0.00 0.00 0.00 0.00 0.00 0.00 0.00 0.00 0.00 0.00
0.11 0.30 0.37 0.29 0.14 0.14 0.10 0.05 0.05 0.16 0.29 0.79 0.84 0.73 0.47 0.09 0.00 0.00 0.00 0.00 0.00 0.00 0.00 0.00 0.00 0.00 0.00 0.00 0.00 0.00 0.00 0.00 0.00 0.00 0.00 0.00 0.00 0.00 0.00 0.00 0.00 0.00 0.00 0.00 0.00
0.01 0.03 0.05 0.06 0.03 0.19 0.18 0.14 0.14 0.14 0.23 0.63 0.71 0.51 0.45 0.21 0.00 0.00 0.00 0.00 0.00 0.00 0.00 0.00 0.00 0.00 0.00 0.00 0.00 0.00 0.00 0.00 0.00 0.00 0.00 0.00 0.00 0.00 0.00 0.00 0.00 0.00 0.00 0.00 0.00
0.02 0.02 0.06 0.08 0.13 0.24 0.28 0.27 0.25 0.18 0.39 0.69 0.57 0.37 0.46 0.27 0.00 0.00 0.00 0.00 0.00 0.00 0.00 0.00 0.00 0.00 0.00 0.00 0.00 0.00 0.00 0.00 0.00 0.00 0.00 0.00 0.00 0.00 0.00 0.00 0.00 0.00 0.00 0.00 0.00
0.05 0.04 0.06 0.09 0.13 0.21 0.26 0.27 0.25 0.32 0.96 0.73 0.48 0.33 0.38 0.09 0.00 0.00 0.00 0.00 0.00 0.00 0.00 0.00 0.00 0.00 0.00 0.00 0.00 0.00 0.00 0.00 0.00 0.00 0.00 0.00 0.00 0.00 0.00 0.00 0.00 0.00 0.00 0.00 0.00
0.07 0.11 0.14 0.15 0.16 0.21 0.25 0.19 0.25 0.55 0.91 0.47 0.41 0.28 0.34 0.04 0.00 0.00 0.00 0.00 0.00 0.00 0.00 0.00 0.00 0.00 0.00 0.00 0.00 0.00 0.00 0.00 0.00 0.00 0.00 0.00 0.00 0.00 0.00 0.00 0.00 0.00 0.00 0.00 0.00
0.09 0.10 0.08 0.04 0.08 0.17 0.17 0.26 0.43 0.70 0.87 0.34 0.45 0.32 0.30 0.07 0.00 0.00 0.00 0.00 0.00 0.00 0.00 0.00 0.00 0.00 0.00 0.00 0.00 0.00 0.00 0.00 0.00 0.00 0.00 0.00 0.00 0.00 0.00 0.00 0.00 0.00 0.00 0.00 0.00
0.05 0.05 0.03 0.05 0.06 0.15 0.20 0.29 0.28 0.70 0.44 0.58 0.38 0.13 0.16 0.03 0.00 0.00 0.00 0.00 0.00 0.00 0.00 0.00 0.00 0.00 0.00 0.00 0.00 0.00 0.00 0.00 0.00 0.00 0.00 0.00 0.00 0.00 0.00 0.00 0.00 0.00 0.00 0.00 0.00
0.02 0.03 0.05 0.08 0.06 0.07 0.10 0.08 0.18 0.40 0.80 0.39 0.16 0.12 0.06 0.00 0.00 0.00 0.00 0.00 0.00 0.00 0.00 0.00 0.00 0.00 0.00 0.00 0.00 0.00 0.00 0.00 0.00 0.00 0.00 0.00 0.00 0.00 0.00 0.00 0.00 0.00 0.00 0.00 0.00
0.00 0.01 0.00 0.02 0.03 0.06 0.06 0.10 0.07 0.01 0.29 0.41 0.16 0.08 0.01 0.00 0.00 0.00 0.00 0.00 0.00 0.00 0.00 0.00 0.00 0.00 0.00 0.00 0.00 0.00 0.00 0.00 0.00 0.00 0.00 0.00 0.00 0.00 0.00 0.00 0.00 0.00 0.00 0.00 0.00
0.00 0.00 0.00 0.00 0.04 0.18 0.19 0.08 0.05 0.00 0.05 0.23 0.07 0.02 0.00 0.00 0.00 0.00 0.00 0.00 0.00 0.00 0.00 0.00 0.00 0.00 0.00 0.00 0.00 0.00 0.00 0.00 0.00 0.00 0.00 0.00 0.00 0.00 0.00 0.00 0.00 0.00 0.00 0.00 0.00
0.00 0.00 0.00 0.01 0.04 0.05 0.02 0.00 0.00 0.00 0.10 0.12 0.01 0.00 0.00 0.00 0.00 0.00 0.00 0.00 0.00 0.00 0.00 0.00 0.00 0.00 0.00 0.00 0.00 0.00 0.00 0.00 0.00 0.00 0.00 0.00 0.00 0.00 0.00 0.00 0.00 0.00 0.00 0.00 0.00
0.00 0.00 0.00 0.00 0.00 0.00 0.00 0.00 0.00 0.00 0.07 0.02 0.00 0.00 0.00 0.00 0.00 0.00 0.00 0.00 0.00 0.00 0.00 0.00 0.00 0.00 0.00 0.00 0.00 0.00 0.00 0.00 0.00 0.00 0.00 0.00 0.00 0.00 0.00 0.00 0.00 0.00 0.00 0.00 0.00
0.00 0.00 0.00 0.00 0.00 0.00 0.00 0.00 0.00 0.02 0.01 0.00 0.00 0.00 0.00 0.00 0.00 0.00 0.00 0.00 0.00 0.00 0.00 0.00 0.00 0.00 0.00 0.00 0.00 0.00 0.00 0.00 0.00 0.00 0.00 0.00 0.00 0.00 0.00 0.00 0.00 0.01 0.00 0.00 0.01
0.00 0.00 0.00 0.00 0.00 0.00 0.00 0.00 0.00 0.01 0.01 0.00 0.00 0.00 0.00 0.00 0.00 0.00 0.00 0.00 0.00 0.00 0.00 0.00 0.00 0.00 0.00 0.00 0.00 0.00 0.00 0.00 0.00 0.00 0.00 0.00 0.00 0.00 0.00 0.00 0.00 0.00 0.00 0.01 0.01
0.00 0.00 0.00 0.00 0.00 0.00 0.00 0.00 0.00 0.00 0.00 0.00 0.00 0.00 0.00 0.00 0.00 0.00 0.00 0.00 0.00 0.00 0.00 0.00 0.00 0.00 0.00 0.00 0.00 0.00 0.00 0.00 0.01 0.00 0.00 0.00 0.00 0.00 0.00 0.00 0.00 0.00 0.00 0.01 0.02
0.00 0.00 0.00 0.00 0.00 0.00 0.00 0.00 0.00 0.00 0.00 0.00 0.00 0.00 0.00 0.00 0.00 0.00 0.00 0.00 0.00 0.00 0.00 0.00 0.00 0.00 0.00 0.00 0.00 0.00 0.00 0.00 0.01 0.00 0.00 0.00 0.00 0.00 0.00 0.00 0.00 0.00 0.00 0.02 0.04
0.00 0.00 0.00 0.00 0.00 0.00 0.00 0.00 0.00 0.00 0.00 0.00 0.00 0.00 0.00 0.00 0.00 0.00 0.00 0.00 0.00 0.00 0.00 0.00 0.00 0.00 0.00 0.00 0.00 0.00 0.00 0.00 0.00 0.00 0.00 0.00 0.00 0.00 0.00 0.00 0.00 0.00 0.00 0.01 0.02
0.00 0.00 0.00 0.00 0.00 0.00 0.00 0.00 0.00 0.00 0.00 0.00 0.00 0.00 0.00 0.00 0.00 0.00 0.00 0.00 0.00 0.00 0.00 0.00 0.00 0.00 0.00 0.00 0.00 0.00 0.00 0.00 0.00 0.00 0.00 0.00 0.00 0.00 0.00 0.00 0.00 0.00 0.00 0.00 0.00
0.00 0.00 0.00 0.00 0.00 0.00 0.00 0.00 0.00 0.00 0.00 0.00 0.00 0.00 0.00 0.00 0.00 0.00 0.00 0.00 0.00 0.00 0.00 0.00 0.00 0.00 0.00 0.00 0.00 0.00 0.00 0.00 0.00 0.00 0.00 0.00 0.00 0.00 0.00 0.00 0.00 0.00 0.00 0.00 0.00
0.00 0.00 0.00 0.00 0.00 0.00 0.00 0.00 0.00 0.00 0.00 0.00 0.00 0.00 0.00 0.00 0.00 0.00 0.00 0.00 0.00 0.00 0.00 0.00 0.00 0.00 0.00 0.00 0.00 0.00 0.00 0.00 0.00 0.00 0.00 0.00 0.00 0.00 0.00 0.00 0.00 0.00 0.00 0.00 0.00
0.00 0.00 0.00 0.00 0.00 0.00 0.00 0.00 0.00 0.00 0.00 0.00 0.00 0.00 0.00 0.00 0.00 0.00 0.00 0.00 0.00 0.00 0.00 0.00 0.00 0.00 0.00 0.00 0.00 0.00 0.00 0.00 0.00 0.00 0.00 0.00 0.00 0.00 0.00 0.00 0.00 0.00 0.00 0.00 0.00
0.00 0.00 0.00 0.00 0.00 0.00 0.00 0.00 0.00 0.00 0.00 0.00 0.00 0.00 0.00 0.00 0.00 0.00 0.00 0.00 0.00 0.00 0.00 0.00 0.00 0.00 0.00 0.00 0.00 0.00 0.00 0.00 0.00 0.00 0.00 0.00 0.00 0.00 0.00 0.00 0.00 0.00 0.00 0.00 0.00
0.00 0.00 0.00 0.00 0.00 0.00 0.00 0.00 0.00 0.00 0.00 0.00 0.00 0.00 0.00 0.00 0.00 0.00 0.00 0.00 0.00 0.00 0.00 0.00 0.00 0.00 0.00 0.00 0.00 0.00 0.00 0.00 0.00 0.00 0.00 0.00 0.00 0.00 0.00 0.00 0.00 0.00 0.00 0.00 0.00

GFSSW_prec_precacc24_132.txt.gz
Total_Precipitation_Accumulation
0.60 1.03 0.98 0.83 0.63 0.45 0.39 0.16 0.04 0.04 0.15 0.48 2.23 0.64 0.00 0.00 0.00 0.00 0.00 0.00 0.00 0.00 0.00 0.00 0.00 0.00 0.00 0.00 0.00 0.00 0.00 0.00 0.00 0.00 0.00 0.00 0.00 0.00 0.00 0.00 0.00 0.00 0.00 0.00 0.00
0.92 1.57 2.45 1.16 1.35 0.64 0.19 0.10 0.05 0.03 0.16 0.71 1.71 1.26 0.02 0.00 0.00 0.00 0.00 0.00 0.00 0.00 0.00 0.00 0.00 0.00 0.00 0.00 0.00 0.00 0.00 0.00 0.00 0.00 0.00 0.00 0.00 0.00 0.00 0.00 0.00 0.00 0.00 0.00 0.00
1.18 1.84 1.54 1.31 1.18 0.55 0.05 0.10 0.05 0.06 0.32 1.17 1.32 1.06 0.15 0.00 0.00 0.00 0.00 0.00 0.00 0.00 0.00 0.00 0.00 0.00 0.00 0.00 0.00 0.00 0.00 0.00 0.00 0.00 0.00 0.00 0.00 0.00 0.00 0.00 0.00 0.00 0.00 0.00 0.00
0.50 0.87 0.90 0.72 0.54 0.28 0.12 0.12 0.15 0.23 0.44 1.07 1.08 0.65 0.27 0.00 0.00 0.00 0.00 0.00 0.00 0.00 0.00 0.00 0.00 0.00 0.00 0.00 0.00 0.00 0.00 0.00 0.00 0.00 0.00 0.00 0.00 0.00 0.00 0.00 0.00 0.00 0.00 0.00 0.00
0.11 0.29 0.38 0.30 0.14 0.24 0.18 0.10 0.13 0.18 0.38 0.86 0.62 0.55 0.31 0.07 0.00 0.00 0.00 0.00 0.00 0.00 0.00 0.00 0.00 0.00 0.00 0.00 0.00 0.00 0.00 0.00 0.00 0.00 0.00 0.00 0.00 0.00 0.00 0.00 0.00 0.00 0.00 0.00 0.00
0.03 0.03 0.08 0.11 0.14 0.26 0.20 0.20 0.18 0.15 0.25 0.78 0.40 0.24 0.29 0.13 0.00 0.00 0.00 0.00 0.00 0.00 0.00 0.00 0.00 0.00 0.00 0.00 0.00 0.00 0.00 0.00 0.00 0.00 0.00 0.00 0.00 0.00 0.00 0.00 0.00 0.00 0.00 0.00 0.00
0.06 0.07 0.19 0.25 0.26 0.26 0.34 0.33 0.25 0.17 0.36 0.73 0.30 0.15 0.29 0.17 0.00 0.00 0.00 0.00 0.00 0.00 0.00 0.00 0.00 0.00 0.00 0.00 0.00 0.00 0.00 0.00 0.00 0.00 0.00 0.00 0.00 0.00 0.00 0.00 0.00 0.00 0.00 0.00 0.00
0.10 0.05 0.07 0.17 0.32 0.32 0.31 0.28 0.25 0.30 0.94 0.65 0.23 0.16 0.24 0.04 0.00 0.00 0.00 0.00 0.00 0.00 0.00 0.00 0.00 0.00 0.00 0.00 0.00 0.00 0.00 0.00 0.00 0.00 0.00 0.00 0.00 0.00 0.00 0.00 0.00 0.00 0.00 0.00 0.00
0.06 0.07 0.08 0.13 0.20 0.26 0.27 0.20 0.24 0.52 0.80 0.33 0.18 0.20 0.22 0.03 0.00 0.00 0.00 0.00 0.00 0.00 0.00 0.00 0.00 0.00 0.00 0.00 0.00 0.00 0.00 0.00 0.00 0.00 0.00 0.00 0.00 0.00 0.00 0.00 0.00 0.00 0.00 0.00 0.00
0.08 0.08 0.07 0.04 0.08 0.15 0.16 0.22 0.33 0.60 0.78 0.19 0.29 0.27 0.23 0.05 0.00 0.00 0.00 0.00 0.00 0.00 0.00 0.00 0.00 0.00 0.00 0.00 0.00 0.00 0.00 0.00 0.00 0.00 0.00 0.00 0.00 0.00 0.00 0.00 0.00 0.00 0.00 0.00 0.00
0.05 0.04 0.03 0.04 0.05 0.11 0.14 0.15 0.21 0.53 0.32 0.42 0.33 0.10 0.12 0.02 0.00 0.00 0.00 0.00 0.00 0.00 0.00 0.00 0.00 0.00 0.00 0.00 0.00 0.00 0.00 0.00 0.00 0.00 0.00 0.00 0.00 0.00 0.00 0.00 0.00 0.00 0.00 0.00 0.00
0.02 0.02 0.05 0.07 0.03 0.05 0.08 0.05 0.11 0.25 0.56 0.32 0.16 0.10 0.05 0.00 0.00 0.00 0.00 0.00 0.00 0.00 0.00 0.00 0.00 0.00 0.00 0.00 0.00 0.00 0.00 0.00 0.00 0.00 0.00 0.00 0.00 0.00 0.00 0.00 0.00 0.00 0.00 0.00 0.00
0.00 0.01 0.00 0.02 0.02 0.05 0.04 0.04 0.04 0.01 0.18 0.28 0.14 0.07 0.01 0.00 0.00 0.00 0.00 0.00 0.00 0.00 0.00 0.00 0.00 0.00 0.00 0.00 0.00 0.00 0.00 0.00 0.00 0.00 0.00 0.00 0.00 0.00 0.00 0.00 0.00 0.00 0.00 0.00 0.00
0.00 0.00 0.00 0.00 0.04 0.13 0.10 0.04 0.02 0.00 0.03 0.16 0.07 0.02 0.00 0.00 0.00 0.00 0.00 0.00 0.00 0.00 0.00 0.00 0.00 0.00 0.00 0.00 0.00 0.00 0.00 0.00 0.00 0.00 0.00 0.00 0.00 0.00 0.00 0.00 0.00 0.00 0.00 0.00 0.00
0.00 0.00 0.00 0.01 0.04 0.04 0.01 0.00 0.00 0.00 0.08 0.09 0.01 0.00 0.00 0.00 0.00 0.00 0.00 0.00 0.00 0.00 0.00 0.00 0.00 0.00 0.00 0.00 0.00 0.00 0.00 0.00 0.00 0.00 0.00 0.00 0.00 0.00 0.00 0.00 0.00 0.00 0.00 0.00 0.00
0.00 0.00 0.00 0.00 0.00 0.00 0.00 0.00 0.00 0.00 0.04 0.01 0.00 0.00 0.00 0.00 0.00 0.00 0.00 0.00 0.00 0.00 0.00 0.00 0.00 0.00 0.00 0.00 0.00 0.00 0.00 0.00 0.00 0.00 0.00 0.00 0.00 0.00 0.00 0.00 0.00 0.00 0.00 0.00 0.00
0.00 0.00 0.00 0.00 0.00 0.00 0.00 0.00 0.00 0.01 0.00 0.00 0.00 0.00 0.00 0.00 0.00 0.00 0.00 0.00 0.00 0.00 0.00 0.00 0.00 0.00 0.00 0.00 0.00 0.00 0.00 0.00 0.00 0.00 0.00 0.00 0.00 0.00 0.00 0.00 0.00 0.00 0.00 0.00 0.00
0.00 0.00 0.00 0.00 0.00 0.00 0.00 0.00 0.00 0.01 0.00 0.00 0.00 0.00 0.00 0.00 0.00 0.00 0.00 0.00 0.00 0.00 0.00 0.00 0.00 0.00 0.00 0.00 0.00 0.00 0.00 0.00 0.00 0.00 0.00 0.00 0.00 0.00 0.00 0.00 0.00 0.00 0.00 0.00 0.00
0.00 0.00 0.00 0.00 0.00 0.00 0.00 0.00 0.00 0.00 0.00 0.00 0.00 0.00 0.00 0.00 0.00 0.00 0.00 0.00 0.00 0.00 0.00 0.00 0.00 0.00 0.00 0.00 0.00 0.00 0.00 0.00 0.00 0.00 0.00 0.00 0.00 0.00 0.00 0.00 0.00 0.00 0.00 0.00 0.00
0.00 0.00 0.00 0.00 0.00 0.00 0.00 0.00 0.00 0.00 0.00 0.00 0.00 0.00 0.00 0.00 0.00 0.00 0.00 0.00 0.00 0.00 0.00 0.00 0.00 0.00 0.00 0.00 0.00 0.00 0.00 0.00 0.00 0.00 0.00 0.00 0.00 0.00 0.00 0.00 0.00 0.00 0.00 0.00 0.00
0.00 0.00 0.00 0.00 0.00 0.00 0.00 0.00 0.00 0.00 0.00 0.00 0.00 0.00 0.00 0.00 0.00 0.00 0.00 0.00 0.00 0.00 0.00 0.00 0.00 0.00 0.00 0.00 0.00 0.00 0.00 0.00 0.00 0.00 0.00 0.00 0.00 0.00 0.00 0.00 0.00 0.00 0.00 0.00 0.00
0.00 0.00 0.00 0.00 0.00 0.00 0.00 0.00 0.00 0.00 0.00 0.00 0.00 0.00 0.00 0.00 0.00 0.00 0.00 0.00 0.00 0.00 0.00 0.00 0.00 0.00 0.00 0.00 0.00 0.00 0.00 0.00 0.00 0.00 0.00 0.00 0.00 0.00 0.00 0.00 0.00 0.00 0.00 0.00 0.00
0.00 0.00 0.00 0.00 0.00 0.00 0.00 0.00 0.00 0.00 0.00 0.00 0.00 0.00 0.00 0.00 0.00 0.00 0.00 0.00 0.00 0.00 0.00 0.00 0.00 0.00 0.00 0.00 0.00 0.00 0.00 0.00 0.00 0.00 0.00 0.00 0.00 0.00 0.00 0.00 0.00 0.00 0.00 0.00 0.00
0.00 0.00 0.00 0.00 0.00 0.00 0.00 0.00 0.00 0.00 0.00 0.00 0.00 0.00 0.00 0.00 0.00 0.00 0.00 0.00 0.00 0.00 0.00 0.00 0.00 0.00 0.00 0.00 0.00 0.00 0.00 0.00 0.00 0.00 0.00 0.00 0.00 0.00 0.00 0.00 0.00 0.00 0.00 0.00 0.00
0.00 0.00 0.00 0.00 0.00 0.00 0.00 0.00 0.00 0.00 0.00 0.00 0.00 0.00 0.00 0.00 0.00 0.00 0.00 0.00 0.00 0.00 0.00 0.00 0.00 0.00 0.00 0.00 0.00 0.00 0.00 0.00 0.00 0.00 0.00 0.00 0.00 0.00 0.00 0.00 0.00 0.00 0.00 0.00 0.00
0.00 0.00 0.00 0.00 0.00 0.00 0.00 0.00 0.00 0.00 0.00 0.00 0.00 0.00 0.00 0.00 0.00 0.00 0.00 0.00 0.00 0.00 0.00 0.00 0.00 0.00 0.00 0.00 0.00 0.00 0.00 0.00 0.00 0.00 0.00 0.00 0.00 0.00 0.00 0.00 0.00 0.00 0.00 0.00 0.00
0.00 0.00 0.00 0.00 0.00 0.00 0.00 0.00 0.00 0.00 0.00 0.00 0.00 0.00 0.00 0.00 0.00 0.00 0.00 0.00 0.00 0.00 0.00 0.00 0.00 0.00 0.00 0.00 0.00 0.00 0.00 0.00 0.00 0.00 0.00 0.00 0.00 0.00 0.00 0.00 0.00 0.00 0.00 0.00 0.00